<?xml version="1.0" encoding="UTF-8" standalone="no" ?>
<gpx xmlns="http://www.topografix.com/GPX/1/1" xmlns:xsi="http://www.w3.org/2001/XMLSchema-instance" xsi:schemaLocation="http://www.topografix.com/GPX/1/1 http://www.topografix.com/GPX/1/1/gpx.xsd" version="1.1" creator="VisuGPX - https://www.visugpx.com">
  <metadata>
    <name>Enduro ROUBION 2015</name>
    <desc><![CDATA[Tracé GPX de l\'Enduro de Roubion 2015 (dimanche)]]></desc>
  </metadata>
  <trk>
    <name><![CDATA[Enduro Roubion 2015]]></name>
    <trkseg>
      <trkpt lat="44.07232" lon="7.02906">
        <ele>1729.55</ele>
        <time>2015-06-14T07:11:03Z</time>
      </trkpt>
      <trkpt lat="44.07234" lon="7.02911">
        <ele>1729.55</ele>
        <time>2015-06-14T07:11:09Z</time>
      </trkpt>
      <trkpt lat="44.07235" lon="7.0292">
        <ele>1729.55</ele>
        <time>2015-06-14T07:11:13Z</time>
      </trkpt>
      <trkpt lat="44.07232" lon="7.02957">
        <ele>1728.59</ele>
        <time>2015-06-14T07:11:24Z</time>
      </trkpt>
      <trkpt lat="44.07232" lon="7.02955">
        <ele>1728.11</ele>
        <time>2015-06-14T07:11:41Z</time>
      </trkpt>
      <trkpt lat="44.07231" lon="7.02956">
        <ele>1728.11</ele>
        <time>2015-06-14T07:12:02Z</time>
      </trkpt>
      <trkpt lat="44.07231" lon="7.02954">
        <ele>1728.11</ele>
        <time>2015-06-14T07:12:09Z</time>
      </trkpt>
      <trkpt lat="44.07231" lon="7.02953">
        <ele>1728.11</ele>
        <time>2015-06-14T07:12:11Z</time>
      </trkpt>
      <trkpt lat="44.07233" lon="7.0295">
        <ele>1728.11</ele>
        <time>2015-06-14T07:12:23Z</time>
      </trkpt>
      <trkpt lat="44.07231" lon="7.02955">
        <ele>1728.11</ele>
        <time>2015-06-14T07:12:41Z</time>
      </trkpt>
      <trkpt lat="44.07228" lon="7.02958">
        <ele>1727.63</ele>
        <time>2015-06-14T07:12:55Z</time>
      </trkpt>
      <trkpt lat="44.07229" lon="7.02957">
        <ele>1727.15</ele>
        <time>2015-06-14T07:13:22Z</time>
      </trkpt>
      <trkpt lat="44.07229" lon="7.02959">
        <ele>1727.15</ele>
        <time>2015-06-14T07:13:42Z</time>
      </trkpt>
      <trkpt lat="44.07224" lon="7.02979">
        <ele>1724.26</ele>
        <time>2015-06-14T07:13:48Z</time>
      </trkpt>
      <trkpt lat="44.07217" lon="7.02986">
        <ele>1723.3</ele>
        <time>2015-06-14T07:13:50Z</time>
      </trkpt>
      <trkpt lat="44.07211" lon="7.02986">
        <ele>1722.34</ele>
        <time>2015-06-14T07:13:51Z</time>
      </trkpt>
      <trkpt lat="44.07206" lon="7.02986">
        <ele>1721.86</ele>
        <time>2015-06-14T07:13:52Z</time>
      </trkpt>
      <trkpt lat="44.07199" lon="7.02986">
        <ele>1720.42</ele>
        <time>2015-06-14T07:13:53Z</time>
      </trkpt>
      <trkpt lat="44.07191" lon="7.02984">
        <ele>1719.46</ele>
        <time>2015-06-14T07:13:54Z</time>
      </trkpt>
      <trkpt lat="44.07185" lon="7.0298">
        <ele>1719.46</ele>
        <time>2015-06-14T07:13:55Z</time>
      </trkpt>
      <trkpt lat="44.0718" lon="7.02976">
        <ele>1719.46</ele>
        <time>2015-06-14T07:13:56Z</time>
      </trkpt>
      <trkpt lat="44.07176" lon="7.02974">
        <ele>1719.46</ele>
        <time>2015-06-14T07:13:57Z</time>
      </trkpt>
      <trkpt lat="44.07158" lon="7.02965">
        <ele>1720.9</ele>
        <time>2015-06-14T07:14:06Z</time>
      </trkpt>
      <trkpt lat="44.07156" lon="7.02964">
        <ele>1720.9</ele>
        <time>2015-06-14T07:14:07Z</time>
      </trkpt>
      <trkpt lat="44.07125" lon="7.02965">
        <ele>1721.38</ele>
        <time>2015-06-14T07:14:20Z</time>
      </trkpt>
      <trkpt lat="44.07092" lon="7.02977">
        <ele>1721.38</ele>
        <time>2015-06-14T07:14:34Z</time>
      </trkpt>
      <trkpt lat="44.07042" lon="7.02966">
        <ele>1718.01</ele>
        <time>2015-06-14T07:14:46Z</time>
      </trkpt>
      <trkpt lat="44.07032" lon="7.02963">
        <ele>1718.01</ele>
        <time>2015-06-14T07:14:48Z</time>
      </trkpt>
      <trkpt lat="44.07027" lon="7.02963">
        <ele>1717.53</ele>
        <time>2015-06-14T07:14:49Z</time>
      </trkpt>
      <trkpt lat="44.07022" lon="7.02965">
        <ele>1717.53</ele>
        <time>2015-06-14T07:14:50Z</time>
      </trkpt>
      <trkpt lat="44.07017" lon="7.02967">
        <ele>1717.53</ele>
        <time>2015-06-14T07:14:51Z</time>
      </trkpt>
      <trkpt lat="44.07014" lon="7.02969">
        <ele>1717.53</ele>
        <time>2015-06-14T07:14:52Z</time>
      </trkpt>
      <trkpt lat="44.0701" lon="7.02971">
        <ele>1717.53</ele>
        <time>2015-06-14T07:14:53Z</time>
      </trkpt>
      <trkpt lat="44.07006" lon="7.02972">
        <ele>1717.53</ele>
        <time>2015-06-14T07:14:54Z</time>
      </trkpt>
      <trkpt lat="44.06988" lon="7.03006">
        <ele>1716.09</ele>
        <time>2015-06-14T07:15:03Z</time>
      </trkpt>
      <trkpt lat="44.06979" lon="7.03037">
        <ele>1714.65</ele>
        <time>2015-06-14T07:15:08Z</time>
      </trkpt>
      <trkpt lat="44.06976" lon="7.03044">
        <ele>1714.17</ele>
        <time>2015-06-14T07:15:09Z</time>
      </trkpt>
      <trkpt lat="44.06965" lon="7.03061">
        <ele>1714.17</ele>
        <time>2015-06-14T07:15:12Z</time>
      </trkpt>
      <trkpt lat="44.06937" lon="7.0309">
        <ele>1712.73</ele>
        <time>2015-06-14T07:15:19Z</time>
      </trkpt>
      <trkpt lat="44.06915" lon="7.03103">
        <ele>1712.73</ele>
        <time>2015-06-14T07:15:28Z</time>
      </trkpt>
      <trkpt lat="44.06891" lon="7.03117">
        <ele>1712.73</ele>
        <time>2015-06-14T07:15:39Z</time>
      </trkpt>
      <trkpt lat="44.06885" lon="7.03121">
        <ele>1714.17</ele>
        <time>2015-06-14T07:15:42Z</time>
      </trkpt>
      <trkpt lat="44.06866" lon="7.03142">
        <ele>1716.09</ele>
        <time>2015-06-14T07:15:55Z</time>
      </trkpt>
      <trkpt lat="44.06861" lon="7.03148">
        <ele>1716.57</ele>
        <time>2015-06-14T07:15:59Z</time>
      </trkpt>
      <trkpt lat="44.06859" lon="7.0315">
        <ele>1716.57</ele>
        <time>2015-06-14T07:16:00Z</time>
      </trkpt>
      <trkpt lat="44.06858" lon="7.03152">
        <ele>1716.57</ele>
        <time>2015-06-14T07:16:01Z</time>
      </trkpt>
      <trkpt lat="44.06836" lon="7.0318">
        <ele>1718.01</ele>
        <time>2015-06-14T07:16:14Z</time>
      </trkpt>
      <trkpt lat="44.06815" lon="7.03211">
        <ele>1719.94</ele>
        <time>2015-06-14T07:16:29Z</time>
      </trkpt>
      <trkpt lat="44.06808" lon="7.03222">
        <ele>1720.9</ele>
        <time>2015-06-14T07:16:35Z</time>
      </trkpt>
      <trkpt lat="44.06806" lon="7.03223">
        <ele>1720.9</ele>
        <time>2015-06-14T07:16:36Z</time>
      </trkpt>
      <trkpt lat="44.06793" lon="7.03237">
        <ele>1722.82</ele>
        <time>2015-06-14T07:16:46Z</time>
      </trkpt>
      <trkpt lat="44.06781" lon="7.03256">
        <ele>1724.26</ele>
        <time>2015-06-14T07:16:57Z</time>
      </trkpt>
      <trkpt lat="44.06766" lon="7.03298">
        <ele>1724.26</ele>
        <time>2015-06-14T07:17:07Z</time>
      </trkpt>
      <trkpt lat="44.06765" lon="7.03305">
        <ele>1722.82</ele>
        <time>2015-06-14T07:17:08Z</time>
      </trkpt>
      <trkpt lat="44.06764" lon="7.03312">
        <ele>1722.82</ele>
        <time>2015-06-14T07:17:09Z</time>
      </trkpt>
      <trkpt lat="44.06763" lon="7.03319">
        <ele>1722.34</ele>
        <time>2015-06-14T07:17:10Z</time>
      </trkpt>
      <trkpt lat="44.06761" lon="7.03327">
        <ele>1722.34</ele>
        <time>2015-06-14T07:17:11Z</time>
      </trkpt>
      <trkpt lat="44.06759" lon="7.03335">
        <ele>1721.86</ele>
        <time>2015-06-14T07:17:12Z</time>
      </trkpt>
      <trkpt lat="44.06751" lon="7.03369">
        <ele>1721.86</ele>
        <time>2015-06-14T07:17:17Z</time>
      </trkpt>
      <trkpt lat="44.06749" lon="7.03375">
        <ele>1721.38</ele>
        <time>2015-06-14T07:17:18Z</time>
      </trkpt>
      <trkpt lat="44.06742" lon="7.03394">
        <ele>1720.9</ele>
        <time>2015-06-14T07:17:21Z</time>
      </trkpt>
      <trkpt lat="44.06739" lon="7.03399">
        <ele>1720.9</ele>
        <time>2015-06-14T07:17:22Z</time>
      </trkpt>
      <trkpt lat="44.06732" lon="7.03411">
        <ele>1720.42</ele>
        <time>2015-06-14T07:17:24Z</time>
      </trkpt>
      <trkpt lat="44.06729" lon="7.03416">
        <ele>1719.94</ele>
        <time>2015-06-14T07:17:25Z</time>
      </trkpt>
      <trkpt lat="44.06726" lon="7.03421">
        <ele>1719.94</ele>
        <time>2015-06-14T07:17:26Z</time>
      </trkpt>
      <trkpt lat="44.06718" lon="7.03433">
        <ele>1719.46</ele>
        <time>2015-06-14T07:17:28Z</time>
      </trkpt>
      <trkpt lat="44.06712" lon="7.03449">
        <ele>1718.01</ele>
        <time>2015-06-14T07:17:30Z</time>
      </trkpt>
      <trkpt lat="44.0671" lon="7.03459">
        <ele>1717.05</ele>
        <time>2015-06-14T07:17:31Z</time>
      </trkpt>
      <trkpt lat="44.06708" lon="7.03469">
        <ele>1716.57</ele>
        <time>2015-06-14T07:17:32Z</time>
      </trkpt>
      <trkpt lat="44.06705" lon="7.0349">
        <ele>1715.61</ele>
        <time>2015-06-14T07:17:34Z</time>
      </trkpt>
      <trkpt lat="44.06703" lon="7.03508">
        <ele>1714.65</ele>
        <time>2015-06-14T07:17:36Z</time>
      </trkpt>
      <trkpt lat="44.06696" lon="7.03536">
        <ele>1713.21</ele>
        <time>2015-06-14T07:17:39Z</time>
      </trkpt>
      <trkpt lat="44.06693" lon="7.03545">
        <ele>1712.73</ele>
        <time>2015-06-14T07:17:40Z</time>
      </trkpt>
      <trkpt lat="44.0669" lon="7.03554">
        <ele>1712.73</ele>
        <time>2015-06-14T07:17:41Z</time>
      </trkpt>
      <trkpt lat="44.06687" lon="7.03564">
        <ele>1712.25</ele>
        <time>2015-06-14T07:17:42Z</time>
      </trkpt>
      <trkpt lat="44.0668" lon="7.03592">
        <ele>1710.32</ele>
        <time>2015-06-14T07:17:45Z</time>
      </trkpt>
      <trkpt lat="44.06676" lon="7.03601">
        <ele>1710.32</ele>
        <time>2015-06-14T07:17:46Z</time>
      </trkpt>
      <trkpt lat="44.06672" lon="7.03608">
        <ele>1710.32</ele>
        <time>2015-06-14T07:17:47Z</time>
      </trkpt>
      <trkpt lat="44.06667" lon="7.03616">
        <ele>1709.84</ele>
        <time>2015-06-14T07:17:48Z</time>
      </trkpt>
      <trkpt lat="44.06662" lon="7.03624">
        <ele>1709.84</ele>
        <time>2015-06-14T07:17:49Z</time>
      </trkpt>
      <trkpt lat="44.06649" lon="7.03651">
        <ele>1707.92</ele>
        <time>2015-06-14T07:17:52Z</time>
      </trkpt>
      <trkpt lat="44.06648" lon="7.03661">
        <ele>1707.44</ele>
        <time>2015-06-14T07:17:53Z</time>
      </trkpt>
      <trkpt lat="44.06647" lon="7.0367">
        <ele>1707.44</ele>
        <time>2015-06-14T07:17:54Z</time>
      </trkpt>
      <trkpt lat="44.06648" lon="7.03698">
        <ele>1706</ele>
        <time>2015-06-14T07:17:57Z</time>
      </trkpt>
      <trkpt lat="44.06649" lon="7.03746">
        <ele>1706.48</ele>
        <time>2015-06-14T07:18:04Z</time>
      </trkpt>
      <trkpt lat="44.06656" lon="7.03815">
        <ele>1709.84</ele>
        <time>2015-06-14T07:18:17Z</time>
      </trkpt>
      <trkpt lat="44.06641" lon="7.03859">
        <ele>1711.28</ele>
        <time>2015-06-14T07:18:28Z</time>
      </trkpt>
      <trkpt lat="44.06613" lon="7.03906">
        <ele>1712.73</ele>
        <time>2015-06-14T07:18:42Z</time>
      </trkpt>
      <trkpt lat="44.06585" lon="7.03951">
        <ele>1713.69</ele>
        <time>2015-06-14T07:18:56Z</time>
      </trkpt>
      <trkpt lat="44.06557" lon="7.03961">
        <ele>1714.65</ele>
        <time>2015-06-14T07:19:06Z</time>
      </trkpt>
      <trkpt lat="44.06521" lon="7.03945">
        <ele>1715.61</ele>
        <time>2015-06-14T07:19:19Z</time>
      </trkpt>
      <trkpt lat="44.06496" lon="7.03924">
        <ele>1718.49</ele>
        <time>2015-06-14T07:19:30Z</time>
      </trkpt>
      <trkpt lat="44.06464" lon="7.03908">
        <ele>1719.94</ele>
        <time>2015-06-14T07:19:43Z</time>
      </trkpt>
      <trkpt lat="44.06426" lon="7.03894">
        <ele>1719.94</ele>
        <time>2015-06-14T07:19:57Z</time>
      </trkpt>
      <trkpt lat="44.06391" lon="7.03881">
        <ele>1722.34</ele>
        <time>2015-06-14T07:20:11Z</time>
      </trkpt>
      <trkpt lat="44.06371" lon="7.03901">
        <ele>1723.3</ele>
        <time>2015-06-14T07:20:21Z</time>
      </trkpt>
      <trkpt lat="44.06344" lon="7.03914">
        <ele>1723.3</ele>
        <time>2015-06-14T07:20:31Z</time>
      </trkpt>
      <trkpt lat="44.06291" lon="7.03929">
        <ele>1722.34</ele>
        <time>2015-06-14T07:20:45Z</time>
      </trkpt>
      <trkpt lat="44.06286" lon="7.0393">
        <ele>1722.34</ele>
        <time>2015-06-14T07:20:46Z</time>
      </trkpt>
      <trkpt lat="44.06226" lon="7.0394">
        <ele>1723.78</ele>
        <time>2015-06-14T07:21:03Z</time>
      </trkpt>
      <trkpt lat="44.06208" lon="7.03963">
        <ele>1726.18</ele>
        <time>2015-06-14T07:21:13Z</time>
      </trkpt>
      <trkpt lat="44.0619" lon="7.04002">
        <ele>1728.59</ele>
        <time>2015-06-14T07:21:27Z</time>
      </trkpt>
      <trkpt lat="44.0619" lon="7.04005">
        <ele>1728.59</ele>
        <time>2015-06-14T07:21:28Z</time>
      </trkpt>
      <trkpt lat="44.0619" lon="7.04009">
        <ele>1729.07</ele>
        <time>2015-06-14T07:21:29Z</time>
      </trkpt>
      <trkpt lat="44.06191" lon="7.04051">
        <ele>1730.03</ele>
        <time>2015-06-14T07:21:40Z</time>
      </trkpt>
      <trkpt lat="44.06191" lon="7.04055">
        <ele>1730.03</ele>
        <time>2015-06-14T07:21:41Z</time>
      </trkpt>
      <trkpt lat="44.0619" lon="7.04058">
        <ele>1730.51</ele>
        <time>2015-06-14T07:21:42Z</time>
      </trkpt>
      <trkpt lat="44.0619" lon="7.04078">
        <ele>1731.47</ele>
        <time>2015-06-14T07:21:48Z</time>
      </trkpt>
      <trkpt lat="44.0619" lon="7.04081">
        <ele>1731.47</ele>
        <time>2015-06-14T07:21:49Z</time>
      </trkpt>
      <trkpt lat="44.0619" lon="7.04085">
        <ele>1731.47</ele>
        <time>2015-06-14T07:21:50Z</time>
      </trkpt>
      <trkpt lat="44.0619" lon="7.04088">
        <ele>1731.47</ele>
        <time>2015-06-14T07:21:51Z</time>
      </trkpt>
      <trkpt lat="44.0619" lon="7.04092">
        <ele>1731.95</ele>
        <time>2015-06-14T07:21:52Z</time>
      </trkpt>
      <trkpt lat="44.06189" lon="7.04141">
        <ele>1733.39</ele>
        <time>2015-06-14T07:22:07Z</time>
      </trkpt>
      <trkpt lat="44.06177" lon="7.04176">
        <ele>1735.32</ele>
        <time>2015-06-14T07:22:19Z</time>
      </trkpt>
      <trkpt lat="44.06176" lon="7.04179">
        <ele>1735.32</ele>
        <time>2015-06-14T07:22:20Z</time>
      </trkpt>
      <trkpt lat="44.06176" lon="7.04196">
        <ele>1736.28</ele>
        <time>2015-06-14T07:22:26Z</time>
      </trkpt>
      <trkpt lat="44.06176" lon="7.04199">
        <ele>1736.76</ele>
        <time>2015-06-14T07:22:27Z</time>
      </trkpt>
      <trkpt lat="44.06171" lon="7.04229">
        <ele>1737.72</ele>
        <time>2015-06-14T07:22:38Z</time>
      </trkpt>
      <trkpt lat="44.06145" lon="7.04257">
        <ele>1738.2</ele>
        <time>2015-06-14T07:22:51Z</time>
      </trkpt>
      <trkpt lat="44.06141" lon="7.04297">
        <ele>1740.12</ele>
        <time>2015-06-14T07:23:03Z</time>
      </trkpt>
      <trkpt lat="44.06137" lon="7.04332">
        <ele>1741.57</ele>
        <time>2015-06-14T07:23:16Z</time>
      </trkpt>
      <trkpt lat="44.06134" lon="7.04346">
        <ele>1741.57</ele>
        <time>2015-06-14T07:23:21Z</time>
      </trkpt>
      <trkpt lat="44.06132" lon="7.04349">
        <ele>1741.57</ele>
        <time>2015-06-14T07:23:22Z</time>
      </trkpt>
      <trkpt lat="44.06126" lon="7.04377">
        <ele>1743.01</ele>
        <time>2015-06-14T07:23:35Z</time>
      </trkpt>
      <trkpt lat="44.06122" lon="7.04388">
        <ele>1743.49</ele>
        <time>2015-06-14T07:23:45Z</time>
      </trkpt>
      <trkpt lat="44.06121" lon="7.0439">
        <ele>1743.49</ele>
        <time>2015-06-14T07:23:46Z</time>
      </trkpt>
      <trkpt lat="44.0612" lon="7.04391">
        <ele>1743.97</ele>
        <time>2015-06-14T07:23:47Z</time>
      </trkpt>
      <trkpt lat="44.06119" lon="7.04396">
        <ele>1743.97</ele>
        <time>2015-06-14T07:23:51Z</time>
      </trkpt>
      <trkpt lat="44.06119" lon="7.04397">
        <ele>1743.97</ele>
        <time>2015-06-14T07:23:52Z</time>
      </trkpt>
      <trkpt lat="44.06118" lon="7.04399">
        <ele>1743.97</ele>
        <time>2015-06-14T07:23:53Z</time>
      </trkpt>
      <trkpt lat="44.06118" lon="7.04401">
        <ele>1743.97</ele>
        <time>2015-06-14T07:23:54Z</time>
      </trkpt>
      <trkpt lat="44.06118" lon="7.04402">
        <ele>1743.97</ele>
        <time>2015-06-14T07:23:55Z</time>
      </trkpt>
      <trkpt lat="44.06119" lon="7.04404">
        <ele>1743.97</ele>
        <time>2015-06-14T07:23:56Z</time>
      </trkpt>
      <trkpt lat="44.06119" lon="7.04406">
        <ele>1743.97</ele>
        <time>2015-06-14T07:23:57Z</time>
      </trkpt>
      <trkpt lat="44.06117" lon="7.04435">
        <ele>1743.97</ele>
        <time>2015-06-14T07:24:09Z</time>
      </trkpt>
      <trkpt lat="44.06092" lon="7.04473">
        <ele>1743.97</ele>
        <time>2015-06-14T07:24:25Z</time>
      </trkpt>
      <trkpt lat="44.06075" lon="7.04501">
        <ele>1744.93</ele>
        <time>2015-06-14T07:24:38Z</time>
      </trkpt>
      <trkpt lat="44.0607" lon="7.04518">
        <ele>1743.49</ele>
        <time>2015-06-14T07:24:42Z</time>
      </trkpt>
      <trkpt lat="44.06072" lon="7.0454">
        <ele>1742.53</ele>
        <time>2015-06-14T07:24:45Z</time>
      </trkpt>
      <trkpt lat="44.06081" lon="7.04579">
        <ele>1739.64</ele>
        <time>2015-06-14T07:24:49Z</time>
      </trkpt>
      <trkpt lat="44.06084" lon="7.04592">
        <ele>1738.2</ele>
        <time>2015-06-14T07:24:50Z</time>
      </trkpt>
      <trkpt lat="44.0609" lon="7.04618">
        <ele>1734.84</ele>
        <time>2015-06-14T07:24:52Z</time>
      </trkpt>
      <trkpt lat="44.06094" lon="7.04645">
        <ele>1731.47</ele>
        <time>2015-06-14T07:24:54Z</time>
      </trkpt>
      <trkpt lat="44.06095" lon="7.0466">
        <ele>1730.03</ele>
        <time>2015-06-14T07:24:55Z</time>
      </trkpt>
      <trkpt lat="44.06095" lon="7.04673">
        <ele>1728.11</ele>
        <time>2015-06-14T07:24:56Z</time>
      </trkpt>
      <trkpt lat="44.06094" lon="7.04683">
        <ele>1726.67</ele>
        <time>2015-06-14T07:24:57Z</time>
      </trkpt>
      <trkpt lat="44.06091" lon="7.04694">
        <ele>1725.7</ele>
        <time>2015-06-14T07:24:58Z</time>
      </trkpt>
      <trkpt lat="44.06088" lon="7.04704">
        <ele>1724.26</ele>
        <time>2015-06-14T07:24:59Z</time>
      </trkpt>
      <trkpt lat="44.06084" lon="7.04712">
        <ele>1724.26</ele>
        <time>2015-06-14T07:25:00Z</time>
      </trkpt>
      <trkpt lat="44.0608" lon="7.04719">
        <ele>1723.3</ele>
        <time>2015-06-14T07:25:01Z</time>
      </trkpt>
      <trkpt lat="44.06077" lon="7.04724">
        <ele>1722.34</ele>
        <time>2015-06-14T07:25:02Z</time>
      </trkpt>
      <trkpt lat="44.06074" lon="7.04728">
        <ele>1722.34</ele>
        <time>2015-06-14T07:25:03Z</time>
      </trkpt>
      <trkpt lat="44.06074" lon="7.04729">
        <ele>1721.86</ele>
        <time>2015-06-14T07:25:04Z</time>
      </trkpt>
      <trkpt lat="44.06072" lon="7.0473">
        <ele>1722.34</ele>
        <time>2015-06-14T07:25:08Z</time>
      </trkpt>
      <trkpt lat="44.06071" lon="7.0473">
        <ele>1721.86</ele>
        <time>2015-06-14T07:25:09Z</time>
      </trkpt>
      <trkpt lat="44.0607" lon="7.0473">
        <ele>1722.34</ele>
        <time>2015-06-14T07:25:10Z</time>
      </trkpt>
      <trkpt lat="44.06069" lon="7.0473">
        <ele>1722.34</ele>
        <time>2015-06-14T07:25:11Z</time>
      </trkpt>
      <trkpt lat="44.06067" lon="7.04731">
        <ele>1722.34</ele>
        <time>2015-06-14T07:25:12Z</time>
      </trkpt>
      <trkpt lat="44.06055" lon="7.04743">
        <ele>1724.74</ele>
        <time>2015-06-14T07:25:27Z</time>
      </trkpt>
      <trkpt lat="44.06055" lon="7.0475">
        <ele>1725.22</ele>
        <time>2015-06-14T07:25:31Z</time>
      </trkpt>
      <trkpt lat="44.06053" lon="7.04763">
        <ele>1725.7</ele>
        <time>2015-06-14T07:25:38Z</time>
      </trkpt>
      <trkpt lat="44.06053" lon="7.04767">
        <ele>1725.7</ele>
        <time>2015-06-14T07:25:51Z</time>
      </trkpt>
      <trkpt lat="44.06052" lon="7.04768">
        <ele>1725.7</ele>
        <time>2015-06-14T07:26:12Z</time>
      </trkpt>
      <trkpt lat="44.06053" lon="7.04766">
        <ele>1725.7</ele>
        <time>2015-06-14T07:26:26Z</time>
      </trkpt>
      <trkpt lat="44.06052" lon="7.04765">
        <ele>1725.7</ele>
        <time>2015-06-14T07:26:29Z</time>
      </trkpt>
      <trkpt lat="44.06039" lon="7.0476">
        <ele>1727.63</ele>
        <time>2015-06-14T07:26:41Z</time>
      </trkpt>
      <trkpt lat="44.06023" lon="7.04772">
        <ele>1730.99</ele>
        <time>2015-06-14T07:26:58Z</time>
      </trkpt>
      <trkpt lat="44.06011" lon="7.04785">
        <ele>1734.36</ele>
        <time>2015-06-14T07:27:14Z</time>
      </trkpt>
      <trkpt lat="44.06" lon="7.04795">
        <ele>1736.28</ele>
        <time>2015-06-14T07:27:28Z</time>
      </trkpt>
      <trkpt lat="44.05999" lon="7.04797">
        <ele>1737.24</ele>
        <time>2015-06-14T07:27:30Z</time>
      </trkpt>
      <trkpt lat="44.05998" lon="7.04802">
        <ele>1737.72</ele>
        <time>2015-06-14T07:27:35Z</time>
      </trkpt>
      <trkpt lat="44.05998" lon="7.0481">
        <ele>1739.64</ele>
        <time>2015-06-14T07:27:42Z</time>
      </trkpt>
      <trkpt lat="44.06002" lon="7.04825">
        <ele>1741.08</ele>
        <time>2015-06-14T07:27:57Z</time>
      </trkpt>
      <trkpt lat="44.06007" lon="7.04838">
        <ele>1742.53</ele>
        <time>2015-06-14T07:28:10Z</time>
      </trkpt>
      <trkpt lat="44.06011" lon="7.04849">
        <ele>1744.45</ele>
        <time>2015-06-14T07:28:24Z</time>
      </trkpt>
      <trkpt lat="44.06015" lon="7.04861">
        <ele>1746.37</ele>
        <time>2015-06-14T07:28:37Z</time>
      </trkpt>
      <trkpt lat="44.06018" lon="7.04873">
        <ele>1748.29</ele>
        <time>2015-06-14T07:28:52Z</time>
      </trkpt>
      <trkpt lat="44.06017" lon="7.0488">
        <ele>1749.74</ele>
        <time>2015-06-14T07:29:07Z</time>
      </trkpt>
      <trkpt lat="44.0602" lon="7.04884">
        <ele>1750.22</ele>
        <time>2015-06-14T07:29:22Z</time>
      </trkpt>
      <trkpt lat="44.06026" lon="7.04895">
        <ele>1752.14</ele>
        <time>2015-06-14T07:29:34Z</time>
      </trkpt>
      <trkpt lat="44.06029" lon="7.04907">
        <ele>1754.06</ele>
        <time>2015-06-14T07:29:47Z</time>
      </trkpt>
      <trkpt lat="44.06033" lon="7.04919">
        <ele>1756.47</ele>
        <time>2015-06-14T07:30:02Z</time>
      </trkpt>
      <trkpt lat="44.06035" lon="7.0493">
        <ele>1758.39</ele>
        <time>2015-06-14T07:30:14Z</time>
      </trkpt>
      <trkpt lat="44.06036" lon="7.0494">
        <ele>1760.31</ele>
        <time>2015-06-14T07:30:28Z</time>
      </trkpt>
      <trkpt lat="44.06038" lon="7.0495">
        <ele>1761.75</ele>
        <time>2015-06-14T07:30:39Z</time>
      </trkpt>
      <trkpt lat="44.0604" lon="7.04964">
        <ele>1762.71</ele>
        <time>2015-06-14T07:30:53Z</time>
      </trkpt>
      <trkpt lat="44.06042" lon="7.04978">
        <ele>1765.12</ele>
        <time>2015-06-14T07:31:07Z</time>
      </trkpt>
      <trkpt lat="44.06046" lon="7.04991">
        <ele>1766.08</ele>
        <time>2015-06-14T07:31:20Z</time>
      </trkpt>
      <trkpt lat="44.06047" lon="7.04993">
        <ele>1766.08</ele>
        <time>2015-06-14T07:31:22Z</time>
      </trkpt>
      <trkpt lat="44.06064" lon="7.05028">
        <ele>1768.48</ele>
        <time>2015-06-14T07:31:37Z</time>
      </trkpt>
      <trkpt lat="44.06068" lon="7.05046">
        <ele>1769.44</ele>
        <time>2015-06-14T07:31:45Z</time>
      </trkpt>
      <trkpt lat="44.06069" lon="7.05049">
        <ele>1769.44</ele>
        <time>2015-06-14T07:31:46Z</time>
      </trkpt>
      <trkpt lat="44.06071" lon="7.05051">
        <ele>1769.44</ele>
        <time>2015-06-14T07:31:47Z</time>
      </trkpt>
      <trkpt lat="44.06076" lon="7.05066">
        <ele>1771.37</ele>
        <time>2015-06-14T07:31:53Z</time>
      </trkpt>
      <trkpt lat="44.06077" lon="7.05068">
        <ele>1771.37</ele>
        <time>2015-06-14T07:31:54Z</time>
      </trkpt>
      <trkpt lat="44.06078" lon="7.0507">
        <ele>1771.85</ele>
        <time>2015-06-14T07:31:55Z</time>
      </trkpt>
      <trkpt lat="44.06079" lon="7.05075">
        <ele>1772.81</ele>
        <time>2015-06-14T07:31:57Z</time>
      </trkpt>
      <trkpt lat="44.06081" lon="7.05084">
        <ele>1773.29</ele>
        <time>2015-06-14T07:32:02Z</time>
      </trkpt>
      <trkpt lat="44.06082" lon="7.05086">
        <ele>1773.29</ele>
        <time>2015-06-14T07:32:03Z</time>
      </trkpt>
      <trkpt lat="44.06084" lon="7.05095">
        <ele>1773.77</ele>
        <time>2015-06-14T07:32:12Z</time>
      </trkpt>
      <trkpt lat="44.06085" lon="7.05097">
        <ele>1774.25</ele>
        <time>2015-06-14T07:32:23Z</time>
      </trkpt>
      <trkpt lat="44.06088" lon="7.05106">
        <ele>1776.17</ele>
        <time>2015-06-14T07:32:34Z</time>
      </trkpt>
      <trkpt lat="44.06097" lon="7.05114">
        <ele>1778.58</ele>
        <time>2015-06-14T07:32:48Z</time>
      </trkpt>
      <trkpt lat="44.06104" lon="7.05125">
        <ele>1781.94</ele>
        <time>2015-06-14T07:33:05Z</time>
      </trkpt>
      <trkpt lat="44.0611" lon="7.05133">
        <ele>1783.86</ele>
        <time>2015-06-14T07:33:17Z</time>
      </trkpt>
      <trkpt lat="44.06117" lon="7.05144">
        <ele>1785.79</ele>
        <time>2015-06-14T07:33:30Z</time>
      </trkpt>
      <trkpt lat="44.06127" lon="7.05154">
        <ele>1787.71</ele>
        <time>2015-06-14T07:33:43Z</time>
      </trkpt>
      <trkpt lat="44.06133" lon="7.05162">
        <ele>1791.07</ele>
        <time>2015-06-14T07:33:57Z</time>
      </trkpt>
      <trkpt lat="44.06138" lon="7.05171">
        <ele>1793</ele>
        <time>2015-06-14T07:34:11Z</time>
      </trkpt>
      <trkpt lat="44.06145" lon="7.05185">
        <ele>1796.36</ele>
        <time>2015-06-14T07:34:30Z</time>
      </trkpt>
      <trkpt lat="44.06151" lon="7.05193">
        <ele>1797.32</ele>
        <time>2015-06-14T07:34:43Z</time>
      </trkpt>
      <trkpt lat="44.06156" lon="7.052">
        <ele>1798.28</ele>
        <time>2015-06-14T07:34:53Z</time>
      </trkpt>
      <trkpt lat="44.06162" lon="7.05206">
        <ele>1799.73</ele>
        <time>2015-06-14T07:35:06Z</time>
      </trkpt>
      <trkpt lat="44.06164" lon="7.05207">
        <ele>1799.73</ele>
        <time>2015-06-14T07:35:12Z</time>
      </trkpt>
      <trkpt lat="44.06173" lon="7.05215">
        <ele>1801.65</ele>
        <time>2015-06-14T07:35:27Z</time>
      </trkpt>
      <trkpt lat="44.06173" lon="7.05216">
        <ele>1802.13</ele>
        <time>2015-06-14T07:35:38Z</time>
      </trkpt>
      <trkpt lat="44.06174" lon="7.05216">
        <ele>1802.13</ele>
        <time>2015-06-14T07:35:39Z</time>
      </trkpt>
      <trkpt lat="44.06186" lon="7.05227">
        <ele>1804.53</ele>
        <time>2015-06-14T07:35:56Z</time>
      </trkpt>
      <trkpt lat="44.06194" lon="7.05239">
        <ele>1806.94</ele>
        <time>2015-06-14T07:36:11Z</time>
      </trkpt>
      <trkpt lat="44.06202" lon="7.05251">
        <ele>1809.34</ele>
        <time>2015-06-14T07:36:25Z</time>
      </trkpt>
      <trkpt lat="44.06204" lon="7.05255">
        <ele>1810.3</ele>
        <time>2015-06-14T07:36:29Z</time>
      </trkpt>
      <trkpt lat="44.0621" lon="7.05266">
        <ele>1812.7</ele>
        <time>2015-06-14T07:36:42Z</time>
      </trkpt>
      <trkpt lat="44.06215" lon="7.0527">
        <ele>1813.18</ele>
        <time>2015-06-14T07:36:48Z</time>
      </trkpt>
      <trkpt lat="44.06226" lon="7.0528">
        <ele>1816.55</ele>
        <time>2015-06-14T07:37:04Z</time>
      </trkpt>
      <trkpt lat="44.06229" lon="7.05283">
        <ele>1817.03</ele>
        <time>2015-06-14T07:37:08Z</time>
      </trkpt>
      <trkpt lat="44.06235" lon="7.05292">
        <ele>1818.47</ele>
        <time>2015-06-14T07:37:19Z</time>
      </trkpt>
      <trkpt lat="44.06244" lon="7.05298">
        <ele>1820.87</ele>
        <time>2015-06-14T07:37:32Z</time>
      </trkpt>
      <trkpt lat="44.06256" lon="7.05312">
        <ele>1822.32</ele>
        <time>2015-06-14T07:37:47Z</time>
      </trkpt>
      <trkpt lat="44.06259" lon="7.05315">
        <ele>1822.8</ele>
        <time>2015-06-14T07:37:51Z</time>
      </trkpt>
      <trkpt lat="44.06268" lon="7.05325">
        <ele>1823.76</ele>
        <time>2015-06-14T07:38:01Z</time>
      </trkpt>
      <trkpt lat="44.06279" lon="7.0534">
        <ele>1825.2</ele>
        <time>2015-06-14T07:38:15Z</time>
      </trkpt>
      <trkpt lat="44.06289" lon="7.05351">
        <ele>1827.6</ele>
        <time>2015-06-14T07:38:28Z</time>
      </trkpt>
      <trkpt lat="44.06292" lon="7.05354">
        <ele>1828.08</ele>
        <time>2015-06-14T07:38:32Z</time>
      </trkpt>
      <trkpt lat="44.06308" lon="7.05359">
        <ele>1829.53</ele>
        <time>2015-06-14T07:38:47Z</time>
      </trkpt>
      <trkpt lat="44.06319" lon="7.05369">
        <ele>1831.45</ele>
        <time>2015-06-14T07:39:00Z</time>
      </trkpt>
      <trkpt lat="44.06328" lon="7.05383">
        <ele>1834.81</ele>
        <time>2015-06-14T07:39:17Z</time>
      </trkpt>
      <trkpt lat="44.06335" lon="7.05396">
        <ele>1837.7</ele>
        <time>2015-06-14T07:39:32Z</time>
      </trkpt>
      <trkpt lat="44.06335" lon="7.05399">
        <ele>1837.7</ele>
        <time>2015-06-14T07:39:34Z</time>
      </trkpt>
      <trkpt lat="44.06339" lon="7.05418">
        <ele>1839.14</ele>
        <time>2015-06-14T07:39:48Z</time>
      </trkpt>
      <trkpt lat="44.06345" lon="7.05441">
        <ele>1840.58</ele>
        <time>2015-06-14T07:40:04Z</time>
      </trkpt>
      <trkpt lat="44.06351" lon="7.05467">
        <ele>1842.02</ele>
        <time>2015-06-14T07:40:21Z</time>
      </trkpt>
      <trkpt lat="44.06355" lon="7.05489">
        <ele>1844.91</ele>
        <time>2015-06-14T07:40:37Z</time>
      </trkpt>
      <trkpt lat="44.06361" lon="7.05508">
        <ele>1846.35</ele>
        <time>2015-06-14T07:40:53Z</time>
      </trkpt>
      <trkpt lat="44.06361" lon="7.05512">
        <ele>1847.31</ele>
        <time>2015-06-14T07:40:56Z</time>
      </trkpt>
      <trkpt lat="44.06367" lon="7.05532">
        <ele>1849.23</ele>
        <time>2015-06-14T07:41:11Z</time>
      </trkpt>
      <trkpt lat="44.06373" lon="7.05554">
        <ele>1851.64</ele>
        <time>2015-06-14T07:41:28Z</time>
      </trkpt>
      <trkpt lat="44.06371" lon="7.05573">
        <ele>1853.56</ele>
        <time>2015-06-14T07:41:42Z</time>
      </trkpt>
      <trkpt lat="44.06368" lon="7.05597">
        <ele>1855.96</ele>
        <time>2015-06-14T07:41:59Z</time>
      </trkpt>
      <trkpt lat="44.0637" lon="7.05606">
        <ele>1856.92</ele>
        <time>2015-06-14T07:42:12Z</time>
      </trkpt>
      <trkpt lat="44.06366" lon="7.05627">
        <ele>1857.89</ele>
        <time>2015-06-14T07:42:25Z</time>
      </trkpt>
      <trkpt lat="44.06366" lon="7.05632">
        <ele>1858.37</ele>
        <time>2015-06-14T07:42:41Z</time>
      </trkpt>
      <trkpt lat="44.06365" lon="7.05632">
        <ele>1858.37</ele>
        <time>2015-06-14T07:42:56Z</time>
      </trkpt>
      <trkpt lat="44.06365" lon="7.05632">
        <ele>1858.37</ele>
        <time>2015-06-14T07:43:12Z</time>
      </trkpt>
      <trkpt lat="44.06366" lon="7.05633">
        <ele>1858.37</ele>
        <time>2015-06-14T07:43:37Z</time>
      </trkpt>
      <trkpt lat="44.06368" lon="7.05632">
        <ele>1858.37</ele>
        <time>2015-06-14T07:44:11Z</time>
      </trkpt>
      <trkpt lat="44.06367" lon="7.05632">
        <ele>1858.37</ele>
        <time>2015-06-14T07:44:47Z</time>
      </trkpt>
      <trkpt lat="44.06366" lon="7.05632">
        <ele>1858.37</ele>
        <time>2015-06-14T07:45:17Z</time>
      </trkpt>
      <trkpt lat="44.06367" lon="7.05632">
        <ele>1858.37</ele>
        <time>2015-06-14T07:45:46Z</time>
      </trkpt>
      <trkpt lat="44.06365" lon="7.05633">
        <ele>1858.37</ele>
        <time>2015-06-14T07:46:13Z</time>
      </trkpt>
      <trkpt lat="44.06365" lon="7.05632">
        <ele>1858.37</ele>
        <time>2015-06-14T07:46:44Z</time>
      </trkpt>
      <trkpt lat="44.06365" lon="7.05633">
        <ele>1857.4</ele>
        <time>2015-06-14T07:47:05Z</time>
      </trkpt>
      <trkpt lat="44.06364" lon="7.05631">
        <ele>1857.4</ele>
        <time>2015-06-14T07:47:08Z</time>
      </trkpt>
      <trkpt lat="44.06356" lon="7.05634">
        <ele>1858.85</ele>
        <time>2015-06-14T07:47:15Z</time>
      </trkpt>
      <trkpt lat="44.06355" lon="7.05635">
        <ele>1858.85</ele>
        <time>2015-06-14T07:47:16Z</time>
      </trkpt>
      <trkpt lat="44.06352" lon="7.05639">
        <ele>1858.85</ele>
        <time>2015-06-14T07:47:31Z</time>
      </trkpt>
      <trkpt lat="44.06356" lon="7.05635">
        <ele>1858.85</ele>
        <time>2015-06-14T07:47:50Z</time>
      </trkpt>
      <trkpt lat="44.06359" lon="7.05633">
        <ele>1858.85</ele>
        <time>2015-06-14T07:47:55Z</time>
      </trkpt>
      <trkpt lat="44.06364" lon="7.05635">
        <ele>1857.89</ele>
        <time>2015-06-14T07:48:07Z</time>
      </trkpt>
      <trkpt lat="44.06367" lon="7.05633">
        <ele>1857.89</ele>
        <time>2015-06-14T07:48:16Z</time>
      </trkpt>
      <trkpt lat="44.06366" lon="7.05632">
        <ele>1857.89</ele>
        <time>2015-06-14T07:48:25Z</time>
      </trkpt>
      <trkpt lat="44.06365" lon="7.05632">
        <ele>1857.89</ele>
        <time>2015-06-14T07:48:48Z</time>
      </trkpt>
      <trkpt lat="44.06366" lon="7.05632">
        <ele>1857.4</ele>
        <time>2015-06-14T07:49:08Z</time>
      </trkpt>
      <trkpt lat="44.06365" lon="7.05633">
        <ele>1857.4</ele>
        <time>2015-06-14T07:49:25Z</time>
      </trkpt>
      <trkpt lat="44.06366" lon="7.05633">
        <ele>1857.4</ele>
        <time>2015-06-14T07:49:48Z</time>
      </trkpt>
      <trkpt lat="44.06366" lon="7.05632">
        <ele>1857.4</ele>
        <time>2015-06-14T07:50:11Z</time>
      </trkpt>
      <trkpt lat="44.06365" lon="7.05632">
        <ele>1857.4</ele>
        <time>2015-06-14T07:50:38Z</time>
      </trkpt>
      <trkpt lat="44.06364" lon="7.05631">
        <ele>1857.4</ele>
        <time>2015-06-14T07:51:06Z</time>
      </trkpt>
      <trkpt lat="44.06365" lon="7.05633">
        <ele>1857.4</ele>
        <time>2015-06-14T07:51:35Z</time>
      </trkpt>
      <trkpt lat="44.06365" lon="7.05632">
        <ele>1856.92</ele>
        <time>2015-06-14T07:51:53Z</time>
      </trkpt>
      <trkpt lat="44.06365" lon="7.05632">
        <ele>1858.37</ele>
        <time>2015-06-14T07:52:12Z</time>
      </trkpt>
      <trkpt lat="44.06365" lon="7.05633">
        <ele>1858.37</ele>
        <time>2015-06-14T07:52:38Z</time>
      </trkpt>
      <trkpt lat="44.06365" lon="7.05633">
        <ele>1858.37</ele>
        <time>2015-06-14T07:53:12Z</time>
      </trkpt>
      <trkpt lat="44.06365" lon="7.05632">
        <ele>1858.37</ele>
        <time>2015-06-14T07:53:42Z</time>
      </trkpt>
      <trkpt lat="44.06365" lon="7.05632">
        <ele>1858.37</ele>
        <time>2015-06-14T07:54:22Z</time>
      </trkpt>
      <trkpt lat="44.06366" lon="7.05633">
        <ele>1858.37</ele>
        <time>2015-06-14T07:54:50Z</time>
      </trkpt>
      <trkpt lat="44.06365" lon="7.05633">
        <ele>1858.37</ele>
        <time>2015-06-14T07:55:15Z</time>
      </trkpt>
      <trkpt lat="44.06365" lon="7.05634">
        <ele>1858.37</ele>
        <time>2015-06-14T07:55:48Z</time>
      </trkpt>
      <trkpt lat="44.06366" lon="7.05635">
        <ele>1858.85</ele>
        <time>2015-06-14T07:56:12Z</time>
      </trkpt>
      <trkpt lat="44.06364" lon="7.05634">
        <ele>1858.85</ele>
        <time>2015-06-14T07:56:36Z</time>
      </trkpt>
      <trkpt lat="44.06365" lon="7.05634">
        <ele>1858.85</ele>
        <time>2015-06-14T07:57:12Z</time>
      </trkpt>
      <trkpt lat="44.06365" lon="7.05634">
        <ele>1858.85</ele>
        <time>2015-06-14T07:57:49Z</time>
      </trkpt>
      <trkpt lat="44.06365" lon="7.05634">
        <ele>1858.85</ele>
        <time>2015-06-14T07:58:14Z</time>
      </trkpt>
      <trkpt lat="44.06365" lon="7.05634">
        <ele>1858.85</ele>
        <time>2015-06-14T07:58:45Z</time>
      </trkpt>
      <trkpt lat="44.06365" lon="7.05635">
        <ele>1858.85</ele>
        <time>2015-06-14T07:59:10Z</time>
      </trkpt>
      <trkpt lat="44.06365" lon="7.05634">
        <ele>1858.85</ele>
        <time>2015-06-14T07:59:51Z</time>
      </trkpt>
      <trkpt lat="44.06365" lon="7.05635">
        <ele>1858.85</ele>
        <time>2015-06-14T08:00:20Z</time>
      </trkpt>
      <trkpt lat="44.06365" lon="7.05635">
        <ele>1858.85</ele>
        <time>2015-06-14T08:00:33Z</time>
      </trkpt>
      <trkpt lat="44.06364" lon="7.05635">
        <ele>1858.85</ele>
        <time>2015-06-14T08:00:58Z</time>
      </trkpt>
      <trkpt lat="44.06365" lon="7.05634">
        <ele>1859.33</ele>
        <time>2015-06-14T08:01:35Z</time>
      </trkpt>
      <trkpt lat="44.06365" lon="7.05634">
        <ele>1859.33</ele>
        <time>2015-06-14T08:02:14Z</time>
      </trkpt>
      <trkpt lat="44.06365" lon="7.05635">
        <ele>1859.33</ele>
        <time>2015-06-14T08:02:41Z</time>
      </trkpt>
      <trkpt lat="44.06365" lon="7.05635">
        <ele>1859.33</ele>
        <time>2015-06-14T08:03:09Z</time>
      </trkpt>
      <trkpt lat="44.06365" lon="7.05635">
        <ele>1859.33</ele>
        <time>2015-06-14T08:03:48Z</time>
      </trkpt>
      <trkpt lat="44.06366" lon="7.05635">
        <ele>1859.33</ele>
        <time>2015-06-14T08:04:18Z</time>
      </trkpt>
      <trkpt lat="44.06365" lon="7.05635">
        <ele>1859.33</ele>
        <time>2015-06-14T08:04:45Z</time>
      </trkpt>
      <trkpt lat="44.06365" lon="7.05635">
        <ele>1859.33</ele>
        <time>2015-06-14T08:05:10Z</time>
      </trkpt>
      <trkpt lat="44.06365" lon="7.05635">
        <ele>1859.33</ele>
        <time>2015-06-14T08:05:32Z</time>
      </trkpt>
      <trkpt lat="44.06366" lon="7.05635">
        <ele>1859.33</ele>
        <time>2015-06-14T08:05:48Z</time>
      </trkpt>
      <trkpt lat="44.06366" lon="7.05634">
        <ele>1859.33</ele>
        <time>2015-06-14T08:06:09Z</time>
      </trkpt>
      <trkpt lat="44.06365" lon="7.05634">
        <ele>1859.33</ele>
        <time>2015-06-14T08:06:43Z</time>
      </trkpt>
      <trkpt lat="44.06364" lon="7.05637">
        <ele>1859.33</ele>
        <time>2015-06-14T08:06:59Z</time>
      </trkpt>
      <trkpt lat="44.06363" lon="7.0564">
        <ele>1859.33</ele>
        <time>2015-06-14T08:07:13Z</time>
      </trkpt>
      <trkpt lat="44.06364" lon="7.05641">
        <ele>1859.33</ele>
        <time>2015-06-14T08:07:21Z</time>
      </trkpt>
      <trkpt lat="44.06364" lon="7.05642">
        <ele>1858.37</ele>
        <time>2015-06-14T08:07:33Z</time>
      </trkpt>
      <trkpt lat="44.06364" lon="7.05642">
        <ele>1858.37</ele>
        <time>2015-06-14T08:08:03Z</time>
      </trkpt>
      <trkpt lat="44.06366" lon="7.05644">
        <ele>1858.37</ele>
        <time>2015-06-14T08:08:05Z</time>
      </trkpt>
      <trkpt lat="44.06375" lon="7.0565">
        <ele>1859.81</ele>
        <time>2015-06-14T08:08:07Z</time>
      </trkpt>
      <trkpt lat="44.06402" lon="7.05675">
        <ele>1858.37</ele>
        <time>2015-06-14T08:08:12Z</time>
      </trkpt>
      <trkpt lat="44.06412" lon="7.05686">
        <ele>1857.4</ele>
        <time>2015-06-14T08:08:14Z</time>
      </trkpt>
      <trkpt lat="44.06438" lon="7.05708">
        <ele>1855.96</ele>
        <time>2015-06-14T08:08:18Z</time>
      </trkpt>
      <trkpt lat="44.0646" lon="7.05716">
        <ele>1851.64</ele>
        <time>2015-06-14T08:08:22Z</time>
      </trkpt>
      <trkpt lat="44.06472" lon="7.05692">
        <ele>1848.27</ele>
        <time>2015-06-14T08:08:26Z</time>
      </trkpt>
      <trkpt lat="44.06472" lon="7.05668">
        <ele>1844.43</ele>
        <time>2015-06-14T08:08:29Z</time>
      </trkpt>
      <trkpt lat="44.06471" lon="7.0566">
        <ele>1843.95</ele>
        <time>2015-06-14T08:08:30Z</time>
      </trkpt>
      <trkpt lat="44.06463" lon="7.05605">
        <ele>1840.58</ele>
        <time>2015-06-14T08:08:36Z</time>
      </trkpt>
      <trkpt lat="44.0646" lon="7.05586">
        <ele>1838.18</ele>
        <time>2015-06-14T08:08:38Z</time>
      </trkpt>
      <trkpt lat="44.06455" lon="7.0557">
        <ele>1835.29</ele>
        <time>2015-06-14T08:08:41Z</time>
      </trkpt>
      <trkpt lat="44.06452" lon="7.05564">
        <ele>1835.29</ele>
        <time>2015-06-14T08:08:42Z</time>
      </trkpt>
      <trkpt lat="44.06442" lon="7.05534">
        <ele>1834.33</ele>
        <time>2015-06-14T08:08:46Z</time>
      </trkpt>
      <trkpt lat="44.0643" lon="7.05485">
        <ele>1832.89</ele>
        <time>2015-06-14T08:08:52Z</time>
      </trkpt>
      <trkpt lat="44.06433" lon="7.05448">
        <ele>1830.01</ele>
        <time>2015-06-14T08:08:56Z</time>
      </trkpt>
      <trkpt lat="44.06442" lon="7.05414">
        <ele>1828.56</ele>
        <time>2015-06-14T08:09:00Z</time>
      </trkpt>
      <trkpt lat="44.06446" lon="7.05391">
        <ele>1828.56</ele>
        <time>2015-06-14T08:09:03Z</time>
      </trkpt>
      <trkpt lat="44.06444" lon="7.05354">
        <ele>1826.16</ele>
        <time>2015-06-14T08:09:07Z</time>
      </trkpt>
      <trkpt lat="44.06441" lon="7.05337">
        <ele>1825.68</ele>
        <time>2015-06-14T08:09:09Z</time>
      </trkpt>
      <trkpt lat="44.06435" lon="7.05321">
        <ele>1823.76</ele>
        <time>2015-06-14T08:09:11Z</time>
      </trkpt>
      <trkpt lat="44.06423" lon="7.05287">
        <ele>1819.43</ele>
        <time>2015-06-14T08:09:17Z</time>
      </trkpt>
      <trkpt lat="44.06416" lon="7.05267">
        <ele>1815.59</ele>
        <time>2015-06-14T08:09:22Z</time>
      </trkpt>
      <trkpt lat="44.06408" lon="7.05254">
        <ele>1813.18</ele>
        <time>2015-06-14T08:09:25Z</time>
      </trkpt>
      <trkpt lat="44.06402" lon="7.05238">
        <ele>1807.9</ele>
        <time>2015-06-14T08:09:29Z</time>
      </trkpt>
      <trkpt lat="44.06401" lon="7.05235">
        <ele>1806.94</ele>
        <time>2015-06-14T08:09:30Z</time>
      </trkpt>
      <trkpt lat="44.064" lon="7.05222">
        <ele>1802.13</ele>
        <time>2015-06-14T08:09:33Z</time>
      </trkpt>
      <trkpt lat="44.064" lon="7.05212">
        <ele>1799.24</ele>
        <time>2015-06-14T08:09:35Z</time>
      </trkpt>
      <trkpt lat="44.06396" lon="7.05201">
        <ele>1793.96</ele>
        <time>2015-06-14T08:09:39Z</time>
      </trkpt>
      <trkpt lat="44.06395" lon="7.0519">
        <ele>1790.59</ele>
        <time>2015-06-14T08:09:42Z</time>
      </trkpt>
      <trkpt lat="44.06393" lon="7.05174">
        <ele>1787.71</ele>
        <time>2015-06-14T08:09:46Z</time>
      </trkpt>
      <trkpt lat="44.06393" lon="7.05155">
        <ele>1783.38</ele>
        <time>2015-06-14T08:09:52Z</time>
      </trkpt>
      <trkpt lat="44.06396" lon="7.05151">
        <ele>1780.5</ele>
        <time>2015-06-14T08:10:03Z</time>
      </trkpt>
      <trkpt lat="44.06397" lon="7.05143">
        <ele>1778.58</ele>
        <time>2015-06-14T08:10:08Z</time>
      </trkpt>
      <trkpt lat="44.06404" lon="7.05136">
        <ele>1775.69</ele>
        <time>2015-06-14T08:10:12Z</time>
      </trkpt>
      <trkpt lat="44.06408" lon="7.05132">
        <ele>1772.33</ele>
        <time>2015-06-14T08:10:15Z</time>
      </trkpt>
      <trkpt lat="44.0641" lon="7.05125">
        <ele>1770.41</ele>
        <time>2015-06-14T08:10:18Z</time>
      </trkpt>
      <trkpt lat="44.0641" lon="7.0512">
        <ele>1768.96</ele>
        <time>2015-06-14T08:10:20Z</time>
      </trkpt>
      <trkpt lat="44.06418" lon="7.05113">
        <ele>1765.12</ele>
        <time>2015-06-14T08:10:24Z</time>
      </trkpt>
      <trkpt lat="44.06426" lon="7.05106">
        <ele>1761.27</ele>
        <time>2015-06-14T08:10:27Z</time>
      </trkpt>
      <trkpt lat="44.06427" lon="7.05105">
        <ele>1760.31</ele>
        <time>2015-06-14T08:10:28Z</time>
      </trkpt>
      <trkpt lat="44.06436" lon="7.05098">
        <ele>1757.91</ele>
        <time>2015-06-14T08:10:32Z</time>
      </trkpt>
      <trkpt lat="44.06442" lon="7.05091">
        <ele>1755.5</ele>
        <time>2015-06-14T08:10:35Z</time>
      </trkpt>
      <trkpt lat="44.06452" lon="7.05091">
        <ele>1750.7</ele>
        <time>2015-06-14T08:10:39Z</time>
      </trkpt>
      <trkpt lat="44.06455" lon="7.05094">
        <ele>1749.74</ele>
        <time>2015-06-14T08:10:41Z</time>
      </trkpt>
      <trkpt lat="44.06464" lon="7.05104">
        <ele>1746.85</ele>
        <time>2015-06-14T08:10:46Z</time>
      </trkpt>
      <trkpt lat="44.06467" lon="7.05114">
        <ele>1745.89</ele>
        <time>2015-06-14T08:10:49Z</time>
      </trkpt>
      <trkpt lat="44.06478" lon="7.05122">
        <ele>1742.53</ele>
        <time>2015-06-14T08:10:53Z</time>
      </trkpt>
      <trkpt lat="44.06491" lon="7.05131">
        <ele>1738.2</ele>
        <time>2015-06-14T08:10:57Z</time>
      </trkpt>
      <trkpt lat="44.06497" lon="7.05134">
        <ele>1736.76</ele>
        <time>2015-06-14T08:10:59Z</time>
      </trkpt>
      <trkpt lat="44.06504" lon="7.05128">
        <ele>1732.91</ele>
        <time>2015-06-14T08:11:04Z</time>
      </trkpt>
      <trkpt lat="44.06506" lon="7.05121">
        <ele>1730.99</ele>
        <time>2015-06-14T08:11:06Z</time>
      </trkpt>
      <trkpt lat="44.06506" lon="7.05095">
        <ele>1727.15</ele>
        <time>2015-06-14T08:11:11Z</time>
      </trkpt>
      <trkpt lat="44.06504" lon="7.05086">
        <ele>1726.18</ele>
        <time>2015-06-14T08:11:13Z</time>
      </trkpt>
      <trkpt lat="44.06508" lon="7.0507">
        <ele>1721.86</ele>
        <time>2015-06-14T08:11:17Z</time>
      </trkpt>
      <trkpt lat="44.06509" lon="7.05066">
        <ele>1720.9</ele>
        <time>2015-06-14T08:11:18Z</time>
      </trkpt>
      <trkpt lat="44.06513" lon="7.05052">
        <ele>1717.05</ele>
        <time>2015-06-14T08:11:20Z</time>
      </trkpt>
      <trkpt lat="44.06514" lon="7.05015">
        <ele>1712.25</ele>
        <time>2015-06-14T08:11:25Z</time>
      </trkpt>
      <trkpt lat="44.06514" lon="7.05002">
        <ele>1712.25</ele>
        <time>2015-06-14T08:11:27Z</time>
      </trkpt>
      <trkpt lat="44.06518" lon="7.04993">
        <ele>1709.84</ele>
        <time>2015-06-14T08:11:31Z</time>
      </trkpt>
      <trkpt lat="44.06528" lon="7.04987">
        <ele>1707.44</ele>
        <time>2015-06-14T08:11:35Z</time>
      </trkpt>
      <trkpt lat="44.06529" lon="7.04987">
        <ele>1707.92</ele>
        <time>2015-06-14T08:11:37Z</time>
      </trkpt>
      <trkpt lat="44.06535" lon="7.04994">
        <ele>1707.92</ele>
        <time>2015-06-14T08:11:40Z</time>
      </trkpt>
      <trkpt lat="44.06547" lon="7.05011">
        <ele>1705.52</ele>
        <time>2015-06-14T08:11:43Z</time>
      </trkpt>
      <trkpt lat="44.06554" lon="7.05032">
        <ele>1702.63</ele>
        <time>2015-06-14T08:11:46Z</time>
      </trkpt>
      <trkpt lat="44.0656" lon="7.05042">
        <ele>1702.15</ele>
        <time>2015-06-14T08:11:48Z</time>
      </trkpt>
      <trkpt lat="44.06574" lon="7.05058">
        <ele>1700.23</ele>
        <time>2015-06-14T08:11:51Z</time>
      </trkpt>
      <trkpt lat="44.06591" lon="7.0508">
        <ele>1695.9</ele>
        <time>2015-06-14T08:11:58Z</time>
      </trkpt>
      <trkpt lat="44.06595" lon="7.0508">
        <ele>1693.98</ele>
        <time>2015-06-14T08:12:01Z</time>
      </trkpt>
      <trkpt lat="44.06601" lon="7.0508">
        <ele>1690.62</ele>
        <time>2015-06-14T08:12:04Z</time>
      </trkpt>
      <trkpt lat="44.06609" lon="7.05083">
        <ele>1687.25</ele>
        <time>2015-06-14T08:12:07Z</time>
      </trkpt>
      <trkpt lat="44.0662" lon="7.0509">
        <ele>1683.89</ele>
        <time>2015-06-14T08:12:10Z</time>
      </trkpt>
      <trkpt lat="44.06623" lon="7.05091">
        <ele>1682.93</ele>
        <time>2015-06-14T08:12:11Z</time>
      </trkpt>
      <trkpt lat="44.06628" lon="7.05076">
        <ele>1678.6</ele>
        <time>2015-06-14T08:12:16Z</time>
      </trkpt>
      <trkpt lat="44.06626" lon="7.05054">
        <ele>1674.27</ele>
        <time>2015-06-14T08:12:19Z</time>
      </trkpt>
      <trkpt lat="44.06624" lon="7.05038">
        <ele>1671.39</ele>
        <time>2015-06-14T08:12:22Z</time>
      </trkpt>
      <trkpt lat="44.06627" lon="7.05025">
        <ele>1671.39</ele>
        <time>2015-06-14T08:12:25Z</time>
      </trkpt>
      <trkpt lat="44.06636" lon="7.05031">
        <ele>1667.06</ele>
        <time>2015-06-14T08:12:30Z</time>
      </trkpt>
      <trkpt lat="44.06643" lon="7.0504">
        <ele>1663.22</ele>
        <time>2015-06-14T08:12:35Z</time>
      </trkpt>
      <trkpt lat="44.06648" lon="7.05045">
        <ele>1659.85</ele>
        <time>2015-06-14T08:12:37Z</time>
      </trkpt>
      <trkpt lat="44.06658" lon="7.05053">
        <ele>1657.45</ele>
        <time>2015-06-14T08:12:44Z</time>
      </trkpt>
      <trkpt lat="44.0666" lon="7.05054">
        <ele>1656.97</ele>
        <time>2015-06-14T08:12:47Z</time>
      </trkpt>
      <trkpt lat="44.06667" lon="7.05053">
        <ele>1655.05</ele>
        <time>2015-06-14T08:12:52Z</time>
      </trkpt>
      <trkpt lat="44.06676" lon="7.05046">
        <ele>1650.72</ele>
        <time>2015-06-14T08:12:55Z</time>
      </trkpt>
      <trkpt lat="44.0668" lon="7.05048">
        <ele>1647.84</ele>
        <time>2015-06-14T08:13:01Z</time>
      </trkpt>
      <trkpt lat="44.0669" lon="7.05035">
        <ele>1643.51</ele>
        <time>2015-06-14T08:13:05Z</time>
      </trkpt>
      <trkpt lat="44.06694" lon="7.05035">
        <ele>1642.55</ele>
        <time>2015-06-14T08:13:06Z</time>
      </trkpt>
      <trkpt lat="44.06715" lon="7.05037">
        <ele>1639.19</ele>
        <time>2015-06-14T08:13:10Z</time>
      </trkpt>
      <trkpt lat="44.0673" lon="7.05042">
        <ele>1634.86</ele>
        <time>2015-06-14T08:13:13Z</time>
      </trkpt>
      <trkpt lat="44.06732" lon="7.05047">
        <ele>1634.86</ele>
        <time>2015-06-14T08:13:14Z</time>
      </trkpt>
      <trkpt lat="44.06732" lon="7.05053">
        <ele>1634.86</ele>
        <time>2015-06-14T08:13:15Z</time>
      </trkpt>
      <trkpt lat="44.06732" lon="7.05059">
        <ele>1634.86</ele>
        <time>2015-06-14T08:13:16Z</time>
      </trkpt>
      <trkpt lat="44.06733" lon="7.05066">
        <ele>1634.38</ele>
        <time>2015-06-14T08:13:17Z</time>
      </trkpt>
      <trkpt lat="44.06737" lon="7.05073">
        <ele>1633.9</ele>
        <time>2015-06-14T08:13:18Z</time>
      </trkpt>
      <trkpt lat="44.06742" lon="7.05076">
        <ele>1632.94</ele>
        <time>2015-06-14T08:13:19Z</time>
      </trkpt>
      <trkpt lat="44.06748" lon="7.05077">
        <ele>1631.98</ele>
        <time>2015-06-14T08:13:20Z</time>
      </trkpt>
      <trkpt lat="44.06753" lon="7.05076">
        <ele>1631.98</ele>
        <time>2015-06-14T08:13:21Z</time>
      </trkpt>
      <trkpt lat="44.06759" lon="7.05076">
        <ele>1631.49</ele>
        <time>2015-06-14T08:13:22Z</time>
      </trkpt>
      <trkpt lat="44.06765" lon="7.05078">
        <ele>1631.49</ele>
        <time>2015-06-14T08:13:23Z</time>
      </trkpt>
      <trkpt lat="44.06772" lon="7.0508">
        <ele>1630.53</ele>
        <time>2015-06-14T08:13:24Z</time>
      </trkpt>
      <trkpt lat="44.06794" lon="7.05085">
        <ele>1628.61</ele>
        <time>2015-06-14T08:13:27Z</time>
      </trkpt>
      <trkpt lat="44.06801" lon="7.05085">
        <ele>1627.17</ele>
        <time>2015-06-14T08:13:28Z</time>
      </trkpt>
      <trkpt lat="44.06809" lon="7.05084">
        <ele>1627.17</ele>
        <time>2015-06-14T08:13:29Z</time>
      </trkpt>
      <trkpt lat="44.06862" lon="7.05083">
        <ele>1622.84</ele>
        <time>2015-06-14T08:13:36Z</time>
      </trkpt>
      <trkpt lat="44.0687" lon="7.05081">
        <ele>1621.88</ele>
        <time>2015-06-14T08:13:37Z</time>
      </trkpt>
      <trkpt lat="44.06877" lon="7.05078">
        <ele>1621.88</ele>
        <time>2015-06-14T08:13:38Z</time>
      </trkpt>
      <trkpt lat="44.06884" lon="7.05074">
        <ele>1620.92</ele>
        <time>2015-06-14T08:13:39Z</time>
      </trkpt>
      <trkpt lat="44.06891" lon="7.0507">
        <ele>1619.48</ele>
        <time>2015-06-14T08:13:40Z</time>
      </trkpt>
      <trkpt lat="44.06899" lon="7.05066">
        <ele>1618.04</ele>
        <time>2015-06-14T08:13:41Z</time>
      </trkpt>
      <trkpt lat="44.06907" lon="7.05063">
        <ele>1617.07</ele>
        <time>2015-06-14T08:13:42Z</time>
      </trkpt>
      <trkpt lat="44.06925" lon="7.05061">
        <ele>1614.19</ele>
        <time>2015-06-14T08:13:44Z</time>
      </trkpt>
      <trkpt lat="44.06949" lon="7.05055">
        <ele>1611.79</ele>
        <time>2015-06-14T08:13:47Z</time>
      </trkpt>
      <trkpt lat="44.06965" lon="7.0505">
        <ele>1609.86</ele>
        <time>2015-06-14T08:13:49Z</time>
      </trkpt>
      <trkpt lat="44.06972" lon="7.05049">
        <ele>1609.86</ele>
        <time>2015-06-14T08:13:50Z</time>
      </trkpt>
      <trkpt lat="44.06979" lon="7.05049">
        <ele>1608.9</ele>
        <time>2015-06-14T08:13:51Z</time>
      </trkpt>
      <trkpt lat="44.06985" lon="7.05051">
        <ele>1608.42</ele>
        <time>2015-06-14T08:13:52Z</time>
      </trkpt>
      <trkpt lat="44.06991" lon="7.05054">
        <ele>1607.94</ele>
        <time>2015-06-14T08:13:53Z</time>
      </trkpt>
      <trkpt lat="44.06996" lon="7.05058">
        <ele>1606.02</ele>
        <time>2015-06-14T08:13:54Z</time>
      </trkpt>
      <trkpt lat="44.07002" lon="7.05063">
        <ele>1606.02</ele>
        <time>2015-06-14T08:13:55Z</time>
      </trkpt>
      <trkpt lat="44.07008" lon="7.0507">
        <ele>1604.58</ele>
        <time>2015-06-14T08:13:56Z</time>
      </trkpt>
      <trkpt lat="44.07014" lon="7.05079">
        <ele>1603.14</ele>
        <time>2015-06-14T08:13:57Z</time>
      </trkpt>
      <trkpt lat="44.07019" lon="7.05087">
        <ele>1602.17</ele>
        <time>2015-06-14T08:13:58Z</time>
      </trkpt>
      <trkpt lat="44.07021" lon="7.05098">
        <ele>1601.21</ele>
        <time>2015-06-14T08:13:59Z</time>
      </trkpt>
      <trkpt lat="44.07024" lon="7.05108">
        <ele>1600.25</ele>
        <time>2015-06-14T08:14:00Z</time>
      </trkpt>
      <trkpt lat="44.07024" lon="7.05118">
        <ele>1599.29</ele>
        <time>2015-06-14T08:14:01Z</time>
      </trkpt>
      <trkpt lat="44.0703" lon="7.05161">
        <ele>1594.96</ele>
        <time>2015-06-14T08:14:05Z</time>
      </trkpt>
      <trkpt lat="44.07035" lon="7.05198">
        <ele>1590.16</ele>
        <time>2015-06-14T08:14:08Z</time>
      </trkpt>
      <trkpt lat="44.07039" lon="7.05234">
        <ele>1586.31</ele>
        <time>2015-06-14T08:14:11Z</time>
      </trkpt>
      <trkpt lat="44.07038" lon="7.05245">
        <ele>1586.31</ele>
        <time>2015-06-14T08:14:12Z</time>
      </trkpt>
      <trkpt lat="44.07031" lon="7.05305">
        <ele>1582.95</ele>
        <time>2015-06-14T08:14:18Z</time>
      </trkpt>
      <trkpt lat="44.0703" lon="7.05313">
        <ele>1581.51</ele>
        <time>2015-06-14T08:14:19Z</time>
      </trkpt>
      <trkpt lat="44.07031" lon="7.05319">
        <ele>1580.54</ele>
        <time>2015-06-14T08:14:20Z</time>
      </trkpt>
      <trkpt lat="44.07034" lon="7.05325">
        <ele>1580.06</ele>
        <time>2015-06-14T08:14:21Z</time>
      </trkpt>
      <trkpt lat="44.07039" lon="7.05328">
        <ele>1580.06</ele>
        <time>2015-06-14T08:14:22Z</time>
      </trkpt>
      <trkpt lat="44.07045" lon="7.0533">
        <ele>1580.06</ele>
        <time>2015-06-14T08:14:23Z</time>
      </trkpt>
      <trkpt lat="44.07051" lon="7.05331">
        <ele>1580.06</ele>
        <time>2015-06-14T08:14:24Z</time>
      </trkpt>
      <trkpt lat="44.07056" lon="7.05331">
        <ele>1580.06</ele>
        <time>2015-06-14T08:14:25Z</time>
      </trkpt>
      <trkpt lat="44.0706" lon="7.05329">
        <ele>1579.58</ele>
        <time>2015-06-14T08:14:26Z</time>
      </trkpt>
      <trkpt lat="44.07064" lon="7.05327">
        <ele>1579.58</ele>
        <time>2015-06-14T08:14:27Z</time>
      </trkpt>
      <trkpt lat="44.07067" lon="7.05328">
        <ele>1579.58</ele>
        <time>2015-06-14T08:14:28Z</time>
      </trkpt>
      <trkpt lat="44.07069" lon="7.05328">
        <ele>1579.58</ele>
        <time>2015-06-14T08:14:29Z</time>
      </trkpt>
      <trkpt lat="44.07071" lon="7.0533">
        <ele>1579.58</ele>
        <time>2015-06-14T08:14:30Z</time>
      </trkpt>
      <trkpt lat="44.07074" lon="7.05332">
        <ele>1579.58</ele>
        <time>2015-06-14T08:14:31Z</time>
      </trkpt>
      <trkpt lat="44.07076" lon="7.05336">
        <ele>1579.58</ele>
        <time>2015-06-14T08:14:32Z</time>
      </trkpt>
      <trkpt lat="44.07078" lon="7.05341">
        <ele>1579.58</ele>
        <time>2015-06-14T08:14:33Z</time>
      </trkpt>
      <trkpt lat="44.07079" lon="7.05346">
        <ele>1579.1</ele>
        <time>2015-06-14T08:14:34Z</time>
      </trkpt>
      <trkpt lat="44.07078" lon="7.05351">
        <ele>1577.66</ele>
        <time>2015-06-14T08:14:35Z</time>
      </trkpt>
      <trkpt lat="44.07076" lon="7.05357">
        <ele>1576.7</ele>
        <time>2015-06-14T08:14:36Z</time>
      </trkpt>
      <trkpt lat="44.07075" lon="7.05362">
        <ele>1576.7</ele>
        <time>2015-06-14T08:14:37Z</time>
      </trkpt>
      <trkpt lat="44.07075" lon="7.05367">
        <ele>1576.22</ele>
        <time>2015-06-14T08:14:38Z</time>
      </trkpt>
      <trkpt lat="44.07075" lon="7.05373">
        <ele>1576.22</ele>
        <time>2015-06-14T08:14:39Z</time>
      </trkpt>
      <trkpt lat="44.07076" lon="7.05379">
        <ele>1576.22</ele>
        <time>2015-06-14T08:14:40Z</time>
      </trkpt>
      <trkpt lat="44.07078" lon="7.05392">
        <ele>1576.22</ele>
        <time>2015-06-14T08:14:42Z</time>
      </trkpt>
      <trkpt lat="44.07078" lon="7.05399">
        <ele>1576.22</ele>
        <time>2015-06-14T08:14:43Z</time>
      </trkpt>
      <trkpt lat="44.07078" lon="7.05413">
        <ele>1576.22</ele>
        <time>2015-06-14T08:14:45Z</time>
      </trkpt>
      <trkpt lat="44.07084" lon="7.05458">
        <ele>1575.74</ele>
        <time>2015-06-14T08:14:51Z</time>
      </trkpt>
      <trkpt lat="44.07084" lon="7.05464">
        <ele>1575.74</ele>
        <time>2015-06-14T08:14:52Z</time>
      </trkpt>
      <trkpt lat="44.07084" lon="7.0547">
        <ele>1575.74</ele>
        <time>2015-06-14T08:14:53Z</time>
      </trkpt>
      <trkpt lat="44.07082" lon="7.05476">
        <ele>1575.74</ele>
        <time>2015-06-14T08:14:54Z</time>
      </trkpt>
      <trkpt lat="44.0708" lon="7.05481">
        <ele>1575.74</ele>
        <time>2015-06-14T08:14:55Z</time>
      </trkpt>
      <trkpt lat="44.07078" lon="7.05486">
        <ele>1575.74</ele>
        <time>2015-06-14T08:14:56Z</time>
      </trkpt>
      <trkpt lat="44.07069" lon="7.05507">
        <ele>1574.3</ele>
        <time>2015-06-14T08:14:59Z</time>
      </trkpt>
      <trkpt lat="44.07069" lon="7.05515">
        <ele>1574.3</ele>
        <time>2015-06-14T08:15:00Z</time>
      </trkpt>
      <trkpt lat="44.07068" lon="7.05523">
        <ele>1573.33</ele>
        <time>2015-06-14T08:15:01Z</time>
      </trkpt>
      <trkpt lat="44.07068" lon="7.0553">
        <ele>1572.85</ele>
        <time>2015-06-14T08:15:02Z</time>
      </trkpt>
      <trkpt lat="44.07067" lon="7.05535">
        <ele>1572.85</ele>
        <time>2015-06-14T08:15:03Z</time>
      </trkpt>
      <trkpt lat="44.07066" lon="7.05541">
        <ele>1571.89</ele>
        <time>2015-06-14T08:15:04Z</time>
      </trkpt>
      <trkpt lat="44.07066" lon="7.05546">
        <ele>1571.89</ele>
        <time>2015-06-14T08:15:05Z</time>
      </trkpt>
      <trkpt lat="44.07066" lon="7.05551">
        <ele>1571.89</ele>
        <time>2015-06-14T08:15:06Z</time>
      </trkpt>
      <trkpt lat="44.07067" lon="7.05556">
        <ele>1571.89</ele>
        <time>2015-06-14T08:15:07Z</time>
      </trkpt>
      <trkpt lat="44.07069" lon="7.05561">
        <ele>1571.89</ele>
        <time>2015-06-14T08:15:08Z</time>
      </trkpt>
      <trkpt lat="44.07074" lon="7.05574">
        <ele>1571.89</ele>
        <time>2015-06-14T08:15:11Z</time>
      </trkpt>
      <trkpt lat="44.07101" lon="7.05585">
        <ele>1571.89</ele>
        <time>2015-06-14T08:15:19Z</time>
      </trkpt>
      <trkpt lat="44.0712" lon="7.05596">
        <ele>1571.89</ele>
        <time>2015-06-14T08:15:24Z</time>
      </trkpt>
      <trkpt lat="44.07125" lon="7.05596">
        <ele>1571.89</ele>
        <time>2015-06-14T08:15:25Z</time>
      </trkpt>
      <trkpt lat="44.0713" lon="7.05597">
        <ele>1571.89</ele>
        <time>2015-06-14T08:15:26Z</time>
      </trkpt>
      <trkpt lat="44.0714" lon="7.05598">
        <ele>1571.41</ele>
        <time>2015-06-14T08:15:28Z</time>
      </trkpt>
      <trkpt lat="44.07143" lon="7.05601">
        <ele>1570.93</ele>
        <time>2015-06-14T08:15:29Z</time>
      </trkpt>
      <trkpt lat="44.07145" lon="7.05605">
        <ele>1570.93</ele>
        <time>2015-06-14T08:15:30Z</time>
      </trkpt>
      <trkpt lat="44.07146" lon="7.05618">
        <ele>1570.93</ele>
        <time>2015-06-14T08:15:32Z</time>
      </trkpt>
      <trkpt lat="44.07145" lon="7.05624">
        <ele>1570.93</ele>
        <time>2015-06-14T08:15:33Z</time>
      </trkpt>
      <trkpt lat="44.07138" lon="7.05658">
        <ele>1570.45</ele>
        <time>2015-06-14T08:15:39Z</time>
      </trkpt>
      <trkpt lat="44.07136" lon="7.05664">
        <ele>1570.45</ele>
        <time>2015-06-14T08:15:40Z</time>
      </trkpt>
      <trkpt lat="44.07134" lon="7.0567">
        <ele>1569.97</ele>
        <time>2015-06-14T08:15:41Z</time>
      </trkpt>
      <trkpt lat="44.07132" lon="7.05676">
        <ele>1569.97</ele>
        <time>2015-06-14T08:15:42Z</time>
      </trkpt>
      <trkpt lat="44.0713" lon="7.05682">
        <ele>1569.97</ele>
        <time>2015-06-14T08:15:43Z</time>
      </trkpt>
      <trkpt lat="44.07125" lon="7.05694">
        <ele>1569.49</ele>
        <time>2015-06-14T08:15:45Z</time>
      </trkpt>
      <trkpt lat="44.07125" lon="7.057">
        <ele>1569.49</ele>
        <time>2015-06-14T08:15:46Z</time>
      </trkpt>
      <trkpt lat="44.07127" lon="7.05705">
        <ele>1569.49</ele>
        <time>2015-06-14T08:15:47Z</time>
      </trkpt>
      <trkpt lat="44.0713" lon="7.05709">
        <ele>1569.01</ele>
        <time>2015-06-14T08:15:48Z</time>
      </trkpt>
      <trkpt lat="44.07146" lon="7.05722">
        <ele>1568.53</ele>
        <time>2015-06-14T08:15:52Z</time>
      </trkpt>
      <trkpt lat="44.0715" lon="7.05726">
        <ele>1568.53</ele>
        <time>2015-06-14T08:15:53Z</time>
      </trkpt>
      <trkpt lat="44.07154" lon="7.05732">
        <ele>1568.53</ele>
        <time>2015-06-14T08:15:54Z</time>
      </trkpt>
      <trkpt lat="44.07157" lon="7.05738">
        <ele>1568.05</ele>
        <time>2015-06-14T08:15:55Z</time>
      </trkpt>
      <trkpt lat="44.07159" lon="7.05742">
        <ele>1568.05</ele>
        <time>2015-06-14T08:15:56Z</time>
      </trkpt>
      <trkpt lat="44.07167" lon="7.05757">
        <ele>1567.57</ele>
        <time>2015-06-14T08:15:58Z</time>
      </trkpt>
      <trkpt lat="44.0717" lon="7.05763">
        <ele>1567.09</ele>
        <time>2015-06-14T08:15:59Z</time>
      </trkpt>
      <trkpt lat="44.07175" lon="7.05773">
        <ele>1566.61</ele>
        <time>2015-06-14T08:16:01Z</time>
      </trkpt>
      <trkpt lat="44.07179" lon="7.05778">
        <ele>1566.12</ele>
        <time>2015-06-14T08:16:02Z</time>
      </trkpt>
      <trkpt lat="44.07218" lon="7.05825">
        <ele>1565.64</ele>
        <time>2015-06-14T08:16:11Z</time>
      </trkpt>
      <trkpt lat="44.07221" lon="7.0583">
        <ele>1565.64</ele>
        <time>2015-06-14T08:16:12Z</time>
      </trkpt>
      <trkpt lat="44.07225" lon="7.05843">
        <ele>1565.64</ele>
        <time>2015-06-14T08:16:14Z</time>
      </trkpt>
      <trkpt lat="44.07232" lon="7.05865">
        <ele>1563.72</ele>
        <time>2015-06-14T08:16:17Z</time>
      </trkpt>
      <trkpt lat="44.07235" lon="7.05869">
        <ele>1563.72</ele>
        <time>2015-06-14T08:16:18Z</time>
      </trkpt>
      <trkpt lat="44.0724" lon="7.0587">
        <ele>1563.72</ele>
        <time>2015-06-14T08:16:19Z</time>
      </trkpt>
      <trkpt lat="44.0725" lon="7.05871">
        <ele>1563.24</ele>
        <time>2015-06-14T08:16:21Z</time>
      </trkpt>
      <trkpt lat="44.07254" lon="7.05872">
        <ele>1563.24</ele>
        <time>2015-06-14T08:16:22Z</time>
      </trkpt>
      <trkpt lat="44.07259" lon="7.05874">
        <ele>1563.24</ele>
        <time>2015-06-14T08:16:23Z</time>
      </trkpt>
      <trkpt lat="44.07263" lon="7.05877">
        <ele>1563.24</ele>
        <time>2015-06-14T08:16:24Z</time>
      </trkpt>
      <trkpt lat="44.07267" lon="7.0588">
        <ele>1563.24</ele>
        <time>2015-06-14T08:16:25Z</time>
      </trkpt>
      <trkpt lat="44.07294" lon="7.05906">
        <ele>1560.36</ele>
        <time>2015-06-14T08:16:31Z</time>
      </trkpt>
      <trkpt lat="44.07298" lon="7.05911">
        <ele>1560.36</ele>
        <time>2015-06-14T08:16:32Z</time>
      </trkpt>
      <trkpt lat="44.07304" lon="7.05915">
        <ele>1560.36</ele>
        <time>2015-06-14T08:16:33Z</time>
      </trkpt>
      <trkpt lat="44.07314" lon="7.05921">
        <ele>1560.36</ele>
        <time>2015-06-14T08:16:35Z</time>
      </trkpt>
      <trkpt lat="44.07318" lon="7.05925">
        <ele>1559.88</ele>
        <time>2015-06-14T08:16:36Z</time>
      </trkpt>
      <trkpt lat="44.07322" lon="7.0593">
        <ele>1559.88</ele>
        <time>2015-06-14T08:16:37Z</time>
      </trkpt>
      <trkpt lat="44.07335" lon="7.05945">
        <ele>1559.88</ele>
        <time>2015-06-14T08:16:40Z</time>
      </trkpt>
      <trkpt lat="44.07339" lon="7.05948">
        <ele>1559.88</ele>
        <time>2015-06-14T08:16:41Z</time>
      </trkpt>
      <trkpt lat="44.07345" lon="7.0595">
        <ele>1559.4</ele>
        <time>2015-06-14T08:16:42Z</time>
      </trkpt>
      <trkpt lat="44.07349" lon="7.0595">
        <ele>1559.4</ele>
        <time>2015-06-14T08:16:43Z</time>
      </trkpt>
      <trkpt lat="44.07354" lon="7.05951">
        <ele>1558.92</ele>
        <time>2015-06-14T08:16:44Z</time>
      </trkpt>
      <trkpt lat="44.07358" lon="7.05954">
        <ele>1558.92</ele>
        <time>2015-06-14T08:16:45Z</time>
      </trkpt>
      <trkpt lat="44.07363" lon="7.05959">
        <ele>1558.92</ele>
        <time>2015-06-14T08:16:46Z</time>
      </trkpt>
      <trkpt lat="44.07366" lon="7.05964">
        <ele>1558.92</ele>
        <time>2015-06-14T08:16:47Z</time>
      </trkpt>
      <trkpt lat="44.07368" lon="7.05971">
        <ele>1558.92</ele>
        <time>2015-06-14T08:16:48Z</time>
      </trkpt>
      <trkpt lat="44.07378" lon="7.06015">
        <ele>1557.47</ele>
        <time>2015-06-14T08:16:55Z</time>
      </trkpt>
      <trkpt lat="44.07374" lon="7.06039">
        <ele>1556.99</ele>
        <time>2015-06-14T08:17:00Z</time>
      </trkpt>
      <trkpt lat="44.07376" lon="7.06042">
        <ele>1556.99</ele>
        <time>2015-06-14T08:17:01Z</time>
      </trkpt>
      <trkpt lat="44.07378" lon="7.06043">
        <ele>1556.99</ele>
        <time>2015-06-14T08:17:02Z</time>
      </trkpt>
      <trkpt lat="44.07383" lon="7.06045">
        <ele>1558.43</ele>
        <time>2015-06-14T08:17:04Z</time>
      </trkpt>
      <trkpt lat="44.0739" lon="7.06042">
        <ele>1558.43</ele>
        <time>2015-06-14T08:17:06Z</time>
      </trkpt>
      <trkpt lat="44.07397" lon="7.06035">
        <ele>1556.99</ele>
        <time>2015-06-14T08:17:08Z</time>
      </trkpt>
      <trkpt lat="44.07401" lon="7.06031">
        <ele>1556.99</ele>
        <time>2015-06-14T08:17:09Z</time>
      </trkpt>
      <trkpt lat="44.0741" lon="7.06019">
        <ele>1556.51</ele>
        <time>2015-06-14T08:17:12Z</time>
      </trkpt>
      <trkpt lat="44.07414" lon="7.06016">
        <ele>1556.51</ele>
        <time>2015-06-14T08:17:13Z</time>
      </trkpt>
      <trkpt lat="44.07419" lon="7.06015">
        <ele>1556.51</ele>
        <time>2015-06-14T08:17:14Z</time>
      </trkpt>
      <trkpt lat="44.07424" lon="7.06014">
        <ele>1556.03</ele>
        <time>2015-06-14T08:17:15Z</time>
      </trkpt>
      <trkpt lat="44.07429" lon="7.06016">
        <ele>1556.03</ele>
        <time>2015-06-14T08:17:16Z</time>
      </trkpt>
      <trkpt lat="44.07434" lon="7.06019">
        <ele>1555.07</ele>
        <time>2015-06-14T08:17:17Z</time>
      </trkpt>
      <trkpt lat="44.07438" lon="7.06023">
        <ele>1554.59</ele>
        <time>2015-06-14T08:17:18Z</time>
      </trkpt>
      <trkpt lat="44.07441" lon="7.06029">
        <ele>1554.11</ele>
        <time>2015-06-14T08:17:19Z</time>
      </trkpt>
      <trkpt lat="44.07445" lon="7.06034">
        <ele>1554.11</ele>
        <time>2015-06-14T08:17:20Z</time>
      </trkpt>
      <trkpt lat="44.07449" lon="7.06038">
        <ele>1554.11</ele>
        <time>2015-06-14T08:17:21Z</time>
      </trkpt>
      <trkpt lat="44.07454" lon="7.06041">
        <ele>1553.15</ele>
        <time>2015-06-14T08:17:22Z</time>
      </trkpt>
      <trkpt lat="44.07459" lon="7.06042">
        <ele>1553.15</ele>
        <time>2015-06-14T08:17:23Z</time>
      </trkpt>
      <trkpt lat="44.07464" lon="7.06043">
        <ele>1553.15</ele>
        <time>2015-06-14T08:17:24Z</time>
      </trkpt>
      <trkpt lat="44.0747" lon="7.06045">
        <ele>1553.15</ele>
        <time>2015-06-14T08:17:25Z</time>
      </trkpt>
      <trkpt lat="44.07474" lon="7.06048">
        <ele>1553.15</ele>
        <time>2015-06-14T08:17:26Z</time>
      </trkpt>
      <trkpt lat="44.07477" lon="7.06053">
        <ele>1553.63</ele>
        <time>2015-06-14T08:17:27Z</time>
      </trkpt>
      <trkpt lat="44.0748" lon="7.06058">
        <ele>1553.63</ele>
        <time>2015-06-14T08:17:28Z</time>
      </trkpt>
      <trkpt lat="44.07483" lon="7.06062">
        <ele>1552.67</ele>
        <time>2015-06-14T08:17:29Z</time>
      </trkpt>
      <trkpt lat="44.07487" lon="7.06065">
        <ele>1552.67</ele>
        <time>2015-06-14T08:17:30Z</time>
      </trkpt>
      <trkpt lat="44.07492" lon="7.06067">
        <ele>1551.71</ele>
        <time>2015-06-14T08:17:31Z</time>
      </trkpt>
      <trkpt lat="44.07497" lon="7.06067">
        <ele>1551.71</ele>
        <time>2015-06-14T08:17:32Z</time>
      </trkpt>
      <trkpt lat="44.07501" lon="7.06069">
        <ele>1551.71</ele>
        <time>2015-06-14T08:17:33Z</time>
      </trkpt>
      <trkpt lat="44.07505" lon="7.0607">
        <ele>1551.71</ele>
        <time>2015-06-14T08:17:34Z</time>
      </trkpt>
      <trkpt lat="44.07509" lon="7.06073">
        <ele>1551.71</ele>
        <time>2015-06-14T08:17:35Z</time>
      </trkpt>
      <trkpt lat="44.07513" lon="7.06076">
        <ele>1551.71</ele>
        <time>2015-06-14T08:17:36Z</time>
      </trkpt>
      <trkpt lat="44.07517" lon="7.06079">
        <ele>1551.71</ele>
        <time>2015-06-14T08:17:37Z</time>
      </trkpt>
      <trkpt lat="44.07521" lon="7.06082">
        <ele>1551.71</ele>
        <time>2015-06-14T08:17:38Z</time>
      </trkpt>
      <trkpt lat="44.07525" lon="7.06087">
        <ele>1551.22</ele>
        <time>2015-06-14T08:17:39Z</time>
      </trkpt>
      <trkpt lat="44.07528" lon="7.06094">
        <ele>1550.26</ele>
        <time>2015-06-14T08:17:40Z</time>
      </trkpt>
      <trkpt lat="44.07533" lon="7.06109">
        <ele>1549.78</ele>
        <time>2015-06-14T08:17:42Z</time>
      </trkpt>
      <trkpt lat="44.07537" lon="7.06115">
        <ele>1549.3</ele>
        <time>2015-06-14T08:17:43Z</time>
      </trkpt>
      <trkpt lat="44.07541" lon="7.06119">
        <ele>1548.82</ele>
        <time>2015-06-14T08:17:44Z</time>
      </trkpt>
      <trkpt lat="44.07545" lon="7.06121">
        <ele>1547.86</ele>
        <time>2015-06-14T08:17:45Z</time>
      </trkpt>
      <trkpt lat="44.07572" lon="7.06122">
        <ele>1547.86</ele>
        <time>2015-06-14T08:17:50Z</time>
      </trkpt>
      <trkpt lat="44.07577" lon="7.06124">
        <ele>1547.86</ele>
        <time>2015-06-14T08:17:51Z</time>
      </trkpt>
      <trkpt lat="44.07582" lon="7.06128">
        <ele>1546.9</ele>
        <time>2015-06-14T08:17:52Z</time>
      </trkpt>
      <trkpt lat="44.07586" lon="7.06133">
        <ele>1547.38</ele>
        <time>2015-06-14T08:17:53Z</time>
      </trkpt>
      <trkpt lat="44.0759" lon="7.0614">
        <ele>1546.9</ele>
        <time>2015-06-14T08:17:54Z</time>
      </trkpt>
      <trkpt lat="44.07599" lon="7.06151">
        <ele>1545.46</ele>
        <time>2015-06-14T08:17:56Z</time>
      </trkpt>
      <trkpt lat="44.07605" lon="7.06153">
        <ele>1545.46</ele>
        <time>2015-06-14T08:17:57Z</time>
      </trkpt>
      <trkpt lat="44.07612" lon="7.06153">
        <ele>1544.5</ele>
        <time>2015-06-14T08:17:58Z</time>
      </trkpt>
      <trkpt lat="44.07624" lon="7.06151">
        <ele>1544.01</ele>
        <time>2015-06-14T08:18:00Z</time>
      </trkpt>
      <trkpt lat="44.07629" lon="7.06151">
        <ele>1544.01</ele>
        <time>2015-06-14T08:18:01Z</time>
      </trkpt>
      <trkpt lat="44.0764" lon="7.06152">
        <ele>1544.01</ele>
        <time>2015-06-14T08:18:03Z</time>
      </trkpt>
      <trkpt lat="44.07654" lon="7.06157">
        <ele>1544.01</ele>
        <time>2015-06-14T08:18:06Z</time>
      </trkpt>
      <trkpt lat="44.07659" lon="7.06159">
        <ele>1543.53</ele>
        <time>2015-06-14T08:18:07Z</time>
      </trkpt>
      <trkpt lat="44.07703" lon="7.0619">
        <ele>1542.57</ele>
        <time>2015-06-14T08:18:18Z</time>
      </trkpt>
      <trkpt lat="44.07706" lon="7.06196">
        <ele>1542.09</ele>
        <time>2015-06-14T08:18:19Z</time>
      </trkpt>
      <trkpt lat="44.07708" lon="7.06201">
        <ele>1542.09</ele>
        <time>2015-06-14T08:18:20Z</time>
      </trkpt>
      <trkpt lat="44.07712" lon="7.06227">
        <ele>1540.65</ele>
        <time>2015-06-14T08:18:27Z</time>
      </trkpt>
      <trkpt lat="44.07711" lon="7.06229">
        <ele>1540.65</ele>
        <time>2015-06-14T08:18:28Z</time>
      </trkpt>
      <trkpt lat="44.07711" lon="7.06232">
        <ele>1540.65</ele>
        <time>2015-06-14T08:18:29Z</time>
      </trkpt>
      <trkpt lat="44.07712" lon="7.06235">
        <ele>1540.65</ele>
        <time>2015-06-14T08:18:30Z</time>
      </trkpt>
      <trkpt lat="44.07713" lon="7.06238">
        <ele>1540.65</ele>
        <time>2015-06-14T08:18:31Z</time>
      </trkpt>
      <trkpt lat="44.07713" lon="7.06243">
        <ele>1540.65</ele>
        <time>2015-06-14T08:18:32Z</time>
      </trkpt>
      <trkpt lat="44.07714" lon="7.06249">
        <ele>1540.65</ele>
        <time>2015-06-14T08:18:33Z</time>
      </trkpt>
      <trkpt lat="44.07714" lon="7.06256">
        <ele>1540.65</ele>
        <time>2015-06-14T08:18:34Z</time>
      </trkpt>
      <trkpt lat="44.07714" lon="7.06262">
        <ele>1540.65</ele>
        <time>2015-06-14T08:18:35Z</time>
      </trkpt>
      <trkpt lat="44.07713" lon="7.06267">
        <ele>1540.65</ele>
        <time>2015-06-14T08:18:36Z</time>
      </trkpt>
      <trkpt lat="44.07713" lon="7.06274">
        <ele>1540.65</ele>
        <time>2015-06-14T08:18:37Z</time>
      </trkpt>
      <trkpt lat="44.07714" lon="7.0628">
        <ele>1540.65</ele>
        <time>2015-06-14T08:18:38Z</time>
      </trkpt>
      <trkpt lat="44.07716" lon="7.06285">
        <ele>1540.65</ele>
        <time>2015-06-14T08:18:39Z</time>
      </trkpt>
      <trkpt lat="44.07718" lon="7.06289">
        <ele>1542.09</ele>
        <time>2015-06-14T08:18:40Z</time>
      </trkpt>
      <trkpt lat="44.07721" lon="7.06294">
        <ele>1542.09</ele>
        <time>2015-06-14T08:18:41Z</time>
      </trkpt>
      <trkpt lat="44.07723" lon="7.06297">
        <ele>1542.57</ele>
        <time>2015-06-14T08:18:42Z</time>
      </trkpt>
      <trkpt lat="44.07725" lon="7.063">
        <ele>1542.57</ele>
        <time>2015-06-14T08:18:43Z</time>
      </trkpt>
      <trkpt lat="44.07726" lon="7.06309">
        <ele>1542.57</ele>
        <time>2015-06-14T08:18:47Z</time>
      </trkpt>
      <trkpt lat="44.07728" lon="7.06322">
        <ele>1543.05</ele>
        <time>2015-06-14T08:18:51Z</time>
      </trkpt>
      <trkpt lat="44.07732" lon="7.06333">
        <ele>1544.01</ele>
        <time>2015-06-14T08:18:54Z</time>
      </trkpt>
      <trkpt lat="44.07748" lon="7.06361">
        <ele>1545.46</ele>
        <time>2015-06-14T08:19:03Z</time>
      </trkpt>
      <trkpt lat="44.07782" lon="7.06382">
        <ele>1545.94</ele>
        <time>2015-06-14T08:19:13Z</time>
      </trkpt>
      <trkpt lat="44.07809" lon="7.06405">
        <ele>1546.42</ele>
        <time>2015-06-14T08:19:23Z</time>
      </trkpt>
      <trkpt lat="44.07844" lon="7.06427">
        <ele>1547.38</ele>
        <time>2015-06-14T08:19:34Z</time>
      </trkpt>
      <trkpt lat="44.07862" lon="7.06436">
        <ele>1548.34</ele>
        <time>2015-06-14T08:19:42Z</time>
      </trkpt>
      <trkpt lat="44.07866" lon="7.06436">
        <ele>1548.34</ele>
        <time>2015-06-14T08:19:43Z</time>
      </trkpt>
      <trkpt lat="44.07876" lon="7.06434">
        <ele>1544.98</ele>
        <time>2015-06-14T08:19:45Z</time>
      </trkpt>
      <trkpt lat="44.07886" lon="7.06436">
        <ele>1541.61</ele>
        <time>2015-06-14T08:19:48Z</time>
      </trkpt>
      <trkpt lat="44.07887" lon="7.06436">
        <ele>1541.61</ele>
        <time>2015-06-14T08:19:49Z</time>
      </trkpt>
      <trkpt lat="44.07888" lon="7.06436">
        <ele>1541.13</ele>
        <time>2015-06-14T08:19:55Z</time>
      </trkpt>
      <trkpt lat="44.07882" lon="7.06427">
        <ele>1537.77</ele>
        <time>2015-06-14T08:19:59Z</time>
      </trkpt>
      <trkpt lat="44.07878" lon="7.06419">
        <ele>1534.4</ele>
        <time>2015-06-14T08:20:01Z</time>
      </trkpt>
      <trkpt lat="44.07878" lon="7.06417">
        <ele>1533.92</ele>
        <time>2015-06-14T08:20:02Z</time>
      </trkpt>
      <trkpt lat="44.07881" lon="7.06414">
        <ele>1532.48</ele>
        <time>2015-06-14T08:20:04Z</time>
      </trkpt>
      <trkpt lat="44.07884" lon="7.06413">
        <ele>1531.52</ele>
        <time>2015-06-14T08:20:05Z</time>
      </trkpt>
      <trkpt lat="44.07887" lon="7.06412">
        <ele>1530.08</ele>
        <time>2015-06-14T08:20:06Z</time>
      </trkpt>
      <trkpt lat="44.0789" lon="7.06411">
        <ele>1528.63</ele>
        <time>2015-06-14T08:20:07Z</time>
      </trkpt>
      <trkpt lat="44.07893" lon="7.06409">
        <ele>1527.67</ele>
        <time>2015-06-14T08:20:08Z</time>
      </trkpt>
      <trkpt lat="44.07896" lon="7.06408">
        <ele>1526.71</ele>
        <time>2015-06-14T08:20:09Z</time>
      </trkpt>
      <trkpt lat="44.07899" lon="7.06407">
        <ele>1525.27</ele>
        <time>2015-06-14T08:20:10Z</time>
      </trkpt>
      <trkpt lat="44.07901" lon="7.06408">
        <ele>1524.79</ele>
        <time>2015-06-14T08:20:11Z</time>
      </trkpt>
      <trkpt lat="44.07902" lon="7.06411">
        <ele>1522.87</ele>
        <time>2015-06-14T08:20:19Z</time>
      </trkpt>
      <trkpt lat="44.079" lon="7.06409">
        <ele>1522.87</ele>
        <time>2015-06-14T08:20:20Z</time>
      </trkpt>
      <trkpt lat="44.07894" lon="7.06405">
        <ele>1522.39</ele>
        <time>2015-06-14T08:20:22Z</time>
      </trkpt>
      <trkpt lat="44.07881" lon="7.06394">
        <ele>1519.5</ele>
        <time>2015-06-14T08:20:25Z</time>
      </trkpt>
      <trkpt lat="44.07873" lon="7.06384">
        <ele>1517.1</ele>
        <time>2015-06-14T08:20:27Z</time>
      </trkpt>
      <trkpt lat="44.07871" lon="7.0638">
        <ele>1515.66</ele>
        <time>2015-06-14T08:20:28Z</time>
      </trkpt>
      <trkpt lat="44.07869" lon="7.06376">
        <ele>1515.18</ele>
        <time>2015-06-14T08:20:29Z</time>
      </trkpt>
      <trkpt lat="44.07869" lon="7.06373">
        <ele>1513.73</ele>
        <time>2015-06-14T08:20:30Z</time>
      </trkpt>
      <trkpt lat="44.07871" lon="7.06372">
        <ele>1512.29</ele>
        <time>2015-06-14T08:20:32Z</time>
      </trkpt>
      <trkpt lat="44.07874" lon="7.06373">
        <ele>1511.81</ele>
        <time>2015-06-14T08:20:33Z</time>
      </trkpt>
      <trkpt lat="44.07879" lon="7.06374">
        <ele>1510.85</ele>
        <time>2015-06-14T08:20:34Z</time>
      </trkpt>
      <trkpt lat="44.07884" lon="7.06375">
        <ele>1510.37</ele>
        <time>2015-06-14T08:20:35Z</time>
      </trkpt>
      <trkpt lat="44.0789" lon="7.06376">
        <ele>1508.93</ele>
        <time>2015-06-14T08:20:36Z</time>
      </trkpt>
      <trkpt lat="44.07897" lon="7.06375">
        <ele>1507.48</ele>
        <time>2015-06-14T08:20:37Z</time>
      </trkpt>
      <trkpt lat="44.07903" lon="7.06374">
        <ele>1506.04</ele>
        <time>2015-06-14T08:20:38Z</time>
      </trkpt>
      <trkpt lat="44.07916" lon="7.06373">
        <ele>1502.68</ele>
        <time>2015-06-14T08:20:41Z</time>
      </trkpt>
      <trkpt lat="44.07922" lon="7.06372">
        <ele>1501.24</ele>
        <time>2015-06-14T08:20:44Z</time>
      </trkpt>
      <trkpt lat="44.07919" lon="7.06371">
        <ele>1501.24</ele>
        <time>2015-06-14T08:20:46Z</time>
      </trkpt>
      <trkpt lat="44.07917" lon="7.0637">
        <ele>1501.24</ele>
        <time>2015-06-14T08:20:47Z</time>
      </trkpt>
      <trkpt lat="44.07899" lon="7.06356">
        <ele>1497.39</ele>
        <time>2015-06-14T08:20:53Z</time>
      </trkpt>
      <trkpt lat="44.07896" lon="7.06353">
        <ele>1496.43</ele>
        <time>2015-06-14T08:20:55Z</time>
      </trkpt>
      <trkpt lat="44.07896" lon="7.06352">
        <ele>1494.51</ele>
        <time>2015-06-14T08:21:01Z</time>
      </trkpt>
      <trkpt lat="44.07898" lon="7.06352">
        <ele>1494.51</ele>
        <time>2015-06-14T08:21:02Z</time>
      </trkpt>
      <trkpt lat="44.07902" lon="7.06352">
        <ele>1494.03</ele>
        <time>2015-06-14T08:21:03Z</time>
      </trkpt>
      <trkpt lat="44.07921" lon="7.06351">
        <ele>1491.62</ele>
        <time>2015-06-14T08:21:07Z</time>
      </trkpt>
      <trkpt lat="44.07926" lon="7.06351">
        <ele>1490.66</ele>
        <time>2015-06-14T08:21:08Z</time>
      </trkpt>
      <trkpt lat="44.07931" lon="7.06351">
        <ele>1489.22</ele>
        <time>2015-06-14T08:21:09Z</time>
      </trkpt>
      <trkpt lat="44.07945" lon="7.06352">
        <ele>1486.34</ele>
        <time>2015-06-14T08:21:12Z</time>
      </trkpt>
      <trkpt lat="44.0795" lon="7.06354">
        <ele>1485.85</ele>
        <time>2015-06-14T08:21:13Z</time>
      </trkpt>
      <trkpt lat="44.07956" lon="7.06356">
        <ele>1484.89</ele>
        <time>2015-06-14T08:21:14Z</time>
      </trkpt>
      <trkpt lat="44.07961" lon="7.06356">
        <ele>1484.41</ele>
        <time>2015-06-14T08:21:15Z</time>
      </trkpt>
      <trkpt lat="44.07968" lon="7.06356">
        <ele>1482.97</ele>
        <time>2015-06-14T08:21:16Z</time>
      </trkpt>
      <trkpt lat="44.07974" lon="7.06356">
        <ele>1482.01</ele>
        <time>2015-06-14T08:21:17Z</time>
      </trkpt>
      <trkpt lat="44.0798" lon="7.06355">
        <ele>1480.09</ele>
        <time>2015-06-14T08:21:18Z</time>
      </trkpt>
      <trkpt lat="44.07987" lon="7.06354">
        <ele>1479.13</ele>
        <time>2015-06-14T08:21:19Z</time>
      </trkpt>
      <trkpt lat="44.08006" lon="7.06349">
        <ele>1474.8</ele>
        <time>2015-06-14T08:21:22Z</time>
      </trkpt>
      <trkpt lat="44.08016" lon="7.06345">
        <ele>1471.44</ele>
        <time>2015-06-14T08:21:24Z</time>
      </trkpt>
      <trkpt lat="44.08022" lon="7.06342">
        <ele>1468.07</ele>
        <time>2015-06-14T08:21:27Z</time>
      </trkpt>
      <trkpt lat="44.08019" lon="7.0634">
        <ele>1467.11</ele>
        <time>2015-06-14T08:21:29Z</time>
      </trkpt>
      <trkpt lat="44.08017" lon="7.06338">
        <ele>1466.15</ele>
        <time>2015-06-14T08:21:30Z</time>
      </trkpt>
      <trkpt lat="44.08018" lon="7.06335">
        <ele>1465.67</ele>
        <time>2015-06-14T08:21:31Z</time>
      </trkpt>
      <trkpt lat="44.0802" lon="7.06333">
        <ele>1464.71</ele>
        <time>2015-06-14T08:21:32Z</time>
      </trkpt>
      <trkpt lat="44.08023" lon="7.0633">
        <ele>1464.71</ele>
        <time>2015-06-14T08:21:33Z</time>
      </trkpt>
      <trkpt lat="44.08028" lon="7.06329">
        <ele>1463.26</ele>
        <time>2015-06-14T08:21:34Z</time>
      </trkpt>
      <trkpt lat="44.08033" lon="7.06327">
        <ele>1460.86</ele>
        <time>2015-06-14T08:21:36Z</time>
      </trkpt>
      <trkpt lat="44.08031" lon="7.06321">
        <ele>1458.94</ele>
        <time>2015-06-14T08:21:38Z</time>
      </trkpt>
      <trkpt lat="44.08029" lon="7.06318">
        <ele>1458.94</ele>
        <time>2015-06-14T08:21:39Z</time>
      </trkpt>
      <trkpt lat="44.08026" lon="7.06316">
        <ele>1458.94</ele>
        <time>2015-06-14T08:21:40Z</time>
      </trkpt>
      <trkpt lat="44.08018" lon="7.06313">
        <ele>1457.98</ele>
        <time>2015-06-14T08:21:42Z</time>
      </trkpt>
      <trkpt lat="44.08011" lon="7.06313">
        <ele>1457.5</ele>
        <time>2015-06-14T08:21:43Z</time>
      </trkpt>
      <trkpt lat="44.08005" lon="7.06314">
        <ele>1456.05</ele>
        <time>2015-06-14T08:21:44Z</time>
      </trkpt>
      <trkpt lat="44.07998" lon="7.06314">
        <ele>1455.57</ele>
        <time>2015-06-14T08:21:45Z</time>
      </trkpt>
      <trkpt lat="44.07992" lon="7.06314">
        <ele>1455.57</ele>
        <time>2015-06-14T08:21:46Z</time>
      </trkpt>
      <trkpt lat="44.07986" lon="7.06312">
        <ele>1455.57</ele>
        <time>2015-06-14T08:21:47Z</time>
      </trkpt>
      <trkpt lat="44.0798" lon="7.06307">
        <ele>1454.61</ele>
        <time>2015-06-14T08:21:48Z</time>
      </trkpt>
      <trkpt lat="44.07974" lon="7.06301">
        <ele>1454.13</ele>
        <time>2015-06-14T08:21:49Z</time>
      </trkpt>
      <trkpt lat="44.07969" lon="7.06296">
        <ele>1453.65</ele>
        <time>2015-06-14T08:21:50Z</time>
      </trkpt>
      <trkpt lat="44.07952" lon="7.06278">
        <ele>1450.77</ele>
        <time>2015-06-14T08:21:53Z</time>
      </trkpt>
      <trkpt lat="44.07946" lon="7.06273">
        <ele>1448.84</ele>
        <time>2015-06-14T08:21:54Z</time>
      </trkpt>
      <trkpt lat="44.07941" lon="7.06267">
        <ele>1447.4</ele>
        <time>2015-06-14T08:21:55Z</time>
      </trkpt>
      <trkpt lat="44.07937" lon="7.06261">
        <ele>1445.96</ele>
        <time>2015-06-14T08:21:56Z</time>
      </trkpt>
      <trkpt lat="44.07934" lon="7.06255">
        <ele>1443.56</ele>
        <time>2015-06-14T08:21:57Z</time>
      </trkpt>
      <trkpt lat="44.07932" lon="7.06247">
        <ele>1441.63</ele>
        <time>2015-06-14T08:21:58Z</time>
      </trkpt>
      <trkpt lat="44.07929" lon="7.06239">
        <ele>1440.67</ele>
        <time>2015-06-14T08:21:59Z</time>
      </trkpt>
      <trkpt lat="44.07924" lon="7.06226">
        <ele>1437.31</ele>
        <time>2015-06-14T08:22:01Z</time>
      </trkpt>
      <trkpt lat="44.07921" lon="7.06221">
        <ele>1435.87</ele>
        <time>2015-06-14T08:22:02Z</time>
      </trkpt>
      <trkpt lat="44.07918" lon="7.06217">
        <ele>1434.91</ele>
        <time>2015-06-14T08:22:03Z</time>
      </trkpt>
      <trkpt lat="44.07913" lon="7.06213">
        <ele>1432.98</ele>
        <time>2015-06-14T08:22:04Z</time>
      </trkpt>
      <trkpt lat="44.07908" lon="7.0621">
        <ele>1432.02</ele>
        <time>2015-06-14T08:22:05Z</time>
      </trkpt>
      <trkpt lat="44.07904" lon="7.06205">
        <ele>1431.54</ele>
        <time>2015-06-14T08:22:06Z</time>
      </trkpt>
      <trkpt lat="44.07901" lon="7.06199">
        <ele>1429.62</ele>
        <time>2015-06-14T08:22:07Z</time>
      </trkpt>
      <trkpt lat="44.07898" lon="7.06192">
        <ele>1429.14</ele>
        <time>2015-06-14T08:22:08Z</time>
      </trkpt>
      <trkpt lat="44.07898" lon="7.06187">
        <ele>1430.1</ele>
        <time>2015-06-14T08:22:09Z</time>
      </trkpt>
      <trkpt lat="44.07898" lon="7.06184">
        <ele>1430.1</ele>
        <time>2015-06-14T08:22:10Z</time>
      </trkpt>
      <trkpt lat="44.07898" lon="7.06181">
        <ele>1431.06</ele>
        <time>2015-06-14T08:22:11Z</time>
      </trkpt>
      <trkpt lat="44.07898" lon="7.06179">
        <ele>1432.02</ele>
        <time>2015-06-14T08:22:12Z</time>
      </trkpt>
      <trkpt lat="44.07897" lon="7.06174">
        <ele>1432.98</ele>
        <time>2015-06-14T08:22:14Z</time>
      </trkpt>
      <trkpt lat="44.07897" lon="7.0617">
        <ele>1432.98</ele>
        <time>2015-06-14T08:22:15Z</time>
      </trkpt>
      <trkpt lat="44.07899" lon="7.0614">
        <ele>1430.1</ele>
        <time>2015-06-14T08:22:19Z</time>
      </trkpt>
      <trkpt lat="44.07897" lon="7.06096">
        <ele>1427.21</ele>
        <time>2015-06-14T08:22:24Z</time>
      </trkpt>
      <trkpt lat="44.07894" lon="7.06085">
        <ele>1425.77</ele>
        <time>2015-06-14T08:22:25Z</time>
      </trkpt>
      <trkpt lat="44.07887" lon="7.06059">
        <ele>1422.41</ele>
        <time>2015-06-14T08:22:28Z</time>
      </trkpt>
      <trkpt lat="44.07882" lon="7.06039">
        <ele>1419.04</ele>
        <time>2015-06-14T08:22:31Z</time>
      </trkpt>
      <trkpt lat="44.07878" lon="7.06018">
        <ele>1418.08</ele>
        <time>2015-06-14T08:22:33Z</time>
      </trkpt>
      <trkpt lat="44.0788" lon="7.06008">
        <ele>1418.08</ele>
        <time>2015-06-14T08:22:34Z</time>
      </trkpt>
      <trkpt lat="44.07888" lon="7.05979">
        <ele>1415.2</ele>
        <time>2015-06-14T08:22:37Z</time>
      </trkpt>
      <trkpt lat="44.0789" lon="7.05969">
        <ele>1414.72</ele>
        <time>2015-06-14T08:22:38Z</time>
      </trkpt>
      <trkpt lat="44.0789" lon="7.05961">
        <ele>1414.72</ele>
        <time>2015-06-14T08:22:39Z</time>
      </trkpt>
      <trkpt lat="44.07898" lon="7.05942">
        <ele>1412.79</ele>
        <time>2015-06-14T08:22:41Z</time>
      </trkpt>
      <trkpt lat="44.07901" lon="7.05934">
        <ele>1411.83</ele>
        <time>2015-06-14T08:22:42Z</time>
      </trkpt>
      <trkpt lat="44.07907" lon="7.05918">
        <ele>1409.43</ele>
        <time>2015-06-14T08:22:44Z</time>
      </trkpt>
      <trkpt lat="44.07916" lon="7.05901">
        <ele>1405.58</ele>
        <time>2015-06-14T08:22:47Z</time>
      </trkpt>
      <trkpt lat="44.07917" lon="7.05895">
        <ele>1404.14</ele>
        <time>2015-06-14T08:22:48Z</time>
      </trkpt>
      <trkpt lat="44.07917" lon="7.05892">
        <ele>1403.66</ele>
        <time>2015-06-14T08:22:49Z</time>
      </trkpt>
      <trkpt lat="44.07918" lon="7.05888">
        <ele>1403.18</ele>
        <time>2015-06-14T08:22:50Z</time>
      </trkpt>
      <trkpt lat="44.0792" lon="7.05884">
        <ele>1401.74</ele>
        <time>2015-06-14T08:22:51Z</time>
      </trkpt>
      <trkpt lat="44.07923" lon="7.05878">
        <ele>1400.3</ele>
        <time>2015-06-14T08:22:52Z</time>
      </trkpt>
      <trkpt lat="44.07928" lon="7.05874">
        <ele>1398.37</ele>
        <time>2015-06-14T08:22:53Z</time>
      </trkpt>
      <trkpt lat="44.07931" lon="7.05873">
        <ele>1397.41</ele>
        <time>2015-06-14T08:22:54Z</time>
      </trkpt>
      <trkpt lat="44.07932" lon="7.05871">
        <ele>1397.41</ele>
        <time>2015-06-14T08:22:55Z</time>
      </trkpt>
      <trkpt lat="44.07933" lon="7.05869">
        <ele>1396.45</ele>
        <time>2015-06-14T08:22:56Z</time>
      </trkpt>
      <trkpt lat="44.07933" lon="7.05863">
        <ele>1393.09</ele>
        <time>2015-06-14T08:22:59Z</time>
      </trkpt>
      <trkpt lat="44.07932" lon="7.05862">
        <ele>1392.61</ele>
        <time>2015-06-14T08:23:00Z</time>
      </trkpt>
      <trkpt lat="44.07931" lon="7.05859">
        <ele>1391.17</ele>
        <time>2015-06-14T08:23:01Z</time>
      </trkpt>
      <trkpt lat="44.07932" lon="7.05856">
        <ele>1390.2</ele>
        <time>2015-06-14T08:23:02Z</time>
      </trkpt>
      <trkpt lat="44.07933" lon="7.05854">
        <ele>1389.72</ele>
        <time>2015-06-14T08:23:03Z</time>
      </trkpt>
      <trkpt lat="44.07933" lon="7.05851">
        <ele>1388.28</ele>
        <time>2015-06-14T08:23:04Z</time>
      </trkpt>
      <trkpt lat="44.07932" lon="7.0585">
        <ele>1387.8</ele>
        <time>2015-06-14T08:23:05Z</time>
      </trkpt>
      <trkpt lat="44.07931" lon="7.05848">
        <ele>1387.32</ele>
        <time>2015-06-14T08:23:06Z</time>
      </trkpt>
      <trkpt lat="44.07932" lon="7.05847">
        <ele>1386.36</ele>
        <time>2015-06-14T08:23:07Z</time>
      </trkpt>
      <trkpt lat="44.07933" lon="7.05843">
        <ele>1383.96</ele>
        <time>2015-06-14T08:23:10Z</time>
      </trkpt>
      <trkpt lat="44.07934" lon="7.0584">
        <ele>1382.99</ele>
        <time>2015-06-14T08:23:11Z</time>
      </trkpt>
      <trkpt lat="44.07935" lon="7.05837">
        <ele>1382.51</ele>
        <time>2015-06-14T08:23:12Z</time>
      </trkpt>
      <trkpt lat="44.07936" lon="7.05835">
        <ele>1381.07</ele>
        <time>2015-06-14T08:23:13Z</time>
      </trkpt>
      <trkpt lat="44.07937" lon="7.05832">
        <ele>1380.59</ele>
        <time>2015-06-14T08:23:14Z</time>
      </trkpt>
      <trkpt lat="44.07936" lon="7.05831">
        <ele>1379.63</ele>
        <time>2015-06-14T08:23:15Z</time>
      </trkpt>
      <trkpt lat="44.07936" lon="7.05829">
        <ele>1378.67</ele>
        <time>2015-06-14T08:23:16Z</time>
      </trkpt>
      <trkpt lat="44.07935" lon="7.05825">
        <ele>1376.75</ele>
        <time>2015-06-14T08:23:18Z</time>
      </trkpt>
      <trkpt lat="44.07936" lon="7.0582">
        <ele>1374.82</ele>
        <time>2015-06-14T08:23:22Z</time>
      </trkpt>
      <trkpt lat="44.07937" lon="7.05817">
        <ele>1373.86</ele>
        <time>2015-06-14T08:23:23Z</time>
      </trkpt>
      <trkpt lat="44.07939" lon="7.05815">
        <ele>1372.9</ele>
        <time>2015-06-14T08:23:24Z</time>
      </trkpt>
      <trkpt lat="44.07949" lon="7.05809">
        <ele>1369.54</ele>
        <time>2015-06-14T08:23:27Z</time>
      </trkpt>
      <trkpt lat="44.07957" lon="7.05807">
        <ele>1367.13</ele>
        <time>2015-06-14T08:23:29Z</time>
      </trkpt>
      <trkpt lat="44.07971" lon="7.05811">
        <ele>1363.29</ele>
        <time>2015-06-14T08:23:33Z</time>
      </trkpt>
      <trkpt lat="44.07975" lon="7.05812">
        <ele>1361.36</ele>
        <time>2015-06-14T08:23:34Z</time>
      </trkpt>
      <trkpt lat="44.07979" lon="7.05812">
        <ele>1359.44</ele>
        <time>2015-06-14T08:23:35Z</time>
      </trkpt>
      <trkpt lat="44.07988" lon="7.05812">
        <ele>1357.04</ele>
        <time>2015-06-14T08:23:38Z</time>
      </trkpt>
      <trkpt lat="44.07995" lon="7.05797">
        <ele>1353.67</ele>
        <time>2015-06-14T08:23:41Z</time>
      </trkpt>
      <trkpt lat="44.07999" lon="7.0578">
        <ele>1349.35</ele>
        <time>2015-06-14T08:23:44Z</time>
      </trkpt>
      <trkpt lat="44.08" lon="7.05773">
        <ele>1347.91</ele>
        <time>2015-06-14T08:23:45Z</time>
      </trkpt>
      <trkpt lat="44.08001" lon="7.05757">
        <ele>1344.54</ele>
        <time>2015-06-14T08:23:48Z</time>
      </trkpt>
      <trkpt lat="44.08" lon="7.05742">
        <ele>1341.18</ele>
        <time>2015-06-14T08:23:51Z</time>
      </trkpt>
      <trkpt lat="44.08001" lon="7.05728">
        <ele>1337.81</ele>
        <time>2015-06-14T08:23:54Z</time>
      </trkpt>
      <trkpt lat="44.08009" lon="7.05712">
        <ele>1333.97</ele>
        <time>2015-06-14T08:23:57Z</time>
      </trkpt>
      <trkpt lat="44.08014" lon="7.05703">
        <ele>1330.6</ele>
        <time>2015-06-14T08:23:59Z</time>
      </trkpt>
      <trkpt lat="44.08016" lon="7.05689">
        <ele>1327.72</ele>
        <time>2015-06-14T08:24:02Z</time>
      </trkpt>
      <trkpt lat="44.08027" lon="7.0569">
        <ele>1326.28</ele>
        <time>2015-06-14T08:24:06Z</time>
      </trkpt>
      <trkpt lat="44.08041" lon="7.05703">
        <ele>1321.47</ele>
        <time>2015-06-14T08:24:10Z</time>
      </trkpt>
      <trkpt lat="44.08044" lon="7.05702">
        <ele>1320.51</ele>
        <time>2015-06-14T08:24:11Z</time>
      </trkpt>
      <trkpt lat="44.08047" lon="7.05698">
        <ele>1319.07</ele>
        <time>2015-06-14T08:24:12Z</time>
      </trkpt>
      <trkpt lat="44.0805" lon="7.05692">
        <ele>1318.59</ele>
        <time>2015-06-14T08:24:13Z</time>
      </trkpt>
      <trkpt lat="44.08051" lon="7.05685">
        <ele>1318.59</ele>
        <time>2015-06-14T08:24:14Z</time>
      </trkpt>
      <trkpt lat="44.08051" lon="7.05679">
        <ele>1318.1</ele>
        <time>2015-06-14T08:24:15Z</time>
      </trkpt>
      <trkpt lat="44.0805" lon="7.05671">
        <ele>1318.1</ele>
        <time>2015-06-14T08:24:16Z</time>
      </trkpt>
      <trkpt lat="44.08048" lon="7.05653">
        <ele>1318.1</ele>
        <time>2015-06-14T08:24:19Z</time>
      </trkpt>
      <trkpt lat="44.08054" lon="7.05643">
        <ele>1314.26</ele>
        <time>2015-06-14T08:24:23Z</time>
      </trkpt>
      <trkpt lat="44.08061" lon="7.05644">
        <ele>1310.41</ele>
        <time>2015-06-14T08:24:27Z</time>
      </trkpt>
      <trkpt lat="44.08063" lon="7.05644">
        <ele>1309.45</ele>
        <time>2015-06-14T08:24:29Z</time>
      </trkpt>
      <trkpt lat="44.08069" lon="7.05627">
        <ele>1305.13</ele>
        <time>2015-06-14T08:24:34Z</time>
      </trkpt>
      <trkpt lat="44.08078" lon="7.05621">
        <ele>1301.76</ele>
        <time>2015-06-14T08:24:37Z</time>
      </trkpt>
      <trkpt lat="44.08081" lon="7.05617">
        <ele>1300.32</ele>
        <time>2015-06-14T08:24:38Z</time>
      </trkpt>
      <trkpt lat="44.08089" lon="7.05598">
        <ele>1295.99</ele>
        <time>2015-06-14T08:24:41Z</time>
      </trkpt>
      <trkpt lat="44.081" lon="7.05576">
        <ele>1291.19</ele>
        <time>2015-06-14T08:24:45Z</time>
      </trkpt>
      <trkpt lat="44.08087" lon="7.05563">
        <ele>1288.78</ele>
        <time>2015-06-14T08:24:51Z</time>
      </trkpt>
      <trkpt lat="44.08065" lon="7.05568">
        <ele>1287.82</ele>
        <time>2015-06-14T08:24:58Z</time>
      </trkpt>
      <trkpt lat="44.0802" lon="7.05566">
        <ele>1284.94</ele>
        <time>2015-06-14T08:25:09Z</time>
      </trkpt>
      <trkpt lat="44.08018" lon="7.05557">
        <ele>1283.5</ele>
        <time>2015-06-14T08:25:12Z</time>
      </trkpt>
      <trkpt lat="44.08007" lon="7.05528">
        <ele>1282.06</ele>
        <time>2015-06-14T08:25:20Z</time>
      </trkpt>
      <trkpt lat="44.07999" lon="7.05525">
        <ele>1281.09</ele>
        <time>2015-06-14T08:25:22Z</time>
      </trkpt>
      <trkpt lat="44.07992" lon="7.05521">
        <ele>1279.17</ele>
        <time>2015-06-14T08:25:24Z</time>
      </trkpt>
      <trkpt lat="44.07975" lon="7.05516">
        <ele>1274.85</ele>
        <time>2015-06-14T08:25:28Z</time>
      </trkpt>
      <trkpt lat="44.07955" lon="7.05512">
        <ele>1270.52</ele>
        <time>2015-06-14T08:25:32Z</time>
      </trkpt>
      <trkpt lat="44.07952" lon="7.05512">
        <ele>1269.56</ele>
        <time>2015-06-14T08:25:33Z</time>
      </trkpt>
      <trkpt lat="44.07943" lon="7.05507">
        <ele>1265.71</ele>
        <time>2015-06-14T08:25:37Z</time>
      </trkpt>
      <trkpt lat="44.07936" lon="7.055">
        <ele>1264.27</ele>
        <time>2015-06-14T08:25:40Z</time>
      </trkpt>
      <trkpt lat="44.07934" lon="7.05482">
        <ele>1261.39</ele>
        <time>2015-06-14T08:25:44Z</time>
      </trkpt>
      <trkpt lat="44.07928" lon="7.0547">
        <ele>1260.91</ele>
        <time>2015-06-14T08:25:47Z</time>
      </trkpt>
      <trkpt lat="44.07927" lon="7.05462">
        <ele>1258.02</ele>
        <time>2015-06-14T08:25:50Z</time>
      </trkpt>
      <trkpt lat="44.07926" lon="7.05461">
        <ele>1258.5</ele>
        <time>2015-06-14T08:25:51Z</time>
      </trkpt>
      <trkpt lat="44.07927" lon="7.05453">
        <ele>1258.02</ele>
        <time>2015-06-14T08:25:55Z</time>
      </trkpt>
      <trkpt lat="44.07935" lon="7.05451">
        <ele>1256.1</ele>
        <time>2015-06-14T08:25:59Z</time>
      </trkpt>
      <trkpt lat="44.07948" lon="7.05448">
        <ele>1253.22</ele>
        <time>2015-06-14T08:26:02Z</time>
      </trkpt>
      <trkpt lat="44.07961" lon="7.05447">
        <ele>1249.85</ele>
        <time>2015-06-14T08:26:05Z</time>
      </trkpt>
      <trkpt lat="44.07965" lon="7.05447">
        <ele>1248.89</ele>
        <time>2015-06-14T08:26:06Z</time>
      </trkpt>
      <trkpt lat="44.0797" lon="7.05447">
        <ele>1246.97</ele>
        <time>2015-06-14T08:26:07Z</time>
      </trkpt>
      <trkpt lat="44.07973" lon="7.05448">
        <ele>1246.01</ele>
        <time>2015-06-14T08:26:08Z</time>
      </trkpt>
      <trkpt lat="44.07979" lon="7.05446">
        <ele>1244.08</ele>
        <time>2015-06-14T08:26:09Z</time>
      </trkpt>
      <trkpt lat="44.0799" lon="7.05439">
        <ele>1240.72</ele>
        <time>2015-06-14T08:26:12Z</time>
      </trkpt>
      <trkpt lat="44.07995" lon="7.05429">
        <ele>1240.72</ele>
        <time>2015-06-14T08:26:23Z</time>
      </trkpt>
      <trkpt lat="44.07995" lon="7.05425">
        <ele>1239.76</ele>
        <time>2015-06-14T08:26:39Z</time>
      </trkpt>
      <trkpt lat="44.08003" lon="7.05418">
        <ele>1236.39</ele>
        <time>2015-06-14T08:26:49Z</time>
      </trkpt>
      <trkpt lat="44.07996" lon="7.0541">
        <ele>1234.47</ele>
        <time>2015-06-14T08:27:00Z</time>
      </trkpt>
      <trkpt lat="44.08003" lon="7.05408">
        <ele>1234.47</ele>
        <time>2015-06-14T08:27:12Z</time>
      </trkpt>
      <trkpt lat="44.08008" lon="7.05404">
        <ele>1234.47</ele>
        <time>2015-06-14T08:27:22Z</time>
      </trkpt>
      <trkpt lat="44.08017" lon="7.05411">
        <ele>1233.99</ele>
        <time>2015-06-14T08:27:32Z</time>
      </trkpt>
      <trkpt lat="44.08027" lon="7.05414">
        <ele>1233.51</ele>
        <time>2015-06-14T08:27:44Z</time>
      </trkpt>
      <trkpt lat="44.08043" lon="7.05414">
        <ele>1234.95</ele>
        <time>2015-06-14T08:27:56Z</time>
      </trkpt>
      <trkpt lat="44.08049" lon="7.05415">
        <ele>1236.87</ele>
        <time>2015-06-14T08:28:07Z</time>
      </trkpt>
      <trkpt lat="44.08058" lon="7.05415">
        <ele>1239.28</ele>
        <time>2015-06-14T08:28:19Z</time>
      </trkpt>
      <trkpt lat="44.08063" lon="7.05416">
        <ele>1241.68</ele>
        <time>2015-06-14T08:28:32Z</time>
      </trkpt>
      <trkpt lat="44.08068" lon="7.05413">
        <ele>1242.64</ele>
        <time>2015-06-14T08:28:46Z</time>
      </trkpt>
      <trkpt lat="44.08071" lon="7.05412">
        <ele>1243.12</ele>
        <time>2015-06-14T08:28:50Z</time>
      </trkpt>
      <trkpt lat="44.08077" lon="7.05413">
        <ele>1245.04</ele>
        <time>2015-06-14T08:29:02Z</time>
      </trkpt>
      <trkpt lat="44.08083" lon="7.05412">
        <ele>1245.53</ele>
        <time>2015-06-14T08:29:15Z</time>
      </trkpt>
      <trkpt lat="44.08093" lon="7.05412">
        <ele>1246.49</ele>
        <time>2015-06-14T08:29:27Z</time>
      </trkpt>
      <trkpt lat="44.08104" lon="7.05413">
        <ele>1246.97</ele>
        <time>2015-06-14T08:29:37Z</time>
      </trkpt>
      <trkpt lat="44.08112" lon="7.0541">
        <ele>1248.89</ele>
        <time>2015-06-14T08:29:51Z</time>
      </trkpt>
      <trkpt lat="44.0812" lon="7.05411">
        <ele>1250.33</ele>
        <time>2015-06-14T08:30:02Z</time>
      </trkpt>
      <trkpt lat="44.08128" lon="7.0541">
        <ele>1251.77</ele>
        <time>2015-06-14T08:30:15Z</time>
      </trkpt>
      <trkpt lat="44.08137" lon="7.05413">
        <ele>1253.22</ele>
        <time>2015-06-14T08:30:27Z</time>
      </trkpt>
      <trkpt lat="44.08146" lon="7.0542">
        <ele>1254.66</ele>
        <time>2015-06-14T08:30:39Z</time>
      </trkpt>
      <trkpt lat="44.08158" lon="7.0542">
        <ele>1256.58</ele>
        <time>2015-06-14T08:30:52Z</time>
      </trkpt>
      <trkpt lat="44.08166" lon="7.05419">
        <ele>1258.5</ele>
        <time>2015-06-14T08:31:04Z</time>
      </trkpt>
      <trkpt lat="44.08174" lon="7.05418">
        <ele>1259.94</ele>
        <time>2015-06-14T08:31:16Z</time>
      </trkpt>
      <trkpt lat="44.08177" lon="7.05419">
        <ele>1260.43</ele>
        <time>2015-06-14T08:31:23Z</time>
      </trkpt>
      <trkpt lat="44.08184" lon="7.05415">
        <ele>1262.35</ele>
        <time>2015-06-14T08:31:35Z</time>
      </trkpt>
      <trkpt lat="44.08187" lon="7.05412">
        <ele>1263.31</ele>
        <time>2015-06-14T08:31:43Z</time>
      </trkpt>
      <trkpt lat="44.08189" lon="7.05409">
        <ele>1264.27</ele>
        <time>2015-06-14T08:31:46Z</time>
      </trkpt>
      <trkpt lat="44.08196" lon="7.05396">
        <ele>1265.23</ele>
        <time>2015-06-14T08:32:02Z</time>
      </trkpt>
      <trkpt lat="44.082" lon="7.05388">
        <ele>1268.6</ele>
        <time>2015-06-14T08:32:15Z</time>
      </trkpt>
      <trkpt lat="44.08202" lon="7.05387">
        <ele>1268.6</ele>
        <time>2015-06-14T08:32:20Z</time>
      </trkpt>
      <trkpt lat="44.08209" lon="7.05392">
        <ele>1268.6</ele>
        <time>2015-06-14T08:32:23Z</time>
      </trkpt>
      <trkpt lat="44.08211" lon="7.05394">
        <ele>1268.6</ele>
        <time>2015-06-14T08:32:24Z</time>
      </trkpt>
      <trkpt lat="44.08212" lon="7.05396">
        <ele>1268.6</ele>
        <time>2015-06-14T08:32:25Z</time>
      </trkpt>
      <trkpt lat="44.08214" lon="7.05398">
        <ele>1268.6</ele>
        <time>2015-06-14T08:32:26Z</time>
      </trkpt>
      <trkpt lat="44.08216" lon="7.05398">
        <ele>1268.6</ele>
        <time>2015-06-14T08:32:27Z</time>
      </trkpt>
      <trkpt lat="44.08217" lon="7.05399">
        <ele>1268.6</ele>
        <time>2015-06-14T08:32:28Z</time>
      </trkpt>
      <trkpt lat="44.08243" lon="7.05412">
        <ele>1269.08</ele>
        <time>2015-06-14T08:32:39Z</time>
      </trkpt>
      <trkpt lat="44.08286" lon="7.05432">
        <ele>1270.52</ele>
        <time>2015-06-14T08:32:55Z</time>
      </trkpt>
      <trkpt lat="44.083" lon="7.05434">
        <ele>1271</ele>
        <time>2015-06-14T08:33:00Z</time>
      </trkpt>
      <trkpt lat="44.08304" lon="7.05433">
        <ele>1271</ele>
        <time>2015-06-14T08:33:01Z</time>
      </trkpt>
      <trkpt lat="44.08309" lon="7.0543">
        <ele>1269.08</ele>
        <time>2015-06-14T08:33:02Z</time>
      </trkpt>
      <trkpt lat="44.08314" lon="7.05427">
        <ele>1269.08</ele>
        <time>2015-06-14T08:33:03Z</time>
      </trkpt>
      <trkpt lat="44.08333" lon="7.05414">
        <ele>1267.64</ele>
        <time>2015-06-14T08:33:06Z</time>
      </trkpt>
      <trkpt lat="44.08346" lon="7.0541">
        <ele>1265.23</ele>
        <time>2015-06-14T08:33:08Z</time>
      </trkpt>
      <trkpt lat="44.08353" lon="7.05414">
        <ele>1265.23</ele>
        <time>2015-06-14T08:33:09Z</time>
      </trkpt>
      <trkpt lat="44.0836" lon="7.05421">
        <ele>1264.75</ele>
        <time>2015-06-14T08:33:10Z</time>
      </trkpt>
      <trkpt lat="44.08371" lon="7.05439">
        <ele>1262.83</ele>
        <time>2015-06-14T08:33:12Z</time>
      </trkpt>
      <trkpt lat="44.08378" lon="7.05444">
        <ele>1261.87</ele>
        <time>2015-06-14T08:33:13Z</time>
      </trkpt>
      <trkpt lat="44.08386" lon="7.05444">
        <ele>1261.39</ele>
        <time>2015-06-14T08:33:14Z</time>
      </trkpt>
      <trkpt lat="44.08394" lon="7.05443">
        <ele>1260.43</ele>
        <time>2015-06-14T08:33:15Z</time>
      </trkpt>
      <trkpt lat="44.08401" lon="7.05442">
        <ele>1259.46</ele>
        <time>2015-06-14T08:33:16Z</time>
      </trkpt>
      <trkpt lat="44.08409" lon="7.05443">
        <ele>1258.98</ele>
        <time>2015-06-14T08:33:17Z</time>
      </trkpt>
      <trkpt lat="44.08416" lon="7.05448">
        <ele>1258.02</ele>
        <time>2015-06-14T08:33:18Z</time>
      </trkpt>
      <trkpt lat="44.08423" lon="7.05454">
        <ele>1258.02</ele>
        <time>2015-06-14T08:33:19Z</time>
      </trkpt>
      <trkpt lat="44.08431" lon="7.05461">
        <ele>1257.06</ele>
        <time>2015-06-14T08:33:20Z</time>
      </trkpt>
      <trkpt lat="44.08438" lon="7.05469">
        <ele>1256.1</ele>
        <time>2015-06-14T08:33:21Z</time>
      </trkpt>
      <trkpt lat="44.08452" lon="7.05483">
        <ele>1254.18</ele>
        <time>2015-06-14T08:33:23Z</time>
      </trkpt>
      <trkpt lat="44.08459" lon="7.05486">
        <ele>1253.22</ele>
        <time>2015-06-14T08:33:24Z</time>
      </trkpt>
      <trkpt lat="44.08475" lon="7.05494">
        <ele>1251.77</ele>
        <time>2015-06-14T08:33:26Z</time>
      </trkpt>
      <trkpt lat="44.08488" lon="7.05504">
        <ele>1248.89</ele>
        <time>2015-06-14T08:33:28Z</time>
      </trkpt>
      <trkpt lat="44.08496" lon="7.05505">
        <ele>1248.41</ele>
        <time>2015-06-14T08:33:29Z</time>
      </trkpt>
      <trkpt lat="44.08503" lon="7.05505">
        <ele>1248.41</ele>
        <time>2015-06-14T08:33:30Z</time>
      </trkpt>
      <trkpt lat="44.08511" lon="7.05502">
        <ele>1247.45</ele>
        <time>2015-06-14T08:33:31Z</time>
      </trkpt>
      <trkpt lat="44.08518" lon="7.05497">
        <ele>1246.97</ele>
        <time>2015-06-14T08:33:32Z</time>
      </trkpt>
      <trkpt lat="44.08538" lon="7.05483">
        <ele>1243.6</ele>
        <time>2015-06-14T08:33:35Z</time>
      </trkpt>
      <trkpt lat="44.08544" lon="7.05477">
        <ele>1243.12</ele>
        <time>2015-06-14T08:33:36Z</time>
      </trkpt>
      <trkpt lat="44.0855" lon="7.0547">
        <ele>1241.68</ele>
        <time>2015-06-14T08:33:37Z</time>
      </trkpt>
      <trkpt lat="44.08555" lon="7.05464">
        <ele>1239.76</ele>
        <time>2015-06-14T08:33:38Z</time>
      </trkpt>
      <trkpt lat="44.0856" lon="7.05461">
        <ele>1239.28</ele>
        <time>2015-06-14T08:33:39Z</time>
      </trkpt>
      <trkpt lat="44.08566" lon="7.05462">
        <ele>1237.83</ele>
        <time>2015-06-14T08:33:40Z</time>
      </trkpt>
      <trkpt lat="44.08572" lon="7.05466">
        <ele>1237.35</ele>
        <time>2015-06-14T08:33:41Z</time>
      </trkpt>
      <trkpt lat="44.08578" lon="7.05471">
        <ele>1236.87</ele>
        <time>2015-06-14T08:33:42Z</time>
      </trkpt>
      <trkpt lat="44.08585" lon="7.05474">
        <ele>1235.91</ele>
        <time>2015-06-14T08:33:43Z</time>
      </trkpt>
      <trkpt lat="44.08593" lon="7.05478">
        <ele>1235.43</ele>
        <time>2015-06-14T08:33:44Z</time>
      </trkpt>
      <trkpt lat="44.08599" lon="7.05483">
        <ele>1234.47</ele>
        <time>2015-06-14T08:33:45Z</time>
      </trkpt>
      <trkpt lat="44.08604" lon="7.05488">
        <ele>1233.99</ele>
        <time>2015-06-14T08:33:46Z</time>
      </trkpt>
      <trkpt lat="44.08608" lon="7.05493">
        <ele>1233.51</ele>
        <time>2015-06-14T08:33:47Z</time>
      </trkpt>
      <trkpt lat="44.08611" lon="7.05497">
        <ele>1233.51</ele>
        <time>2015-06-14T08:33:48Z</time>
      </trkpt>
      <trkpt lat="44.08615" lon="7.05501">
        <ele>1233.03</ele>
        <time>2015-06-14T08:33:49Z</time>
      </trkpt>
      <trkpt lat="44.08619" lon="7.05502">
        <ele>1233.03</ele>
        <time>2015-06-14T08:33:50Z</time>
      </trkpt>
      <trkpt lat="44.08624" lon="7.05502">
        <ele>1233.51</ele>
        <time>2015-06-14T08:33:51Z</time>
      </trkpt>
      <trkpt lat="44.08627" lon="7.05502">
        <ele>1233.51</ele>
        <time>2015-06-14T08:33:52Z</time>
      </trkpt>
      <trkpt lat="44.08635" lon="7.05501">
        <ele>1235.43</ele>
        <time>2015-06-14T08:33:55Z</time>
      </trkpt>
      <trkpt lat="44.08636" lon="7.05503">
        <ele>1235.43</ele>
        <time>2015-06-14T08:33:56Z</time>
      </trkpt>
      <trkpt lat="44.08638" lon="7.05505">
        <ele>1235.43</ele>
        <time>2015-06-14T08:33:57Z</time>
      </trkpt>
      <trkpt lat="44.0864" lon="7.05508">
        <ele>1235.43</ele>
        <time>2015-06-14T08:33:58Z</time>
      </trkpt>
      <trkpt lat="44.0864" lon="7.0551">
        <ele>1235.91</ele>
        <time>2015-06-14T08:33:59Z</time>
      </trkpt>
      <trkpt lat="44.0864" lon="7.0551">
        <ele>1235.91</ele>
        <time>2015-06-14T08:34:00Z</time>
      </trkpt>
      <trkpt lat="44.08654" lon="7.0554">
        <ele>1238.8</ele>
        <time>2015-06-14T08:34:13Z</time>
      </trkpt>
      <trkpt lat="44.0867" lon="7.05571">
        <ele>1240.72</ele>
        <time>2015-06-14T08:34:26Z</time>
      </trkpt>
      <trkpt lat="44.08702" lon="7.0561">
        <ele>1242.64</ele>
        <time>2015-06-14T08:34:42Z</time>
      </trkpt>
      <trkpt lat="44.08749" lon="7.05636">
        <ele>1244.56</ele>
        <time>2015-06-14T08:35:00Z</time>
      </trkpt>
      <trkpt lat="44.08784" lon="7.05659">
        <ele>1246.49</ele>
        <time>2015-06-14T08:35:15Z</time>
      </trkpt>
      <trkpt lat="44.08821" lon="7.05669">
        <ele>1246.97</ele>
        <time>2015-06-14T08:35:29Z</time>
      </trkpt>
      <trkpt lat="44.08857" lon="7.05679">
        <ele>1246.49</ele>
        <time>2015-06-14T08:35:42Z</time>
      </trkpt>
      <trkpt lat="44.08901" lon="7.05713">
        <ele>1245.53</ele>
        <time>2015-06-14T08:35:55Z</time>
      </trkpt>
      <trkpt lat="44.08905" lon="7.05715">
        <ele>1245.53</ele>
        <time>2015-06-14T08:35:56Z</time>
      </trkpt>
      <trkpt lat="44.08909" lon="7.05717">
        <ele>1245.53</ele>
        <time>2015-06-14T08:35:57Z</time>
      </trkpt>
      <trkpt lat="44.08913" lon="7.05718">
        <ele>1245.04</ele>
        <time>2015-06-14T08:35:58Z</time>
      </trkpt>
      <trkpt lat="44.08918" lon="7.05717">
        <ele>1245.04</ele>
        <time>2015-06-14T08:35:59Z</time>
      </trkpt>
      <trkpt lat="44.08921" lon="7.05715">
        <ele>1245.04</ele>
        <time>2015-06-14T08:36:00Z</time>
      </trkpt>
      <trkpt lat="44.08924" lon="7.05712">
        <ele>1245.04</ele>
        <time>2015-06-14T08:36:01Z</time>
      </trkpt>
      <trkpt lat="44.08965" lon="7.05672">
        <ele>1245.04</ele>
        <time>2015-06-14T08:36:14Z</time>
      </trkpt>
      <trkpt lat="44.08974" lon="7.05647">
        <ele>1244.56</ele>
        <time>2015-06-14T08:36:19Z</time>
      </trkpt>
      <trkpt lat="44.08978" lon="7.0563">
        <ele>1244.56</ele>
        <time>2015-06-14T08:36:22Z</time>
      </trkpt>
      <trkpt lat="44.08983" lon="7.05593">
        <ele>1243.6</ele>
        <time>2015-06-14T08:36:28Z</time>
      </trkpt>
      <trkpt lat="44.08983" lon="7.05587">
        <ele>1243.6</ele>
        <time>2015-06-14T08:36:29Z</time>
      </trkpt>
      <trkpt lat="44.08983" lon="7.05581">
        <ele>1243.6</ele>
        <time>2015-06-14T08:36:30Z</time>
      </trkpt>
      <trkpt lat="44.08988" lon="7.05533">
        <ele>1243.6</ele>
        <time>2015-06-14T08:36:39Z</time>
      </trkpt>
      <trkpt lat="44.08989" lon="7.05526">
        <ele>1243.6</ele>
        <time>2015-06-14T08:36:40Z</time>
      </trkpt>
      <trkpt lat="44.08989" lon="7.0552">
        <ele>1243.6</ele>
        <time>2015-06-14T08:36:41Z</time>
      </trkpt>
      <trkpt lat="44.0899" lon="7.05514">
        <ele>1243.6</ele>
        <time>2015-06-14T08:36:42Z</time>
      </trkpt>
      <trkpt lat="44.08992" lon="7.05508">
        <ele>1243.6</ele>
        <time>2015-06-14T08:36:43Z</time>
      </trkpt>
      <trkpt lat="44.08999" lon="7.05477">
        <ele>1243.6</ele>
        <time>2015-06-14T08:36:48Z</time>
      </trkpt>
      <trkpt lat="44.09001" lon="7.05471">
        <ele>1243.6</ele>
        <time>2015-06-14T08:36:49Z</time>
      </trkpt>
      <trkpt lat="44.09006" lon="7.05442">
        <ele>1243.6</ele>
        <time>2015-06-14T08:36:54Z</time>
      </trkpt>
      <trkpt lat="44.09015" lon="7.05377">
        <ele>1244.08</ele>
        <time>2015-06-14T08:37:06Z</time>
      </trkpt>
      <trkpt lat="44.09021" lon="7.05331">
        <ele>1245.53</ele>
        <time>2015-06-14T08:37:16Z</time>
      </trkpt>
      <trkpt lat="44.09026" lon="7.05276">
        <ele>1246.97</ele>
        <time>2015-06-14T08:37:28Z</time>
      </trkpt>
      <trkpt lat="44.09031" lon="7.05222">
        <ele>1247.45</ele>
        <time>2015-06-14T08:37:40Z</time>
      </trkpt>
      <trkpt lat="44.09032" lon="7.05218">
        <ele>1247.45</ele>
        <time>2015-06-14T08:37:41Z</time>
      </trkpt>
      <trkpt lat="44.09042" lon="7.05164">
        <ele>1247.45</ele>
        <time>2015-06-14T08:37:54Z</time>
      </trkpt>
      <trkpt lat="44.09043" lon="7.05146">
        <ele>1247.45</ele>
        <time>2015-06-14T08:37:59Z</time>
      </trkpt>
      <trkpt lat="44.09028" lon="7.05097">
        <ele>1245.53</ele>
        <time>2015-06-14T08:38:10Z</time>
      </trkpt>
      <trkpt lat="44.09026" lon="7.05091">
        <ele>1245.04</ele>
        <time>2015-06-14T08:38:11Z</time>
      </trkpt>
      <trkpt lat="44.09025" lon="7.05085">
        <ele>1244.56</ele>
        <time>2015-06-14T08:38:12Z</time>
      </trkpt>
      <trkpt lat="44.09026" lon="7.05078">
        <ele>1244.08</ele>
        <time>2015-06-14T08:38:13Z</time>
      </trkpt>
      <trkpt lat="44.09024" lon="7.05069">
        <ele>1240.72</ele>
        <time>2015-06-14T08:38:17Z</time>
      </trkpt>
      <trkpt lat="44.09029" lon="7.05077">
        <ele>1240.24</ele>
        <time>2015-06-14T08:38:19Z</time>
      </trkpt>
      <trkpt lat="44.09033" lon="7.05081">
        <ele>1240.24</ele>
        <time>2015-06-14T08:38:20Z</time>
      </trkpt>
      <trkpt lat="44.09038" lon="7.05083">
        <ele>1239.76</ele>
        <time>2015-06-14T08:38:21Z</time>
      </trkpt>
      <trkpt lat="44.09041" lon="7.05084">
        <ele>1239.28</ele>
        <time>2015-06-14T08:38:22Z</time>
      </trkpt>
      <trkpt lat="44.09043" lon="7.05083">
        <ele>1239.76</ele>
        <time>2015-06-14T08:38:23Z</time>
      </trkpt>
      <trkpt lat="44.09044" lon="7.05081">
        <ele>1239.76</ele>
        <time>2015-06-14T08:38:24Z</time>
      </trkpt>
      <trkpt lat="44.09044" lon="7.05079">
        <ele>1239.76</ele>
        <time>2015-06-14T08:38:25Z</time>
      </trkpt>
      <trkpt lat="44.09045" lon="7.05076">
        <ele>1239.76</ele>
        <time>2015-06-14T08:38:26Z</time>
      </trkpt>
      <trkpt lat="44.09046" lon="7.05074">
        <ele>1239.76</ele>
        <time>2015-06-14T08:38:27Z</time>
      </trkpt>
      <trkpt lat="44.09048" lon="7.05072">
        <ele>1239.76</ele>
        <time>2015-06-14T08:38:28Z</time>
      </trkpt>
      <trkpt lat="44.09066" lon="7.05066">
        <ele>1240.72</ele>
        <time>2015-06-14T08:38:36Z</time>
      </trkpt>
      <trkpt lat="44.09096" lon="7.05081">
        <ele>1243.6</ele>
        <time>2015-06-14T08:38:50Z</time>
      </trkpt>
      <trkpt lat="44.09118" lon="7.05096">
        <ele>1245.53</ele>
        <time>2015-06-14T08:39:04Z</time>
      </trkpt>
      <trkpt lat="44.09131" lon="7.05119">
        <ele>1247.93</ele>
        <time>2015-06-14T08:39:15Z</time>
      </trkpt>
      <trkpt lat="44.09132" lon="7.0512">
        <ele>1247.93</ele>
        <time>2015-06-14T08:39:16Z</time>
      </trkpt>
      <trkpt lat="44.09134" lon="7.05121">
        <ele>1247.93</ele>
        <time>2015-06-14T08:39:17Z</time>
      </trkpt>
      <trkpt lat="44.09165" lon="7.05139">
        <ele>1249.85</ele>
        <time>2015-06-14T08:39:34Z</time>
      </trkpt>
      <trkpt lat="44.0919" lon="7.05158">
        <ele>1251.77</ele>
        <time>2015-06-14T08:39:49Z</time>
      </trkpt>
      <trkpt lat="44.09201" lon="7.05198">
        <ele>1253.7</ele>
        <time>2015-06-14T08:40:05Z</time>
      </trkpt>
      <trkpt lat="44.09214" lon="7.05232">
        <ele>1256.58</ele>
        <time>2015-06-14T08:40:20Z</time>
      </trkpt>
      <trkpt lat="44.09238" lon="7.05263">
        <ele>1258.98</ele>
        <time>2015-06-14T08:40:37Z</time>
      </trkpt>
      <trkpt lat="44.0926" lon="7.05283">
        <ele>1260.91</ele>
        <time>2015-06-14T08:40:51Z</time>
      </trkpt>
      <trkpt lat="44.09281" lon="7.05307">
        <ele>1262.83</ele>
        <time>2015-06-14T08:41:06Z</time>
      </trkpt>
      <trkpt lat="44.09282" lon="7.05309">
        <ele>1263.31</ele>
        <time>2015-06-14T08:41:07Z</time>
      </trkpt>
      <trkpt lat="44.09289" lon="7.0531">
        <ele>1263.31</ele>
        <time>2015-06-14T08:41:11Z</time>
      </trkpt>
      <trkpt lat="44.09291" lon="7.05309">
        <ele>1263.31</ele>
        <time>2015-06-14T08:41:12Z</time>
      </trkpt>
      <trkpt lat="44.09291" lon="7.05307">
        <ele>1263.31</ele>
        <time>2015-06-14T08:41:13Z</time>
      </trkpt>
      <trkpt lat="44.09292" lon="7.05305">
        <ele>1263.79</ele>
        <time>2015-06-14T08:41:14Z</time>
      </trkpt>
      <trkpt lat="44.09293" lon="7.05303">
        <ele>1263.79</ele>
        <time>2015-06-14T08:41:15Z</time>
      </trkpt>
      <trkpt lat="44.09293" lon="7.053">
        <ele>1263.79</ele>
        <time>2015-06-14T08:41:16Z</time>
      </trkpt>
      <trkpt lat="44.09292" lon="7.05298">
        <ele>1263.79</ele>
        <time>2015-06-14T08:41:17Z</time>
      </trkpt>
      <trkpt lat="44.09291" lon="7.05295">
        <ele>1263.79</ele>
        <time>2015-06-14T08:41:18Z</time>
      </trkpt>
      <trkpt lat="44.0927" lon="7.05278">
        <ele>1265.71</ele>
        <time>2015-06-14T08:41:30Z</time>
      </trkpt>
      <trkpt lat="44.0925" lon="7.05247">
        <ele>1268.12</ele>
        <time>2015-06-14T08:41:45Z</time>
      </trkpt>
      <trkpt lat="44.09233" lon="7.05222">
        <ele>1270.04</ele>
        <time>2015-06-14T08:41:59Z</time>
      </trkpt>
      <trkpt lat="44.09232" lon="7.05219">
        <ele>1270.04</ele>
        <time>2015-06-14T08:42:00Z</time>
      </trkpt>
      <trkpt lat="44.09231" lon="7.05217">
        <ele>1270.04</ele>
        <time>2015-06-14T08:42:01Z</time>
      </trkpt>
      <trkpt lat="44.09231" lon="7.05214">
        <ele>1271</ele>
        <time>2015-06-14T08:42:02Z</time>
      </trkpt>
      <trkpt lat="44.0923" lon="7.05211">
        <ele>1271</ele>
        <time>2015-06-14T08:42:03Z</time>
      </trkpt>
      <trkpt lat="44.0923" lon="7.05209">
        <ele>1271</ele>
        <time>2015-06-14T08:42:04Z</time>
      </trkpt>
      <trkpt lat="44.09225" lon="7.05167">
        <ele>1272.92</ele>
        <time>2015-06-14T08:42:19Z</time>
      </trkpt>
      <trkpt lat="44.09214" lon="7.05124">
        <ele>1275.33</ele>
        <time>2015-06-14T08:42:37Z</time>
      </trkpt>
      <trkpt lat="44.09194" lon="7.05096">
        <ele>1277.73</ele>
        <time>2015-06-14T08:42:53Z</time>
      </trkpt>
      <trkpt lat="44.09164" lon="7.05074">
        <ele>1280.13</ele>
        <time>2015-06-14T08:43:10Z</time>
      </trkpt>
      <trkpt lat="44.09143" lon="7.05043">
        <ele>1283.02</ele>
        <time>2015-06-14T08:43:25Z</time>
      </trkpt>
      <trkpt lat="44.09127" lon="7.05005">
        <ele>1285.9</ele>
        <time>2015-06-14T08:43:41Z</time>
      </trkpt>
      <trkpt lat="44.09114" lon="7.0496">
        <ele>1288.78</ele>
        <time>2015-06-14T08:43:59Z</time>
      </trkpt>
      <trkpt lat="44.09101" lon="7.04908">
        <ele>1291.19</ele>
        <time>2015-06-14T08:44:19Z</time>
      </trkpt>
      <trkpt lat="44.09093" lon="7.04868">
        <ele>1293.59</ele>
        <time>2015-06-14T08:44:34Z</time>
      </trkpt>
      <trkpt lat="44.09087" lon="7.0483">
        <ele>1295.51</ele>
        <time>2015-06-14T08:44:48Z</time>
      </trkpt>
      <trkpt lat="44.0908" lon="7.04785">
        <ele>1297.92</ele>
        <time>2015-06-14T08:45:05Z</time>
      </trkpt>
      <trkpt lat="44.09078" lon="7.04771">
        <ele>1298.88</ele>
        <time>2015-06-14T08:45:15Z</time>
      </trkpt>
      <trkpt lat="44.09077" lon="7.04767">
        <ele>1298.88</ele>
        <time>2015-06-14T08:45:22Z</time>
      </trkpt>
      <trkpt lat="44.09077" lon="7.04765">
        <ele>1298.88</ele>
        <time>2015-06-14T08:45:23Z</time>
      </trkpt>
      <trkpt lat="44.09079" lon="7.04721">
        <ele>1301.76</ele>
        <time>2015-06-14T08:45:39Z</time>
      </trkpt>
      <trkpt lat="44.09082" lon="7.04676">
        <ele>1304.17</ele>
        <time>2015-06-14T08:45:56Z</time>
      </trkpt>
      <trkpt lat="44.09082" lon="7.04638">
        <ele>1306.57</ele>
        <time>2015-06-14T08:46:10Z</time>
      </trkpt>
      <trkpt lat="44.09083" lon="7.04594">
        <ele>1308.49</ele>
        <time>2015-06-14T08:46:26Z</time>
      </trkpt>
      <trkpt lat="44.09085" lon="7.04555">
        <ele>1309.93</ele>
        <time>2015-06-14T08:46:41Z</time>
      </trkpt>
      <trkpt lat="44.09087" lon="7.04552">
        <ele>1309.93</ele>
        <time>2015-06-14T08:46:43Z</time>
      </trkpt>
      <trkpt lat="44.09089" lon="7.04552">
        <ele>1309.93</ele>
        <time>2015-06-14T08:46:44Z</time>
      </trkpt>
      <trkpt lat="44.09091" lon="7.04552">
        <ele>1310.41</ele>
        <time>2015-06-14T08:46:45Z</time>
      </trkpt>
      <trkpt lat="44.09093" lon="7.04553">
        <ele>1310.41</ele>
        <time>2015-06-14T08:46:46Z</time>
      </trkpt>
      <trkpt lat="44.09094" lon="7.04555">
        <ele>1310.9</ele>
        <time>2015-06-14T08:46:47Z</time>
      </trkpt>
      <trkpt lat="44.09095" lon="7.04557">
        <ele>1310.9</ele>
        <time>2015-06-14T08:46:48Z</time>
      </trkpt>
      <trkpt lat="44.09095" lon="7.0456">
        <ele>1310.9</ele>
        <time>2015-06-14T08:46:49Z</time>
      </trkpt>
      <trkpt lat="44.09095" lon="7.04562">
        <ele>1311.38</ele>
        <time>2015-06-14T08:46:50Z</time>
      </trkpt>
      <trkpt lat="44.09095" lon="7.04565">
        <ele>1311.38</ele>
        <time>2015-06-14T08:46:51Z</time>
      </trkpt>
      <trkpt lat="44.09094" lon="7.04567">
        <ele>1311.86</ele>
        <time>2015-06-14T08:46:52Z</time>
      </trkpt>
      <trkpt lat="44.09093" lon="7.04569">
        <ele>1311.86</ele>
        <time>2015-06-14T08:46:53Z</time>
      </trkpt>
      <trkpt lat="44.09093" lon="7.04571">
        <ele>1311.86</ele>
        <time>2015-06-14T08:46:54Z</time>
      </trkpt>
      <trkpt lat="44.09092" lon="7.0462">
        <ele>1314.26</ele>
        <time>2015-06-14T08:47:11Z</time>
      </trkpt>
      <trkpt lat="44.09103" lon="7.04668">
        <ele>1317.14</ele>
        <time>2015-06-14T08:47:29Z</time>
      </trkpt>
      <trkpt lat="44.09113" lon="7.04705">
        <ele>1319.55</ele>
        <time>2015-06-14T08:47:44Z</time>
      </trkpt>
      <trkpt lat="44.09121" lon="7.04741">
        <ele>1321.47</ele>
        <time>2015-06-14T08:47:59Z</time>
      </trkpt>
      <trkpt lat="44.09132" lon="7.04778">
        <ele>1323.87</ele>
        <time>2015-06-14T08:48:15Z</time>
      </trkpt>
      <trkpt lat="44.09147" lon="7.04817">
        <ele>1326.28</ele>
        <time>2015-06-14T08:48:33Z</time>
      </trkpt>
      <trkpt lat="44.0916" lon="7.04858">
        <ele>1329.16</ele>
        <time>2015-06-14T08:48:51Z</time>
      </trkpt>
      <trkpt lat="44.09161" lon="7.0486">
        <ele>1329.16</ele>
        <time>2015-06-14T08:48:52Z</time>
      </trkpt>
      <trkpt lat="44.09172" lon="7.04896">
        <ele>1331.56</ele>
        <time>2015-06-14T08:49:08Z</time>
      </trkpt>
      <trkpt lat="44.09183" lon="7.04904">
        <ele>1332.52</ele>
        <time>2015-06-14T08:49:16Z</time>
      </trkpt>
      <trkpt lat="44.09185" lon="7.04902">
        <ele>1332.52</ele>
        <time>2015-06-14T08:49:17Z</time>
      </trkpt>
      <trkpt lat="44.09185" lon="7.049">
        <ele>1332.52</ele>
        <time>2015-06-14T08:49:18Z</time>
      </trkpt>
      <trkpt lat="44.09186" lon="7.04898">
        <ele>1332.52</ele>
        <time>2015-06-14T08:49:19Z</time>
      </trkpt>
      <trkpt lat="44.09185" lon="7.04896">
        <ele>1332.52</ele>
        <time>2015-06-14T08:49:20Z</time>
      </trkpt>
      <trkpt lat="44.09185" lon="7.04894">
        <ele>1333.01</ele>
        <time>2015-06-14T08:49:21Z</time>
      </trkpt>
      <trkpt lat="44.09182" lon="7.04883">
        <ele>1333.01</ele>
        <time>2015-06-14T08:49:25Z</time>
      </trkpt>
      <trkpt lat="44.09181" lon="7.0488">
        <ele>1333.49</ele>
        <time>2015-06-14T08:49:26Z</time>
      </trkpt>
      <trkpt lat="44.0918" lon="7.04878">
        <ele>1333.49</ele>
        <time>2015-06-14T08:49:27Z</time>
      </trkpt>
      <trkpt lat="44.09171" lon="7.04838">
        <ele>1334.93</ele>
        <time>2015-06-14T08:49:43Z</time>
      </trkpt>
      <trkpt lat="44.09165" lon="7.04803">
        <ele>1336.85</ele>
        <time>2015-06-14T08:49:57Z</time>
      </trkpt>
      <trkpt lat="44.09158" lon="7.04746">
        <ele>1339.73</ele>
        <time>2015-06-14T08:50:19Z</time>
      </trkpt>
      <trkpt lat="44.09158" lon="7.047">
        <ele>1341.66</ele>
        <time>2015-06-14T08:50:37Z</time>
      </trkpt>
      <trkpt lat="44.09158" lon="7.04652">
        <ele>1344.54</ele>
        <time>2015-06-14T08:50:56Z</time>
      </trkpt>
      <trkpt lat="44.0916" lon="7.04611">
        <ele>1346.46</ele>
        <time>2015-06-14T08:51:12Z</time>
      </trkpt>
      <trkpt lat="44.09163" lon="7.04568">
        <ele>1348.87</ele>
        <time>2015-06-14T08:51:29Z</time>
      </trkpt>
      <trkpt lat="44.09165" lon="7.04522">
        <ele>1351.27</ele>
        <time>2015-06-14T08:51:47Z</time>
      </trkpt>
      <trkpt lat="44.09167" lon="7.04481">
        <ele>1353.67</ele>
        <time>2015-06-14T08:52:03Z</time>
      </trkpt>
      <trkpt lat="44.09171" lon="7.04432">
        <ele>1356.08</ele>
        <time>2015-06-14T08:52:22Z</time>
      </trkpt>
      <trkpt lat="44.09179" lon="7.04381">
        <ele>1358.48</ele>
        <time>2015-06-14T08:52:42Z</time>
      </trkpt>
      <trkpt lat="44.09186" lon="7.04346">
        <ele>1360.88</ele>
        <time>2015-06-14T08:52:56Z</time>
      </trkpt>
      <trkpt lat="44.09197" lon="7.04298">
        <ele>1362.81</ele>
        <time>2015-06-14T08:53:16Z</time>
      </trkpt>
      <trkpt lat="44.09203" lon="7.0426">
        <ele>1365.21</ele>
        <time>2015-06-14T08:53:32Z</time>
      </trkpt>
      <trkpt lat="44.09199" lon="7.04232">
        <ele>1366.65</ele>
        <time>2015-06-14T08:53:44Z</time>
      </trkpt>
      <trkpt lat="44.09199" lon="7.04212">
        <ele>1367.61</ele>
        <time>2015-06-14T08:53:53Z</time>
      </trkpt>
      <trkpt lat="44.09199" lon="7.0421">
        <ele>1367.61</ele>
        <time>2015-06-14T08:53:54Z</time>
      </trkpt>
      <trkpt lat="44.09201" lon="7.04175">
        <ele>1370.02</ele>
        <time>2015-06-14T08:54:08Z</time>
      </trkpt>
      <trkpt lat="44.09209" lon="7.0415">
        <ele>1371.46</ele>
        <time>2015-06-14T08:54:19Z</time>
      </trkpt>
      <trkpt lat="44.09209" lon="7.04148">
        <ele>1371.46</ele>
        <time>2015-06-14T08:54:20Z</time>
      </trkpt>
      <trkpt lat="44.0921" lon="7.04145">
        <ele>1371.94</ele>
        <time>2015-06-14T08:54:21Z</time>
      </trkpt>
      <trkpt lat="44.0921" lon="7.04143">
        <ele>1371.94</ele>
        <time>2015-06-14T08:54:22Z</time>
      </trkpt>
      <trkpt lat="44.0921" lon="7.0414">
        <ele>1371.94</ele>
        <time>2015-06-14T08:54:23Z</time>
      </trkpt>
      <trkpt lat="44.09209" lon="7.04094">
        <ele>1373.86</ele>
        <time>2015-06-14T08:54:41Z</time>
      </trkpt>
      <trkpt lat="44.09212" lon="7.04054">
        <ele>1375.78</ele>
        <time>2015-06-14T08:54:57Z</time>
      </trkpt>
      <trkpt lat="44.09222" lon="7.04019">
        <ele>1378.19</ele>
        <time>2015-06-14T08:55:12Z</time>
      </trkpt>
      <trkpt lat="44.09226" lon="7.03982">
        <ele>1380.11</ele>
        <time>2015-06-14T08:55:27Z</time>
      </trkpt>
      <trkpt lat="44.09226" lon="7.03979">
        <ele>1380.11</ele>
        <time>2015-06-14T08:55:28Z</time>
      </trkpt>
      <trkpt lat="44.09224" lon="7.03945">
        <ele>1382.03</ele>
        <time>2015-06-14T08:55:42Z</time>
      </trkpt>
      <trkpt lat="44.09206" lon="7.03936">
        <ele>1382.99</ele>
        <time>2015-06-14T08:55:55Z</time>
      </trkpt>
      <trkpt lat="44.0919" lon="7.03968">
        <ele>1384.92</ele>
        <time>2015-06-14T08:56:12Z</time>
      </trkpt>
      <trkpt lat="44.09175" lon="7.04003">
        <ele>1386.84</ele>
        <time>2015-06-14T08:56:28Z</time>
      </trkpt>
      <trkpt lat="44.09162" lon="7.04036">
        <ele>1388.76</ele>
        <time>2015-06-14T08:56:43Z</time>
      </trkpt>
      <trkpt lat="44.09156" lon="7.04068">
        <ele>1390.68</ele>
        <time>2015-06-14T08:56:57Z</time>
      </trkpt>
      <trkpt lat="44.09139" lon="7.04102">
        <ele>1393.09</ele>
        <time>2015-06-14T08:57:13Z</time>
      </trkpt>
      <trkpt lat="44.09119" lon="7.04139">
        <ele>1395.97</ele>
        <time>2015-06-14T08:57:31Z</time>
      </trkpt>
      <trkpt lat="44.09103" lon="7.04175">
        <ele>1397.89</ele>
        <time>2015-06-14T08:57:47Z</time>
      </trkpt>
      <trkpt lat="44.09086" lon="7.04208">
        <ele>1399.82</ele>
        <time>2015-06-14T08:58:02Z</time>
      </trkpt>
      <trkpt lat="44.09066" lon="7.04226">
        <ele>1401.74</ele>
        <time>2015-06-14T08:58:15Z</time>
      </trkpt>
      <trkpt lat="44.09047" lon="7.04237">
        <ele>1403.66</ele>
        <time>2015-06-14T08:58:27Z</time>
      </trkpt>
      <trkpt lat="44.09027" lon="7.04258">
        <ele>1405.58</ele>
        <time>2015-06-14T08:58:42Z</time>
      </trkpt>
      <trkpt lat="44.0902" lon="7.04268">
        <ele>1406.55</ele>
        <time>2015-06-14T08:58:48Z</time>
      </trkpt>
      <trkpt lat="44.09019" lon="7.0427">
        <ele>1406.55</ele>
        <time>2015-06-14T08:58:49Z</time>
      </trkpt>
      <trkpt lat="44.09003" lon="7.0429">
        <ele>1407.99</ele>
        <time>2015-06-14T08:59:01Z</time>
      </trkpt>
      <trkpt lat="44.08977" lon="7.04323">
        <ele>1410.87</ele>
        <time>2015-06-14T08:59:19Z</time>
      </trkpt>
      <trkpt lat="44.08953" lon="7.04319">
        <ele>1412.79</ele>
        <time>2015-06-14T08:59:32Z</time>
      </trkpt>
      <trkpt lat="44.08927" lon="7.04312">
        <ele>1414.72</ele>
        <time>2015-06-14T08:59:47Z</time>
      </trkpt>
      <trkpt lat="44.08901" lon="7.04298">
        <ele>1416.16</ele>
        <time>2015-06-14T09:00:02Z</time>
      </trkpt>
      <trkpt lat="44.08879" lon="7.04271">
        <ele>1419.04</ele>
        <time>2015-06-14T09:00:18Z</time>
      </trkpt>
      <trkpt lat="44.0886" lon="7.04236">
        <ele>1420.97</ele>
        <time>2015-06-14T09:00:34Z</time>
      </trkpt>
      <trkpt lat="44.08841" lon="7.04209">
        <ele>1422.89</ele>
        <time>2015-06-14T09:00:49Z</time>
      </trkpt>
      <trkpt lat="44.08825" lon="7.04231">
        <ele>1424.81</ele>
        <time>2015-06-14T09:01:02Z</time>
      </trkpt>
      <trkpt lat="44.08815" lon="7.0427">
        <ele>1427.7</ele>
        <time>2015-06-14T09:01:17Z</time>
      </trkpt>
      <trkpt lat="44.08805" lon="7.04306">
        <ele>1429.14</ele>
        <time>2015-06-14T09:01:31Z</time>
      </trkpt>
      <trkpt lat="44.08803" lon="7.04317">
        <ele>1430.1</ele>
        <time>2015-06-14T09:01:35Z</time>
      </trkpt>
      <trkpt lat="44.08802" lon="7.0432">
        <ele>1430.1</ele>
        <time>2015-06-14T09:01:36Z</time>
      </trkpt>
      <trkpt lat="44.08801" lon="7.04322">
        <ele>1430.58</ele>
        <time>2015-06-14T09:01:37Z</time>
      </trkpt>
      <trkpt lat="44.0879" lon="7.04372">
        <ele>1432.98</ele>
        <time>2015-06-14T09:01:55Z</time>
      </trkpt>
      <trkpt lat="44.08781" lon="7.04382">
        <ele>1433.94</ele>
        <time>2015-06-14T09:02:01Z</time>
      </trkpt>
      <trkpt lat="44.08778" lon="7.04381">
        <ele>1433.94</ele>
        <time>2015-06-14T09:02:02Z</time>
      </trkpt>
      <trkpt lat="44.0874" lon="7.04369">
        <ele>1435.39</ele>
        <time>2015-06-14T09:02:18Z</time>
      </trkpt>
      <trkpt lat="44.08699" lon="7.04336">
        <ele>1433.46</ele>
        <time>2015-06-14T09:02:31Z</time>
      </trkpt>
      <trkpt lat="44.08643" lon="7.04293">
        <ele>1432.02</ele>
        <time>2015-06-14T09:02:46Z</time>
      </trkpt>
      <trkpt lat="44.08638" lon="7.04291">
        <ele>1432.02</ele>
        <time>2015-06-14T09:02:47Z</time>
      </trkpt>
      <trkpt lat="44.08629" lon="7.04288">
        <ele>1430.58</ele>
        <time>2015-06-14T09:02:50Z</time>
      </trkpt>
      <trkpt lat="44.08625" lon="7.04284">
        <ele>1430.1</ele>
        <time>2015-06-14T09:03:01Z</time>
      </trkpt>
      <trkpt lat="44.08625" lon="7.04285">
        <ele>1430.1</ele>
        <time>2015-06-14T09:03:24Z</time>
      </trkpt>
      <trkpt lat="44.08624" lon="7.04286">
        <ele>1430.1</ele>
        <time>2015-06-14T09:03:30Z</time>
      </trkpt>
      <trkpt lat="44.08623" lon="7.04287">
        <ele>1430.1</ele>
        <time>2015-06-14T09:03:31Z</time>
      </trkpt>
      <trkpt lat="44.08621" lon="7.04287">
        <ele>1430.1</ele>
        <time>2015-06-14T09:03:32Z</time>
      </trkpt>
      <trkpt lat="44.08579" lon="7.04288">
        <ele>1429.62</ele>
        <time>2015-06-14T09:03:43Z</time>
      </trkpt>
      <trkpt lat="44.08574" lon="7.04288">
        <ele>1429.62</ele>
        <time>2015-06-14T09:03:44Z</time>
      </trkpt>
      <trkpt lat="44.0857" lon="7.04288">
        <ele>1429.14</ele>
        <time>2015-06-14T09:03:45Z</time>
      </trkpt>
      <trkpt lat="44.08565" lon="7.04287">
        <ele>1429.14</ele>
        <time>2015-06-14T09:03:46Z</time>
      </trkpt>
      <trkpt lat="44.0856" lon="7.04286">
        <ele>1428.66</ele>
        <time>2015-06-14T09:03:47Z</time>
      </trkpt>
      <trkpt lat="44.08554" lon="7.04284">
        <ele>1428.66</ele>
        <time>2015-06-14T09:03:48Z</time>
      </trkpt>
      <trkpt lat="44.08545" lon="7.04281">
        <ele>1428.18</ele>
        <time>2015-06-14T09:03:50Z</time>
      </trkpt>
      <trkpt lat="44.0854" lon="7.04279">
        <ele>1428.18</ele>
        <time>2015-06-14T09:03:51Z</time>
      </trkpt>
      <trkpt lat="44.08535" lon="7.04276">
        <ele>1428.18</ele>
        <time>2015-06-14T09:03:52Z</time>
      </trkpt>
      <trkpt lat="44.08457" lon="7.04241">
        <ele>1425.77</ele>
        <time>2015-06-14T09:04:07Z</time>
      </trkpt>
      <trkpt lat="44.08388" lon="7.04238">
        <ele>1424.33</ele>
        <time>2015-06-14T09:04:19Z</time>
      </trkpt>
      <trkpt lat="44.08328" lon="7.0421">
        <ele>1422.89</ele>
        <time>2015-06-14T09:04:30Z</time>
      </trkpt>
      <trkpt lat="44.08323" lon="7.04206">
        <ele>1422.41</ele>
        <time>2015-06-14T09:04:31Z</time>
      </trkpt>
      <trkpt lat="44.08314" lon="7.04196">
        <ele>1422.41</ele>
        <time>2015-06-14T09:04:33Z</time>
      </trkpt>
      <trkpt lat="44.08311" lon="7.04191">
        <ele>1422.41</ele>
        <time>2015-06-14T09:04:34Z</time>
      </trkpt>
      <trkpt lat="44.08283" lon="7.04149">
        <ele>1423.85</ele>
        <time>2015-06-14T09:04:46Z</time>
      </trkpt>
      <trkpt lat="44.08269" lon="7.04098">
        <ele>1427.21</ele>
        <time>2015-06-14T09:05:01Z</time>
      </trkpt>
      <trkpt lat="44.08264" lon="7.04057">
        <ele>1430.58</ele>
        <time>2015-06-14T09:05:15Z</time>
      </trkpt>
      <trkpt lat="44.08243" lon="7.04023">
        <ele>1432.98</ele>
        <time>2015-06-14T09:05:32Z</time>
      </trkpt>
      <trkpt lat="44.08216" lon="7.03997">
        <ele>1435.39</ele>
        <time>2015-06-14T09:05:51Z</time>
      </trkpt>
      <trkpt lat="44.08193" lon="7.03972">
        <ele>1437.31</ele>
        <time>2015-06-14T09:06:07Z</time>
      </trkpt>
      <trkpt lat="44.0817" lon="7.03949">
        <ele>1440.19</ele>
        <time>2015-06-14T09:06:24Z</time>
      </trkpt>
      <trkpt lat="44.08157" lon="7.03942">
        <ele>1441.63</ele>
        <time>2015-06-14T09:06:34Z</time>
      </trkpt>
      <trkpt lat="44.08153" lon="7.03942">
        <ele>1442.11</ele>
        <time>2015-06-14T09:06:44Z</time>
      </trkpt>
      <trkpt lat="44.08153" lon="7.03942">
        <ele>1442.11</ele>
        <time>2015-06-14T09:06:55Z</time>
      </trkpt>
      <trkpt lat="44.08155" lon="7.03943">
        <ele>1442.11</ele>
        <time>2015-06-14T09:07:14Z</time>
      </trkpt>
      <trkpt lat="44.08154" lon="7.03944">
        <ele>1442.11</ele>
        <time>2015-06-14T09:07:23Z</time>
      </trkpt>
      <trkpt lat="44.08154" lon="7.03943">
        <ele>1442.11</ele>
        <time>2015-06-14T09:07:39Z</time>
      </trkpt>
      <trkpt lat="44.08154" lon="7.03941">
        <ele>1442.11</ele>
        <time>2015-06-14T09:07:57Z</time>
      </trkpt>
      <trkpt lat="44.08156" lon="7.03941">
        <ele>1442.11</ele>
        <time>2015-06-14T09:08:10Z</time>
      </trkpt>
      <trkpt lat="44.08154" lon="7.03943">
        <ele>1442.11</ele>
        <time>2015-06-14T09:08:25Z</time>
      </trkpt>
      <trkpt lat="44.08149" lon="7.03943">
        <ele>1443.08</ele>
        <time>2015-06-14T09:08:35Z</time>
      </trkpt>
      <trkpt lat="44.0814" lon="7.03948">
        <ele>1443.56</ele>
        <time>2015-06-14T09:08:51Z</time>
      </trkpt>
      <trkpt lat="44.08139" lon="7.0395">
        <ele>1443.56</ele>
        <time>2015-06-14T09:09:03Z</time>
      </trkpt>
      <trkpt lat="44.08141" lon="7.03953">
        <ele>1443.56</ele>
        <time>2015-06-14T09:09:18Z</time>
      </trkpt>
      <trkpt lat="44.08142" lon="7.03955">
        <ele>1444.04</ele>
        <time>2015-06-14T09:09:31Z</time>
      </trkpt>
      <trkpt lat="44.08143" lon="7.03955">
        <ele>1444.04</ele>
        <time>2015-06-14T09:09:50Z</time>
      </trkpt>
      <trkpt lat="44.08143" lon="7.03955">
        <ele>1444.04</ele>
        <time>2015-06-14T09:10:05Z</time>
      </trkpt>
      <trkpt lat="44.08144" lon="7.03957">
        <ele>1444.04</ele>
        <time>2015-06-14T09:10:16Z</time>
      </trkpt>
      <trkpt lat="44.08145" lon="7.03958">
        <ele>1444.04</ele>
        <time>2015-06-14T09:10:34Z</time>
      </trkpt>
      <trkpt lat="44.08146" lon="7.03955">
        <ele>1444.04</ele>
        <time>2015-06-14T09:10:51Z</time>
      </trkpt>
      <trkpt lat="44.0814" lon="7.03951">
        <ele>1444.04</ele>
        <time>2015-06-14T09:11:03Z</time>
      </trkpt>
      <trkpt lat="44.08137" lon="7.03952">
        <ele>1444.52</ele>
        <time>2015-06-14T09:11:06Z</time>
      </trkpt>
      <trkpt lat="44.08133" lon="7.03955">
        <ele>1445.96</ele>
        <time>2015-06-14T09:11:12Z</time>
      </trkpt>
      <trkpt lat="44.08131" lon="7.03966">
        <ele>1447.4</ele>
        <time>2015-06-14T09:11:21Z</time>
      </trkpt>
      <trkpt lat="44.08118" lon="7.03971">
        <ele>1450.29</ele>
        <time>2015-06-14T09:11:34Z</time>
      </trkpt>
      <trkpt lat="44.08114" lon="7.03965">
        <ele>1450.77</ele>
        <time>2015-06-14T09:11:42Z</time>
      </trkpt>
      <trkpt lat="44.08111" lon="7.03962">
        <ele>1450.77</ele>
        <time>2015-06-14T09:11:57Z</time>
      </trkpt>
      <trkpt lat="44.08109" lon="7.0396">
        <ele>1450.77</ele>
        <time>2015-06-14T09:11:59Z</time>
      </trkpt>
      <trkpt lat="44.08101" lon="7.03953">
        <ele>1451.73</ele>
        <time>2015-06-14T09:12:05Z</time>
      </trkpt>
      <trkpt lat="44.08095" lon="7.03946">
        <ele>1452.69</ele>
        <time>2015-06-14T09:12:11Z</time>
      </trkpt>
      <trkpt lat="44.08094" lon="7.03945">
        <ele>1454.13</ele>
        <time>2015-06-14T09:12:12Z</time>
      </trkpt>
      <trkpt lat="44.08093" lon="7.03944">
        <ele>1454.13</ele>
        <time>2015-06-14T09:12:13Z</time>
      </trkpt>
      <trkpt lat="44.0808" lon="7.0393">
        <ele>1456.53</ele>
        <time>2015-06-14T09:12:24Z</time>
      </trkpt>
      <trkpt lat="44.08064" lon="7.03913">
        <ele>1459.9</ele>
        <time>2015-06-14T09:12:38Z</time>
      </trkpt>
      <trkpt lat="44.0805" lon="7.03896">
        <ele>1463.26</ele>
        <time>2015-06-14T09:12:51Z</time>
      </trkpt>
      <trkpt lat="44.0804" lon="7.03884">
        <ele>1466.15</ele>
        <time>2015-06-14T09:13:01Z</time>
      </trkpt>
      <trkpt lat="44.08031" lon="7.03871">
        <ele>1469.51</ele>
        <time>2015-06-14T09:13:11Z</time>
      </trkpt>
      <trkpt lat="44.08018" lon="7.03857">
        <ele>1472.88</ele>
        <time>2015-06-14T09:13:23Z</time>
      </trkpt>
      <trkpt lat="44.08006" lon="7.0384">
        <ele>1476.24</ele>
        <time>2015-06-14T09:13:36Z</time>
      </trkpt>
      <trkpt lat="44.07995" lon="7.03826">
        <ele>1479.13</ele>
        <time>2015-06-14T09:13:47Z</time>
      </trkpt>
      <trkpt lat="44.07983" lon="7.03812">
        <ele>1482.97</ele>
        <time>2015-06-14T09:13:58Z</time>
      </trkpt>
      <trkpt lat="44.07967" lon="7.03793">
        <ele>1486.34</ele>
        <time>2015-06-14T09:14:13Z</time>
      </trkpt>
      <trkpt lat="44.07955" lon="7.03779">
        <ele>1489.22</ele>
        <time>2015-06-14T09:14:25Z</time>
      </trkpt>
      <trkpt lat="44.07945" lon="7.03767">
        <ele>1492.58</ele>
        <time>2015-06-14T09:14:35Z</time>
      </trkpt>
      <trkpt lat="44.07935" lon="7.03755">
        <ele>1495.95</ele>
        <time>2015-06-14T09:14:45Z</time>
      </trkpt>
      <trkpt lat="44.07927" lon="7.03745">
        <ele>1498.83</ele>
        <time>2015-06-14T09:14:53Z</time>
      </trkpt>
      <trkpt lat="44.07908" lon="7.0372">
        <ele>1500.27</ele>
        <time>2015-06-14T09:15:12Z</time>
      </trkpt>
      <trkpt lat="44.0788" lon="7.03686">
        <ele>1503.16</ele>
        <time>2015-06-14T09:15:38Z</time>
      </trkpt>
      <trkpt lat="44.0786" lon="7.03661">
        <ele>1506.52</ele>
        <time>2015-06-14T09:15:58Z</time>
      </trkpt>
      <trkpt lat="44.07847" lon="7.03646">
        <ele>1509.41</ele>
        <time>2015-06-14T09:16:10Z</time>
      </trkpt>
      <trkpt lat="44.07837" lon="7.03633">
        <ele>1513.25</ele>
        <time>2015-06-14T09:16:21Z</time>
      </trkpt>
      <trkpt lat="44.07829" lon="7.03623">
        <ele>1516.14</ele>
        <time>2015-06-14T09:16:29Z</time>
      </trkpt>
      <trkpt lat="44.0801" lon="7.03857">
        <ele>1519.5</ele>
        <time>2015-06-14T09:16:37Z</time>
      </trkpt>
      <trkpt lat="44.07814" lon="7.03605">
        <ele>1522.87</ele>
        <time>2015-06-14T09:16:44Z</time>
      </trkpt>
      <trkpt lat="44.07806" lon="7.03595">
        <ele>1526.23</ele>
        <time>2015-06-14T09:16:52Z</time>
      </trkpt>
      <trkpt lat="44.07801" lon="7.03588">
        <ele>1528.63</ele>
        <time>2015-06-14T09:16:57Z</time>
      </trkpt>
      <trkpt lat="44.07796" lon="7.03581">
        <ele>1532</ele>
        <time>2015-06-14T09:17:03Z</time>
      </trkpt>
      <trkpt lat="44.07789" lon="7.03573">
        <ele>1535.36</ele>
        <time>2015-06-14T09:17:10Z</time>
      </trkpt>
      <trkpt lat="44.07788" lon="7.03571">
        <ele>1535.36</ele>
        <time>2015-06-14T09:17:11Z</time>
      </trkpt>
      <trkpt lat="44.07783" lon="7.03565">
        <ele>1538.25</ele>
        <time>2015-06-14T09:17:16Z</time>
      </trkpt>
      <trkpt lat="44.07777" lon="7.03558">
        <ele>1542.09</ele>
        <time>2015-06-14T09:17:22Z</time>
      </trkpt>
      <trkpt lat="44.07771" lon="7.03551">
        <ele>1544.98</ele>
        <time>2015-06-14T09:17:28Z</time>
      </trkpt>
      <trkpt lat="44.07769" lon="7.03549">
        <ele>1545.94</ele>
        <time>2015-06-14T09:17:30Z</time>
      </trkpt>
      <trkpt lat="44.07765" lon="7.03543">
        <ele>1549.3</ele>
        <time>2015-06-14T09:17:35Z</time>
      </trkpt>
      <trkpt lat="44.0776" lon="7.03538">
        <ele>1552.19</ele>
        <time>2015-06-14T09:17:40Z</time>
      </trkpt>
      <trkpt lat="44.07751" lon="7.03525">
        <ele>1555.55</ele>
        <time>2015-06-14T09:17:49Z</time>
      </trkpt>
      <trkpt lat="44.07741" lon="7.03514">
        <ele>1558.92</ele>
        <time>2015-06-14T09:17:58Z</time>
      </trkpt>
      <trkpt lat="44.07734" lon="7.03505">
        <ele>1561.8</ele>
        <time>2015-06-14T09:18:06Z</time>
      </trkpt>
      <trkpt lat="44.07725" lon="7.03496">
        <ele>1565.16</ele>
        <time>2015-06-14T09:18:14Z</time>
      </trkpt>
      <trkpt lat="44.07717" lon="7.03487">
        <ele>1568.53</ele>
        <time>2015-06-14T09:18:22Z</time>
      </trkpt>
      <trkpt lat="44.07711" lon="7.03478">
        <ele>1571.41</ele>
        <time>2015-06-14T09:18:29Z</time>
      </trkpt>
      <trkpt lat="44.07711" lon="7.03477">
        <ele>1571.41</ele>
        <time>2015-06-14T09:18:30Z</time>
      </trkpt>
      <trkpt lat="44.07705" lon="7.0347">
        <ele>1574.78</ele>
        <time>2015-06-14T09:18:36Z</time>
      </trkpt>
      <trkpt lat="44.07698" lon="7.03461">
        <ele>1578.14</ele>
        <time>2015-06-14T09:18:43Z</time>
      </trkpt>
      <trkpt lat="44.07692" lon="7.03452">
        <ele>1581.51</ele>
        <time>2015-06-14T09:18:50Z</time>
      </trkpt>
      <trkpt lat="44.07679" lon="7.03434">
        <ele>1584.87</ele>
        <time>2015-06-14T09:19:03Z</time>
      </trkpt>
      <trkpt lat="44.07662" lon="7.03421">
        <ele>1588.24</ele>
        <time>2015-06-14T09:19:16Z</time>
      </trkpt>
      <trkpt lat="44.07651" lon="7.03405">
        <ele>1591.12</ele>
        <time>2015-06-14T09:19:28Z</time>
      </trkpt>
      <trkpt lat="44.07642" lon="7.03392">
        <ele>1594</ele>
        <time>2015-06-14T09:19:38Z</time>
      </trkpt>
      <trkpt lat="44.07633" lon="7.03381">
        <ele>1597.37</ele>
        <time>2015-06-14T09:19:47Z</time>
      </trkpt>
      <trkpt lat="44.07624" lon="7.0337">
        <ele>1600.25</ele>
        <time>2015-06-14T09:19:56Z</time>
      </trkpt>
      <trkpt lat="44.07616" lon="7.03359">
        <ele>1604.1</ele>
        <time>2015-06-14T09:20:05Z</time>
      </trkpt>
      <trkpt lat="44.07604" lon="7.03345">
        <ele>1607.46</ele>
        <time>2015-06-14T09:20:16Z</time>
      </trkpt>
      <trkpt lat="44.07592" lon="7.03328">
        <ele>1610.83</ele>
        <time>2015-06-14T09:20:29Z</time>
      </trkpt>
      <trkpt lat="44.07581" lon="7.03314">
        <ele>1614.19</ele>
        <time>2015-06-14T09:20:41Z</time>
      </trkpt>
      <trkpt lat="44.0757" lon="7.03302">
        <ele>1617.07</ele>
        <time>2015-06-14T09:20:51Z</time>
      </trkpt>
      <trkpt lat="44.07559" lon="7.03288">
        <ele>1620.44</ele>
        <time>2015-06-14T09:21:02Z</time>
      </trkpt>
      <trkpt lat="44.0755" lon="7.03278">
        <ele>1623.8</ele>
        <time>2015-06-14T09:21:11Z</time>
      </trkpt>
      <trkpt lat="44.07541" lon="7.03266">
        <ele>1626.69</ele>
        <time>2015-06-14T09:21:20Z</time>
      </trkpt>
      <trkpt lat="44.07533" lon="7.03257">
        <ele>1630.53</ele>
        <time>2015-06-14T09:21:28Z</time>
      </trkpt>
      <trkpt lat="44.07524" lon="7.03246">
        <ele>1633.9</ele>
        <time>2015-06-14T09:21:36Z</time>
      </trkpt>
      <trkpt lat="44.07521" lon="7.03241">
        <ele>1635.82</ele>
        <time>2015-06-14T09:21:40Z</time>
      </trkpt>
      <trkpt lat="44.07515" lon="7.03233">
        <ele>1638.7</ele>
        <time>2015-06-14T09:21:47Z</time>
      </trkpt>
      <trkpt lat="44.07507" lon="7.03223">
        <ele>1642.55</ele>
        <time>2015-06-14T09:21:55Z</time>
      </trkpt>
      <trkpt lat="44.07497" lon="7.03211">
        <ele>1645.43</ele>
        <time>2015-06-14T09:22:05Z</time>
      </trkpt>
      <trkpt lat="44.07491" lon="7.03204">
        <ele>1647.36</ele>
        <time>2015-06-14T09:22:11Z</time>
      </trkpt>
      <trkpt lat="44.07482" lon="7.03192">
        <ele>1650.24</ele>
        <time>2015-06-14T09:22:20Z</time>
      </trkpt>
      <trkpt lat="44.07473" lon="7.03182">
        <ele>1653.6</ele>
        <time>2015-06-14T09:22:28Z</time>
      </trkpt>
      <trkpt lat="44.07464" lon="7.03171">
        <ele>1656.97</ele>
        <time>2015-06-14T09:22:37Z</time>
      </trkpt>
      <trkpt lat="44.07464" lon="7.03169">
        <ele>1656.97</ele>
        <time>2015-06-14T09:22:38Z</time>
      </trkpt>
      <trkpt lat="44.07454" lon="7.03158">
        <ele>1660.81</ele>
        <time>2015-06-14T09:22:47Z</time>
      </trkpt>
      <trkpt lat="44.07453" lon="7.03155">
        <ele>1661.78</ele>
        <time>2015-06-14T09:22:49Z</time>
      </trkpt>
      <trkpt lat="44.07446" lon="7.03146">
        <ele>1664.66</ele>
        <time>2015-06-14T09:22:56Z</time>
      </trkpt>
      <trkpt lat="44.07444" lon="7.03144">
        <ele>1665.62</ele>
        <time>2015-06-14T09:22:58Z</time>
      </trkpt>
      <trkpt lat="44.07435" lon="7.03136">
        <ele>1669.47</ele>
        <time>2015-06-14T09:23:06Z</time>
      </trkpt>
      <trkpt lat="44.07428" lon="7.03129">
        <ele>1672.83</ele>
        <time>2015-06-14T09:23:13Z</time>
      </trkpt>
      <trkpt lat="44.07421" lon="7.0312">
        <ele>1675.72</ele>
        <time>2015-06-14T09:23:20Z</time>
      </trkpt>
      <trkpt lat="44.07415" lon="7.03111">
        <ele>1680.04</ele>
        <time>2015-06-14T09:23:27Z</time>
      </trkpt>
      <trkpt lat="44.07414" lon="7.0311">
        <ele>1680.04</ele>
        <time>2015-06-14T09:23:28Z</time>
      </trkpt>
      <trkpt lat="44.07409" lon="7.03104">
        <ele>1681.96</ele>
        <time>2015-06-14T09:23:33Z</time>
      </trkpt>
      <trkpt lat="44.07403" lon="7.03096">
        <ele>1685.81</ele>
        <time>2015-06-14T09:23:39Z</time>
      </trkpt>
      <trkpt lat="44.07402" lon="7.03094">
        <ele>1686.29</ele>
        <time>2015-06-14T09:23:41Z</time>
      </trkpt>
      <trkpt lat="44.07396" lon="7.03088">
        <ele>1689.65</ele>
        <time>2015-06-14T09:23:46Z</time>
      </trkpt>
      <trkpt lat="44.07391" lon="7.03082">
        <ele>1693.02</ele>
        <time>2015-06-14T09:23:52Z</time>
      </trkpt>
      <trkpt lat="44.0738" lon="7.0307">
        <ele>1696.38</ele>
        <time>2015-06-14T09:24:02Z</time>
      </trkpt>
      <trkpt lat="44.07369" lon="7.03056">
        <ele>1699.75</ele>
        <time>2015-06-14T09:24:13Z</time>
      </trkpt>
      <trkpt lat="44.0736" lon="7.03045">
        <ele>1702.15</ele>
        <time>2015-06-14T09:24:22Z</time>
      </trkpt>
      <trkpt lat="44.0735" lon="7.03032">
        <ele>1706</ele>
        <time>2015-06-14T09:24:32Z</time>
      </trkpt>
      <trkpt lat="44.07341" lon="7.03021">
        <ele>1709.36</ele>
        <time>2015-06-14T09:24:41Z</time>
      </trkpt>
      <trkpt lat="44.07318" lon="7.02993">
        <ele>1710.8</ele>
        <time>2015-06-14T09:25:03Z</time>
      </trkpt>
      <trkpt lat="44.07292" lon="7.0296">
        <ele>1713.69</ele>
        <time>2015-06-14T09:25:30Z</time>
      </trkpt>
      <trkpt lat="44.07273" lon="7.02937">
        <ele>1717.05</ele>
        <time>2015-06-14T09:25:47Z</time>
      </trkpt>
      <trkpt lat="44.07261" lon="7.02921">
        <ele>1720.42</ele>
        <time>2015-06-14T09:26:00Z</time>
      </trkpt>
      <trkpt lat="44.07238" lon="7.02894">
        <ele>1721.86</ele>
        <time>2015-06-14T09:26:22Z</time>
      </trkpt>
      <trkpt lat="44.07236" lon="7.0289">
        <ele>1721.86</ele>
        <time>2015-06-14T09:26:24Z</time>
      </trkpt>
      <trkpt lat="44.07237" lon="7.0289">
        <ele>1721.86</ele>
        <time>2015-06-14T09:26:27Z</time>
      </trkpt>
      <trkpt lat="44.07238" lon="7.02892">
        <ele>1722.82</ele>
        <time>2015-06-14T09:26:38Z</time>
      </trkpt>
      <trkpt lat="44.07232" lon="7.02888">
        <ele>1721.38</ele>
        <time>2015-06-14T09:26:51Z</time>
      </trkpt>
      <trkpt lat="44.0723" lon="7.02886">
        <ele>1721.38</ele>
        <time>2015-06-14T09:27:03Z</time>
      </trkpt>
      <trkpt lat="44.07229" lon="7.02886">
        <ele>1721.38</ele>
        <time>2015-06-14T09:27:07Z</time>
      </trkpt>
      <trkpt lat="44.07224" lon="7.02884">
        <ele>1721.38</ele>
        <time>2015-06-14T09:27:12Z</time>
      </trkpt>
      <trkpt lat="44.07208" lon="7.02869">
        <ele>1723.78</ele>
        <time>2015-06-14T09:27:30Z</time>
      </trkpt>
      <trkpt lat="44.07195" lon="7.0285">
        <ele>1725.22</ele>
        <time>2015-06-14T09:27:47Z</time>
      </trkpt>
      <trkpt lat="44.07189" lon="7.02821">
        <ele>1726.18</ele>
        <time>2015-06-14T09:28:04Z</time>
      </trkpt>
      <trkpt lat="44.07186" lon="7.02796">
        <ele>1727.63</ele>
        <time>2015-06-14T09:28:20Z</time>
      </trkpt>
      <trkpt lat="44.07188" lon="7.02774">
        <ele>1730.03</ele>
        <time>2015-06-14T09:28:36Z</time>
      </trkpt>
      <trkpt lat="44.07197" lon="7.02755">
        <ele>1732.91</ele>
        <time>2015-06-14T09:28:53Z</time>
      </trkpt>
      <trkpt lat="44.07203" lon="7.02747">
        <ele>1734.36</ele>
        <time>2015-06-14T09:29:02Z</time>
      </trkpt>
      <trkpt lat="44.07218" lon="7.02739">
        <ele>1737.24</ele>
        <time>2015-06-14T09:29:18Z</time>
      </trkpt>
      <trkpt lat="44.07228" lon="7.02729">
        <ele>1740.12</ele>
        <time>2015-06-14T09:29:31Z</time>
      </trkpt>
      <trkpt lat="44.07235" lon="7.02717">
        <ele>1742.05</ele>
        <time>2015-06-14T09:29:43Z</time>
      </trkpt>
      <trkpt lat="44.07244" lon="7.02706">
        <ele>1744.45</ele>
        <time>2015-06-14T09:29:56Z</time>
      </trkpt>
      <trkpt lat="44.07252" lon="7.02691">
        <ele>1747.81</ele>
        <time>2015-06-14T09:30:11Z</time>
      </trkpt>
      <trkpt lat="44.07259" lon="7.0268">
        <ele>1750.22</ele>
        <time>2015-06-14T09:30:24Z</time>
      </trkpt>
      <trkpt lat="44.07263" lon="7.02676">
        <ele>1749.74</ele>
        <time>2015-06-14T09:30:28Z</time>
      </trkpt>
      <trkpt lat="44.07271" lon="7.02658">
        <ele>1752.14</ele>
        <time>2015-06-14T09:30:44Z</time>
      </trkpt>
      <trkpt lat="44.07273" lon="7.02655">
        <ele>1752.62</ele>
        <time>2015-06-14T09:30:46Z</time>
      </trkpt>
      <trkpt lat="44.07277" lon="7.02648">
        <ele>1753.58</ele>
        <time>2015-06-14T09:30:52Z</time>
      </trkpt>
      <trkpt lat="44.07282" lon="7.0264">
        <ele>1754.54</ele>
        <time>2015-06-14T09:31:00Z</time>
      </trkpt>
      <trkpt lat="44.07288" lon="7.02628">
        <ele>1756.47</ele>
        <time>2015-06-14T09:31:13Z</time>
      </trkpt>
      <trkpt lat="44.07293" lon="7.02616">
        <ele>1758.39</ele>
        <time>2015-06-14T09:31:26Z</time>
      </trkpt>
      <trkpt lat="44.07295" lon="7.02601">
        <ele>1760.31</ele>
        <time>2015-06-14T09:31:40Z</time>
      </trkpt>
      <trkpt lat="44.07302" lon="7.02581">
        <ele>1762.23</ele>
        <time>2015-06-14T09:31:58Z</time>
      </trkpt>
      <trkpt lat="44.07305" lon="7.02567">
        <ele>1764.16</ele>
        <time>2015-06-14T09:32:11Z</time>
      </trkpt>
      <trkpt lat="44.0731" lon="7.0255">
        <ele>1765.6</ele>
        <time>2015-06-14T09:32:24Z</time>
      </trkpt>
      <trkpt lat="44.07313" lon="7.02533">
        <ele>1768.96</ele>
        <time>2015-06-14T09:32:38Z</time>
      </trkpt>
      <trkpt lat="44.07316" lon="7.02522">
        <ele>1771.85</ele>
        <time>2015-06-14T09:32:51Z</time>
      </trkpt>
      <trkpt lat="44.07317" lon="7.02507">
        <ele>1773.77</ele>
        <time>2015-06-14T09:33:03Z</time>
      </trkpt>
      <trkpt lat="44.07336" lon="7.02497">
        <ele>1775.21</ele>
        <time>2015-06-14T09:33:23Z</time>
      </trkpt>
      <trkpt lat="44.0735" lon="7.02501">
        <ele>1776.17</ele>
        <time>2015-06-14T09:33:37Z</time>
      </trkpt>
      <trkpt lat="44.0737" lon="7.02505">
        <ele>1778.1</ele>
        <time>2015-06-14T09:33:54Z</time>
      </trkpt>
      <trkpt lat="44.07384" lon="7.02507">
        <ele>1780.5</ele>
        <time>2015-06-14T09:34:08Z</time>
      </trkpt>
      <trkpt lat="44.07398" lon="7.02508">
        <ele>1783.38</ele>
        <time>2015-06-14T09:34:24Z</time>
      </trkpt>
      <trkpt lat="44.07399" lon="7.02508">
        <ele>1783.86</ele>
        <time>2015-06-14T09:34:25Z</time>
      </trkpt>
      <trkpt lat="44.07404" lon="7.02508">
        <ele>1784.82</ele>
        <time>2015-06-14T09:34:31Z</time>
      </trkpt>
      <trkpt lat="44.07417" lon="7.02512">
        <ele>1788.67</ele>
        <time>2015-06-14T09:34:47Z</time>
      </trkpt>
      <trkpt lat="44.07429" lon="7.02521">
        <ele>1791.07</ele>
        <time>2015-06-14T09:35:03Z</time>
      </trkpt>
      <trkpt lat="44.07444" lon="7.02526">
        <ele>1793.48</ele>
        <time>2015-06-14T09:35:18Z</time>
      </trkpt>
      <trkpt lat="44.07461" lon="7.02533">
        <ele>1795.88</ele>
        <time>2015-06-14T09:35:36Z</time>
      </trkpt>
      <trkpt lat="44.07475" lon="7.02539">
        <ele>1797.32</ele>
        <time>2015-06-14T09:35:49Z</time>
      </trkpt>
      <trkpt lat="44.07488" lon="7.0255">
        <ele>1797.32</ele>
        <time>2015-06-14T09:36:04Z</time>
      </trkpt>
      <trkpt lat="44.07502" lon="7.02559">
        <ele>1798.76</ele>
        <time>2015-06-14T09:36:18Z</time>
      </trkpt>
      <trkpt lat="44.07519" lon="7.02566">
        <ele>1799.73</ele>
        <time>2015-06-14T09:36:34Z</time>
      </trkpt>
      <trkpt lat="44.07522" lon="7.02569">
        <ele>1799.73</ele>
        <time>2015-06-14T09:36:37Z</time>
      </trkpt>
      <trkpt lat="44.07538" lon="7.02572">
        <ele>1800.69</ele>
        <time>2015-06-14T09:36:53Z</time>
      </trkpt>
      <trkpt lat="44.07555" lon="7.02567">
        <ele>1801.65</ele>
        <time>2015-06-14T09:37:07Z</time>
      </trkpt>
      <trkpt lat="44.07573" lon="7.02556">
        <ele>1802.13</ele>
        <time>2015-06-14T09:37:23Z</time>
      </trkpt>
      <trkpt lat="44.0759" lon="7.0254">
        <ele>1803.57</ele>
        <time>2015-06-14T09:37:39Z</time>
      </trkpt>
      <trkpt lat="44.07608" lon="7.02531">
        <ele>1804.53</ele>
        <time>2015-06-14T09:37:55Z</time>
      </trkpt>
      <trkpt lat="44.07617" lon="7.02526">
        <ele>1805.01</ele>
        <time>2015-06-14T09:38:04Z</time>
      </trkpt>
      <trkpt lat="44.07621" lon="7.02523">
        <ele>1805.01</ele>
        <time>2015-06-14T09:38:08Z</time>
      </trkpt>
      <trkpt lat="44.0764" lon="7.02512">
        <ele>1805.49</ele>
        <time>2015-06-14T09:38:25Z</time>
      </trkpt>
      <trkpt lat="44.07655" lon="7.02496">
        <ele>1806.94</ele>
        <time>2015-06-14T09:38:40Z</time>
      </trkpt>
      <trkpt lat="44.07666" lon="7.02481">
        <ele>1809.34</ele>
        <time>2015-06-14T09:38:56Z</time>
      </trkpt>
      <trkpt lat="44.07677" lon="7.02471">
        <ele>1810.78</ele>
        <time>2015-06-14T09:39:11Z</time>
      </trkpt>
      <trkpt lat="44.07681" lon="7.02466">
        <ele>1811.74</ele>
        <time>2015-06-14T09:39:26Z</time>
      </trkpt>
      <trkpt lat="44.07682" lon="7.02464">
        <ele>1811.26</ele>
        <time>2015-06-14T09:39:33Z</time>
      </trkpt>
      <trkpt lat="44.07681" lon="7.02464">
        <ele>1809.82</ele>
        <time>2015-06-14T09:39:45Z</time>
      </trkpt>
      <trkpt lat="44.07681" lon="7.02465">
        <ele>1811.26</ele>
        <time>2015-06-14T09:39:52Z</time>
      </trkpt>
      <trkpt lat="44.07682" lon="7.02467">
        <ele>1811.26</ele>
        <time>2015-06-14T09:40:02Z</time>
      </trkpt>
      <trkpt lat="44.07682" lon="7.02464">
        <ele>1811.26</ele>
        <time>2015-06-14T09:40:15Z</time>
      </trkpt>
      <trkpt lat="44.07682" lon="7.02464">
        <ele>1811.26</ele>
        <time>2015-06-14T09:40:19Z</time>
      </trkpt>
      <trkpt lat="44.07684" lon="7.02463">
        <ele>1811.26</ele>
        <time>2015-06-14T09:40:21Z</time>
      </trkpt>
      <trkpt lat="44.07684" lon="7.02462">
        <ele>1811.26</ele>
        <time>2015-06-14T09:40:34Z</time>
      </trkpt>
      <trkpt lat="44.07682" lon="7.02465">
        <ele>1811.26</ele>
        <time>2015-06-14T09:40:57Z</time>
      </trkpt>
      <trkpt lat="44.07682" lon="7.02465">
        <ele>1811.26</ele>
        <time>2015-06-14T09:41:16Z</time>
      </trkpt>
      <trkpt lat="44.07679" lon="7.02466">
        <ele>1811.26</ele>
        <time>2015-06-14T09:41:28Z</time>
      </trkpt>
      <trkpt lat="44.07678" lon="7.02467">
        <ele>1811.26</ele>
        <time>2015-06-14T09:41:44Z</time>
      </trkpt>
      <trkpt lat="44.07678" lon="7.02467">
        <ele>1811.26</ele>
        <time>2015-06-14T09:42:06Z</time>
      </trkpt>
      <trkpt lat="44.07681" lon="7.02465">
        <ele>1811.26</ele>
        <time>2015-06-14T09:42:35Z</time>
      </trkpt>
      <trkpt lat="44.07678" lon="7.02469">
        <ele>1811.26</ele>
        <time>2015-06-14T09:43:04Z</time>
      </trkpt>
      <trkpt lat="44.07678" lon="7.02471">
        <ele>1811.26</ele>
        <time>2015-06-14T09:43:25Z</time>
      </trkpt>
      <trkpt lat="44.07679" lon="7.0247">
        <ele>1811.26</ele>
        <time>2015-06-14T09:43:50Z</time>
      </trkpt>
      <trkpt lat="44.07679" lon="7.02472">
        <ele>1811.74</ele>
        <time>2015-06-14T09:44:11Z</time>
      </trkpt>
      <trkpt lat="44.07679" lon="7.02471">
        <ele>1811.74</ele>
        <time>2015-06-14T09:44:24Z</time>
      </trkpt>
      <trkpt lat="44.07679" lon="7.02472">
        <ele>1811.74</ele>
        <time>2015-06-14T09:44:58Z</time>
      </trkpt>
      <trkpt lat="44.07678" lon="7.02472">
        <ele>1811.74</ele>
        <time>2015-06-14T09:45:39Z</time>
      </trkpt>
      <trkpt lat="44.07678" lon="7.02473">
        <ele>1811.74</ele>
        <time>2015-06-14T09:46:09Z</time>
      </trkpt>
      <trkpt lat="44.07679" lon="7.02472">
        <ele>1811.74</ele>
        <time>2015-06-14T09:46:21Z</time>
      </trkpt>
      <trkpt lat="44.07681" lon="7.0247">
        <ele>1812.22</ele>
        <time>2015-06-14T09:46:24Z</time>
      </trkpt>
      <trkpt lat="44.0768" lon="7.02469">
        <ele>1812.22</ele>
        <time>2015-06-14T09:46:35Z</time>
      </trkpt>
      <trkpt lat="44.0768" lon="7.0247">
        <ele>1812.22</ele>
        <time>2015-06-14T09:47:05Z</time>
      </trkpt>
      <trkpt lat="44.07679" lon="7.0247">
        <ele>1812.22</ele>
        <time>2015-06-14T09:47:31Z</time>
      </trkpt>
      <trkpt lat="44.07679" lon="7.0247">
        <ele>1812.22</ele>
        <time>2015-06-14T09:48:09Z</time>
      </trkpt>
      <trkpt lat="44.0768" lon="7.0247">
        <ele>1812.22</ele>
        <time>2015-06-14T09:48:43Z</time>
      </trkpt>
      <trkpt lat="44.07679" lon="7.02472">
        <ele>1812.22</ele>
        <time>2015-06-14T09:49:26Z</time>
      </trkpt>
      <trkpt lat="44.07678" lon="7.02468">
        <ele>1812.22</ele>
        <time>2015-06-14T09:50:02Z</time>
      </trkpt>
      <trkpt lat="44.07679" lon="7.02471">
        <ele>1812.22</ele>
        <time>2015-06-14T09:50:32Z</time>
      </trkpt>
      <trkpt lat="44.0768" lon="7.02471">
        <ele>1812.22</ele>
        <time>2015-06-14T09:51:07Z</time>
      </trkpt>
      <trkpt lat="44.0768" lon="7.02473">
        <ele>1812.22</ele>
        <time>2015-06-14T09:51:53Z</time>
      </trkpt>
      <trkpt lat="44.07678" lon="7.02471">
        <ele>1812.7</ele>
        <time>2015-06-14T09:52:32Z</time>
      </trkpt>
      <trkpt lat="44.0768" lon="7.0247">
        <ele>1812.7</ele>
        <time>2015-06-14T09:52:59Z</time>
      </trkpt>
      <trkpt lat="44.07679" lon="7.0247">
        <ele>1812.7</ele>
        <time>2015-06-14T09:53:34Z</time>
      </trkpt>
      <trkpt lat="44.0768" lon="7.02468">
        <ele>1812.7</ele>
        <time>2015-06-14T09:54:13Z</time>
      </trkpt>
      <trkpt lat="44.0768" lon="7.02469">
        <ele>1812.7</ele>
        <time>2015-06-14T09:54:44Z</time>
      </trkpt>
      <trkpt lat="44.0768" lon="7.0247">
        <ele>1812.7</ele>
        <time>2015-06-14T09:55:19Z</time>
      </trkpt>
      <trkpt lat="44.0768" lon="7.02472">
        <ele>1812.7</ele>
        <time>2015-06-14T09:55:56Z</time>
      </trkpt>
      <trkpt lat="44.07678" lon="7.02471">
        <ele>1812.7</ele>
        <time>2015-06-14T09:56:36Z</time>
      </trkpt>
      <trkpt lat="44.0768" lon="7.02469">
        <ele>1812.7</ele>
        <time>2015-06-14T09:57:08Z</time>
      </trkpt>
      <trkpt lat="44.0768" lon="7.0247">
        <ele>1813.18</ele>
        <time>2015-06-14T09:57:49Z</time>
      </trkpt>
      <trkpt lat="44.07678" lon="7.02471">
        <ele>1813.18</ele>
        <time>2015-06-14T09:58:25Z</time>
      </trkpt>
      <trkpt lat="44.07681" lon="7.0247">
        <ele>1813.18</ele>
        <time>2015-06-14T09:58:51Z</time>
      </trkpt>
      <trkpt lat="44.07681" lon="7.02468">
        <ele>1813.18</ele>
        <time>2015-06-14T09:59:24Z</time>
      </trkpt>
      <trkpt lat="44.0768" lon="7.02472">
        <ele>1813.18</ele>
        <time>2015-06-14T09:59:53Z</time>
      </trkpt>
      <trkpt lat="44.0768" lon="7.0247">
        <ele>1813.18</ele>
        <time>2015-06-14T10:00:13Z</time>
      </trkpt>
      <trkpt lat="44.07679" lon="7.02472">
        <ele>1813.18</ele>
        <time>2015-06-14T10:00:44Z</time>
      </trkpt>
      <trkpt lat="44.07681" lon="7.02468">
        <ele>1813.18</ele>
        <time>2015-06-14T10:01:18Z</time>
      </trkpt>
      <trkpt lat="44.07676" lon="7.02468">
        <ele>1813.18</ele>
        <time>2015-06-14T10:01:40Z</time>
      </trkpt>
      <trkpt lat="44.07671" lon="7.02465">
        <ele>1813.18</ele>
        <time>2015-06-14T10:01:49Z</time>
      </trkpt>
      <trkpt lat="44.07669" lon="7.02464">
        <ele>1812.22</ele>
        <time>2015-06-14T10:01:55Z</time>
      </trkpt>
      <trkpt lat="44.0767" lon="7.02464">
        <ele>1812.22</ele>
        <time>2015-06-14T10:02:08Z</time>
      </trkpt>
      <trkpt lat="44.07669" lon="7.02465">
        <ele>1812.22</ele>
        <time>2015-06-14T10:02:32Z</time>
      </trkpt>
      <trkpt lat="44.07669" lon="7.02466">
        <ele>1812.22</ele>
        <time>2015-06-14T10:02:38Z</time>
      </trkpt>
      <trkpt lat="44.07664" lon="7.0248">
        <ele>1813.18</ele>
        <time>2015-06-14T10:02:41Z</time>
      </trkpt>
      <trkpt lat="44.07629" lon="7.02516">
        <ele>1811.26</ele>
        <time>2015-06-14T10:02:46Z</time>
      </trkpt>
      <trkpt lat="44.0761" lon="7.02524">
        <ele>1811.26</ele>
        <time>2015-06-14T10:02:48Z</time>
      </trkpt>
      <trkpt lat="44.07573" lon="7.02561">
        <ele>1808.38</ele>
        <time>2015-06-14T10:02:53Z</time>
      </trkpt>
      <trkpt lat="44.07565" lon="7.02584">
        <ele>1805.97</ele>
        <time>2015-06-14T10:02:55Z</time>
      </trkpt>
      <trkpt lat="44.07581" lon="7.02621">
        <ele>1802.61</ele>
        <time>2015-06-14T10:02:59Z</time>
      </trkpt>
      <trkpt lat="44.07607" lon="7.02637">
        <ele>1798.76</ele>
        <time>2015-06-14T10:03:02Z</time>
      </trkpt>
      <trkpt lat="44.07633" lon="7.02646">
        <ele>1793.96</ele>
        <time>2015-06-14T10:03:05Z</time>
      </trkpt>
      <trkpt lat="44.07658" lon="7.02646">
        <ele>1791.55</ele>
        <time>2015-06-14T10:03:08Z</time>
      </trkpt>
      <trkpt lat="44.07671" lon="7.02638">
        <ele>1790.11</ele>
        <time>2015-06-14T10:03:10Z</time>
      </trkpt>
      <trkpt lat="44.07703" lon="7.02625">
        <ele>1787.71</ele>
        <time>2015-06-14T10:03:15Z</time>
      </trkpt>
      <trkpt lat="44.07717" lon="7.02624">
        <ele>1786.27</ele>
        <time>2015-06-14T10:03:17Z</time>
      </trkpt>
      <trkpt lat="44.07732" lon="7.0262">
        <ele>1784.82</ele>
        <time>2015-06-14T10:03:19Z</time>
      </trkpt>
      <trkpt lat="44.07739" lon="7.02618">
        <ele>1783.86</ele>
        <time>2015-06-14T10:03:20Z</time>
      </trkpt>
      <trkpt lat="44.07758" lon="7.02607">
        <ele>1784.34</ele>
        <time>2015-06-14T10:03:24Z</time>
      </trkpt>
      <trkpt lat="44.07768" lon="7.02601">
        <ele>1784.34</ele>
        <time>2015-06-14T10:03:26Z</time>
      </trkpt>
      <trkpt lat="44.07807" lon="7.02568">
        <ele>1780.98</ele>
        <time>2015-06-14T10:03:34Z</time>
      </trkpt>
      <trkpt lat="44.07811" lon="7.02563">
        <ele>1780.98</ele>
        <time>2015-06-14T10:03:35Z</time>
      </trkpt>
      <trkpt lat="44.07827" lon="7.02543">
        <ele>1779.54</ele>
        <time>2015-06-14T10:03:38Z</time>
      </trkpt>
      <trkpt lat="44.07844" lon="7.02532">
        <ele>1773.29</ele>
        <time>2015-06-14T10:03:41Z</time>
      </trkpt>
      <trkpt lat="44.07851" lon="7.02537">
        <ele>1769.44</ele>
        <time>2015-06-14T10:03:43Z</time>
      </trkpt>
      <trkpt lat="44.07852" lon="7.0255">
        <ele>1768.48</ele>
        <time>2015-06-14T10:03:45Z</time>
      </trkpt>
      <trkpt lat="44.07851" lon="7.02556">
        <ele>1767.04</ele>
        <time>2015-06-14T10:03:46Z</time>
      </trkpt>
      <trkpt lat="44.07846" lon="7.02587">
        <ele>1766.08</ele>
        <time>2015-06-14T10:03:50Z</time>
      </trkpt>
      <trkpt lat="44.07842" lon="7.02619">
        <ele>1760.31</ele>
        <time>2015-06-14T10:03:53Z</time>
      </trkpt>
      <trkpt lat="44.07832" lon="7.02661">
        <ele>1756.95</ele>
        <time>2015-06-14T10:03:59Z</time>
      </trkpt>
      <trkpt lat="44.07834" lon="7.02674">
        <ele>1752.14</ele>
        <time>2015-06-14T10:04:01Z</time>
      </trkpt>
      <trkpt lat="44.07834" lon="7.0268">
        <ele>1751.18</ele>
        <time>2015-06-14T10:04:02Z</time>
      </trkpt>
      <trkpt lat="44.07833" lon="7.02692">
        <ele>1747.33</ele>
        <time>2015-06-14T10:04:04Z</time>
      </trkpt>
      <trkpt lat="44.07829" lon="7.02715">
        <ele>1741.08</ele>
        <time>2015-06-14T10:04:07Z</time>
      </trkpt>
      <trkpt lat="44.07827" lon="7.02723">
        <ele>1739.64</ele>
        <time>2015-06-14T10:04:08Z</time>
      </trkpt>
      <trkpt lat="44.07827" lon="7.02737">
        <ele>1733.88</ele>
        <time>2015-06-14T10:04:11Z</time>
      </trkpt>
      <trkpt lat="44.07829" lon="7.02739">
        <ele>1733.88</ele>
        <time>2015-06-14T10:04:12Z</time>
      </trkpt>
      <trkpt lat="44.07847" lon="7.02741">
        <ele>1729.07</ele>
        <time>2015-06-14T10:04:16Z</time>
      </trkpt>
      <trkpt lat="44.07861" lon="7.02743">
        <ele>1726.67</ele>
        <time>2015-06-14T10:04:18Z</time>
      </trkpt>
      <trkpt lat="44.07883" lon="7.0274">
        <ele>1722.34</ele>
        <time>2015-06-14T10:04:21Z</time>
      </trkpt>
      <trkpt lat="44.07896" lon="7.02733">
        <ele>1720.9</ele>
        <time>2015-06-14T10:04:23Z</time>
      </trkpt>
      <trkpt lat="44.07908" lon="7.02724">
        <ele>1719.46</ele>
        <time>2015-06-14T10:04:25Z</time>
      </trkpt>
      <trkpt lat="44.07932" lon="7.02702">
        <ele>1715.13</ele>
        <time>2015-06-14T10:04:29Z</time>
      </trkpt>
      <trkpt lat="44.0798" lon="7.02621">
        <ele>1714.17</ele>
        <time>2015-06-14T10:04:40Z</time>
      </trkpt>
      <trkpt lat="44.07991" lon="7.02594">
        <ele>1713.69</ele>
        <time>2015-06-14T10:04:44Z</time>
      </trkpt>
      <trkpt lat="44.08003" lon="7.02567">
        <ele>1712.25</ele>
        <time>2015-06-14T10:04:48Z</time>
      </trkpt>
      <trkpt lat="44.08011" lon="7.02536">
        <ele>1713.69</ele>
        <time>2015-06-14T10:04:53Z</time>
      </trkpt>
      <trkpt lat="44.08012" lon="7.02529">
        <ele>1713.69</ele>
        <time>2015-06-14T10:04:54Z</time>
      </trkpt>
      <trkpt lat="44.08047" lon="7.02434">
        <ele>1711.76</ele>
        <time>2015-06-14T10:05:08Z</time>
      </trkpt>
      <trkpt lat="44.08078" lon="7.0234">
        <ele>1707.92</ele>
        <time>2015-06-14T10:05:19Z</time>
      </trkpt>
      <trkpt lat="44.0808" lon="7.02335">
        <ele>1707.92</ele>
        <time>2015-06-14T10:05:20Z</time>
      </trkpt>
      <trkpt lat="44.08093" lon="7.02302">
        <ele>1706</ele>
        <time>2015-06-14T10:05:24Z</time>
      </trkpt>
      <trkpt lat="44.08095" lon="7.02294">
        <ele>1705.52</ele>
        <time>2015-06-14T10:05:25Z</time>
      </trkpt>
      <trkpt lat="44.08096" lon="7.02286">
        <ele>1705.52</ele>
        <time>2015-06-14T10:05:26Z</time>
      </trkpt>
      <trkpt lat="44.08096" lon="7.02276">
        <ele>1705.52</ele>
        <time>2015-06-14T10:05:27Z</time>
      </trkpt>
      <trkpt lat="44.08096" lon="7.02226">
        <ele>1703.59</ele>
        <time>2015-06-14T10:05:33Z</time>
      </trkpt>
      <trkpt lat="44.08095" lon="7.02217">
        <ele>1703.59</ele>
        <time>2015-06-14T10:05:34Z</time>
      </trkpt>
      <trkpt lat="44.08092" lon="7.02209">
        <ele>1703.59</ele>
        <time>2015-06-14T10:05:35Z</time>
      </trkpt>
      <trkpt lat="44.08085" lon="7.02182">
        <ele>1701.67</ele>
        <time>2015-06-14T10:05:38Z</time>
      </trkpt>
      <trkpt lat="44.08072" lon="7.02132">
        <ele>1698.79</ele>
        <time>2015-06-14T10:05:43Z</time>
      </trkpt>
      <trkpt lat="44.08059" lon="7.0206">
        <ele>1695.42</ele>
        <time>2015-06-14T10:05:50Z</time>
      </trkpt>
      <trkpt lat="44.08055" lon="7.02038">
        <ele>1693.98</ele>
        <time>2015-06-14T10:05:52Z</time>
      </trkpt>
      <trkpt lat="44.08055" lon="7.02028">
        <ele>1693.5</ele>
        <time>2015-06-14T10:05:53Z</time>
      </trkpt>
      <trkpt lat="44.08055" lon="7.02017">
        <ele>1692.54</ele>
        <time>2015-06-14T10:05:54Z</time>
      </trkpt>
      <trkpt lat="44.08051" lon="7.01975">
        <ele>1689.17</ele>
        <time>2015-06-14T10:05:58Z</time>
      </trkpt>
      <trkpt lat="44.08051" lon="7.01957">
        <ele>1687.73</ele>
        <time>2015-06-14T10:06:00Z</time>
      </trkpt>
      <trkpt lat="44.08049" lon="7.01932">
        <ele>1684.37</ele>
        <time>2015-06-14T10:06:03Z</time>
      </trkpt>
      <trkpt lat="44.08049" lon="7.01912">
        <ele>1682.93</ele>
        <time>2015-06-14T10:06:05Z</time>
      </trkpt>
      <trkpt lat="44.08049" lon="7.01901">
        <ele>1682.44</ele>
        <time>2015-06-14T10:06:06Z</time>
      </trkpt>
      <trkpt lat="44.08049" lon="7.01889">
        <ele>1680.52</ele>
        <time>2015-06-14T10:06:07Z</time>
      </trkpt>
      <trkpt lat="44.08047" lon="7.01863">
        <ele>1679.56</ele>
        <time>2015-06-14T10:06:09Z</time>
      </trkpt>
      <trkpt lat="44.08048" lon="7.0185">
        <ele>1679.08</ele>
        <time>2015-06-14T10:06:10Z</time>
      </trkpt>
      <trkpt lat="44.08049" lon="7.01826">
        <ele>1678.6</ele>
        <time>2015-06-14T10:06:12Z</time>
      </trkpt>
      <trkpt lat="44.08047" lon="7.01815">
        <ele>1677.16</ele>
        <time>2015-06-14T10:06:13Z</time>
      </trkpt>
      <trkpt lat="44.08046" lon="7.01803">
        <ele>1676.2</ele>
        <time>2015-06-14T10:06:14Z</time>
      </trkpt>
      <trkpt lat="44.08046" lon="7.01792">
        <ele>1675.23</ele>
        <time>2015-06-14T10:06:15Z</time>
      </trkpt>
      <trkpt lat="44.08046" lon="7.01781">
        <ele>1674.75</ele>
        <time>2015-06-14T10:06:16Z</time>
      </trkpt>
      <trkpt lat="44.08048" lon="7.0177">
        <ele>1673.79</ele>
        <time>2015-06-14T10:06:17Z</time>
      </trkpt>
      <trkpt lat="44.08051" lon="7.01762">
        <ele>1673.31</ele>
        <time>2015-06-14T10:06:18Z</time>
      </trkpt>
      <trkpt lat="44.08055" lon="7.01755">
        <ele>1672.83</ele>
        <time>2015-06-14T10:06:19Z</time>
      </trkpt>
      <trkpt lat="44.08059" lon="7.01748">
        <ele>1672.83</ele>
        <time>2015-06-14T10:06:20Z</time>
      </trkpt>
      <trkpt lat="44.08062" lon="7.0174">
        <ele>1672.83</ele>
        <time>2015-06-14T10:06:21Z</time>
      </trkpt>
      <trkpt lat="44.08065" lon="7.0173">
        <ele>1672.83</ele>
        <time>2015-06-14T10:06:22Z</time>
      </trkpt>
      <trkpt lat="44.08068" lon="7.0172">
        <ele>1671.87</ele>
        <time>2015-06-14T10:06:23Z</time>
      </trkpt>
      <trkpt lat="44.08074" lon="7.01711">
        <ele>1669.95</ele>
        <time>2015-06-14T10:06:24Z</time>
      </trkpt>
      <trkpt lat="44.08085" lon="7.01694">
        <ele>1668.99</ele>
        <time>2015-06-14T10:06:26Z</time>
      </trkpt>
      <trkpt lat="44.08091" lon="7.01685">
        <ele>1668.51</ele>
        <time>2015-06-14T10:06:27Z</time>
      </trkpt>
      <trkpt lat="44.08098" lon="7.01675">
        <ele>1667.06</ele>
        <time>2015-06-14T10:06:28Z</time>
      </trkpt>
      <trkpt lat="44.08105" lon="7.01668">
        <ele>1665.62</ele>
        <time>2015-06-14T10:06:29Z</time>
      </trkpt>
      <trkpt lat="44.08111" lon="7.01661">
        <ele>1664.18</ele>
        <time>2015-06-14T10:06:30Z</time>
      </trkpt>
      <trkpt lat="44.08126" lon="7.01645">
        <ele>1659.85</ele>
        <time>2015-06-14T10:06:33Z</time>
      </trkpt>
      <trkpt lat="44.08132" lon="7.01642">
        <ele>1659.37</ele>
        <time>2015-06-14T10:06:34Z</time>
      </trkpt>
      <trkpt lat="44.0814" lon="7.0164">
        <ele>1658.41</ele>
        <time>2015-06-14T10:06:35Z</time>
      </trkpt>
      <trkpt lat="44.08156" lon="7.01636">
        <ele>1655.05</ele>
        <time>2015-06-14T10:06:37Z</time>
      </trkpt>
      <trkpt lat="44.08164" lon="7.01635">
        <ele>1653.12</ele>
        <time>2015-06-14T10:06:38Z</time>
      </trkpt>
      <trkpt lat="44.08171" lon="7.01635">
        <ele>1650.72</ele>
        <time>2015-06-14T10:06:39Z</time>
      </trkpt>
      <trkpt lat="44.08177" lon="7.01637">
        <ele>1649.28</ele>
        <time>2015-06-14T10:06:40Z</time>
      </trkpt>
      <trkpt lat="44.08188" lon="7.01641">
        <ele>1648.32</ele>
        <time>2015-06-14T10:06:42Z</time>
      </trkpt>
      <trkpt lat="44.08194" lon="7.0164">
        <ele>1647.84</ele>
        <time>2015-06-14T10:06:43Z</time>
      </trkpt>
      <trkpt lat="44.08199" lon="7.01637">
        <ele>1647.84</ele>
        <time>2015-06-14T10:06:44Z</time>
      </trkpt>
      <trkpt lat="44.08203" lon="7.01632">
        <ele>1648.8</ele>
        <time>2015-06-14T10:06:45Z</time>
      </trkpt>
      <trkpt lat="44.08207" lon="7.01626">
        <ele>1648.8</ele>
        <time>2015-06-14T10:06:46Z</time>
      </trkpt>
      <trkpt lat="44.08212" lon="7.0162">
        <ele>1648.8</ele>
        <time>2015-06-14T10:06:47Z</time>
      </trkpt>
      <trkpt lat="44.08218" lon="7.01614">
        <ele>1647.84</ele>
        <time>2015-06-14T10:06:48Z</time>
      </trkpt>
      <trkpt lat="44.08242" lon="7.01588">
        <ele>1646.4</ele>
        <time>2015-06-14T10:06:52Z</time>
      </trkpt>
      <trkpt lat="44.08249" lon="7.01583">
        <ele>1645.43</ele>
        <time>2015-06-14T10:06:53Z</time>
      </trkpt>
      <trkpt lat="44.08257" lon="7.01579">
        <ele>1644.47</ele>
        <time>2015-06-14T10:06:54Z</time>
      </trkpt>
      <trkpt lat="44.08265" lon="7.01576">
        <ele>1643.99</ele>
        <time>2015-06-14T10:06:55Z</time>
      </trkpt>
      <trkpt lat="44.08272" lon="7.01574">
        <ele>1643.99</ele>
        <time>2015-06-14T10:06:56Z</time>
      </trkpt>
      <trkpt lat="44.08278" lon="7.01573">
        <ele>1642.55</ele>
        <time>2015-06-14T10:06:57Z</time>
      </trkpt>
      <trkpt lat="44.08283" lon="7.01572">
        <ele>1642.07</ele>
        <time>2015-06-14T10:06:58Z</time>
      </trkpt>
      <trkpt lat="44.08287" lon="7.01569">
        <ele>1640.63</ele>
        <time>2015-06-14T10:06:59Z</time>
      </trkpt>
      <trkpt lat="44.08289" lon="7.01565">
        <ele>1639.19</ele>
        <time>2015-06-14T10:07:00Z</time>
      </trkpt>
      <trkpt lat="44.08289" lon="7.0156">
        <ele>1639.19</ele>
        <time>2015-06-14T10:07:01Z</time>
      </trkpt>
      <trkpt lat="44.08288" lon="7.01557">
        <ele>1639.19</ele>
        <time>2015-06-14T10:07:02Z</time>
      </trkpt>
      <trkpt lat="44.08287" lon="7.01554">
        <ele>1640.63</ele>
        <time>2015-06-14T10:07:03Z</time>
      </trkpt>
      <trkpt lat="44.08273" lon="7.01527">
        <ele>1644.47</ele>
        <time>2015-06-14T10:07:11Z</time>
      </trkpt>
      <trkpt lat="44.08271" lon="7.01524">
        <ele>1644.47</ele>
        <time>2015-06-14T10:07:12Z</time>
      </trkpt>
      <trkpt lat="44.08255" lon="7.01512">
        <ele>1644.95</ele>
        <time>2015-06-14T10:07:17Z</time>
      </trkpt>
      <trkpt lat="44.08247" lon="7.01506">
        <ele>1643.51</ele>
        <time>2015-06-14T10:07:19Z</time>
      </trkpt>
      <trkpt lat="44.08241" lon="7.01502">
        <ele>1643.51</ele>
        <time>2015-06-14T10:07:20Z</time>
      </trkpt>
      <trkpt lat="44.08236" lon="7.01497">
        <ele>1642.55</ele>
        <time>2015-06-14T10:07:21Z</time>
      </trkpt>
      <trkpt lat="44.08231" lon="7.01492">
        <ele>1642.55</ele>
        <time>2015-06-14T10:07:22Z</time>
      </trkpt>
      <trkpt lat="44.08204" lon="7.01465">
        <ele>1642.07</ele>
        <time>2015-06-14T10:07:28Z</time>
      </trkpt>
      <trkpt lat="44.082" lon="7.0146">
        <ele>1642.07</ele>
        <time>2015-06-14T10:07:29Z</time>
      </trkpt>
      <trkpt lat="44.08198" lon="7.01454">
        <ele>1641.59</ele>
        <time>2015-06-14T10:07:30Z</time>
      </trkpt>
      <trkpt lat="44.08192" lon="7.01441">
        <ele>1641.59</ele>
        <time>2015-06-14T10:07:32Z</time>
      </trkpt>
      <trkpt lat="44.08186" lon="7.0142">
        <ele>1639.67</ele>
        <time>2015-06-14T10:07:35Z</time>
      </trkpt>
      <trkpt lat="44.08186" lon="7.01414">
        <ele>1639.67</ele>
        <time>2015-06-14T10:07:36Z</time>
      </trkpt>
      <trkpt lat="44.08186" lon="7.01409">
        <ele>1639.67</ele>
        <time>2015-06-14T10:07:37Z</time>
      </trkpt>
      <trkpt lat="44.08186" lon="7.01404">
        <ele>1639.67</ele>
        <time>2015-06-14T10:07:38Z</time>
      </trkpt>
      <trkpt lat="44.08187" lon="7.014">
        <ele>1639.67</ele>
        <time>2015-06-14T10:07:39Z</time>
      </trkpt>
      <trkpt lat="44.08188" lon="7.01398">
        <ele>1639.67</ele>
        <time>2015-06-14T10:07:40Z</time>
      </trkpt>
      <trkpt lat="44.08189" lon="7.01396">
        <ele>1639.67</ele>
        <time>2015-06-14T10:07:41Z</time>
      </trkpt>
      <trkpt lat="44.08189" lon="7.01392">
        <ele>1639.67</ele>
        <time>2015-06-14T10:07:42Z</time>
      </trkpt>
      <trkpt lat="44.0819" lon="7.01387">
        <ele>1639.67</ele>
        <time>2015-06-14T10:07:43Z</time>
      </trkpt>
      <trkpt lat="44.08191" lon="7.01374">
        <ele>1639.67</ele>
        <time>2015-06-14T10:07:45Z</time>
      </trkpt>
      <trkpt lat="44.08192" lon="7.01368">
        <ele>1639.67</ele>
        <time>2015-06-14T10:07:46Z</time>
      </trkpt>
      <trkpt lat="44.08194" lon="7.01362">
        <ele>1639.67</ele>
        <time>2015-06-14T10:07:47Z</time>
      </trkpt>
      <trkpt lat="44.08194" lon="7.01356">
        <ele>1639.67</ele>
        <time>2015-06-14T10:07:48Z</time>
      </trkpt>
      <trkpt lat="44.08195" lon="7.01349">
        <ele>1639.67</ele>
        <time>2015-06-14T10:07:49Z</time>
      </trkpt>
      <trkpt lat="44.08196" lon="7.01335">
        <ele>1639.67</ele>
        <time>2015-06-14T10:07:51Z</time>
      </trkpt>
      <trkpt lat="44.08196" lon="7.01327">
        <ele>1639.67</ele>
        <time>2015-06-14T10:07:52Z</time>
      </trkpt>
      <trkpt lat="44.08199" lon="7.01294">
        <ele>1638.22</ele>
        <time>2015-06-14T10:07:56Z</time>
      </trkpt>
      <trkpt lat="44.08201" lon="7.01287">
        <ele>1637.74</ele>
        <time>2015-06-14T10:07:57Z</time>
      </trkpt>
      <trkpt lat="44.08202" lon="7.01266">
        <ele>1636.78</ele>
        <time>2015-06-14T10:08:00Z</time>
      </trkpt>
      <trkpt lat="44.08201" lon="7.01259">
        <ele>1635.82</ele>
        <time>2015-06-14T10:08:01Z</time>
      </trkpt>
      <trkpt lat="44.08199" lon="7.01242">
        <ele>1633.9</ele>
        <time>2015-06-14T10:08:03Z</time>
      </trkpt>
      <trkpt lat="44.082" lon="7.01234">
        <ele>1633.9</ele>
        <time>2015-06-14T10:08:04Z</time>
      </trkpt>
      <trkpt lat="44.08201" lon="7.01226">
        <ele>1633.42</ele>
        <time>2015-06-14T10:08:05Z</time>
      </trkpt>
      <trkpt lat="44.08203" lon="7.0122">
        <ele>1631.98</ele>
        <time>2015-06-14T10:08:06Z</time>
      </trkpt>
      <trkpt lat="44.08205" lon="7.01213">
        <ele>1631.98</ele>
        <time>2015-06-14T10:08:07Z</time>
      </trkpt>
      <trkpt lat="44.08206" lon="7.01207">
        <ele>1631.98</ele>
        <time>2015-06-14T10:08:08Z</time>
      </trkpt>
      <trkpt lat="44.08209" lon="7.01197">
        <ele>1631.98</ele>
        <time>2015-06-14T10:08:10Z</time>
      </trkpt>
      <trkpt lat="44.0821" lon="7.01195">
        <ele>1631.98</ele>
        <time>2015-06-14T10:08:11Z</time>
      </trkpt>
      <trkpt lat="44.08211" lon="7.01191">
        <ele>1633.9</ele>
        <time>2015-06-14T10:08:12Z</time>
      </trkpt>
      <trkpt lat="44.08212" lon="7.01186">
        <ele>1633.9</ele>
        <time>2015-06-14T10:08:13Z</time>
      </trkpt>
      <trkpt lat="44.08212" lon="7.0118">
        <ele>1633.9</ele>
        <time>2015-06-14T10:08:14Z</time>
      </trkpt>
      <trkpt lat="44.08213" lon="7.01174">
        <ele>1633.42</ele>
        <time>2015-06-14T10:08:15Z</time>
      </trkpt>
      <trkpt lat="44.08213" lon="7.01167">
        <ele>1633.42</ele>
        <time>2015-06-14T10:08:16Z</time>
      </trkpt>
      <trkpt lat="44.08213" lon="7.0116">
        <ele>1633.42</ele>
        <time>2015-06-14T10:08:17Z</time>
      </trkpt>
      <trkpt lat="44.08214" lon="7.01152">
        <ele>1633.42</ele>
        <time>2015-06-14T10:08:18Z</time>
      </trkpt>
      <trkpt lat="44.08214" lon="7.01145">
        <ele>1633.42</ele>
        <time>2015-06-14T10:08:19Z</time>
      </trkpt>
      <trkpt lat="44.08213" lon="7.01119">
        <ele>1632.46</ele>
        <time>2015-06-14T10:08:23Z</time>
      </trkpt>
      <trkpt lat="44.08212" lon="7.01112">
        <ele>1632.46</ele>
        <time>2015-06-14T10:08:24Z</time>
      </trkpt>
      <trkpt lat="44.0821" lon="7.01106">
        <ele>1632.46</ele>
        <time>2015-06-14T10:08:25Z</time>
      </trkpt>
      <trkpt lat="44.08194" lon="7.01065">
        <ele>1630.53</ele>
        <time>2015-06-14T10:08:31Z</time>
      </trkpt>
      <trkpt lat="44.08193" lon="7.01058">
        <ele>1630.53</ele>
        <time>2015-06-14T10:08:32Z</time>
      </trkpt>
      <trkpt lat="44.08193" lon="7.0105">
        <ele>1630.53</ele>
        <time>2015-06-14T10:08:33Z</time>
      </trkpt>
      <trkpt lat="44.08194" lon="7.01042">
        <ele>1630.53</ele>
        <time>2015-06-14T10:08:34Z</time>
      </trkpt>
      <trkpt lat="44.08195" lon="7.01034">
        <ele>1630.05</ele>
        <time>2015-06-14T10:08:35Z</time>
      </trkpt>
      <trkpt lat="44.08203" lon="7.01">
        <ele>1629.09</ele>
        <time>2015-06-14T10:08:39Z</time>
      </trkpt>
      <trkpt lat="44.08205" lon="7.00992">
        <ele>1628.13</ele>
        <time>2015-06-14T10:08:40Z</time>
      </trkpt>
      <trkpt lat="44.08208" lon="7.00983">
        <ele>1627.65</ele>
        <time>2015-06-14T10:08:41Z</time>
      </trkpt>
      <trkpt lat="44.08211" lon="7.00973">
        <ele>1627.65</ele>
        <time>2015-06-14T10:08:42Z</time>
      </trkpt>
      <trkpt lat="44.08216" lon="7.00942">
        <ele>1625.73</ele>
        <time>2015-06-14T10:08:45Z</time>
      </trkpt>
      <trkpt lat="44.08221" lon="7.00908">
        <ele>1622.84</ele>
        <time>2015-06-14T10:08:48Z</time>
      </trkpt>
      <trkpt lat="44.08224" lon="7.00897">
        <ele>1621.88</ele>
        <time>2015-06-14T10:08:49Z</time>
      </trkpt>
      <trkpt lat="44.08229" lon="7.00888">
        <ele>1621.88</ele>
        <time>2015-06-14T10:08:50Z</time>
      </trkpt>
      <trkpt lat="44.08234" lon="7.00882">
        <ele>1621.88</ele>
        <time>2015-06-14T10:08:51Z</time>
      </trkpt>
      <trkpt lat="44.0824" lon="7.00876">
        <ele>1621.88</ele>
        <time>2015-06-14T10:08:52Z</time>
      </trkpt>
      <trkpt lat="44.08255" lon="7.00862">
        <ele>1621.88</ele>
        <time>2015-06-14T10:08:55Z</time>
      </trkpt>
      <trkpt lat="44.08287" lon="7.00821">
        <ele>1621.4</ele>
        <time>2015-06-14T10:09:02Z</time>
      </trkpt>
      <trkpt lat="44.08305" lon="7.00796">
        <ele>1620.92</ele>
        <time>2015-06-14T10:09:06Z</time>
      </trkpt>
      <trkpt lat="44.08328" lon="7.00757">
        <ele>1621.4</ele>
        <time>2015-06-14T10:09:12Z</time>
      </trkpt>
      <trkpt lat="44.08336" lon="7.00744">
        <ele>1621.4</ele>
        <time>2015-06-14T10:09:14Z</time>
      </trkpt>
      <trkpt lat="44.0834" lon="7.00736">
        <ele>1621.4</ele>
        <time>2015-06-14T10:09:15Z</time>
      </trkpt>
      <trkpt lat="44.08349" lon="7.00713">
        <ele>1620.44</ele>
        <time>2015-06-14T10:09:18Z</time>
      </trkpt>
      <trkpt lat="44.08351" lon="7.00705">
        <ele>1620.44</ele>
        <time>2015-06-14T10:09:19Z</time>
      </trkpt>
      <trkpt lat="44.08353" lon="7.00695">
        <ele>1620.44</ele>
        <time>2015-06-14T10:09:20Z</time>
      </trkpt>
      <trkpt lat="44.08359" lon="7.00655">
        <ele>1619.48</ele>
        <time>2015-06-14T10:09:25Z</time>
      </trkpt>
      <trkpt lat="44.08358" lon="7.00649">
        <ele>1620.92</ele>
        <time>2015-06-14T10:09:26Z</time>
      </trkpt>
      <trkpt lat="44.08357" lon="7.00644">
        <ele>1621.4</ele>
        <time>2015-06-14T10:09:27Z</time>
      </trkpt>
      <trkpt lat="44.08355" lon="7.0064">
        <ele>1621.4</ele>
        <time>2015-06-14T10:09:28Z</time>
      </trkpt>
      <trkpt lat="44.08353" lon="7.00635">
        <ele>1621.4</ele>
        <time>2015-06-14T10:09:29Z</time>
      </trkpt>
      <trkpt lat="44.08351" lon="7.00631">
        <ele>1621.4</ele>
        <time>2015-06-14T10:09:30Z</time>
      </trkpt>
      <trkpt lat="44.08349" lon="7.00627">
        <ele>1621.4</ele>
        <time>2015-06-14T10:09:31Z</time>
      </trkpt>
      <trkpt lat="44.08347" lon="7.00623">
        <ele>1621.88</ele>
        <time>2015-06-14T10:09:32Z</time>
      </trkpt>
      <trkpt lat="44.08344" lon="7.0062">
        <ele>1621.88</ele>
        <time>2015-06-14T10:09:33Z</time>
      </trkpt>
      <trkpt lat="44.08325" lon="7.00597">
        <ele>1624.77</ele>
        <time>2015-06-14T10:09:41Z</time>
      </trkpt>
      <trkpt lat="44.08298" lon="7.00604">
        <ele>1625.73</ele>
        <time>2015-06-14T10:09:49Z</time>
      </trkpt>
      <trkpt lat="44.08283" lon="7.0061">
        <ele>1625.73</ele>
        <time>2015-06-14T10:09:52Z</time>
      </trkpt>
      <trkpt lat="44.08278" lon="7.0061">
        <ele>1625.73</ele>
        <time>2015-06-14T10:09:53Z</time>
      </trkpt>
      <trkpt lat="44.08272" lon="7.00608">
        <ele>1625.73</ele>
        <time>2015-06-14T10:09:54Z</time>
      </trkpt>
      <trkpt lat="44.08267" lon="7.00605">
        <ele>1624.77</ele>
        <time>2015-06-14T10:09:55Z</time>
      </trkpt>
      <trkpt lat="44.08262" lon="7.00601">
        <ele>1624.77</ele>
        <time>2015-06-14T10:09:56Z</time>
      </trkpt>
      <trkpt lat="44.0824" lon="7.00581">
        <ele>1622.36</ele>
        <time>2015-06-14T10:10:00Z</time>
      </trkpt>
      <trkpt lat="44.08229" lon="7.00572">
        <ele>1621.88</ele>
        <time>2015-06-14T10:10:02Z</time>
      </trkpt>
      <trkpt lat="44.08224" lon="7.00567">
        <ele>1621.88</ele>
        <time>2015-06-14T10:10:03Z</time>
      </trkpt>
      <trkpt lat="44.08221" lon="7.0056">
        <ele>1621.88</ele>
        <time>2015-06-14T10:10:04Z</time>
      </trkpt>
      <trkpt lat="44.08219" lon="7.00552">
        <ele>1621.88</ele>
        <time>2015-06-14T10:10:05Z</time>
      </trkpt>
      <trkpt lat="44.08217" lon="7.00545">
        <ele>1621.88</ele>
        <time>2015-06-14T10:10:06Z</time>
      </trkpt>
      <trkpt lat="44.08209" lon="7.00517">
        <ele>1623.32</ele>
        <time>2015-06-14T10:10:10Z</time>
      </trkpt>
      <trkpt lat="44.08206" lon="7.00504">
        <ele>1623.32</ele>
        <time>2015-06-14T10:10:12Z</time>
      </trkpt>
      <trkpt lat="44.08204" lon="7.00498">
        <ele>1623.32</ele>
        <time>2015-06-14T10:10:13Z</time>
      </trkpt>
      <trkpt lat="44.08201" lon="7.00493">
        <ele>1624.28</ele>
        <time>2015-06-14T10:10:14Z</time>
      </trkpt>
      <trkpt lat="44.0819" lon="7.00473">
        <ele>1624.77</ele>
        <time>2015-06-14T10:10:18Z</time>
      </trkpt>
      <trkpt lat="44.08186" lon="7.00469">
        <ele>1624.77</ele>
        <time>2015-06-14T10:10:19Z</time>
      </trkpt>
      <trkpt lat="44.08183" lon="7.00466">
        <ele>1624.77</ele>
        <time>2015-06-14T10:10:20Z</time>
      </trkpt>
      <trkpt lat="44.08178" lon="7.00464">
        <ele>1624.77</ele>
        <time>2015-06-14T10:10:21Z</time>
      </trkpt>
      <trkpt lat="44.08173" lon="7.00463">
        <ele>1624.77</ele>
        <time>2015-06-14T10:10:22Z</time>
      </trkpt>
      <trkpt lat="44.08167" lon="7.00462">
        <ele>1624.77</ele>
        <time>2015-06-14T10:10:23Z</time>
      </trkpt>
      <trkpt lat="44.08162" lon="7.0046">
        <ele>1624.77</ele>
        <time>2015-06-14T10:10:24Z</time>
      </trkpt>
      <trkpt lat="44.08157" lon="7.00457">
        <ele>1622.84</ele>
        <time>2015-06-14T10:10:25Z</time>
      </trkpt>
      <trkpt lat="44.08151" lon="7.00453">
        <ele>1621.88</ele>
        <time>2015-06-14T10:10:26Z</time>
      </trkpt>
      <trkpt lat="44.08146" lon="7.00448">
        <ele>1621.88</ele>
        <time>2015-06-14T10:10:27Z</time>
      </trkpt>
      <trkpt lat="44.0814" lon="7.00441">
        <ele>1621.88</ele>
        <time>2015-06-14T10:10:28Z</time>
      </trkpt>
      <trkpt lat="44.08135" lon="7.00435">
        <ele>1620.92</ele>
        <time>2015-06-14T10:10:29Z</time>
      </trkpt>
      <trkpt lat="44.08103" lon="7.004">
        <ele>1617.56</ele>
        <time>2015-06-14T10:10:34Z</time>
      </trkpt>
      <trkpt lat="44.08095" lon="7.00394">
        <ele>1617.56</ele>
        <time>2015-06-14T10:10:35Z</time>
      </trkpt>
      <trkpt lat="44.08052" lon="7.0036">
        <ele>1614.67</ele>
        <time>2015-06-14T10:10:41Z</time>
      </trkpt>
      <trkpt lat="44.08034" lon="7.00348">
        <ele>1612.75</ele>
        <time>2015-06-14T10:10:44Z</time>
      </trkpt>
      <trkpt lat="44.08031" lon="7.00344">
        <ele>1611.79</ele>
        <time>2015-06-14T10:10:45Z</time>
      </trkpt>
      <trkpt lat="44.08031" lon="7.00338">
        <ele>1610.83</ele>
        <time>2015-06-14T10:10:46Z</time>
      </trkpt>
      <trkpt lat="44.08031" lon="7.0033">
        <ele>1609.86</ele>
        <time>2015-06-14T10:10:48Z</time>
      </trkpt>
      <trkpt lat="44.0803" lon="7.00326">
        <ele>1609.86</ele>
        <time>2015-06-14T10:10:49Z</time>
      </trkpt>
      <trkpt lat="44.08025" lon="7.00317">
        <ele>1607.94</ele>
        <time>2015-06-14T10:10:51Z</time>
      </trkpt>
      <trkpt lat="44.08023" lon="7.00311">
        <ele>1606.02</ele>
        <time>2015-06-14T10:10:52Z</time>
      </trkpt>
      <trkpt lat="44.08026" lon="7.00289">
        <ele>1601.69</ele>
        <time>2015-06-14T10:10:55Z</time>
      </trkpt>
      <trkpt lat="44.0802" lon="7.00268">
        <ele>1597.37</ele>
        <time>2015-06-14T10:10:58Z</time>
      </trkpt>
      <trkpt lat="44.08011" lon="7.00255">
        <ele>1594</ele>
        <time>2015-06-14T10:11:00Z</time>
      </trkpt>
      <trkpt lat="44.07994" lon="7.00238">
        <ele>1589.2</ele>
        <time>2015-06-14T10:11:03Z</time>
      </trkpt>
      <trkpt lat="44.07984" lon="7.00227">
        <ele>1584.87</ele>
        <time>2015-06-14T10:11:05Z</time>
      </trkpt>
      <trkpt lat="44.07979" lon="7.00222">
        <ele>1583.91</ele>
        <time>2015-06-14T10:11:06Z</time>
      </trkpt>
      <trkpt lat="44.07967" lon="7.00209">
        <ele>1581.03</ele>
        <time>2015-06-14T10:11:08Z</time>
      </trkpt>
      <trkpt lat="44.07944" lon="7.00182">
        <ele>1576.22</ele>
        <time>2015-06-14T10:11:12Z</time>
      </trkpt>
      <trkpt lat="44.07939" lon="7.00175">
        <ele>1574.3</ele>
        <time>2015-06-14T10:11:13Z</time>
      </trkpt>
      <trkpt lat="44.07933" lon="7.00168">
        <ele>1575.26</ele>
        <time>2015-06-14T10:11:14Z</time>
      </trkpt>
      <trkpt lat="44.07927" lon="7.00162">
        <ele>1574.3</ele>
        <time>2015-06-14T10:11:15Z</time>
      </trkpt>
      <trkpt lat="44.07915" lon="7.00148">
        <ele>1572.37</ele>
        <time>2015-06-14T10:11:17Z</time>
      </trkpt>
      <trkpt lat="44.07899" lon="7.00127">
        <ele>1568.05</ele>
        <time>2015-06-14T10:11:20Z</time>
      </trkpt>
      <trkpt lat="44.07895" lon="7.00121">
        <ele>1566.61</ele>
        <time>2015-06-14T10:11:21Z</time>
      </trkpt>
      <trkpt lat="44.07892" lon="7.00116">
        <ele>1565.64</ele>
        <time>2015-06-14T10:11:22Z</time>
      </trkpt>
      <trkpt lat="44.07889" lon="7.00109">
        <ele>1564.68</ele>
        <time>2015-06-14T10:11:23Z</time>
      </trkpt>
      <trkpt lat="44.07885" lon="7.00103">
        <ele>1563.24</ele>
        <time>2015-06-14T10:11:24Z</time>
      </trkpt>
      <trkpt lat="44.0788" lon="7.00096">
        <ele>1561.8</ele>
        <time>2015-06-14T10:11:25Z</time>
      </trkpt>
      <trkpt lat="44.07875" lon="7.0009">
        <ele>1560.36</ele>
        <time>2015-06-14T10:11:26Z</time>
      </trkpt>
      <trkpt lat="44.0787" lon="7.00084">
        <ele>1558.92</ele>
        <time>2015-06-14T10:11:27Z</time>
      </trkpt>
      <trkpt lat="44.07861" lon="7.00075">
        <ele>1556.03</ele>
        <time>2015-06-14T10:11:29Z</time>
      </trkpt>
      <trkpt lat="44.07859" lon="7.0007">
        <ele>1554.59</ele>
        <time>2015-06-14T10:11:30Z</time>
      </trkpt>
      <trkpt lat="44.07856" lon="7.00066">
        <ele>1553.15</ele>
        <time>2015-06-14T10:11:31Z</time>
      </trkpt>
      <trkpt lat="44.07848" lon="7.00058">
        <ele>1548.34</ele>
        <time>2015-06-14T10:11:34Z</time>
      </trkpt>
      <trkpt lat="44.07848" lon="7.00054">
        <ele>1547.86</ele>
        <time>2015-06-14T10:11:35Z</time>
      </trkpt>
      <trkpt lat="44.0785" lon="7.00051">
        <ele>1546.9</ele>
        <time>2015-06-14T10:11:36Z</time>
      </trkpt>
      <trkpt lat="44.07852" lon="7.00045">
        <ele>1544.98</ele>
        <time>2015-06-14T10:11:38Z</time>
      </trkpt>
      <trkpt lat="44.0785" lon="7.00041">
        <ele>1545.94</ele>
        <time>2015-06-14T10:11:39Z</time>
      </trkpt>
      <trkpt lat="44.07847" lon="7.00037">
        <ele>1544.5</ele>
        <time>2015-06-14T10:11:40Z</time>
      </trkpt>
      <trkpt lat="44.07843" lon="7.00033">
        <ele>1543.53</ele>
        <time>2015-06-14T10:11:41Z</time>
      </trkpt>
      <trkpt lat="44.07838" lon="7.00029">
        <ele>1542.57</ele>
        <time>2015-06-14T10:11:42Z</time>
      </trkpt>
      <trkpt lat="44.07832" lon="7.00025">
        <ele>1540.65</ele>
        <time>2015-06-14T10:11:43Z</time>
      </trkpt>
      <trkpt lat="44.07826" lon="7.00021">
        <ele>1539.21</ele>
        <time>2015-06-14T10:11:44Z</time>
      </trkpt>
      <trkpt lat="44.07821" lon="7.00019">
        <ele>1537.77</ele>
        <time>2015-06-14T10:11:45Z</time>
      </trkpt>
      <trkpt lat="44.07816" lon="7.00019">
        <ele>1536.32</ele>
        <time>2015-06-14T10:11:46Z</time>
      </trkpt>
      <trkpt lat="44.07813" lon="7.0002">
        <ele>1536.32</ele>
        <time>2015-06-14T10:11:47Z</time>
      </trkpt>
      <trkpt lat="44.07809" lon="7.00017">
        <ele>1535.84</ele>
        <time>2015-06-14T10:11:49Z</time>
      </trkpt>
      <trkpt lat="44.07816" lon="7.00007">
        <ele>1533.44</ele>
        <time>2015-06-14T10:11:52Z</time>
      </trkpt>
      <trkpt lat="44.0782" lon="7.00006">
        <ele>1533.44</ele>
        <time>2015-06-14T10:11:53Z</time>
      </trkpt>
      <trkpt lat="44.07824" lon="7.00005">
        <ele>1531.52</ele>
        <time>2015-06-14T10:11:55Z</time>
      </trkpt>
      <trkpt lat="44.07821" lon="7.00001">
        <ele>1530.56</ele>
        <time>2015-06-14T10:11:58Z</time>
      </trkpt>
      <trkpt lat="44.07813" lon="6.99993">
        <ele>1529.11</ele>
        <time>2015-06-14T10:12:00Z</time>
      </trkpt>
      <trkpt lat="44.07807" lon="6.9999">
        <ele>1528.63</ele>
        <time>2015-06-14T10:12:01Z</time>
      </trkpt>
      <trkpt lat="44.07801" lon="6.99989">
        <ele>1528.15</ele>
        <time>2015-06-14T10:12:02Z</time>
      </trkpt>
      <trkpt lat="44.0779" lon="6.99985">
        <ele>1524.79</ele>
        <time>2015-06-14T10:12:04Z</time>
      </trkpt>
      <trkpt lat="44.07785" lon="6.99982">
        <ele>1523.83</ele>
        <time>2015-06-14T10:12:05Z</time>
      </trkpt>
      <trkpt lat="44.07779" lon="6.99981">
        <ele>1522.39</ele>
        <time>2015-06-14T10:12:06Z</time>
      </trkpt>
      <trkpt lat="44.07773" lon="6.9998">
        <ele>1520.94</ele>
        <time>2015-06-14T10:12:07Z</time>
      </trkpt>
      <trkpt lat="44.07768" lon="6.99978">
        <ele>1519.5</ele>
        <time>2015-06-14T10:12:08Z</time>
      </trkpt>
      <trkpt lat="44.07762" lon="6.99976">
        <ele>1518.54</ele>
        <time>2015-06-14T10:12:09Z</time>
      </trkpt>
      <trkpt lat="44.07756" lon="6.9997">
        <ele>1517.1</ele>
        <time>2015-06-14T10:12:10Z</time>
      </trkpt>
      <trkpt lat="44.0775" lon="6.99963">
        <ele>1516.14</ele>
        <time>2015-06-14T10:12:11Z</time>
      </trkpt>
      <trkpt lat="44.07744" lon="6.99957">
        <ele>1515.18</ele>
        <time>2015-06-14T10:12:12Z</time>
      </trkpt>
      <trkpt lat="44.07739" lon="6.9995">
        <ele>1514.21</ele>
        <time>2015-06-14T10:12:13Z</time>
      </trkpt>
      <trkpt lat="44.07733" lon="6.99942">
        <ele>1512.77</ele>
        <time>2015-06-14T10:12:14Z</time>
      </trkpt>
      <trkpt lat="44.07728" lon="6.99933">
        <ele>1511.81</ele>
        <time>2015-06-14T10:12:15Z</time>
      </trkpt>
      <trkpt lat="44.07722" lon="6.99925">
        <ele>1511.33</ele>
        <time>2015-06-14T10:12:16Z</time>
      </trkpt>
      <trkpt lat="44.07716" lon="6.99911">
        <ele>1509.41</ele>
        <time>2015-06-14T10:12:18Z</time>
      </trkpt>
      <trkpt lat="44.07711" lon="6.99904">
        <ele>1509.41</ele>
        <time>2015-06-14T10:12:19Z</time>
      </trkpt>
      <trkpt lat="44.07707" lon="6.99899">
        <ele>1508.45</ele>
        <time>2015-06-14T10:12:20Z</time>
      </trkpt>
      <trkpt lat="44.07703" lon="6.99893">
        <ele>1508.45</ele>
        <time>2015-06-14T10:12:21Z</time>
      </trkpt>
      <trkpt lat="44.07698" lon="6.99887">
        <ele>1507.97</ele>
        <time>2015-06-14T10:12:22Z</time>
      </trkpt>
      <trkpt lat="44.07693" lon="6.99881">
        <ele>1507.97</ele>
        <time>2015-06-14T10:12:23Z</time>
      </trkpt>
      <trkpt lat="44.07687" lon="6.99873">
        <ele>1507.48</ele>
        <time>2015-06-14T10:12:24Z</time>
      </trkpt>
      <trkpt lat="44.07684" lon="6.99865">
        <ele>1507.48</ele>
        <time>2015-06-14T10:12:25Z</time>
      </trkpt>
      <trkpt lat="44.0768" lon="6.99857">
        <ele>1505.56</ele>
        <time>2015-06-14T10:12:26Z</time>
      </trkpt>
      <trkpt lat="44.07677" lon="6.99851">
        <ele>1503.64</ele>
        <time>2015-06-14T10:12:27Z</time>
      </trkpt>
      <trkpt lat="44.07675" lon="6.99846">
        <ele>1502.2</ele>
        <time>2015-06-14T10:12:28Z</time>
      </trkpt>
      <trkpt lat="44.07676" lon="6.99843">
        <ele>1500.76</ele>
        <time>2015-06-14T10:12:29Z</time>
      </trkpt>
      <trkpt lat="44.07679" lon="6.99843">
        <ele>1500.27</ele>
        <time>2015-06-14T10:12:30Z</time>
      </trkpt>
      <trkpt lat="44.07684" lon="6.99843">
        <ele>1499.79</ele>
        <time>2015-06-14T10:12:31Z</time>
      </trkpt>
      <trkpt lat="44.07689" lon="6.99844">
        <ele>1500.27</ele>
        <time>2015-06-14T10:12:32Z</time>
      </trkpt>
      <trkpt lat="44.07696" lon="6.99845">
        <ele>1499.31</ele>
        <time>2015-06-14T10:12:33Z</time>
      </trkpt>
      <trkpt lat="44.07701" lon="6.99846">
        <ele>1497.39</ele>
        <time>2015-06-14T10:12:34Z</time>
      </trkpt>
      <trkpt lat="44.07707" lon="6.99848">
        <ele>1496.91</ele>
        <time>2015-06-14T10:12:35Z</time>
      </trkpt>
      <trkpt lat="44.07712" lon="6.99852">
        <ele>1496.43</ele>
        <time>2015-06-14T10:12:36Z</time>
      </trkpt>
      <trkpt lat="44.07717" lon="6.99856">
        <ele>1496.43</ele>
        <time>2015-06-14T10:12:37Z</time>
      </trkpt>
      <trkpt lat="44.07721" lon="6.9986">
        <ele>1495.47</ele>
        <time>2015-06-14T10:12:38Z</time>
      </trkpt>
      <trkpt lat="44.07725" lon="6.99866">
        <ele>1495.47</ele>
        <time>2015-06-14T10:12:39Z</time>
      </trkpt>
      <trkpt lat="44.0773" lon="6.99874">
        <ele>1495.47</ele>
        <time>2015-06-14T10:12:41Z</time>
      </trkpt>
      <trkpt lat="44.07735" lon="6.99877">
        <ele>1495.47</ele>
        <time>2015-06-14T10:12:42Z</time>
      </trkpt>
      <trkpt lat="44.0774" lon="6.99879">
        <ele>1495.47</ele>
        <time>2015-06-14T10:12:43Z</time>
      </trkpt>
      <trkpt lat="44.07754" lon="6.99884">
        <ele>1494.03</ele>
        <time>2015-06-14T10:12:45Z</time>
      </trkpt>
      <trkpt lat="44.07761" lon="6.99884">
        <ele>1493.06</ele>
        <time>2015-06-14T10:12:46Z</time>
      </trkpt>
      <trkpt lat="44.07777" lon="6.99885">
        <ele>1489.22</ele>
        <time>2015-06-14T10:12:49Z</time>
      </trkpt>
      <trkpt lat="44.07781" lon="6.99885">
        <ele>1489.22</ele>
        <time>2015-06-14T10:12:50Z</time>
      </trkpt>
      <trkpt lat="44.07786" lon="6.99884">
        <ele>1489.22</ele>
        <time>2015-06-14T10:12:51Z</time>
      </trkpt>
      <trkpt lat="44.0779" lon="6.99883">
        <ele>1489.22</ele>
        <time>2015-06-14T10:12:52Z</time>
      </trkpt>
      <trkpt lat="44.07796" lon="6.99881">
        <ele>1489.22</ele>
        <time>2015-06-14T10:12:53Z</time>
      </trkpt>
      <trkpt lat="44.07802" lon="6.9988">
        <ele>1489.22</ele>
        <time>2015-06-14T10:12:54Z</time>
      </trkpt>
      <trkpt lat="44.07808" lon="6.99879">
        <ele>1488.74</ele>
        <time>2015-06-14T10:12:55Z</time>
      </trkpt>
      <trkpt lat="44.07815" lon="6.99878">
        <ele>1488.26</ele>
        <time>2015-06-14T10:12:56Z</time>
      </trkpt>
      <trkpt lat="44.07874" lon="6.99863">
        <ele>1484.41</ele>
        <time>2015-06-14T10:13:04Z</time>
      </trkpt>
      <trkpt lat="44.07881" lon="6.99864">
        <ele>1484.41</ele>
        <time>2015-06-14T10:13:05Z</time>
      </trkpt>
      <trkpt lat="44.07887" lon="6.99863">
        <ele>1483.45</ele>
        <time>2015-06-14T10:13:06Z</time>
      </trkpt>
      <trkpt lat="44.07894" lon="6.99862">
        <ele>1483.45</ele>
        <time>2015-06-14T10:13:07Z</time>
      </trkpt>
      <trkpt lat="44.07901" lon="6.9986">
        <ele>1482.97</ele>
        <time>2015-06-14T10:13:08Z</time>
      </trkpt>
      <trkpt lat="44.07908" lon="6.99859">
        <ele>1482.01</ele>
        <time>2015-06-14T10:13:09Z</time>
      </trkpt>
      <trkpt lat="44.07915" lon="6.99858">
        <ele>1482.01</ele>
        <time>2015-06-14T10:13:10Z</time>
      </trkpt>
      <trkpt lat="44.07923" lon="6.99859">
        <ele>1481.05</ele>
        <time>2015-06-14T10:13:11Z</time>
      </trkpt>
      <trkpt lat="44.0793" lon="6.99859">
        <ele>1480.57</ele>
        <time>2015-06-14T10:13:12Z</time>
      </trkpt>
      <trkpt lat="44.07945" lon="6.99859">
        <ele>1478.16</ele>
        <time>2015-06-14T10:13:14Z</time>
      </trkpt>
      <trkpt lat="44.07952" lon="6.99859">
        <ele>1476.72</ele>
        <time>2015-06-14T10:13:15Z</time>
      </trkpt>
      <trkpt lat="44.07958" lon="6.99859">
        <ele>1476.72</ele>
        <time>2015-06-14T10:13:16Z</time>
      </trkpt>
      <trkpt lat="44.07992" lon="6.99853">
        <ele>1474.8</ele>
        <time>2015-06-14T10:13:21Z</time>
      </trkpt>
      <trkpt lat="44.08014" lon="6.99847">
        <ele>1472.4</ele>
        <time>2015-06-14T10:13:25Z</time>
      </trkpt>
      <trkpt lat="44.08019" lon="6.99844">
        <ele>1471.44</ele>
        <time>2015-06-14T10:13:26Z</time>
      </trkpt>
      <trkpt lat="44.08024" lon="6.99842">
        <ele>1470.95</ele>
        <time>2015-06-14T10:13:27Z</time>
      </trkpt>
      <trkpt lat="44.0803" lon="6.99841">
        <ele>1469.99</ele>
        <time>2015-06-14T10:13:28Z</time>
      </trkpt>
      <trkpt lat="44.08038" lon="6.99841">
        <ele>1468.55</ele>
        <time>2015-06-14T10:13:29Z</time>
      </trkpt>
      <trkpt lat="44.08045" lon="6.99841">
        <ele>1469.03</ele>
        <time>2015-06-14T10:13:30Z</time>
      </trkpt>
      <trkpt lat="44.08052" lon="6.99841">
        <ele>1467.59</ele>
        <time>2015-06-14T10:13:31Z</time>
      </trkpt>
      <trkpt lat="44.08065" lon="6.99842">
        <ele>1464.71</ele>
        <time>2015-06-14T10:13:33Z</time>
      </trkpt>
      <trkpt lat="44.08072" lon="6.99844">
        <ele>1463.74</ele>
        <time>2015-06-14T10:13:34Z</time>
      </trkpt>
      <trkpt lat="44.08078" lon="6.99848">
        <ele>1462.3</ele>
        <time>2015-06-14T10:13:35Z</time>
      </trkpt>
      <trkpt lat="44.08082" lon="6.9985">
        <ele>1461.34</ele>
        <time>2015-06-14T10:13:36Z</time>
      </trkpt>
      <trkpt lat="44.08084" lon="6.99849">
        <ele>1460.86</ele>
        <time>2015-06-14T10:13:37Z</time>
      </trkpt>
      <trkpt lat="44.08084" lon="6.99845">
        <ele>1460.86</ele>
        <time>2015-06-14T10:13:38Z</time>
      </trkpt>
      <trkpt lat="44.08085" lon="6.99839">
        <ele>1460.38</ele>
        <time>2015-06-14T10:13:39Z</time>
      </trkpt>
      <trkpt lat="44.08085" lon="6.99832">
        <ele>1461.82</ele>
        <time>2015-06-14T10:13:40Z</time>
      </trkpt>
      <trkpt lat="44.08085" lon="6.99825">
        <ele>1461.82</ele>
        <time>2015-06-14T10:13:41Z</time>
      </trkpt>
      <trkpt lat="44.08086" lon="6.99818">
        <ele>1462.78</ele>
        <time>2015-06-14T10:13:42Z</time>
      </trkpt>
      <trkpt lat="44.08087" lon="6.99811">
        <ele>1462.78</ele>
        <time>2015-06-14T10:13:43Z</time>
      </trkpt>
      <trkpt lat="44.08088" lon="6.99805">
        <ele>1462.78</ele>
        <time>2015-06-14T10:13:44Z</time>
      </trkpt>
      <trkpt lat="44.08091" lon="6.99801">
        <ele>1462.78</ele>
        <time>2015-06-14T10:13:45Z</time>
      </trkpt>
      <trkpt lat="44.08094" lon="6.99797">
        <ele>1462.78</ele>
        <time>2015-06-14T10:13:46Z</time>
      </trkpt>
      <trkpt lat="44.08097" lon="6.99793">
        <ele>1462.78</ele>
        <time>2015-06-14T10:13:47Z</time>
      </trkpt>
      <trkpt lat="44.08101" lon="6.9979">
        <ele>1462.78</ele>
        <time>2015-06-14T10:13:48Z</time>
      </trkpt>
      <trkpt lat="44.08129" lon="6.99761">
        <ele>1460.38</ele>
        <time>2015-06-14T10:13:54Z</time>
      </trkpt>
      <trkpt lat="44.08142" lon="6.99752">
        <ele>1458.46</ele>
        <time>2015-06-14T10:13:56Z</time>
      </trkpt>
      <trkpt lat="44.08149" lon="6.99748">
        <ele>1457.02</ele>
        <time>2015-06-14T10:13:57Z</time>
      </trkpt>
      <trkpt lat="44.08156" lon="6.99746">
        <ele>1456.05</ele>
        <time>2015-06-14T10:13:58Z</time>
      </trkpt>
      <trkpt lat="44.08181" lon="6.99742">
        <ele>1452.69</ele>
        <time>2015-06-14T10:14:01Z</time>
      </trkpt>
      <trkpt lat="44.08213" lon="6.99741">
        <ele>1448.84</ele>
        <time>2015-06-14T10:14:05Z</time>
      </trkpt>
      <trkpt lat="44.0823" lon="6.99742">
        <ele>1445.96</ele>
        <time>2015-06-14T10:14:07Z</time>
      </trkpt>
      <trkpt lat="44.08256" lon="6.99744">
        <ele>1443.08</ele>
        <time>2015-06-14T10:14:10Z</time>
      </trkpt>
      <trkpt lat="44.08264" lon="6.99743">
        <ele>1441.63</ele>
        <time>2015-06-14T10:14:11Z</time>
      </trkpt>
      <trkpt lat="44.08273" lon="6.99741">
        <ele>1438.75</ele>
        <time>2015-06-14T10:14:12Z</time>
      </trkpt>
      <trkpt lat="44.08291" lon="6.99736">
        <ele>1435.87</ele>
        <time>2015-06-14T10:14:14Z</time>
      </trkpt>
      <trkpt lat="44.08307" lon="6.99731">
        <ele>1432.02</ele>
        <time>2015-06-14T10:14:16Z</time>
      </trkpt>
      <trkpt lat="44.08314" lon="6.99729">
        <ele>1431.06</ele>
        <time>2015-06-14T10:14:17Z</time>
      </trkpt>
      <trkpt lat="44.08338" lon="6.99715">
        <ele>1428.18</ele>
        <time>2015-06-14T10:14:21Z</time>
      </trkpt>
      <trkpt lat="44.08344" lon="6.99715">
        <ele>1427.21</ele>
        <time>2015-06-14T10:14:22Z</time>
      </trkpt>
      <trkpt lat="44.08351" lon="6.99717">
        <ele>1425.77</ele>
        <time>2015-06-14T10:14:23Z</time>
      </trkpt>
      <trkpt lat="44.08356" lon="6.99721">
        <ele>1424.33</ele>
        <time>2015-06-14T10:14:24Z</time>
      </trkpt>
      <trkpt lat="44.08361" lon="6.99726">
        <ele>1422.41</ele>
        <time>2015-06-14T10:14:25Z</time>
      </trkpt>
      <trkpt lat="44.08365" lon="6.9973">
        <ele>1421.45</ele>
        <time>2015-06-14T10:14:26Z</time>
      </trkpt>
      <trkpt lat="44.0837" lon="6.99736">
        <ele>1420.97</ele>
        <time>2015-06-14T10:14:27Z</time>
      </trkpt>
      <trkpt lat="44.08375" lon="6.99743">
        <ele>1419.52</ele>
        <time>2015-06-14T10:14:28Z</time>
      </trkpt>
      <trkpt lat="44.08381" lon="6.9975">
        <ele>1418.08</ele>
        <time>2015-06-14T10:14:29Z</time>
      </trkpt>
      <trkpt lat="44.08388" lon="6.99759">
        <ele>1417.12</ele>
        <time>2015-06-14T10:14:30Z</time>
      </trkpt>
      <trkpt lat="44.08401" lon="6.99775">
        <ele>1412.79</ele>
        <time>2015-06-14T10:14:32Z</time>
      </trkpt>
      <trkpt lat="44.08413" lon="6.99791">
        <ele>1408.95</ele>
        <time>2015-06-14T10:14:34Z</time>
      </trkpt>
      <trkpt lat="44.0842" lon="6.99798">
        <ele>1407.03</ele>
        <time>2015-06-14T10:14:35Z</time>
      </trkpt>
      <trkpt lat="44.08426" lon="6.99804">
        <ele>1406.55</ele>
        <time>2015-06-14T10:14:36Z</time>
      </trkpt>
      <trkpt lat="44.08434" lon="6.99811">
        <ele>1405.1</ele>
        <time>2015-06-14T10:14:37Z</time>
      </trkpt>
      <trkpt lat="44.08442" lon="6.99817">
        <ele>1404.14</ele>
        <time>2015-06-14T10:14:38Z</time>
      </trkpt>
      <trkpt lat="44.0845" lon="6.99823">
        <ele>1403.18</ele>
        <time>2015-06-14T10:14:39Z</time>
      </trkpt>
      <trkpt lat="44.08458" lon="6.99828">
        <ele>1401.74</ele>
        <time>2015-06-14T10:14:40Z</time>
      </trkpt>
      <trkpt lat="44.08466" lon="6.99835">
        <ele>1400.3</ele>
        <time>2015-06-14T10:14:41Z</time>
      </trkpt>
      <trkpt lat="44.08473" lon="6.99842">
        <ele>1398.37</ele>
        <time>2015-06-14T10:14:42Z</time>
      </trkpt>
      <trkpt lat="44.08479" lon="6.9985">
        <ele>1397.41</ele>
        <time>2015-06-14T10:14:43Z</time>
      </trkpt>
      <trkpt lat="44.08483" lon="6.99856">
        <ele>1395.97</ele>
        <time>2015-06-14T10:14:44Z</time>
      </trkpt>
      <trkpt lat="44.08486" lon="6.99858">
        <ele>1394.53</ele>
        <time>2015-06-14T10:14:45Z</time>
      </trkpt>
      <trkpt lat="44.08489" lon="6.99856">
        <ele>1394.53</ele>
        <time>2015-06-14T10:14:46Z</time>
      </trkpt>
      <trkpt lat="44.08492" lon="6.99851">
        <ele>1394.53</ele>
        <time>2015-06-14T10:14:47Z</time>
      </trkpt>
      <trkpt lat="44.08495" lon="6.99845">
        <ele>1394.53</ele>
        <time>2015-06-14T10:14:48Z</time>
      </trkpt>
      <trkpt lat="44.08499" lon="6.99841">
        <ele>1394.53</ele>
        <time>2015-06-14T10:14:49Z</time>
      </trkpt>
      <trkpt lat="44.08503" lon="6.99839">
        <ele>1394.53</ele>
        <time>2015-06-14T10:14:50Z</time>
      </trkpt>
      <trkpt lat="44.08508" lon="6.99836">
        <ele>1394.53</ele>
        <time>2015-06-14T10:14:51Z</time>
      </trkpt>
      <trkpt lat="44.08514" lon="6.99835">
        <ele>1394.53</ele>
        <time>2015-06-14T10:14:52Z</time>
      </trkpt>
      <trkpt lat="44.08519" lon="6.99834">
        <ele>1394.05</ele>
        <time>2015-06-14T10:14:53Z</time>
      </trkpt>
      <trkpt lat="44.08525" lon="6.99835">
        <ele>1393.57</ele>
        <time>2015-06-14T10:14:54Z</time>
      </trkpt>
      <trkpt lat="44.08531" lon="6.99835">
        <ele>1394.53</ele>
        <time>2015-06-14T10:14:55Z</time>
      </trkpt>
      <trkpt lat="44.08537" lon="6.99834">
        <ele>1394.05</ele>
        <time>2015-06-14T10:14:56Z</time>
      </trkpt>
      <trkpt lat="44.0854" lon="6.99832">
        <ele>1393.09</ele>
        <time>2015-06-14T10:14:57Z</time>
      </trkpt>
      <trkpt lat="44.08541" lon="6.99827">
        <ele>1392.61</ele>
        <time>2015-06-14T10:14:58Z</time>
      </trkpt>
      <trkpt lat="44.08539" lon="6.9982">
        <ele>1392.61</ele>
        <time>2015-06-14T10:14:59Z</time>
      </trkpt>
      <trkpt lat="44.08536" lon="6.99814">
        <ele>1392.13</ele>
        <time>2015-06-14T10:15:00Z</time>
      </trkpt>
      <trkpt lat="44.08531" lon="6.99809">
        <ele>1391.17</ele>
        <time>2015-06-14T10:15:01Z</time>
      </trkpt>
      <trkpt lat="44.08525" lon="6.99806">
        <ele>1389.24</ele>
        <time>2015-06-14T10:15:02Z</time>
      </trkpt>
      <trkpt lat="44.08521" lon="6.99801">
        <ele>1388.28</ele>
        <time>2015-06-14T10:15:03Z</time>
      </trkpt>
      <trkpt lat="44.08517" lon="6.99793">
        <ele>1387.8</ele>
        <time>2015-06-14T10:15:04Z</time>
      </trkpt>
      <trkpt lat="44.08512" lon="6.99785">
        <ele>1386.84</ele>
        <time>2015-06-14T10:15:05Z</time>
      </trkpt>
      <trkpt lat="44.08506" lon="6.99777">
        <ele>1385.88</ele>
        <time>2015-06-14T10:15:06Z</time>
      </trkpt>
      <trkpt lat="44.085" lon="6.9977">
        <ele>1384.92</ele>
        <time>2015-06-14T10:15:07Z</time>
      </trkpt>
      <trkpt lat="44.08492" lon="6.99762">
        <ele>1382.99</ele>
        <time>2015-06-14T10:15:08Z</time>
      </trkpt>
      <trkpt lat="44.08485" lon="6.99755">
        <ele>1381.55</ele>
        <time>2015-06-14T10:15:09Z</time>
      </trkpt>
      <trkpt lat="44.08477" lon="6.99748">
        <ele>1378.67</ele>
        <time>2015-06-14T10:15:10Z</time>
      </trkpt>
      <trkpt lat="44.08471" lon="6.99739">
        <ele>1377.23</ele>
        <time>2015-06-14T10:15:11Z</time>
      </trkpt>
      <trkpt lat="44.08466" lon="6.99727">
        <ele>1375.78</ele>
        <time>2015-06-14T10:15:12Z</time>
      </trkpt>
      <trkpt lat="44.08461" lon="6.99714">
        <ele>1373.86</ele>
        <time>2015-06-14T10:15:13Z</time>
      </trkpt>
      <trkpt lat="44.08458" lon="6.99701">
        <ele>1372.9</ele>
        <time>2015-06-14T10:15:14Z</time>
      </trkpt>
      <trkpt lat="44.08456" lon="6.99686">
        <ele>1371.46</ele>
        <time>2015-06-14T10:15:15Z</time>
      </trkpt>
      <trkpt lat="44.08453" lon="6.99672">
        <ele>1369.05</ele>
        <time>2015-06-14T10:15:16Z</time>
      </trkpt>
      <trkpt lat="44.0845" lon="6.99657">
        <ele>1368.09</ele>
        <time>2015-06-14T10:15:17Z</time>
      </trkpt>
      <trkpt lat="44.08448" lon="6.99641">
        <ele>1366.65</ele>
        <time>2015-06-14T10:15:18Z</time>
      </trkpt>
      <trkpt lat="44.08444" lon="6.99627">
        <ele>1363.77</ele>
        <time>2015-06-14T10:15:19Z</time>
      </trkpt>
      <trkpt lat="44.0844" lon="6.99614">
        <ele>1358.48</ele>
        <time>2015-06-14T10:15:20Z</time>
      </trkpt>
      <trkpt lat="44.08435" lon="6.99604">
        <ele>1357.04</ele>
        <time>2015-06-14T10:15:21Z</time>
      </trkpt>
      <trkpt lat="44.08429" lon="6.99596">
        <ele>1355.6</ele>
        <time>2015-06-14T10:15:22Z</time>
      </trkpt>
      <trkpt lat="44.08423" lon="6.9959">
        <ele>1353.19</ele>
        <time>2015-06-14T10:15:23Z</time>
      </trkpt>
      <trkpt lat="44.08415" lon="6.99585">
        <ele>1350.79</ele>
        <time>2015-06-14T10:15:24Z</time>
      </trkpt>
      <trkpt lat="44.08409" lon="6.9958">
        <ele>1348.39</ele>
        <time>2015-06-14T10:15:25Z</time>
      </trkpt>
      <trkpt lat="44.08404" lon="6.99575">
        <ele>1347.43</ele>
        <time>2015-06-14T10:15:26Z</time>
      </trkpt>
      <trkpt lat="44.08399" lon="6.99572">
        <ele>1345.98</ele>
        <time>2015-06-14T10:15:27Z</time>
      </trkpt>
      <trkpt lat="44.08394" lon="6.99571">
        <ele>1345.02</ele>
        <time>2015-06-14T10:15:28Z</time>
      </trkpt>
      <trkpt lat="44.08391" lon="6.99571">
        <ele>1345.98</ele>
        <time>2015-06-14T10:15:29Z</time>
      </trkpt>
      <trkpt lat="44.08378" lon="6.99564">
        <ele>1344.06</ele>
        <time>2015-06-14T10:15:31Z</time>
      </trkpt>
      <trkpt lat="44.08365" lon="6.99559">
        <ele>1341.66</ele>
        <time>2015-06-14T10:15:33Z</time>
      </trkpt>
      <trkpt lat="44.08345" lon="6.99555">
        <ele>1336.37</ele>
        <time>2015-06-14T10:15:36Z</time>
      </trkpt>
      <trkpt lat="44.08333" lon="6.99547">
        <ele>1333.49</ele>
        <time>2015-06-14T10:15:39Z</time>
      </trkpt>
      <trkpt lat="44.08313" lon="6.99551">
        <ele>1333.97</ele>
        <time>2015-06-14T10:15:44Z</time>
      </trkpt>
      <trkpt lat="44.08265" lon="6.99551">
        <ele>1332.52</ele>
        <time>2015-06-14T10:15:54Z</time>
      </trkpt>
      <trkpt lat="44.0826" lon="6.99548">
        <ele>1332.52</ele>
        <time>2015-06-14T10:15:55Z</time>
      </trkpt>
      <trkpt lat="44.08253" lon="6.99545">
        <ele>1332.04</ele>
        <time>2015-06-14T10:15:57Z</time>
      </trkpt>
      <trkpt lat="44.08245" lon="6.99546">
        <ele>1332.04</ele>
        <time>2015-06-14T10:15:58Z</time>
      </trkpt>
      <trkpt lat="44.08224" lon="6.99514">
        <ele>1330.12</ele>
        <time>2015-06-14T10:16:06Z</time>
      </trkpt>
      <trkpt lat="44.082" lon="6.99515">
        <ele>1328.68</ele>
        <time>2015-06-14T10:16:14Z</time>
      </trkpt>
      <trkpt lat="44.0819" lon="6.99517">
        <ele>1328.68</ele>
        <time>2015-06-14T10:16:18Z</time>
      </trkpt>
      <trkpt lat="44.08183" lon="6.99515">
        <ele>1328.68</ele>
        <time>2015-06-14T10:16:20Z</time>
      </trkpt>
      <trkpt lat="44.08138" lon="6.99512">
        <ele>1327.72</ele>
        <time>2015-06-14T10:16:29Z</time>
      </trkpt>
      <trkpt lat="44.08128" lon="6.99512">
        <ele>1327.72</ele>
        <time>2015-06-14T10:16:31Z</time>
      </trkpt>
      <trkpt lat="44.08119" lon="6.99511">
        <ele>1327.72</ele>
        <time>2015-06-14T10:16:33Z</time>
      </trkpt>
      <trkpt lat="44.08099" lon="6.99511">
        <ele>1327.72</ele>
        <time>2015-06-14T10:16:37Z</time>
      </trkpt>
      <trkpt lat="44.08083" lon="6.99507">
        <ele>1327.24</ele>
        <time>2015-06-14T10:16:40Z</time>
      </trkpt>
      <trkpt lat="44.08072" lon="6.99501">
        <ele>1326.76</ele>
        <time>2015-06-14T10:16:42Z</time>
      </trkpt>
      <trkpt lat="44.08047" lon="6.99494">
        <ele>1326.28</ele>
        <time>2015-06-14T10:16:46Z</time>
      </trkpt>
      <trkpt lat="44.08012" lon="6.99488">
        <ele>1325.31</ele>
        <time>2015-06-14T10:16:51Z</time>
      </trkpt>
      <trkpt lat="44.07958" lon="6.99458">
        <ele>1321.95</ele>
        <time>2015-06-14T10:16:59Z</time>
      </trkpt>
      <trkpt lat="44.07904" lon="6.99454">
        <ele>1320.03</ele>
        <time>2015-06-14T10:17:06Z</time>
      </trkpt>
      <trkpt lat="44.07857" lon="6.99419">
        <ele>1317.62</ele>
        <time>2015-06-14T10:17:13Z</time>
      </trkpt>
      <trkpt lat="44.07829" lon="6.99407">
        <ele>1316.66</ele>
        <time>2015-06-14T10:17:17Z</time>
      </trkpt>
      <trkpt lat="44.07799" lon="6.99381">
        <ele>1314.74</ele>
        <time>2015-06-14T10:17:22Z</time>
      </trkpt>
      <trkpt lat="44.07764" lon="6.99356">
        <ele>1313.78</ele>
        <time>2015-06-14T10:17:28Z</time>
      </trkpt>
      <trkpt lat="44.0775" lon="6.99347">
        <ele>1312.82</ele>
        <time>2015-06-14T10:17:30Z</time>
      </trkpt>
      <trkpt lat="44.07733" lon="6.99328">
        <ele>1311.86</ele>
        <time>2015-06-14T10:17:33Z</time>
      </trkpt>
      <trkpt lat="44.07712" lon="6.99303">
        <ele>1311.38</ele>
        <time>2015-06-14T10:17:37Z</time>
      </trkpt>
      <trkpt lat="44.07704" lon="6.99289">
        <ele>1310.41</ele>
        <time>2015-06-14T10:17:39Z</time>
      </trkpt>
      <trkpt lat="44.07685" lon="6.99271">
        <ele>1311.38</ele>
        <time>2015-06-14T10:17:43Z</time>
      </trkpt>
      <trkpt lat="44.07683" lon="6.99269">
        <ele>1311.38</ele>
        <time>2015-06-14T10:17:50Z</time>
      </trkpt>
      <trkpt lat="44.07683" lon="6.99261">
        <ele>1311.86</ele>
        <time>2015-06-14T10:18:02Z</time>
      </trkpt>
      <trkpt lat="44.07687" lon="6.99257">
        <ele>1311.86</ele>
        <time>2015-06-14T10:18:21Z</time>
      </trkpt>
      <trkpt lat="44.07689" lon="6.99259">
        <ele>1311.86</ele>
        <time>2015-06-14T10:18:37Z</time>
      </trkpt>
      <trkpt lat="44.07682" lon="6.99263">
        <ele>1311.86</ele>
        <time>2015-06-14T10:18:49Z</time>
      </trkpt>
      <trkpt lat="44.07683" lon="6.99263">
        <ele>1311.86</ele>
        <time>2015-06-14T10:19:04Z</time>
      </trkpt>
      <trkpt lat="44.07687" lon="6.9926">
        <ele>1311.86</ele>
        <time>2015-06-14T10:19:18Z</time>
      </trkpt>
      <trkpt lat="44.07684" lon="6.99265">
        <ele>1311.86</ele>
        <time>2015-06-14T10:19:41Z</time>
      </trkpt>
      <trkpt lat="44.07685" lon="6.9926">
        <ele>1311.86</ele>
        <time>2015-06-14T10:20:00Z</time>
      </trkpt>
      <trkpt lat="44.07687" lon="6.99258">
        <ele>1311.86</ele>
        <time>2015-06-14T10:20:10Z</time>
      </trkpt>
      <trkpt lat="44.07685" lon="6.99261">
        <ele>1311.86</ele>
        <time>2015-06-14T10:20:22Z</time>
      </trkpt>
      <trkpt lat="44.07685" lon="6.99259">
        <ele>1311.86</ele>
        <time>2015-06-14T10:20:41Z</time>
      </trkpt>
      <trkpt lat="44.0769" lon="6.99254">
        <ele>1311.86</ele>
        <time>2015-06-14T10:21:00Z</time>
      </trkpt>
      <trkpt lat="44.07688" lon="6.99259">
        <ele>1311.86</ele>
        <time>2015-06-14T10:21:18Z</time>
      </trkpt>
      <trkpt lat="44.07686" lon="6.99259">
        <ele>1311.86</ele>
        <time>2015-06-14T10:21:34Z</time>
      </trkpt>
      <trkpt lat="44.07681" lon="6.9926">
        <ele>1311.86</ele>
        <time>2015-06-14T10:21:42Z</time>
      </trkpt>
      <trkpt lat="44.07679" lon="6.99269">
        <ele>1312.82</ele>
        <time>2015-06-14T10:21:50Z</time>
      </trkpt>
      <trkpt lat="44.07674" lon="6.99279">
        <ele>1314.26</ele>
        <time>2015-06-14T10:21:58Z</time>
      </trkpt>
      <trkpt lat="44.07668" lon="6.99289">
        <ele>1315.7</ele>
        <time>2015-06-14T10:22:09Z</time>
      </trkpt>
      <trkpt lat="44.07662" lon="6.99297">
        <ele>1317.14</ele>
        <time>2015-06-14T10:22:20Z</time>
      </trkpt>
      <trkpt lat="44.07653" lon="6.99307">
        <ele>1318.59</ele>
        <time>2015-06-14T10:22:30Z</time>
      </trkpt>
      <trkpt lat="44.07641" lon="6.9932">
        <ele>1319.55</ele>
        <time>2015-06-14T10:22:41Z</time>
      </trkpt>
      <trkpt lat="44.07634" lon="6.99325">
        <ele>1320.51</ele>
        <time>2015-06-14T10:22:47Z</time>
      </trkpt>
      <trkpt lat="44.07622" lon="6.99336">
        <ele>1322.43</ele>
        <time>2015-06-14T10:23:00Z</time>
      </trkpt>
      <trkpt lat="44.0761" lon="6.99346">
        <ele>1323.39</ele>
        <time>2015-06-14T10:23:10Z</time>
      </trkpt>
      <trkpt lat="44.07605" lon="6.99351">
        <ele>1323.87</ele>
        <time>2015-06-14T10:23:13Z</time>
      </trkpt>
      <trkpt lat="44.07597" lon="6.99362">
        <ele>1325.31</ele>
        <time>2015-06-14T10:23:24Z</time>
      </trkpt>
      <trkpt lat="44.07595" lon="6.99364">
        <ele>1325.31</ele>
        <time>2015-06-14T10:23:26Z</time>
      </trkpt>
      <trkpt lat="44.07593" lon="6.99367">
        <ele>1325.8</ele>
        <time>2015-06-14T10:23:29Z</time>
      </trkpt>
      <trkpt lat="44.07586" lon="6.99377">
        <ele>1326.28</ele>
        <time>2015-06-14T10:23:40Z</time>
      </trkpt>
      <trkpt lat="44.07585" lon="6.99378">
        <ele>1327.24</ele>
        <time>2015-06-14T10:23:41Z</time>
      </trkpt>
      <trkpt lat="44.07582" lon="6.99385">
        <ele>1326.76</ele>
        <time>2015-06-14T10:23:47Z</time>
      </trkpt>
      <trkpt lat="44.07577" lon="6.99396">
        <ele>1327.72</ele>
        <time>2015-06-14T10:23:53Z</time>
      </trkpt>
      <trkpt lat="44.07574" lon="6.99409">
        <ele>1327.72</ele>
        <time>2015-06-14T10:23:58Z</time>
      </trkpt>
      <trkpt lat="44.07574" lon="6.99412">
        <ele>1327.72</ele>
        <time>2015-06-14T10:23:59Z</time>
      </trkpt>
      <trkpt lat="44.07578" lon="6.99426">
        <ele>1327.72</ele>
        <time>2015-06-14T10:24:05Z</time>
      </trkpt>
      <trkpt lat="44.0758" lon="6.99426">
        <ele>1328.68</ele>
        <time>2015-06-14T10:24:06Z</time>
      </trkpt>
      <trkpt lat="44.07582" lon="6.99428">
        <ele>1328.68</ele>
        <time>2015-06-14T10:24:10Z</time>
      </trkpt>
      <trkpt lat="44.07582" lon="6.99432">
        <ele>1329.64</ele>
        <time>2015-06-14T10:24:14Z</time>
      </trkpt>
      <trkpt lat="44.07583" lon="6.99434">
        <ele>1329.64</ele>
        <time>2015-06-14T10:24:15Z</time>
      </trkpt>
      <trkpt lat="44.07584" lon="6.99436">
        <ele>1329.64</ele>
        <time>2015-06-14T10:24:16Z</time>
      </trkpt>
      <trkpt lat="44.07585" lon="6.99437">
        <ele>1329.64</ele>
        <time>2015-06-14T10:24:17Z</time>
      </trkpt>
      <trkpt lat="44.07587" lon="6.99438">
        <ele>1329.64</ele>
        <time>2015-06-14T10:24:18Z</time>
      </trkpt>
      <trkpt lat="44.07589" lon="6.99439">
        <ele>1329.16</ele>
        <time>2015-06-14T10:24:19Z</time>
      </trkpt>
      <trkpt lat="44.07591" lon="6.99439">
        <ele>1329.16</ele>
        <time>2015-06-14T10:24:20Z</time>
      </trkpt>
      <trkpt lat="44.07593" lon="6.99438">
        <ele>1329.64</ele>
        <time>2015-06-14T10:24:21Z</time>
      </trkpt>
      <trkpt lat="44.07595" lon="6.99437">
        <ele>1329.64</ele>
        <time>2015-06-14T10:24:22Z</time>
      </trkpt>
      <trkpt lat="44.07621" lon="6.99429">
        <ele>1330.6</ele>
        <time>2015-06-14T10:24:37Z</time>
      </trkpt>
      <trkpt lat="44.07645" lon="6.99421">
        <ele>1333.01</ele>
        <time>2015-06-14T10:24:50Z</time>
      </trkpt>
      <trkpt lat="44.0767" lon="6.99409">
        <ele>1335.89</ele>
        <time>2015-06-14T10:25:04Z</time>
      </trkpt>
      <trkpt lat="44.0769" lon="6.99398">
        <ele>1337.81</ele>
        <time>2015-06-14T10:25:17Z</time>
      </trkpt>
      <trkpt lat="44.0771" lon="6.99388">
        <ele>1340.22</ele>
        <time>2015-06-14T10:25:30Z</time>
      </trkpt>
      <trkpt lat="44.07727" lon="6.99392">
        <ele>1341.66</ele>
        <time>2015-06-14T10:25:43Z</time>
      </trkpt>
      <trkpt lat="44.07734" lon="6.99398">
        <ele>1342.62</ele>
        <time>2015-06-14T10:25:48Z</time>
      </trkpt>
      <trkpt lat="44.07735" lon="6.994">
        <ele>1342.62</ele>
        <time>2015-06-14T10:25:49Z</time>
      </trkpt>
      <trkpt lat="44.0774" lon="6.9941">
        <ele>1343.58</ele>
        <time>2015-06-14T10:25:55Z</time>
      </trkpt>
      <trkpt lat="44.07741" lon="6.9941">
        <ele>1343.58</ele>
        <time>2015-06-14T10:25:56Z</time>
      </trkpt>
      <trkpt lat="44.07743" lon="6.99411">
        <ele>1343.58</ele>
        <time>2015-06-14T10:25:57Z</time>
      </trkpt>
      <trkpt lat="44.07744" lon="6.99412">
        <ele>1344.06</ele>
        <time>2015-06-14T10:25:58Z</time>
      </trkpt>
      <trkpt lat="44.07745" lon="6.99414">
        <ele>1344.06</ele>
        <time>2015-06-14T10:25:59Z</time>
      </trkpt>
      <trkpt lat="44.07746" lon="6.99415">
        <ele>1344.06</ele>
        <time>2015-06-14T10:26:00Z</time>
      </trkpt>
      <trkpt lat="44.07748" lon="6.99417">
        <ele>1344.06</ele>
        <time>2015-06-14T10:26:01Z</time>
      </trkpt>
      <trkpt lat="44.07749" lon="6.99419">
        <ele>1344.54</ele>
        <time>2015-06-14T10:26:02Z</time>
      </trkpt>
      <trkpt lat="44.0775" lon="6.9942">
        <ele>1344.06</ele>
        <time>2015-06-14T10:26:03Z</time>
      </trkpt>
      <trkpt lat="44.07751" lon="6.99422">
        <ele>1344.06</ele>
        <time>2015-06-14T10:26:04Z</time>
      </trkpt>
      <trkpt lat="44.07751" lon="6.99424">
        <ele>1344.06</ele>
        <time>2015-06-14T10:26:05Z</time>
      </trkpt>
      <trkpt lat="44.07749" lon="6.99463">
        <ele>1346.94</ele>
        <time>2015-06-14T10:26:19Z</time>
      </trkpt>
      <trkpt lat="44.07718" lon="6.99507">
        <ele>1349.35</ele>
        <time>2015-06-14T10:26:32Z</time>
      </trkpt>
      <trkpt lat="44.07789" lon="6.99454">
        <ele>1349.35</ele>
        <time>2015-06-14T10:26:36Z</time>
      </trkpt>
      <trkpt lat="44.07792" lon="6.99457">
        <ele>1349.83</ele>
        <time>2015-06-14T10:26:38Z</time>
      </trkpt>
      <trkpt lat="44.07795" lon="6.9946">
        <ele>1350.31</ele>
        <time>2015-06-14T10:26:41Z</time>
      </trkpt>
      <trkpt lat="44.07785" lon="6.99462">
        <ele>1351.27</ele>
        <time>2015-06-14T10:26:50Z</time>
      </trkpt>
      <trkpt lat="44.0778" lon="6.9946">
        <ele>1351.75</ele>
        <time>2015-06-14T10:26:53Z</time>
      </trkpt>
      <trkpt lat="44.07765" lon="6.99465">
        <ele>1353.19</ele>
        <time>2015-06-14T10:27:03Z</time>
      </trkpt>
      <trkpt lat="44.07753" lon="6.99463">
        <ele>1354.15</ele>
        <time>2015-06-14T10:27:11Z</time>
      </trkpt>
      <trkpt lat="44.07733" lon="6.99452">
        <ele>1357.04</ele>
        <time>2015-06-14T10:27:26Z</time>
      </trkpt>
      <trkpt lat="44.07713" lon="6.99446">
        <ele>1358.48</ele>
        <time>2015-06-14T10:27:41Z</time>
      </trkpt>
      <trkpt lat="44.07712" lon="6.99446">
        <ele>1359.44</ele>
        <time>2015-06-14T10:27:42Z</time>
      </trkpt>
      <trkpt lat="44.07708" lon="6.9945">
        <ele>1360.4</ele>
        <time>2015-06-14T10:27:46Z</time>
      </trkpt>
      <trkpt lat="44.07708" lon="6.99457">
        <ele>1360.88</ele>
        <time>2015-06-14T10:27:50Z</time>
      </trkpt>
      <trkpt lat="44.07723" lon="6.99462">
        <ele>1362.33</ele>
        <time>2015-06-14T10:28:02Z</time>
      </trkpt>
      <trkpt lat="44.07753" lon="6.99475">
        <ele>1361.84</ele>
        <time>2015-06-14T10:28:15Z</time>
      </trkpt>
      <trkpt lat="44.07768" lon="6.99484">
        <ele>1363.77</ele>
        <time>2015-06-14T10:28:25Z</time>
      </trkpt>
      <trkpt lat="44.07769" lon="6.99485">
        <ele>1363.77</ele>
        <time>2015-06-14T10:28:26Z</time>
      </trkpt>
      <trkpt lat="44.07775" lon="6.99486">
        <ele>1365.21</ele>
        <time>2015-06-14T10:28:30Z</time>
      </trkpt>
      <trkpt lat="44.07776" lon="6.99486">
        <ele>1365.21</ele>
        <time>2015-06-14T10:28:31Z</time>
      </trkpt>
      <trkpt lat="44.07777" lon="6.99486">
        <ele>1365.21</ele>
        <time>2015-06-14T10:28:32Z</time>
      </trkpt>
      <trkpt lat="44.0778" lon="6.99488">
        <ele>1366.17</ele>
        <time>2015-06-14T10:28:34Z</time>
      </trkpt>
      <trkpt lat="44.07782" lon="6.99492">
        <ele>1366.17</ele>
        <time>2015-06-14T10:28:37Z</time>
      </trkpt>
      <trkpt lat="44.07782" lon="6.99494">
        <ele>1366.65</ele>
        <time>2015-06-14T10:28:38Z</time>
      </trkpt>
      <trkpt lat="44.07782" lon="6.99496">
        <ele>1366.65</ele>
        <time>2015-06-14T10:28:39Z</time>
      </trkpt>
      <trkpt lat="44.07782" lon="6.99498">
        <ele>1366.65</ele>
        <time>2015-06-14T10:28:40Z</time>
      </trkpt>
      <trkpt lat="44.07782" lon="6.995">
        <ele>1366.65</ele>
        <time>2015-06-14T10:28:41Z</time>
      </trkpt>
      <trkpt lat="44.07781" lon="6.99501">
        <ele>1366.65</ele>
        <time>2015-06-14T10:28:42Z</time>
      </trkpt>
      <trkpt lat="44.07762" lon="6.99506">
        <ele>1369.54</ele>
        <time>2015-06-14T10:28:57Z</time>
      </trkpt>
      <trkpt lat="44.07744" lon="6.99508">
        <ele>1371.94</ele>
        <time>2015-06-14T10:29:12Z</time>
      </trkpt>
      <trkpt lat="44.07727" lon="6.99498">
        <ele>1373.86</ele>
        <time>2015-06-14T10:29:26Z</time>
      </trkpt>
      <trkpt lat="44.07707" lon="6.99493">
        <ele>1377.23</ele>
        <time>2015-06-14T10:29:42Z</time>
      </trkpt>
      <trkpt lat="44.07697" lon="6.99494">
        <ele>1378.19</ele>
        <time>2015-06-14T10:29:50Z</time>
      </trkpt>
      <trkpt lat="44.07695" lon="6.99493">
        <ele>1378.19</ele>
        <time>2015-06-14T10:29:51Z</time>
      </trkpt>
      <trkpt lat="44.07694" lon="6.99493">
        <ele>1378.67</ele>
        <time>2015-06-14T10:29:52Z</time>
      </trkpt>
      <trkpt lat="44.07693" lon="6.99493">
        <ele>1378.67</ele>
        <time>2015-06-14T10:29:53Z</time>
      </trkpt>
      <trkpt lat="44.07691" lon="6.99494">
        <ele>1378.67</ele>
        <time>2015-06-14T10:29:54Z</time>
      </trkpt>
      <trkpt lat="44.0769" lon="6.99494">
        <ele>1378.67</ele>
        <time>2015-06-14T10:29:55Z</time>
      </trkpt>
      <trkpt lat="44.07689" lon="6.99494">
        <ele>1379.15</ele>
        <time>2015-06-14T10:29:56Z</time>
      </trkpt>
      <trkpt lat="44.07671" lon="6.99499">
        <ele>1380.59</ele>
        <time>2015-06-14T10:30:10Z</time>
      </trkpt>
      <trkpt lat="44.07656" lon="6.99514">
        <ele>1382.51</ele>
        <time>2015-06-14T10:30:24Z</time>
      </trkpt>
      <trkpt lat="44.07652" lon="6.99522">
        <ele>1383.47</ele>
        <time>2015-06-14T10:30:31Z</time>
      </trkpt>
      <trkpt lat="44.07652" lon="6.99524">
        <ele>1383.47</ele>
        <time>2015-06-14T10:30:32Z</time>
      </trkpt>
      <trkpt lat="44.07653" lon="6.99525">
        <ele>1383.47</ele>
        <time>2015-06-14T10:30:33Z</time>
      </trkpt>
      <trkpt lat="44.07654" lon="6.99525">
        <ele>1384.44</ele>
        <time>2015-06-14T10:30:34Z</time>
      </trkpt>
      <trkpt lat="44.07655" lon="6.99525">
        <ele>1384.44</ele>
        <time>2015-06-14T10:30:35Z</time>
      </trkpt>
      <trkpt lat="44.07657" lon="6.99525">
        <ele>1384.44</ele>
        <time>2015-06-14T10:30:36Z</time>
      </trkpt>
      <trkpt lat="44.07658" lon="6.99524">
        <ele>1384.44</ele>
        <time>2015-06-14T10:30:37Z</time>
      </trkpt>
      <trkpt lat="44.07658" lon="6.99523">
        <ele>1384.44</ele>
        <time>2015-06-14T10:30:38Z</time>
      </trkpt>
      <trkpt lat="44.07659" lon="6.99521">
        <ele>1384.92</ele>
        <time>2015-06-14T10:30:39Z</time>
      </trkpt>
      <trkpt lat="44.0768" lon="6.99508">
        <ele>1386.36</ele>
        <time>2015-06-14T10:30:54Z</time>
      </trkpt>
      <trkpt lat="44.07688" lon="6.9951">
        <ele>1386.84</ele>
        <time>2015-06-14T10:30:59Z</time>
      </trkpt>
      <trkpt lat="44.0769" lon="6.9951">
        <ele>1386.84</ele>
        <time>2015-06-14T10:31:00Z</time>
      </trkpt>
      <trkpt lat="44.07692" lon="6.9951">
        <ele>1386.84</ele>
        <time>2015-06-14T10:31:01Z</time>
      </trkpt>
      <trkpt lat="44.07712" lon="6.99532">
        <ele>1388.76</ele>
        <time>2015-06-14T10:31:18Z</time>
      </trkpt>
      <trkpt lat="44.0773" lon="6.99555">
        <ele>1392.13</ele>
        <time>2015-06-14T10:31:33Z</time>
      </trkpt>
      <trkpt lat="44.07752" lon="6.99566">
        <ele>1394.05</ele>
        <time>2015-06-14T10:31:48Z</time>
      </trkpt>
      <trkpt lat="44.07764" lon="6.99582">
        <ele>1395.49</ele>
        <time>2015-06-14T10:32:00Z</time>
      </trkpt>
      <trkpt lat="44.07763" lon="6.99583">
        <ele>1395.49</ele>
        <time>2015-06-14T10:32:01Z</time>
      </trkpt>
      <trkpt lat="44.07763" lon="6.99585">
        <ele>1395.49</ele>
        <time>2015-06-14T10:32:02Z</time>
      </trkpt>
      <trkpt lat="44.07762" lon="6.99586">
        <ele>1395.97</ele>
        <time>2015-06-14T10:32:03Z</time>
      </trkpt>
      <trkpt lat="44.0776" lon="6.99587">
        <ele>1395.97</ele>
        <time>2015-06-14T10:32:04Z</time>
      </trkpt>
      <trkpt lat="44.07759" lon="6.99588">
        <ele>1395.97</ele>
        <time>2015-06-14T10:32:05Z</time>
      </trkpt>
      <trkpt lat="44.07758" lon="6.99588">
        <ele>1396.93</ele>
        <time>2015-06-14T10:32:06Z</time>
      </trkpt>
      <trkpt lat="44.07757" lon="6.99588">
        <ele>1396.93</ele>
        <time>2015-06-14T10:32:07Z</time>
      </trkpt>
      <trkpt lat="44.07756" lon="6.99588">
        <ele>1396.93</ele>
        <time>2015-06-14T10:32:08Z</time>
      </trkpt>
      <trkpt lat="44.07754" lon="6.99588">
        <ele>1396.93</ele>
        <time>2015-06-14T10:32:09Z</time>
      </trkpt>
      <trkpt lat="44.07732" lon="6.9958">
        <ele>1399.34</ele>
        <time>2015-06-14T10:32:25Z</time>
      </trkpt>
      <trkpt lat="44.07716" lon="6.99571">
        <ele>1401.26</ele>
        <time>2015-06-14T10:32:38Z</time>
      </trkpt>
      <trkpt lat="44.07705" lon="6.99567">
        <ele>1403.66</ele>
        <time>2015-06-14T10:32:51Z</time>
      </trkpt>
      <trkpt lat="44.07714" lon="6.99582">
        <ele>1404.62</ele>
        <time>2015-06-14T10:33:02Z</time>
      </trkpt>
      <trkpt lat="44.07715" lon="6.99583">
        <ele>1404.62</ele>
        <time>2015-06-14T10:33:03Z</time>
      </trkpt>
      <trkpt lat="44.07737" lon="6.99597">
        <ele>1406.55</ele>
        <time>2015-06-14T10:33:20Z</time>
      </trkpt>
      <trkpt lat="44.07753" lon="6.99608">
        <ele>1407.03</ele>
        <time>2015-06-14T10:33:33Z</time>
      </trkpt>
      <trkpt lat="44.07759" lon="6.99617">
        <ele>1407.51</ele>
        <time>2015-06-14T10:33:39Z</time>
      </trkpt>
      <trkpt lat="44.07761" lon="6.99619">
        <ele>1407.51</ele>
        <time>2015-06-14T10:33:40Z</time>
      </trkpt>
      <trkpt lat="44.07764" lon="6.99623">
        <ele>1407.99</ele>
        <time>2015-06-14T10:33:43Z</time>
      </trkpt>
      <trkpt lat="44.07765" lon="6.99625">
        <ele>1407.99</ele>
        <time>2015-06-14T10:33:44Z</time>
      </trkpt>
      <trkpt lat="44.07766" lon="6.99626">
        <ele>1407.99</ele>
        <time>2015-06-14T10:33:45Z</time>
      </trkpt>
      <trkpt lat="44.07767" lon="6.99628">
        <ele>1407.99</ele>
        <time>2015-06-14T10:33:46Z</time>
      </trkpt>
      <trkpt lat="44.07768" lon="6.9963">
        <ele>1408.47</ele>
        <time>2015-06-14T10:33:47Z</time>
      </trkpt>
      <trkpt lat="44.07789" lon="6.9965">
        <ele>1410.87</ele>
        <time>2015-06-14T10:34:02Z</time>
      </trkpt>
      <trkpt lat="44.07809" lon="6.99647">
        <ele>1412.79</ele>
        <time>2015-06-14T10:34:17Z</time>
      </trkpt>
      <trkpt lat="44.07835" lon="6.9964">
        <ele>1414.24</ele>
        <time>2015-06-14T10:34:33Z</time>
      </trkpt>
      <trkpt lat="44.07858" lon="6.99642">
        <ele>1415.68</ele>
        <time>2015-06-14T10:34:48Z</time>
      </trkpt>
      <trkpt lat="44.07874" lon="6.9966">
        <ele>1418.08</ele>
        <time>2015-06-14T10:35:01Z</time>
      </trkpt>
      <trkpt lat="44.07888" lon="6.99681">
        <ele>1419.52</ele>
        <time>2015-06-14T10:35:14Z</time>
      </trkpt>
      <trkpt lat="44.07889" lon="6.99683">
        <ele>1419.52</ele>
        <time>2015-06-14T10:35:15Z</time>
      </trkpt>
      <trkpt lat="44.07889" lon="6.99684">
        <ele>1419.52</ele>
        <time>2015-06-14T10:35:16Z</time>
      </trkpt>
      <trkpt lat="44.0789" lon="6.99686">
        <ele>1419.52</ele>
        <time>2015-06-14T10:35:17Z</time>
      </trkpt>
      <trkpt lat="44.07891" lon="6.99687">
        <ele>1420</ele>
        <time>2015-06-14T10:35:18Z</time>
      </trkpt>
      <trkpt lat="44.07897" lon="6.99701">
        <ele>1420.97</ele>
        <time>2015-06-14T10:35:26Z</time>
      </trkpt>
      <trkpt lat="44.07898" lon="6.99702">
        <ele>1421.45</ele>
        <time>2015-06-14T10:35:27Z</time>
      </trkpt>
      <trkpt lat="44.07898" lon="6.99704">
        <ele>1421.93</ele>
        <time>2015-06-14T10:35:28Z</time>
      </trkpt>
      <trkpt lat="44.07899" lon="6.99706">
        <ele>1421.93</ele>
        <time>2015-06-14T10:35:29Z</time>
      </trkpt>
      <trkpt lat="44.079" lon="6.99708">
        <ele>1421.93</ele>
        <time>2015-06-14T10:35:30Z</time>
      </trkpt>
      <trkpt lat="44.07901" lon="6.99709">
        <ele>1421.93</ele>
        <time>2015-06-14T10:35:31Z</time>
      </trkpt>
      <trkpt lat="44.07902" lon="6.9971">
        <ele>1422.41</ele>
        <time>2015-06-14T10:35:32Z</time>
      </trkpt>
      <trkpt lat="44.07903" lon="6.99712">
        <ele>1422.41</ele>
        <time>2015-06-14T10:35:33Z</time>
      </trkpt>
      <trkpt lat="44.07904" lon="6.99713">
        <ele>1422.41</ele>
        <time>2015-06-14T10:35:34Z</time>
      </trkpt>
      <trkpt lat="44.07904" lon="6.99715">
        <ele>1422.89</ele>
        <time>2015-06-14T10:35:35Z</time>
      </trkpt>
      <trkpt lat="44.07906" lon="6.99719">
        <ele>1423.37</ele>
        <time>2015-06-14T10:35:38Z</time>
      </trkpt>
      <trkpt lat="44.07913" lon="6.99728">
        <ele>1424.33</ele>
        <time>2015-06-14T10:35:45Z</time>
      </trkpt>
      <trkpt lat="44.07923" lon="6.99734">
        <ele>1426.25</ele>
        <time>2015-06-14T10:35:54Z</time>
      </trkpt>
      <trkpt lat="44.07924" lon="6.99735">
        <ele>1426.25</ele>
        <time>2015-06-14T10:35:55Z</time>
      </trkpt>
      <trkpt lat="44.07925" lon="6.99737">
        <ele>1426.25</ele>
        <time>2015-06-14T10:35:56Z</time>
      </trkpt>
      <trkpt lat="44.07925" lon="6.99739">
        <ele>1426.25</ele>
        <time>2015-06-14T10:35:57Z</time>
      </trkpt>
      <trkpt lat="44.07925" lon="6.9974">
        <ele>1426.25</ele>
        <time>2015-06-14T10:35:58Z</time>
      </trkpt>
      <trkpt lat="44.07923" lon="6.99742">
        <ele>1427.21</ele>
        <time>2015-06-14T10:36:01Z</time>
      </trkpt>
      <trkpt lat="44.07921" lon="6.99742">
        <ele>1427.21</ele>
        <time>2015-06-14T10:36:02Z</time>
      </trkpt>
      <trkpt lat="44.0792" lon="6.99741">
        <ele>1427.7</ele>
        <time>2015-06-14T10:36:03Z</time>
      </trkpt>
      <trkpt lat="44.07903" lon="6.99728">
        <ele>1428.18</ele>
        <time>2015-06-14T10:36:16Z</time>
      </trkpt>
      <trkpt lat="44.07888" lon="6.9971">
        <ele>1430.1</ele>
        <time>2015-06-14T10:36:30Z</time>
      </trkpt>
      <trkpt lat="44.07886" lon="6.99708">
        <ele>1430.1</ele>
        <time>2015-06-14T10:36:31Z</time>
      </trkpt>
      <trkpt lat="44.07885" lon="6.99707">
        <ele>1430.1</ele>
        <time>2015-06-14T10:36:32Z</time>
      </trkpt>
      <trkpt lat="44.07883" lon="6.99706">
        <ele>1430.1</ele>
        <time>2015-06-14T10:36:33Z</time>
      </trkpt>
      <trkpt lat="44.07881" lon="6.99705">
        <ele>1430.58</ele>
        <time>2015-06-14T10:36:34Z</time>
      </trkpt>
      <trkpt lat="44.07879" lon="6.99704">
        <ele>1430.58</ele>
        <time>2015-06-14T10:36:35Z</time>
      </trkpt>
      <trkpt lat="44.07877" lon="6.99704">
        <ele>1431.06</ele>
        <time>2015-06-14T10:36:36Z</time>
      </trkpt>
      <trkpt lat="44.0787" lon="6.997">
        <ele>1431.54</ele>
        <time>2015-06-14T10:36:41Z</time>
      </trkpt>
      <trkpt lat="44.07868" lon="6.99699">
        <ele>1431.54</ele>
        <time>2015-06-14T10:36:42Z</time>
      </trkpt>
      <trkpt lat="44.07867" lon="6.99698">
        <ele>1431.54</ele>
        <time>2015-06-14T10:36:43Z</time>
      </trkpt>
      <trkpt lat="44.07865" lon="6.99697">
        <ele>1431.54</ele>
        <time>2015-06-14T10:36:44Z</time>
      </trkpt>
      <trkpt lat="44.07863" lon="6.99697">
        <ele>1431.54</ele>
        <time>2015-06-14T10:36:45Z</time>
      </trkpt>
      <trkpt lat="44.07861" lon="6.99696">
        <ele>1431.54</ele>
        <time>2015-06-14T10:36:46Z</time>
      </trkpt>
      <trkpt lat="44.0786" lon="6.99695">
        <ele>1432.02</ele>
        <time>2015-06-14T10:36:47Z</time>
      </trkpt>
      <trkpt lat="44.07858" lon="6.99694">
        <ele>1432.02</ele>
        <time>2015-06-14T10:36:48Z</time>
      </trkpt>
      <trkpt lat="44.07856" lon="6.99694">
        <ele>1432.02</ele>
        <time>2015-06-14T10:36:49Z</time>
      </trkpt>
      <trkpt lat="44.07833" lon="6.99696">
        <ele>1433.94</ele>
        <time>2015-06-14T10:37:03Z</time>
      </trkpt>
      <trkpt lat="44.07811" lon="6.99717">
        <ele>1435.39</ele>
        <time>2015-06-14T10:37:18Z</time>
      </trkpt>
      <trkpt lat="44.07779" lon="6.99714">
        <ele>1436.35</ele>
        <time>2015-06-14T10:37:35Z</time>
      </trkpt>
      <trkpt lat="44.07748" lon="6.99691">
        <ele>1437.31</ele>
        <time>2015-06-14T10:37:53Z</time>
      </trkpt>
      <trkpt lat="44.07721" lon="6.99681">
        <ele>1439.23</ele>
        <time>2015-06-14T10:38:07Z</time>
      </trkpt>
      <trkpt lat="44.0772" lon="6.9968">
        <ele>1439.23</ele>
        <time>2015-06-14T10:38:08Z</time>
      </trkpt>
      <trkpt lat="44.07718" lon="6.99679">
        <ele>1439.23</ele>
        <time>2015-06-14T10:38:09Z</time>
      </trkpt>
      <trkpt lat="44.07689" lon="6.9967">
        <ele>1440.19</ele>
        <time>2015-06-14T10:38:23Z</time>
      </trkpt>
      <trkpt lat="44.07687" lon="6.9967">
        <ele>1441.15</ele>
        <time>2015-06-14T10:38:24Z</time>
      </trkpt>
      <trkpt lat="44.07685" lon="6.9967">
        <ele>1441.15</ele>
        <time>2015-06-14T10:38:25Z</time>
      </trkpt>
      <trkpt lat="44.07683" lon="6.9967">
        <ele>1441.15</ele>
        <time>2015-06-14T10:38:26Z</time>
      </trkpt>
      <trkpt lat="44.07682" lon="6.9967">
        <ele>1441.63</ele>
        <time>2015-06-14T10:38:27Z</time>
      </trkpt>
      <trkpt lat="44.07681" lon="6.99672">
        <ele>1441.63</ele>
        <time>2015-06-14T10:38:29Z</time>
      </trkpt>
      <trkpt lat="44.07679" lon="6.99674">
        <ele>1442.6</ele>
        <time>2015-06-14T10:38:31Z</time>
      </trkpt>
      <trkpt lat="44.07679" lon="6.99676">
        <ele>1442.6</ele>
        <time>2015-06-14T10:38:32Z</time>
      </trkpt>
      <trkpt lat="44.07679" lon="6.99678">
        <ele>1442.6</ele>
        <time>2015-06-14T10:38:33Z</time>
      </trkpt>
      <trkpt lat="44.07679" lon="6.99681">
        <ele>1442.6</ele>
        <time>2015-06-14T10:38:34Z</time>
      </trkpt>
      <trkpt lat="44.0768" lon="6.99682">
        <ele>1442.6</ele>
        <time>2015-06-14T10:38:35Z</time>
      </trkpt>
      <trkpt lat="44.07681" lon="6.99684">
        <ele>1443.08</ele>
        <time>2015-06-14T10:38:36Z</time>
      </trkpt>
      <trkpt lat="44.07682" lon="6.99685">
        <ele>1443.08</ele>
        <time>2015-06-14T10:38:37Z</time>
      </trkpt>
      <trkpt lat="44.07683" lon="6.99686">
        <ele>1443.08</ele>
        <time>2015-06-14T10:38:38Z</time>
      </trkpt>
      <trkpt lat="44.07684" lon="6.99686">
        <ele>1443.56</ele>
        <time>2015-06-14T10:38:39Z</time>
      </trkpt>
      <trkpt lat="44.07686" lon="6.99687">
        <ele>1443.56</ele>
        <time>2015-06-14T10:38:40Z</time>
      </trkpt>
      <trkpt lat="44.07687" lon="6.99688">
        <ele>1444.04</ele>
        <time>2015-06-14T10:38:41Z</time>
      </trkpt>
      <trkpt lat="44.07689" lon="6.99688">
        <ele>1444.04</ele>
        <time>2015-06-14T10:38:42Z</time>
      </trkpt>
      <trkpt lat="44.0769" lon="6.99689">
        <ele>1444.04</ele>
        <time>2015-06-14T10:38:43Z</time>
      </trkpt>
      <trkpt lat="44.07693" lon="6.99691">
        <ele>1444.52</ele>
        <time>2015-06-14T10:38:46Z</time>
      </trkpt>
      <trkpt lat="44.07695" lon="6.99691">
        <ele>1444.52</ele>
        <time>2015-06-14T10:38:47Z</time>
      </trkpt>
      <trkpt lat="44.07697" lon="6.99692">
        <ele>1445</ele>
        <time>2015-06-14T10:38:48Z</time>
      </trkpt>
      <trkpt lat="44.07698" lon="6.99693">
        <ele>1445</ele>
        <time>2015-06-14T10:38:49Z</time>
      </trkpt>
      <trkpt lat="44.077" lon="6.99694">
        <ele>1445</ele>
        <time>2015-06-14T10:38:50Z</time>
      </trkpt>
      <trkpt lat="44.07702" lon="6.99695">
        <ele>1445.48</ele>
        <time>2015-06-14T10:38:51Z</time>
      </trkpt>
      <trkpt lat="44.07703" lon="6.99696">
        <ele>1445.48</ele>
        <time>2015-06-14T10:38:52Z</time>
      </trkpt>
      <trkpt lat="44.07705" lon="6.99697">
        <ele>1445.48</ele>
        <time>2015-06-14T10:38:53Z</time>
      </trkpt>
      <trkpt lat="44.07722" lon="6.99713">
        <ele>1446.92</ele>
        <time>2015-06-14T10:39:07Z</time>
      </trkpt>
      <trkpt lat="44.07729" lon="6.99716">
        <ele>1447.4</ele>
        <time>2015-06-14T10:39:13Z</time>
      </trkpt>
      <trkpt lat="44.07731" lon="6.99718">
        <ele>1447.4</ele>
        <time>2015-06-14T10:39:14Z</time>
      </trkpt>
      <trkpt lat="44.07733" lon="6.9972">
        <ele>1447.4</ele>
        <time>2015-06-14T10:39:15Z</time>
      </trkpt>
      <trkpt lat="44.07734" lon="6.99721">
        <ele>1447.4</ele>
        <time>2015-06-14T10:39:16Z</time>
      </trkpt>
      <trkpt lat="44.07736" lon="6.99723">
        <ele>1447.88</ele>
        <time>2015-06-14T10:39:17Z</time>
      </trkpt>
      <trkpt lat="44.07737" lon="6.99725">
        <ele>1447.88</ele>
        <time>2015-06-14T10:39:18Z</time>
      </trkpt>
      <trkpt lat="44.07758" lon="6.99751">
        <ele>1450.29</ele>
        <time>2015-06-14T10:39:34Z</time>
      </trkpt>
      <trkpt lat="44.07782" lon="6.99779">
        <ele>1453.17</ele>
        <time>2015-06-14T10:39:54Z</time>
      </trkpt>
      <trkpt lat="44.07809" lon="6.99791">
        <ele>1455.09</ele>
        <time>2015-06-14T10:40:11Z</time>
      </trkpt>
      <trkpt lat="44.07844" lon="6.9978">
        <ele>1456.53</ele>
        <time>2015-06-14T10:40:30Z</time>
      </trkpt>
      <trkpt lat="44.0785" lon="6.99777">
        <ele>1457.98</ele>
        <time>2015-06-14T10:40:34Z</time>
      </trkpt>
      <trkpt lat="44.07851" lon="6.99778">
        <ele>1457.98</ele>
        <time>2015-06-14T10:40:35Z</time>
      </trkpt>
      <trkpt lat="44.07874" lon="6.99798">
        <ele>1459.42</ele>
        <time>2015-06-14T10:40:50Z</time>
      </trkpt>
      <trkpt lat="44.07901" lon="6.99817">
        <ele>1460.86</ele>
        <time>2015-06-14T10:41:07Z</time>
      </trkpt>
      <trkpt lat="44.07934" lon="6.99836">
        <ele>1462.3</ele>
        <time>2015-06-14T10:41:28Z</time>
      </trkpt>
      <trkpt lat="44.07959" lon="6.99848">
        <ele>1464.71</ele>
        <time>2015-06-14T10:41:43Z</time>
      </trkpt>
      <trkpt lat="44.07988" lon="6.99848">
        <ele>1466.63</ele>
        <time>2015-06-14T10:42:00Z</time>
      </trkpt>
      <trkpt lat="44.07993" lon="6.99847">
        <ele>1466.63</ele>
        <time>2015-06-14T10:42:03Z</time>
      </trkpt>
      <trkpt lat="44.07994" lon="6.99848">
        <ele>1466.63</ele>
        <time>2015-06-14T10:42:04Z</time>
      </trkpt>
      <trkpt lat="44.07996" lon="6.99848">
        <ele>1466.63</ele>
        <time>2015-06-14T10:42:05Z</time>
      </trkpt>
      <trkpt lat="44.07998" lon="6.99848">
        <ele>1467.11</ele>
        <time>2015-06-14T10:42:06Z</time>
      </trkpt>
      <trkpt lat="44.08" lon="6.99849">
        <ele>1467.11</ele>
        <time>2015-06-14T10:42:07Z</time>
      </trkpt>
      <trkpt lat="44.08002" lon="6.99849">
        <ele>1467.11</ele>
        <time>2015-06-14T10:42:08Z</time>
      </trkpt>
      <trkpt lat="44.08003" lon="6.9985">
        <ele>1467.59</ele>
        <time>2015-06-14T10:42:09Z</time>
      </trkpt>
      <trkpt lat="44.08005" lon="6.9985">
        <ele>1467.59</ele>
        <time>2015-06-14T10:42:10Z</time>
      </trkpt>
      <trkpt lat="44.08007" lon="6.99851">
        <ele>1467.59</ele>
        <time>2015-06-14T10:42:11Z</time>
      </trkpt>
      <trkpt lat="44.08008" lon="6.99851">
        <ele>1468.55</ele>
        <time>2015-06-14T10:42:12Z</time>
      </trkpt>
      <trkpt lat="44.08009" lon="6.99851">
        <ele>1468.55</ele>
        <time>2015-06-14T10:42:13Z</time>
      </trkpt>
      <trkpt lat="44.08013" lon="6.99852">
        <ele>1469.03</ele>
        <time>2015-06-14T10:42:24Z</time>
      </trkpt>
      <trkpt lat="44.08014" lon="6.99853">
        <ele>1469.03</ele>
        <time>2015-06-14T10:42:25Z</time>
      </trkpt>
      <trkpt lat="44.08015" lon="6.99853">
        <ele>1469.03</ele>
        <time>2015-06-14T10:42:26Z</time>
      </trkpt>
      <trkpt lat="44.08016" lon="6.99853">
        <ele>1469.51</ele>
        <time>2015-06-14T10:42:27Z</time>
      </trkpt>
      <trkpt lat="44.08017" lon="6.99853">
        <ele>1469.99</ele>
        <time>2015-06-14T10:42:28Z</time>
      </trkpt>
      <trkpt lat="44.08033" lon="6.99864">
        <ele>1471.92</ele>
        <time>2015-06-14T10:42:41Z</time>
      </trkpt>
      <trkpt lat="44.08045" lon="6.99874">
        <ele>1473.84</ele>
        <time>2015-06-14T10:42:51Z</time>
      </trkpt>
      <trkpt lat="44.08047" lon="6.99876">
        <ele>1474.8</ele>
        <time>2015-06-14T10:42:54Z</time>
      </trkpt>
      <trkpt lat="44.08048" lon="6.99877">
        <ele>1474.8</ele>
        <time>2015-06-14T10:42:55Z</time>
      </trkpt>
      <trkpt lat="44.08059" lon="6.99886">
        <ele>1476.24</ele>
        <time>2015-06-14T10:43:06Z</time>
      </trkpt>
      <trkpt lat="44.08061" lon="6.99887">
        <ele>1476.24</ele>
        <time>2015-06-14T10:43:07Z</time>
      </trkpt>
      <trkpt lat="44.08063" lon="6.99887">
        <ele>1476.72</ele>
        <time>2015-06-14T10:43:08Z</time>
      </trkpt>
      <trkpt lat="44.08066" lon="6.99889">
        <ele>1477.68</ele>
        <time>2015-06-14T10:43:11Z</time>
      </trkpt>
      <trkpt lat="44.08068" lon="6.99894">
        <ele>1478.16</ele>
        <time>2015-06-14T10:43:16Z</time>
      </trkpt>
      <trkpt lat="44.08068" lon="6.99896">
        <ele>1477.68</ele>
        <time>2015-06-14T10:43:17Z</time>
      </trkpt>
      <trkpt lat="44.08067" lon="6.99897">
        <ele>1478.16</ele>
        <time>2015-06-14T10:43:18Z</time>
      </trkpt>
      <trkpt lat="44.08066" lon="6.99897">
        <ele>1478.16</ele>
        <time>2015-06-14T10:43:19Z</time>
      </trkpt>
      <trkpt lat="44.08064" lon="6.99897">
        <ele>1478.16</ele>
        <time>2015-06-14T10:43:20Z</time>
      </trkpt>
      <trkpt lat="44.08048" lon="6.99891">
        <ele>1479.61</ele>
        <time>2015-06-14T10:43:33Z</time>
      </trkpt>
      <trkpt lat="44.08026" lon="6.99886">
        <ele>1481.53</ele>
        <time>2015-06-14T10:43:49Z</time>
      </trkpt>
      <trkpt lat="44.08011" lon="6.99887">
        <ele>1483.45</ele>
        <time>2015-06-14T10:44:00Z</time>
      </trkpt>
      <trkpt lat="44.0801" lon="6.99887">
        <ele>1483.93</ele>
        <time>2015-06-14T10:44:01Z</time>
      </trkpt>
      <trkpt lat="44.07989" lon="6.99892">
        <ele>1485.85</ele>
        <time>2015-06-14T10:44:17Z</time>
      </trkpt>
      <trkpt lat="44.07965" lon="6.99895">
        <ele>1487.3</ele>
        <time>2015-06-14T10:44:34Z</time>
      </trkpt>
      <trkpt lat="44.07938" lon="6.99898">
        <ele>1489.22</ele>
        <time>2015-06-14T10:44:51Z</time>
      </trkpt>
      <trkpt lat="44.07908" lon="6.99902">
        <ele>1490.66</ele>
        <time>2015-06-14T10:45:07Z</time>
      </trkpt>
      <trkpt lat="44.07884" lon="6.99911">
        <ele>1493.06</ele>
        <time>2015-06-14T10:45:22Z</time>
      </trkpt>
      <trkpt lat="44.07852" lon="6.99914">
        <ele>1494.51</ele>
        <time>2015-06-14T10:45:39Z</time>
      </trkpt>
      <trkpt lat="44.07822" lon="6.99921">
        <ele>1495.95</ele>
        <time>2015-06-14T10:45:56Z</time>
      </trkpt>
      <trkpt lat="44.07792" lon="6.99921">
        <ele>1496.91</ele>
        <time>2015-06-14T10:46:12Z</time>
      </trkpt>
      <trkpt lat="44.07765" lon="6.99924">
        <ele>1497.87</ele>
        <time>2015-06-14T10:46:26Z</time>
      </trkpt>
      <trkpt lat="44.07751" lon="6.99926">
        <ele>1498.83</ele>
        <time>2015-06-14T10:46:34Z</time>
      </trkpt>
      <trkpt lat="44.07751" lon="6.99928">
        <ele>1498.83</ele>
        <time>2015-06-14T10:46:35Z</time>
      </trkpt>
      <trkpt lat="44.0775" lon="6.9993">
        <ele>1499.31</ele>
        <time>2015-06-14T10:46:36Z</time>
      </trkpt>
      <trkpt lat="44.0775" lon="6.99931">
        <ele>1499.31</ele>
        <time>2015-06-14T10:46:37Z</time>
      </trkpt>
      <trkpt lat="44.0775" lon="6.99933">
        <ele>1499.31</ele>
        <time>2015-06-14T10:46:38Z</time>
      </trkpt>
      <trkpt lat="44.07752" lon="6.99934">
        <ele>1499.79</ele>
        <time>2015-06-14T10:46:39Z</time>
      </trkpt>
      <trkpt lat="44.07753" lon="6.99935">
        <ele>1499.79</ele>
        <time>2015-06-14T10:46:40Z</time>
      </trkpt>
      <trkpt lat="44.07754" lon="6.99936">
        <ele>1499.79</ele>
        <time>2015-06-14T10:46:41Z</time>
      </trkpt>
      <trkpt lat="44.07756" lon="6.99936">
        <ele>1499.79</ele>
        <time>2015-06-14T10:46:42Z</time>
      </trkpt>
      <trkpt lat="44.07758" lon="6.99937">
        <ele>1500.27</ele>
        <time>2015-06-14T10:46:43Z</time>
      </trkpt>
      <trkpt lat="44.07759" lon="6.99937">
        <ele>1500.27</ele>
        <time>2015-06-14T10:46:44Z</time>
      </trkpt>
      <trkpt lat="44.07761" lon="6.99937">
        <ele>1500.27</ele>
        <time>2015-06-14T10:46:45Z</time>
      </trkpt>
      <trkpt lat="44.07763" lon="6.99937">
        <ele>1500.27</ele>
        <time>2015-06-14T10:46:46Z</time>
      </trkpt>
      <trkpt lat="44.07789" lon="6.99938">
        <ele>1502.68</ele>
        <time>2015-06-14T10:47:03Z</time>
      </trkpt>
      <trkpt lat="44.07812" lon="6.99941">
        <ele>1504.6</ele>
        <time>2015-06-14T10:47:18Z</time>
      </trkpt>
      <trkpt lat="44.07834" lon="6.99949">
        <ele>1506.52</ele>
        <time>2015-06-14T10:47:36Z</time>
      </trkpt>
      <trkpt lat="44.07855" lon="6.99957">
        <ele>1507.97</ele>
        <time>2015-06-14T10:47:51Z</time>
      </trkpt>
      <trkpt lat="44.07874" lon="6.99963">
        <ele>1509.89</ele>
        <time>2015-06-14T10:48:05Z</time>
      </trkpt>
      <trkpt lat="44.07898" lon="6.99965">
        <ele>1511.33</ele>
        <time>2015-06-14T10:48:21Z</time>
      </trkpt>
      <trkpt lat="44.07926" lon="6.99964">
        <ele>1513.73</ele>
        <time>2015-06-14T10:48:39Z</time>
      </trkpt>
      <trkpt lat="44.07952" lon="6.99964">
        <ele>1514.69</ele>
        <time>2015-06-14T10:48:55Z</time>
      </trkpt>
      <trkpt lat="44.07976" lon="6.99967">
        <ele>1516.14</ele>
        <time>2015-06-14T10:49:10Z</time>
      </trkpt>
      <trkpt lat="44.08001" lon="6.99974">
        <ele>1518.54</ele>
        <time>2015-06-14T10:49:27Z</time>
      </trkpt>
      <trkpt lat="44.08026" lon="6.99991">
        <ele>1519.98</ele>
        <time>2015-06-14T10:49:44Z</time>
      </trkpt>
      <trkpt lat="44.08043" lon="7.00006">
        <ele>1521.9</ele>
        <time>2015-06-14T10:49:57Z</time>
      </trkpt>
      <trkpt lat="44.08062" lon="7.0002">
        <ele>1523.83</ele>
        <time>2015-06-14T10:50:12Z</time>
      </trkpt>
      <trkpt lat="44.08089" lon="7.00039">
        <ele>1524.79</ele>
        <time>2015-06-14T10:50:31Z</time>
      </trkpt>
      <trkpt lat="44.08119" lon="7.00055">
        <ele>1526.23</ele>
        <time>2015-06-14T10:50:50Z</time>
      </trkpt>
      <trkpt lat="44.08147" lon="7.00072">
        <ele>1527.67</ele>
        <time>2015-06-14T10:51:09Z</time>
      </trkpt>
      <trkpt lat="44.08169" lon="7.00069">
        <ele>1530.08</ele>
        <time>2015-06-14T10:51:25Z</time>
      </trkpt>
      <trkpt lat="44.08192" lon="7.00052">
        <ele>1531.04</ele>
        <time>2015-06-14T10:51:40Z</time>
      </trkpt>
      <trkpt lat="44.08206" lon="7.00052">
        <ele>1531.04</ele>
        <time>2015-06-14T10:51:48Z</time>
      </trkpt>
      <trkpt lat="44.08207" lon="7.00053">
        <ele>1531.04</ele>
        <time>2015-06-14T10:51:49Z</time>
      </trkpt>
      <trkpt lat="44.08208" lon="7.00055">
        <ele>1531.52</ele>
        <time>2015-06-14T10:51:50Z</time>
      </trkpt>
      <trkpt lat="44.08209" lon="7.00058">
        <ele>1531.52</ele>
        <time>2015-06-14T10:51:51Z</time>
      </trkpt>
      <trkpt lat="44.08209" lon="7.0006">
        <ele>1532.48</ele>
        <time>2015-06-14T10:51:52Z</time>
      </trkpt>
      <trkpt lat="44.08208" lon="7.00062">
        <ele>1532.48</ele>
        <time>2015-06-14T10:51:53Z</time>
      </trkpt>
      <trkpt lat="44.08208" lon="7.00064">
        <ele>1532.48</ele>
        <time>2015-06-14T10:51:54Z</time>
      </trkpt>
      <trkpt lat="44.08207" lon="7.00066">
        <ele>1532.48</ele>
        <time>2015-06-14T10:51:55Z</time>
      </trkpt>
      <trkpt lat="44.08203" lon="7.0007">
        <ele>1533.44</ele>
        <time>2015-06-14T10:52:00Z</time>
      </trkpt>
      <trkpt lat="44.082" lon="7.00072">
        <ele>1533.44</ele>
        <time>2015-06-14T10:52:03Z</time>
      </trkpt>
      <trkpt lat="44.08199" lon="7.00073">
        <ele>1533.92</ele>
        <time>2015-06-14T10:52:04Z</time>
      </trkpt>
      <trkpt lat="44.08186" lon="7.00084">
        <ele>1535.36</ele>
        <time>2015-06-14T10:52:16Z</time>
      </trkpt>
      <trkpt lat="44.08164" lon="7.00107">
        <ele>1536.32</ele>
        <time>2015-06-14T10:52:32Z</time>
      </trkpt>
      <trkpt lat="44.08136" lon="7.00099">
        <ele>1537.77</ele>
        <time>2015-06-14T10:52:49Z</time>
      </trkpt>
      <trkpt lat="44.08112" lon="7.0009">
        <ele>1539.69</ele>
        <time>2015-06-14T10:53:05Z</time>
      </trkpt>
      <trkpt lat="44.08085" lon="7.00087">
        <ele>1541.13</ele>
        <time>2015-06-14T10:53:22Z</time>
      </trkpt>
      <trkpt lat="44.08057" lon="7.00077">
        <ele>1543.05</ele>
        <time>2015-06-14T10:53:41Z</time>
      </trkpt>
      <trkpt lat="44.08034" lon="7.0007">
        <ele>1544.98</ele>
        <time>2015-06-14T10:53:57Z</time>
      </trkpt>
      <trkpt lat="44.08008" lon="7.00067">
        <ele>1547.38</ele>
        <time>2015-06-14T10:54:15Z</time>
      </trkpt>
      <trkpt lat="44.07982" lon="7.00066">
        <ele>1549.3</ele>
        <time>2015-06-14T10:54:32Z</time>
      </trkpt>
      <trkpt lat="44.07962" lon="7.00076">
        <ele>1551.71</ele>
        <time>2015-06-14T10:54:48Z</time>
      </trkpt>
      <trkpt lat="44.07943" lon="7.00085">
        <ele>1553.63</ele>
        <time>2015-06-14T10:55:02Z</time>
      </trkpt>
      <trkpt lat="44.07923" lon="7.00096">
        <ele>1556.03</ele>
        <time>2015-06-14T10:55:19Z</time>
      </trkpt>
      <trkpt lat="44.0791" lon="7.00104">
        <ele>1558.92</ele>
        <time>2015-06-14T10:55:32Z</time>
      </trkpt>
      <trkpt lat="44.07908" lon="7.00108">
        <ele>1558.92</ele>
        <time>2015-06-14T10:55:34Z</time>
      </trkpt>
      <trkpt lat="44.07907" lon="7.0011">
        <ele>1559.4</ele>
        <time>2015-06-14T10:55:35Z</time>
      </trkpt>
      <trkpt lat="44.07904" lon="7.00116">
        <ele>1559.4</ele>
        <time>2015-06-14T10:55:47Z</time>
      </trkpt>
      <trkpt lat="44.07907" lon="7.0012">
        <ele>1559.4</ele>
        <time>2015-06-14T10:56:02Z</time>
      </trkpt>
      <trkpt lat="44.07904" lon="7.00119">
        <ele>1559.88</ele>
        <time>2015-06-14T10:56:26Z</time>
      </trkpt>
      <trkpt lat="44.07906" lon="7.00117">
        <ele>1559.88</ele>
        <time>2015-06-14T10:56:48Z</time>
      </trkpt>
      <trkpt lat="44.07904" lon="7.00116">
        <ele>1559.88</ele>
        <time>2015-06-14T10:57:09Z</time>
      </trkpt>
      <trkpt lat="44.07906" lon="7.00118">
        <ele>1559.88</ele>
        <time>2015-06-14T10:57:30Z</time>
      </trkpt>
      <trkpt lat="44.07918" lon="7.00129">
        <ele>1560.84</ele>
        <time>2015-06-14T10:57:44Z</time>
      </trkpt>
      <trkpt lat="44.0792" lon="7.0013">
        <ele>1561.32</ele>
        <time>2015-06-14T10:57:46Z</time>
      </trkpt>
      <trkpt lat="44.07921" lon="7.0013">
        <ele>1561.32</ele>
        <time>2015-06-14T10:57:47Z</time>
      </trkpt>
      <trkpt lat="44.07923" lon="7.00131">
        <ele>1561.32</ele>
        <time>2015-06-14T10:57:48Z</time>
      </trkpt>
      <trkpt lat="44.07941" lon="7.00137">
        <ele>1562.28</ele>
        <time>2015-06-14T10:58:03Z</time>
      </trkpt>
      <trkpt lat="44.07952" lon="7.00142">
        <ele>1564.2</ele>
        <time>2015-06-14T10:58:16Z</time>
      </trkpt>
      <trkpt lat="44.07964" lon="7.00147">
        <ele>1565.16</ele>
        <time>2015-06-14T10:58:28Z</time>
      </trkpt>
      <trkpt lat="44.07976" lon="7.00152">
        <ele>1566.61</ele>
        <time>2015-06-14T10:58:39Z</time>
      </trkpt>
      <trkpt lat="44.07988" lon="7.00155">
        <ele>1567.09</ele>
        <time>2015-06-14T10:58:49Z</time>
      </trkpt>
      <trkpt lat="44.07989" lon="7.00155">
        <ele>1567.09</ele>
        <time>2015-06-14T10:58:50Z</time>
      </trkpt>
      <trkpt lat="44.07998" lon="7.00161">
        <ele>1568.05</ele>
        <time>2015-06-14T10:58:59Z</time>
      </trkpt>
      <trkpt lat="44.08" lon="7.00162">
        <ele>1568.05</ele>
        <time>2015-06-14T10:59:01Z</time>
      </trkpt>
      <trkpt lat="44.08005" lon="7.00165">
        <ele>1568.05</ele>
        <time>2015-06-14T10:59:08Z</time>
      </trkpt>
      <trkpt lat="44.08014" lon="7.00173">
        <ele>1569.49</ele>
        <time>2015-06-14T10:59:21Z</time>
      </trkpt>
      <trkpt lat="44.08026" lon="7.00178">
        <ele>1570.45</ele>
        <time>2015-06-14T10:59:33Z</time>
      </trkpt>
      <trkpt lat="44.08044" lon="7.00187">
        <ele>1571.89</ele>
        <time>2015-06-14T10:59:45Z</time>
      </trkpt>
      <trkpt lat="44.08056" lon="7.00202">
        <ele>1572.85</ele>
        <time>2015-06-14T10:59:57Z</time>
      </trkpt>
      <trkpt lat="44.08056" lon="7.00204">
        <ele>1572.85</ele>
        <time>2015-06-14T10:59:58Z</time>
      </trkpt>
      <trkpt lat="44.08065" lon="7.0022">
        <ele>1574.3</ele>
        <time>2015-06-14T11:00:11Z</time>
      </trkpt>
      <trkpt lat="44.08065" lon="7.00222">
        <ele>1574.3</ele>
        <time>2015-06-14T11:00:12Z</time>
      </trkpt>
      <trkpt lat="44.08066" lon="7.00223">
        <ele>1574.78</ele>
        <time>2015-06-14T11:00:13Z</time>
      </trkpt>
      <trkpt lat="44.08066" lon="7.00225">
        <ele>1574.78</ele>
        <time>2015-06-14T11:00:14Z</time>
      </trkpt>
      <trkpt lat="44.08066" lon="7.00226">
        <ele>1574.78</ele>
        <time>2015-06-14T11:00:15Z</time>
      </trkpt>
      <trkpt lat="44.08066" lon="7.00228">
        <ele>1575.26</ele>
        <time>2015-06-14T11:00:16Z</time>
      </trkpt>
      <trkpt lat="44.08064" lon="7.00232">
        <ele>1575.74</ele>
        <time>2015-06-14T11:00:20Z</time>
      </trkpt>
      <trkpt lat="44.08063" lon="7.00232">
        <ele>1575.74</ele>
        <time>2015-06-14T11:00:21Z</time>
      </trkpt>
      <trkpt lat="44.08062" lon="7.00232">
        <ele>1576.22</ele>
        <time>2015-06-14T11:00:22Z</time>
      </trkpt>
      <trkpt lat="44.08061" lon="7.00232">
        <ele>1576.22</ele>
        <time>2015-06-14T11:00:23Z</time>
      </trkpt>
      <trkpt lat="44.08059" lon="7.00231">
        <ele>1576.22</ele>
        <time>2015-06-14T11:00:24Z</time>
      </trkpt>
      <trkpt lat="44.08047" lon="7.00221">
        <ele>1577.66</ele>
        <time>2015-06-14T11:00:37Z</time>
      </trkpt>
      <trkpt lat="44.08032" lon="7.00222">
        <ele>1578.62</ele>
        <time>2015-06-14T11:00:50Z</time>
      </trkpt>
      <trkpt lat="44.0802" lon="7.0023">
        <ele>1580.06</ele>
        <time>2015-06-14T11:01:02Z</time>
      </trkpt>
      <trkpt lat="44.08019" lon="7.00234">
        <ele>1581.03</ele>
        <time>2015-06-14T11:01:05Z</time>
      </trkpt>
      <trkpt lat="44.08022" lon="7.00237">
        <ele>1581.03</ele>
        <time>2015-06-14T11:01:09Z</time>
      </trkpt>
      <trkpt lat="44.08035" lon="7.00244">
        <ele>1582.95</ele>
        <time>2015-06-14T11:01:23Z</time>
      </trkpt>
      <trkpt lat="44.08047" lon="7.0026">
        <ele>1585.35</ele>
        <time>2015-06-14T11:01:38Z</time>
      </trkpt>
      <trkpt lat="44.08051" lon="7.00266">
        <ele>1585.35</ele>
        <time>2015-06-14T11:01:43Z</time>
      </trkpt>
      <trkpt lat="44.08052" lon="7.00268">
        <ele>1585.35</ele>
        <time>2015-06-14T11:01:44Z</time>
      </trkpt>
      <trkpt lat="44.0806" lon="7.00282">
        <ele>1586.79</ele>
        <time>2015-06-14T11:01:55Z</time>
      </trkpt>
      <trkpt lat="44.08061" lon="7.00284">
        <ele>1586.31</ele>
        <time>2015-06-14T11:01:56Z</time>
      </trkpt>
      <trkpt lat="44.08062" lon="7.00286">
        <ele>1587.27</ele>
        <time>2015-06-14T11:01:57Z</time>
      </trkpt>
      <trkpt lat="44.08072" lon="7.00305">
        <ele>1588.72</ele>
        <time>2015-06-14T11:02:12Z</time>
      </trkpt>
      <trkpt lat="44.0808" lon="7.00318">
        <ele>1589.68</ele>
        <time>2015-06-14T11:02:23Z</time>
      </trkpt>
      <trkpt lat="44.08082" lon="7.00321">
        <ele>1589.68</ele>
        <time>2015-06-14T11:02:26Z</time>
      </trkpt>
      <trkpt lat="44.08097" lon="7.0033">
        <ele>1590.64</ele>
        <time>2015-06-14T11:02:39Z</time>
      </trkpt>
      <trkpt lat="44.08113" lon="7.00337">
        <ele>1591.6</ele>
        <time>2015-06-14T11:02:52Z</time>
      </trkpt>
      <trkpt lat="44.08114" lon="7.00338">
        <ele>1592.08</ele>
        <time>2015-06-14T11:02:53Z</time>
      </trkpt>
      <trkpt lat="44.08129" lon="7.00349">
        <ele>1593.52</ele>
        <time>2015-06-14T11:03:07Z</time>
      </trkpt>
      <trkpt lat="44.08143" lon="7.00357">
        <ele>1594.96</ele>
        <time>2015-06-14T11:03:20Z</time>
      </trkpt>
      <trkpt lat="44.08155" lon="7.00364">
        <ele>1596.89</ele>
        <time>2015-06-14T11:03:32Z</time>
      </trkpt>
      <trkpt lat="44.08156" lon="7.00366">
        <ele>1597.37</ele>
        <time>2015-06-14T11:03:34Z</time>
      </trkpt>
      <trkpt lat="44.08153" lon="7.00372">
        <ele>1597.37</ele>
        <time>2015-06-14T11:03:39Z</time>
      </trkpt>
      <trkpt lat="44.0815" lon="7.00373">
        <ele>1597.85</ele>
        <time>2015-06-14T11:03:43Z</time>
      </trkpt>
      <trkpt lat="44.08143" lon="7.00374">
        <ele>1598.81</ele>
        <time>2015-06-14T11:03:50Z</time>
      </trkpt>
      <trkpt lat="44.08127" lon="7.0037">
        <ele>1599.77</ele>
        <time>2015-06-14T11:04:02Z</time>
      </trkpt>
      <trkpt lat="44.08126" lon="7.0037">
        <ele>1599.77</ele>
        <time>2015-06-14T11:04:03Z</time>
      </trkpt>
      <trkpt lat="44.08108" lon="7.00365">
        <ele>1600.73</ele>
        <time>2015-06-14T11:04:18Z</time>
      </trkpt>
      <trkpt lat="44.08086" lon="7.00359">
        <ele>1602.17</ele>
        <time>2015-06-14T11:04:35Z</time>
      </trkpt>
      <trkpt lat="44.08072" lon="7.00353">
        <ele>1603.62</ele>
        <time>2015-06-14T11:04:48Z</time>
      </trkpt>
      <trkpt lat="44.08056" lon="7.00343">
        <ele>1604.58</ele>
        <time>2015-06-14T11:05:02Z</time>
      </trkpt>
      <trkpt lat="44.08047" lon="7.00339">
        <ele>1604.58</ele>
        <time>2015-06-14T11:05:09Z</time>
      </trkpt>
      <trkpt lat="44.08046" lon="7.00338">
        <ele>1605.06</ele>
        <time>2015-06-14T11:05:10Z</time>
      </trkpt>
      <trkpt lat="44.08044" lon="7.00337">
        <ele>1605.06</ele>
        <time>2015-06-14T11:05:12Z</time>
      </trkpt>
      <trkpt lat="44.08042" lon="7.00337">
        <ele>1605.06</ele>
        <time>2015-06-14T11:05:13Z</time>
      </trkpt>
      <trkpt lat="44.08033" lon="7.00337">
        <ele>1605.54</ele>
        <time>2015-06-14T11:05:20Z</time>
      </trkpt>
      <trkpt lat="44.08032" lon="7.00338">
        <ele>1606.02</ele>
        <time>2015-06-14T11:05:21Z</time>
      </trkpt>
      <trkpt lat="44.08032" lon="7.0034">
        <ele>1606.02</ele>
        <time>2015-06-14T11:05:22Z</time>
      </trkpt>
      <trkpt lat="44.08034" lon="7.00345">
        <ele>1606.5</ele>
        <time>2015-06-14T11:05:27Z</time>
      </trkpt>
      <trkpt lat="44.08046" lon="7.00354">
        <ele>1607.94</ele>
        <time>2015-06-14T11:05:41Z</time>
      </trkpt>
      <trkpt lat="44.08047" lon="7.00354">
        <ele>1607.94</ele>
        <time>2015-06-14T11:05:42Z</time>
      </trkpt>
      <trkpt lat="44.08048" lon="7.00356">
        <ele>1607.94</ele>
        <time>2015-06-14T11:05:44Z</time>
      </trkpt>
      <trkpt lat="44.0806" lon="7.00366">
        <ele>1608.9</ele>
        <time>2015-06-14T11:05:56Z</time>
      </trkpt>
      <trkpt lat="44.08075" lon="7.00378">
        <ele>1609.86</ele>
        <time>2015-06-14T11:06:09Z</time>
      </trkpt>
      <trkpt lat="44.08087" lon="7.00387">
        <ele>1610.83</ele>
        <time>2015-06-14T11:06:20Z</time>
      </trkpt>
      <trkpt lat="44.08103" lon="7.00401">
        <ele>1611.79</ele>
        <time>2015-06-14T11:06:34Z</time>
      </trkpt>
      <trkpt lat="44.08117" lon="7.00414">
        <ele>1612.75</ele>
        <time>2015-06-14T11:06:47Z</time>
      </trkpt>
      <trkpt lat="44.08121" lon="7.00419">
        <ele>1613.23</ele>
        <time>2015-06-14T11:06:52Z</time>
      </trkpt>
      <trkpt lat="44.08122" lon="7.0042">
        <ele>1613.23</ele>
        <time>2015-06-14T11:06:53Z</time>
      </trkpt>
      <trkpt lat="44.08123" lon="7.00421">
        <ele>1613.23</ele>
        <time>2015-06-14T11:06:54Z</time>
      </trkpt>
      <trkpt lat="44.08133" lon="7.00435">
        <ele>1614.67</ele>
        <time>2015-06-14T11:07:07Z</time>
      </trkpt>
      <trkpt lat="44.08134" lon="7.00436">
        <ele>1615.15</ele>
        <time>2015-06-14T11:07:08Z</time>
      </trkpt>
      <trkpt lat="44.08147" lon="7.0045">
        <ele>1616.59</ele>
        <time>2015-06-14T11:07:22Z</time>
      </trkpt>
      <trkpt lat="44.08164" lon="7.00461">
        <ele>1618.04</ele>
        <time>2015-06-14T11:07:38Z</time>
      </trkpt>
      <trkpt lat="44.08182" lon="7.00466">
        <ele>1619.96</ele>
        <time>2015-06-14T11:07:53Z</time>
      </trkpt>
      <trkpt lat="44.08184" lon="7.00468">
        <ele>1619.96</ele>
        <time>2015-06-14T11:07:57Z</time>
      </trkpt>
      <trkpt lat="44.08186" lon="7.00469">
        <ele>1619.96</ele>
        <time>2015-06-14T11:07:59Z</time>
      </trkpt>
      <trkpt lat="44.08188" lon="7.0047">
        <ele>1619.96</ele>
        <time>2015-06-14T11:08:00Z</time>
      </trkpt>
      <trkpt lat="44.08189" lon="7.00471">
        <ele>1619.96</ele>
        <time>2015-06-14T11:08:01Z</time>
      </trkpt>
      <trkpt lat="44.0819" lon="7.00472">
        <ele>1620.44</ele>
        <time>2015-06-14T11:08:02Z</time>
      </trkpt>
      <trkpt lat="44.08199" lon="7.00486">
        <ele>1620.44</ele>
        <time>2015-06-14T11:08:14Z</time>
      </trkpt>
      <trkpt lat="44.08209" lon="7.00513">
        <ele>1619</ele>
        <time>2015-06-14T11:08:31Z</time>
      </trkpt>
      <trkpt lat="44.0821" lon="7.00515">
        <ele>1619</ele>
        <time>2015-06-14T11:08:32Z</time>
      </trkpt>
      <trkpt lat="44.08211" lon="7.00517">
        <ele>1619</ele>
        <time>2015-06-14T11:08:33Z</time>
      </trkpt>
      <trkpt lat="44.08212" lon="7.00519">
        <ele>1619</ele>
        <time>2015-06-14T11:08:34Z</time>
      </trkpt>
      <trkpt lat="44.08212" lon="7.00522">
        <ele>1619</ele>
        <time>2015-06-14T11:08:35Z</time>
      </trkpt>
      <trkpt lat="44.08213" lon="7.00525">
        <ele>1619</ele>
        <time>2015-06-14T11:08:36Z</time>
      </trkpt>
      <trkpt lat="44.08232" lon="7.0057">
        <ele>1618.04</ele>
        <time>2015-06-14T11:08:48Z</time>
      </trkpt>
      <trkpt lat="44.08258" lon="7.00595">
        <ele>1619</ele>
        <time>2015-06-14T11:09:01Z</time>
      </trkpt>
      <trkpt lat="44.0826" lon="7.00596">
        <ele>1619</ele>
        <time>2015-06-14T11:09:02Z</time>
      </trkpt>
      <trkpt lat="44.08281" lon="7.0061">
        <ele>1620.44</ele>
        <time>2015-06-14T11:09:17Z</time>
      </trkpt>
      <trkpt lat="44.08306" lon="7.00601">
        <ele>1621.4</ele>
        <time>2015-06-14T11:09:35Z</time>
      </trkpt>
      <trkpt lat="44.08332" lon="7.00603">
        <ele>1621.4</ele>
        <time>2015-06-14T11:09:49Z</time>
      </trkpt>
      <trkpt lat="44.08346" lon="7.00622">
        <ele>1619.48</ele>
        <time>2015-06-14T11:09:54Z</time>
      </trkpt>
      <trkpt lat="44.08355" lon="7.00638">
        <ele>1619</ele>
        <time>2015-06-14T11:09:57Z</time>
      </trkpt>
      <trkpt lat="44.08357" lon="7.00645">
        <ele>1618.52</ele>
        <time>2015-06-14T11:09:58Z</time>
      </trkpt>
      <trkpt lat="44.08359" lon="7.00652">
        <ele>1618.04</ele>
        <time>2015-06-14T11:09:59Z</time>
      </trkpt>
      <trkpt lat="44.08359" lon="7.0066">
        <ele>1617.56</ele>
        <time>2015-06-14T11:10:00Z</time>
      </trkpt>
      <trkpt lat="44.08358" lon="7.00668">
        <ele>1617.56</ele>
        <time>2015-06-14T11:10:01Z</time>
      </trkpt>
      <trkpt lat="44.08357" lon="7.00678">
        <ele>1617.07</ele>
        <time>2015-06-14T11:10:02Z</time>
      </trkpt>
      <trkpt lat="44.08351" lon="7.00709">
        <ele>1615.63</ele>
        <time>2015-06-14T11:10:06Z</time>
      </trkpt>
      <trkpt lat="44.0835" lon="7.00715">
        <ele>1615.15</ele>
        <time>2015-06-14T11:10:07Z</time>
      </trkpt>
      <trkpt lat="44.08348" lon="7.00719">
        <ele>1615.15</ele>
        <time>2015-06-14T11:10:08Z</time>
      </trkpt>
      <trkpt lat="44.08347" lon="7.00722">
        <ele>1615.15</ele>
        <time>2015-06-14T11:10:09Z</time>
      </trkpt>
      <trkpt lat="44.08345" lon="7.00724">
        <ele>1615.15</ele>
        <time>2015-06-14T11:10:10Z</time>
      </trkpt>
      <trkpt lat="44.08345" lon="7.00726">
        <ele>1615.15</ele>
        <time>2015-06-14T11:10:11Z</time>
      </trkpt>
      <trkpt lat="44.08344" lon="7.00728">
        <ele>1615.15</ele>
        <time>2015-06-14T11:10:12Z</time>
      </trkpt>
      <trkpt lat="44.08343" lon="7.00731">
        <ele>1615.15</ele>
        <time>2015-06-14T11:10:13Z</time>
      </trkpt>
      <trkpt lat="44.08337" lon="7.00744">
        <ele>1616.59</ele>
        <time>2015-06-14T11:10:19Z</time>
      </trkpt>
      <trkpt lat="44.08335" lon="7.00774">
        <ele>1619.96</ele>
        <time>2015-06-14T11:10:35Z</time>
      </trkpt>
      <trkpt lat="44.08336" lon="7.00774">
        <ele>1619.96</ele>
        <time>2015-06-14T11:10:36Z</time>
      </trkpt>
      <trkpt lat="44.0834" lon="7.00776">
        <ele>1619.96</ele>
        <time>2015-06-14T11:10:39Z</time>
      </trkpt>
      <trkpt lat="44.08341" lon="7.00776">
        <ele>1619.96</ele>
        <time>2015-06-14T11:10:40Z</time>
      </trkpt>
      <trkpt lat="44.08342" lon="7.00777">
        <ele>1620.44</ele>
        <time>2015-06-14T11:10:41Z</time>
      </trkpt>
      <trkpt lat="44.08344" lon="7.00776">
        <ele>1619.96</ele>
        <time>2015-06-14T11:10:42Z</time>
      </trkpt>
      <trkpt lat="44.08345" lon="7.00777">
        <ele>1619.96</ele>
        <time>2015-06-14T11:10:43Z</time>
      </trkpt>
      <trkpt lat="44.08347" lon="7.00777">
        <ele>1619.96</ele>
        <time>2015-06-14T11:10:44Z</time>
      </trkpt>
      <trkpt lat="44.08348" lon="7.00777">
        <ele>1619.96</ele>
        <time>2015-06-14T11:10:45Z</time>
      </trkpt>
      <trkpt lat="44.0835" lon="7.00778">
        <ele>1619.96</ele>
        <time>2015-06-14T11:10:46Z</time>
      </trkpt>
      <trkpt lat="44.08351" lon="7.00778">
        <ele>1620.44</ele>
        <time>2015-06-14T11:10:47Z</time>
      </trkpt>
      <trkpt lat="44.08353" lon="7.00779">
        <ele>1620.44</ele>
        <time>2015-06-14T11:10:48Z</time>
      </trkpt>
      <trkpt lat="44.08354" lon="7.00779">
        <ele>1620.44</ele>
        <time>2015-06-14T11:10:49Z</time>
      </trkpt>
      <trkpt lat="44.08356" lon="7.0078">
        <ele>1620.44</ele>
        <time>2015-06-14T11:10:50Z</time>
      </trkpt>
      <trkpt lat="44.08359" lon="7.00782">
        <ele>1620.44</ele>
        <time>2015-06-14T11:10:53Z</time>
      </trkpt>
      <trkpt lat="44.0836" lon="7.00784">
        <ele>1621.4</ele>
        <time>2015-06-14T11:11:04Z</time>
      </trkpt>
      <trkpt lat="44.0836" lon="7.00784">
        <ele>1619.48</ele>
        <time>2015-06-14T11:11:06Z</time>
      </trkpt>
      <trkpt lat="44.08357" lon="7.00784">
        <ele>1619.48</ele>
        <time>2015-06-14T11:11:41Z</time>
      </trkpt>
      <trkpt lat="44.08356" lon="7.00784">
        <ele>1620.44</ele>
        <time>2015-06-14T11:12:06Z</time>
      </trkpt>
      <trkpt lat="44.08356" lon="7.00784">
        <ele>1619</ele>
        <time>2015-06-14T11:12:10Z</time>
      </trkpt>
      <trkpt lat="44.08356" lon="7.00784">
        <ele>1620.92</ele>
        <time>2015-06-14T11:12:15Z</time>
      </trkpt>
      <trkpt lat="44.08357" lon="7.00783">
        <ele>1619.96</ele>
        <time>2015-06-14T11:12:18Z</time>
      </trkpt>
      <trkpt lat="44.08359" lon="7.00785">
        <ele>1620.92</ele>
        <time>2015-06-14T11:12:34Z</time>
      </trkpt>
      <trkpt lat="44.0836" lon="7.00787">
        <ele>1620.92</ele>
        <time>2015-06-14T11:12:52Z</time>
      </trkpt>
      <trkpt lat="44.08361" lon="7.00791">
        <ele>1621.88</ele>
        <time>2015-06-14T11:13:08Z</time>
      </trkpt>
      <trkpt lat="44.08364" lon="7.00805">
        <ele>1622.84</ele>
        <time>2015-06-14T11:13:18Z</time>
      </trkpt>
      <trkpt lat="44.08364" lon="7.00807">
        <ele>1622.84</ele>
        <time>2015-06-14T11:13:19Z</time>
      </trkpt>
      <trkpt lat="44.08363" lon="7.00808">
        <ele>1622.84</ele>
        <time>2015-06-14T11:13:20Z</time>
      </trkpt>
      <trkpt lat="44.08362" lon="7.00809">
        <ele>1622.84</ele>
        <time>2015-06-14T11:13:21Z</time>
      </trkpt>
      <trkpt lat="44.08362" lon="7.0081">
        <ele>1622.84</ele>
        <time>2015-06-14T11:13:22Z</time>
      </trkpt>
      <trkpt lat="44.08351" lon="7.00813">
        <ele>1624.28</ele>
        <time>2015-06-14T11:13:33Z</time>
      </trkpt>
      <trkpt lat="44.0835" lon="7.00813">
        <ele>1625.25</ele>
        <time>2015-06-14T11:13:34Z</time>
      </trkpt>
      <trkpt lat="44.08349" lon="7.00813">
        <ele>1625.25</ele>
        <time>2015-06-14T11:13:35Z</time>
      </trkpt>
      <trkpt lat="44.08348" lon="7.00813">
        <ele>1625.25</ele>
        <time>2015-06-14T11:13:36Z</time>
      </trkpt>
      <trkpt lat="44.08347" lon="7.00814">
        <ele>1625.25</ele>
        <time>2015-06-14T11:13:37Z</time>
      </trkpt>
      <trkpt lat="44.08334" lon="7.00824">
        <ele>1626.21</ele>
        <time>2015-06-14T11:13:50Z</time>
      </trkpt>
      <trkpt lat="44.08334" lon="7.00825">
        <ele>1626.69</ele>
        <time>2015-06-14T11:13:51Z</time>
      </trkpt>
      <trkpt lat="44.08335" lon="7.00829">
        <ele>1626.69</ele>
        <time>2015-06-14T11:13:54Z</time>
      </trkpt>
      <trkpt lat="44.08335" lon="7.0083">
        <ele>1627.17</ele>
        <time>2015-06-14T11:13:55Z</time>
      </trkpt>
      <trkpt lat="44.08337" lon="7.00832">
        <ele>1627.17</ele>
        <time>2015-06-14T11:13:57Z</time>
      </trkpt>
      <trkpt lat="44.08348" lon="7.00847">
        <ele>1629.09</ele>
        <time>2015-06-14T11:14:12Z</time>
      </trkpt>
      <trkpt lat="44.08336" lon="7.00855">
        <ele>1630.53</ele>
        <time>2015-06-14T11:14:25Z</time>
      </trkpt>
      <trkpt lat="44.08335" lon="7.00855">
        <ele>1630.53</ele>
        <time>2015-06-14T11:14:26Z</time>
      </trkpt>
      <trkpt lat="44.0833" lon="7.00862">
        <ele>1631.98</ele>
        <time>2015-06-14T11:14:33Z</time>
      </trkpt>
      <trkpt lat="44.08329" lon="7.00868">
        <ele>1631.98</ele>
        <time>2015-06-14T11:14:37Z</time>
      </trkpt>
      <trkpt lat="44.08337" lon="7.00878">
        <ele>1633.9</ele>
        <time>2015-06-14T11:14:51Z</time>
      </trkpt>
      <trkpt lat="44.08348" lon="7.00883">
        <ele>1634.38</ele>
        <time>2015-06-14T11:15:09Z</time>
      </trkpt>
      <trkpt lat="44.08361" lon="7.00887">
        <ele>1634.86</ele>
        <time>2015-06-14T11:15:20Z</time>
      </trkpt>
      <trkpt lat="44.08364" lon="7.00888">
        <ele>1635.82</ele>
        <time>2015-06-14T11:15:23Z</time>
      </trkpt>
      <trkpt lat="44.08368" lon="7.00891">
        <ele>1635.82</ele>
        <time>2015-06-14T11:15:28Z</time>
      </trkpt>
      <trkpt lat="44.08369" lon="7.00891">
        <ele>1636.3</ele>
        <time>2015-06-14T11:15:29Z</time>
      </trkpt>
      <trkpt lat="44.0837" lon="7.00892">
        <ele>1636.3</ele>
        <time>2015-06-14T11:15:30Z</time>
      </trkpt>
      <trkpt lat="44.08372" lon="7.00892">
        <ele>1636.3</ele>
        <time>2015-06-14T11:15:31Z</time>
      </trkpt>
      <trkpt lat="44.08373" lon="7.00893">
        <ele>1636.3</ele>
        <time>2015-06-14T11:15:32Z</time>
      </trkpt>
      <trkpt lat="44.08374" lon="7.00893">
        <ele>1636.78</ele>
        <time>2015-06-14T11:15:33Z</time>
      </trkpt>
      <trkpt lat="44.08375" lon="7.00893">
        <ele>1636.78</ele>
        <time>2015-06-14T11:15:34Z</time>
      </trkpt>
      <trkpt lat="44.08389" lon="7.00896">
        <ele>1637.26</ele>
        <time>2015-06-14T11:15:46Z</time>
      </trkpt>
      <trkpt lat="44.08399" lon="7.00901">
        <ele>1638.22</ele>
        <time>2015-06-14T11:15:58Z</time>
      </trkpt>
      <trkpt lat="44.08399" lon="7.00903">
        <ele>1637.26</ele>
        <time>2015-06-14T11:16:03Z</time>
      </trkpt>
      <trkpt lat="44.08411" lon="7.00907">
        <ele>1639.19</ele>
        <time>2015-06-14T11:16:15Z</time>
      </trkpt>
      <trkpt lat="44.08426" lon="7.00905">
        <ele>1640.15</ele>
        <time>2015-06-14T11:16:28Z</time>
      </trkpt>
      <trkpt lat="44.08439" lon="7.009">
        <ele>1641.11</ele>
        <time>2015-06-14T11:16:42Z</time>
      </trkpt>
      <trkpt lat="44.08451" lon="7.00893">
        <ele>1642.55</ele>
        <time>2015-06-14T11:16:53Z</time>
      </trkpt>
      <trkpt lat="44.08452" lon="7.00892">
        <ele>1642.55</ele>
        <time>2015-06-14T11:16:54Z</time>
      </trkpt>
      <trkpt lat="44.08453" lon="7.00891">
        <ele>1642.55</ele>
        <time>2015-06-14T11:16:55Z</time>
      </trkpt>
      <trkpt lat="44.08464" lon="7.00883">
        <ele>1643.03</ele>
        <time>2015-06-14T11:17:09Z</time>
      </trkpt>
      <trkpt lat="44.08467" lon="7.00882">
        <ele>1643.99</ele>
        <time>2015-06-14T11:17:12Z</time>
      </trkpt>
      <trkpt lat="44.0847" lon="7.00881">
        <ele>1643.99</ele>
        <time>2015-06-14T11:17:14Z</time>
      </trkpt>
      <trkpt lat="44.08482" lon="7.00878">
        <ele>1645.91</ele>
        <time>2015-06-14T11:17:27Z</time>
      </trkpt>
      <trkpt lat="44.08489" lon="7.00884">
        <ele>1647.84</ele>
        <time>2015-06-14T11:17:37Z</time>
      </trkpt>
      <trkpt lat="44.0849" lon="7.00885">
        <ele>1647.84</ele>
        <time>2015-06-14T11:17:38Z</time>
      </trkpt>
      <trkpt lat="44.08491" lon="7.00889">
        <ele>1648.32</ele>
        <time>2015-06-14T11:17:41Z</time>
      </trkpt>
      <trkpt lat="44.0849" lon="7.00892">
        <ele>1648.32</ele>
        <time>2015-06-14T11:17:43Z</time>
      </trkpt>
      <trkpt lat="44.08488" lon="7.00897">
        <ele>1648.8</ele>
        <time>2015-06-14T11:17:47Z</time>
      </trkpt>
      <trkpt lat="44.08487" lon="7.00898">
        <ele>1648.8</ele>
        <time>2015-06-14T11:17:48Z</time>
      </trkpt>
      <trkpt lat="44.08486" lon="7.00898">
        <ele>1649.28</ele>
        <time>2015-06-14T11:17:49Z</time>
      </trkpt>
      <trkpt lat="44.0848" lon="7.00905">
        <ele>1649.76</ele>
        <time>2015-06-14T11:17:57Z</time>
      </trkpt>
      <trkpt lat="44.08473" lon="7.00917">
        <ele>1650.72</ele>
        <time>2015-06-14T11:18:08Z</time>
      </trkpt>
      <trkpt lat="44.08469" lon="7.00922">
        <ele>1650.72</ele>
        <time>2015-06-14T11:18:13Z</time>
      </trkpt>
      <trkpt lat="44.08457" lon="7.0094">
        <ele>1652.16</ele>
        <time>2015-06-14T11:18:28Z</time>
      </trkpt>
      <trkpt lat="44.08457" lon="7.00941">
        <ele>1652.64</ele>
        <time>2015-06-14T11:18:29Z</time>
      </trkpt>
      <trkpt lat="44.08456" lon="7.00942">
        <ele>1652.64</ele>
        <time>2015-06-14T11:18:30Z</time>
      </trkpt>
      <trkpt lat="44.08455" lon="7.00944">
        <ele>1652.64</ele>
        <time>2015-06-14T11:18:31Z</time>
      </trkpt>
      <trkpt lat="44.08455" lon="7.00945">
        <ele>1652.64</ele>
        <time>2015-06-14T11:18:32Z</time>
      </trkpt>
      <trkpt lat="44.08454" lon="7.00946">
        <ele>1652.64</ele>
        <time>2015-06-14T11:18:33Z</time>
      </trkpt>
      <trkpt lat="44.08453" lon="7.00946">
        <ele>1652.64</ele>
        <time>2015-06-14T11:18:34Z</time>
      </trkpt>
      <trkpt lat="44.08448" lon="7.00952">
        <ele>1653.12</ele>
        <time>2015-06-14T11:18:39Z</time>
      </trkpt>
      <trkpt lat="44.08437" lon="7.00962">
        <ele>1653.6</ele>
        <time>2015-06-14T11:18:51Z</time>
      </trkpt>
      <trkpt lat="44.08433" lon="7.00966">
        <ele>1654.09</ele>
        <time>2015-06-14T11:19:03Z</time>
      </trkpt>
      <trkpt lat="44.08421" lon="7.00969">
        <ele>1655.05</ele>
        <time>2015-06-14T11:19:14Z</time>
      </trkpt>
      <trkpt lat="44.08418" lon="7.00971">
        <ele>1655.05</ele>
        <time>2015-06-14T11:19:16Z</time>
      </trkpt>
      <trkpt lat="44.08404" lon="7.00974">
        <ele>1655.53</ele>
        <time>2015-06-14T11:19:25Z</time>
      </trkpt>
      <trkpt lat="44.08401" lon="7.00975">
        <ele>1656.01</ele>
        <time>2015-06-14T11:19:26Z</time>
      </trkpt>
      <trkpt lat="44.08382" lon="7.00975">
        <ele>1657.45</ele>
        <time>2015-06-14T11:19:39Z</time>
      </trkpt>
      <trkpt lat="44.08365" lon="7.00983">
        <ele>1657.93</ele>
        <time>2015-06-14T11:19:51Z</time>
      </trkpt>
      <trkpt lat="44.08364" lon="7.00983">
        <ele>1657.93</ele>
        <time>2015-06-14T11:19:52Z</time>
      </trkpt>
      <trkpt lat="44.08362" lon="7.00983">
        <ele>1658.41</ele>
        <time>2015-06-14T11:19:53Z</time>
      </trkpt>
      <trkpt lat="44.08356" lon="7.00987">
        <ele>1658.89</ele>
        <time>2015-06-14T11:19:58Z</time>
      </trkpt>
      <trkpt lat="44.08355" lon="7.00987">
        <ele>1658.89</ele>
        <time>2015-06-14T11:19:59Z</time>
      </trkpt>
      <trkpt lat="44.08336" lon="7.01">
        <ele>1659.85</ele>
        <time>2015-06-14T11:20:16Z</time>
      </trkpt>
      <trkpt lat="44.08322" lon="7.01018">
        <ele>1661.3</ele>
        <time>2015-06-14T11:20:31Z</time>
      </trkpt>
      <trkpt lat="44.08317" lon="7.01028">
        <ele>1662.74</ele>
        <time>2015-06-14T11:20:39Z</time>
      </trkpt>
      <trkpt lat="44.08318" lon="7.01029">
        <ele>1662.74</ele>
        <time>2015-06-14T11:20:40Z</time>
      </trkpt>
      <trkpt lat="44.08318" lon="7.0103">
        <ele>1662.74</ele>
        <time>2015-06-14T11:20:41Z</time>
      </trkpt>
      <trkpt lat="44.0832" lon="7.01031">
        <ele>1663.22</ele>
        <time>2015-06-14T11:20:43Z</time>
      </trkpt>
      <trkpt lat="44.08321" lon="7.01031">
        <ele>1663.22</ele>
        <time>2015-06-14T11:20:44Z</time>
      </trkpt>
      <trkpt lat="44.08323" lon="7.01031">
        <ele>1663.7</ele>
        <time>2015-06-14T11:20:45Z</time>
      </trkpt>
      <trkpt lat="44.08324" lon="7.0103">
        <ele>1663.22</ele>
        <time>2015-06-14T11:20:46Z</time>
      </trkpt>
      <trkpt lat="44.08325" lon="7.01029">
        <ele>1663.7</ele>
        <time>2015-06-14T11:20:47Z</time>
      </trkpt>
      <trkpt lat="44.08335" lon="7.01023">
        <ele>1664.66</ele>
        <time>2015-06-14T11:20:57Z</time>
      </trkpt>
      <trkpt lat="44.08353" lon="7.01017">
        <ele>1666.1</ele>
        <time>2015-06-14T11:21:12Z</time>
      </trkpt>
      <trkpt lat="44.08374" lon="7.01009">
        <ele>1667.06</ele>
        <time>2015-06-14T11:21:29Z</time>
      </trkpt>
      <trkpt lat="44.08393" lon="7.01006">
        <ele>1667.54</ele>
        <time>2015-06-14T11:21:45Z</time>
      </trkpt>
      <trkpt lat="44.0841" lon="7.01005">
        <ele>1667.54</ele>
        <time>2015-06-14T11:22:00Z</time>
      </trkpt>
      <trkpt lat="44.08422" lon="7.01003">
        <ele>1668.99</ele>
        <time>2015-06-14T11:22:11Z</time>
      </trkpt>
      <trkpt lat="44.08436" lon="7.00996">
        <ele>1670.43</ele>
        <time>2015-06-14T11:22:23Z</time>
      </trkpt>
      <trkpt lat="44.08449" lon="7.00985">
        <ele>1670.91</ele>
        <time>2015-06-14T11:22:36Z</time>
      </trkpt>
      <trkpt lat="44.08467" lon="7.00976">
        <ele>1672.35</ele>
        <time>2015-06-14T11:22:53Z</time>
      </trkpt>
      <trkpt lat="44.08477" lon="7.00976">
        <ele>1673.31</ele>
        <time>2015-06-14T11:23:03Z</time>
      </trkpt>
      <trkpt lat="44.08476" lon="7.00981">
        <ele>1673.79</ele>
        <time>2015-06-14T11:23:07Z</time>
      </trkpt>
      <trkpt lat="44.08467" lon="7.0099">
        <ele>1675.72</ele>
        <time>2015-06-14T11:23:19Z</time>
      </trkpt>
      <trkpt lat="44.08466" lon="7.00991">
        <ele>1675.72</ele>
        <time>2015-06-14T11:23:20Z</time>
      </trkpt>
      <trkpt lat="44.08455" lon="7.01003">
        <ele>1676.68</ele>
        <time>2015-06-14T11:23:33Z</time>
      </trkpt>
      <trkpt lat="44.08454" lon="7.01006">
        <ele>1676.68</ele>
        <time>2015-06-14T11:23:36Z</time>
      </trkpt>
      <trkpt lat="44.08453" lon="7.01008">
        <ele>1676.68</ele>
        <time>2015-06-14T11:23:37Z</time>
      </trkpt>
      <trkpt lat="44.08453" lon="7.01009">
        <ele>1676.68</ele>
        <time>2015-06-14T11:23:38Z</time>
      </trkpt>
      <trkpt lat="44.08443" lon="7.01025">
        <ele>1678.12</ele>
        <time>2015-06-14T11:23:51Z</time>
      </trkpt>
      <trkpt lat="44.08437" lon="7.0104">
        <ele>1680.04</ele>
        <time>2015-06-14T11:24:03Z</time>
      </trkpt>
      <trkpt lat="44.0843" lon="7.01057">
        <ele>1681.48</ele>
        <time>2015-06-14T11:24:19Z</time>
      </trkpt>
      <trkpt lat="44.08427" lon="7.01059">
        <ele>1681.96</ele>
        <time>2015-06-14T11:24:24Z</time>
      </trkpt>
      <trkpt lat="44.08413" lon="7.01065">
        <ele>1682.93</ele>
        <time>2015-06-14T11:24:37Z</time>
      </trkpt>
      <trkpt lat="44.08396" lon="7.01072">
        <ele>1684.37</ele>
        <time>2015-06-14T11:24:52Z</time>
      </trkpt>
      <trkpt lat="44.08386" lon="7.01079">
        <ele>1685.33</ele>
        <time>2015-06-14T11:25:02Z</time>
      </trkpt>
      <trkpt lat="44.08385" lon="7.0108">
        <ele>1685.33</ele>
        <time>2015-06-14T11:25:03Z</time>
      </trkpt>
      <trkpt lat="44.08384" lon="7.01081">
        <ele>1685.81</ele>
        <time>2015-06-14T11:25:04Z</time>
      </trkpt>
      <trkpt lat="44.0837" lon="7.01093">
        <ele>1686.29</ele>
        <time>2015-06-14T11:25:18Z</time>
      </trkpt>
      <trkpt lat="44.08358" lon="7.0111">
        <ele>1687.73</ele>
        <time>2015-06-14T11:25:33Z</time>
      </trkpt>
      <trkpt lat="44.0835" lon="7.01129">
        <ele>1689.65</ele>
        <time>2015-06-14T11:25:47Z</time>
      </trkpt>
      <trkpt lat="44.08342" lon="7.01151">
        <ele>1691.1</ele>
        <time>2015-06-14T11:26:02Z</time>
      </trkpt>
      <trkpt lat="44.08338" lon="7.01178">
        <ele>1692.54</ele>
        <time>2015-06-14T11:26:19Z</time>
      </trkpt>
      <trkpt lat="44.08338" lon="7.01179">
        <ele>1693.02</ele>
        <time>2015-06-14T11:26:20Z</time>
      </trkpt>
      <trkpt lat="44.08337" lon="7.01181">
        <ele>1693.02</ele>
        <time>2015-06-14T11:26:21Z</time>
      </trkpt>
      <trkpt lat="44.08338" lon="7.01182">
        <ele>1693.02</ele>
        <time>2015-06-14T11:26:22Z</time>
      </trkpt>
      <trkpt lat="44.08337" lon="7.01184">
        <ele>1693.02</ele>
        <time>2015-06-14T11:26:23Z</time>
      </trkpt>
      <trkpt lat="44.08337" lon="7.01186">
        <ele>1693.02</ele>
        <time>2015-06-14T11:26:24Z</time>
      </trkpt>
      <trkpt lat="44.08337" lon="7.01187">
        <ele>1693.98</ele>
        <time>2015-06-14T11:26:25Z</time>
      </trkpt>
      <trkpt lat="44.08337" lon="7.01189">
        <ele>1693.98</ele>
        <time>2015-06-14T11:26:26Z</time>
      </trkpt>
      <trkpt lat="44.08334" lon="7.01213">
        <ele>1695.42</ele>
        <time>2015-06-14T11:26:42Z</time>
      </trkpt>
      <trkpt lat="44.08334" lon="7.01237">
        <ele>1697.34</ele>
        <time>2015-06-14T11:26:58Z</time>
      </trkpt>
      <trkpt lat="44.08336" lon="7.01238">
        <ele>1697.34</ele>
        <time>2015-06-14T11:27:00Z</time>
      </trkpt>
      <trkpt lat="44.08337" lon="7.01237">
        <ele>1696.86</ele>
        <time>2015-06-14T11:27:01Z</time>
      </trkpt>
      <trkpt lat="44.08338" lon="7.01236">
        <ele>1697.83</ele>
        <time>2015-06-14T11:27:02Z</time>
      </trkpt>
      <trkpt lat="44.08338" lon="7.01234">
        <ele>1697.83</ele>
        <time>2015-06-14T11:27:03Z</time>
      </trkpt>
      <trkpt lat="44.08339" lon="7.01233">
        <ele>1697.83</ele>
        <time>2015-06-14T11:27:04Z</time>
      </trkpt>
      <trkpt lat="44.08344" lon="7.01209">
        <ele>1698.79</ele>
        <time>2015-06-14T11:27:19Z</time>
      </trkpt>
      <trkpt lat="44.08355" lon="7.0119">
        <ele>1700.71</ele>
        <time>2015-06-14T11:27:34Z</time>
      </trkpt>
      <trkpt lat="44.08368" lon="7.01179">
        <ele>1701.67</ele>
        <time>2015-06-14T11:27:48Z</time>
      </trkpt>
      <trkpt lat="44.08384" lon="7.01173">
        <ele>1702.63</ele>
        <time>2015-06-14T11:28:02Z</time>
      </trkpt>
      <trkpt lat="44.08386" lon="7.01175">
        <ele>1703.11</ele>
        <time>2015-06-14T11:28:05Z</time>
      </trkpt>
      <trkpt lat="44.08387" lon="7.01177">
        <ele>1703.11</ele>
        <time>2015-06-14T11:28:06Z</time>
      </trkpt>
      <trkpt lat="44.08387" lon="7.01178">
        <ele>1704.07</ele>
        <time>2015-06-14T11:28:07Z</time>
      </trkpt>
      <trkpt lat="44.08387" lon="7.0118">
        <ele>1704.07</ele>
        <time>2015-06-14T11:28:08Z</time>
      </trkpt>
      <trkpt lat="44.08387" lon="7.01181">
        <ele>1704.07</ele>
        <time>2015-06-14T11:28:09Z</time>
      </trkpt>
      <trkpt lat="44.08387" lon="7.01183">
        <ele>1704.07</ele>
        <time>2015-06-14T11:28:10Z</time>
      </trkpt>
      <trkpt lat="44.08386" lon="7.01184">
        <ele>1704.07</ele>
        <time>2015-06-14T11:28:11Z</time>
      </trkpt>
      <trkpt lat="44.08382" lon="7.01192">
        <ele>1704.55</ele>
        <time>2015-06-14T11:28:18Z</time>
      </trkpt>
      <trkpt lat="44.08377" lon="7.01196">
        <ele>1705.04</ele>
        <time>2015-06-14T11:28:23Z</time>
      </trkpt>
      <trkpt lat="44.08371" lon="7.01203">
        <ele>1706</ele>
        <time>2015-06-14T11:28:30Z</time>
      </trkpt>
      <trkpt lat="44.08371" lon="7.01204">
        <ele>1706</ele>
        <time>2015-06-14T11:28:31Z</time>
      </trkpt>
      <trkpt lat="44.08363" lon="7.01227">
        <ele>1706.96</ele>
        <time>2015-06-14T11:28:45Z</time>
      </trkpt>
      <trkpt lat="44.08361" lon="7.01255">
        <ele>1708.4</ele>
        <time>2015-06-14T11:29:02Z</time>
      </trkpt>
      <trkpt lat="44.08366" lon="7.01282">
        <ele>1709.36</ele>
        <time>2015-06-14T11:29:18Z</time>
      </trkpt>
      <trkpt lat="44.08373" lon="7.01302">
        <ele>1711.28</ele>
        <time>2015-06-14T11:29:31Z</time>
      </trkpt>
      <trkpt lat="44.08385" lon="7.0132">
        <ele>1712.73</ele>
        <time>2015-06-14T11:29:47Z</time>
      </trkpt>
      <trkpt lat="44.08393" lon="7.01338">
        <ele>1714.17</ele>
        <time>2015-06-14T11:30:00Z</time>
      </trkpt>
      <trkpt lat="44.08395" lon="7.01362">
        <ele>1715.13</ele>
        <time>2015-06-14T11:30:15Z</time>
      </trkpt>
      <trkpt lat="44.08397" lon="7.01386">
        <ele>1716.09</ele>
        <time>2015-06-14T11:30:30Z</time>
      </trkpt>
      <trkpt lat="44.08402" lon="7.01412">
        <ele>1717.05</ele>
        <time>2015-06-14T11:30:46Z</time>
      </trkpt>
      <trkpt lat="44.08407" lon="7.01432">
        <ele>1718.01</ele>
        <time>2015-06-14T11:30:59Z</time>
      </trkpt>
      <trkpt lat="44.08419" lon="7.0145">
        <ele>1719.94</ele>
        <time>2015-06-14T11:31:14Z</time>
      </trkpt>
      <trkpt lat="44.08431" lon="7.01463">
        <ele>1720.9</ele>
        <time>2015-06-14T11:31:26Z</time>
      </trkpt>
      <trkpt lat="44.0845" lon="7.01482">
        <ele>1721.38</ele>
        <time>2015-06-14T11:31:43Z</time>
      </trkpt>
      <trkpt lat="44.0847" lon="7.01486">
        <ele>1722.34</ele>
        <time>2015-06-14T11:31:59Z</time>
      </trkpt>
      <trkpt lat="44.08488" lon="7.01486">
        <ele>1723.78</ele>
        <time>2015-06-14T11:32:13Z</time>
      </trkpt>
      <trkpt lat="44.08507" lon="7.01487">
        <ele>1724.74</ele>
        <time>2015-06-14T11:32:29Z</time>
      </trkpt>
      <trkpt lat="44.08508" lon="7.01486">
        <ele>1725.22</ele>
        <time>2015-06-14T11:32:30Z</time>
      </trkpt>
      <trkpt lat="44.08512" lon="7.01479">
        <ele>1726.67</ele>
        <time>2015-06-14T11:32:38Z</time>
      </trkpt>
      <trkpt lat="44.08502" lon="7.01463">
        <ele>1728.11</ele>
        <time>2015-06-14T11:32:52Z</time>
      </trkpt>
      <trkpt lat="44.08486" lon="7.01457">
        <ele>1729.55</ele>
        <time>2015-06-14T11:33:07Z</time>
      </trkpt>
      <trkpt lat="44.08471" lon="7.01443">
        <ele>1730.99</ele>
        <time>2015-06-14T11:33:23Z</time>
      </trkpt>
      <trkpt lat="44.08464" lon="7.01426">
        <ele>1732.43</ele>
        <time>2015-06-14T11:33:37Z</time>
      </trkpt>
      <trkpt lat="44.08466" lon="7.01407">
        <ele>1733.88</ele>
        <time>2015-06-14T11:33:50Z</time>
      </trkpt>
      <trkpt lat="44.08467" lon="7.01402">
        <ele>1734.84</ele>
        <time>2015-06-14T11:33:54Z</time>
      </trkpt>
      <trkpt lat="44.08478" lon="7.01389">
        <ele>1734.84</ele>
        <time>2015-06-14T11:34:08Z</time>
      </trkpt>
      <trkpt lat="44.08497" lon="7.01381">
        <ele>1735.8</ele>
        <time>2015-06-14T11:34:25Z</time>
      </trkpt>
      <trkpt lat="44.08513" lon="7.01385">
        <ele>1737.72</ele>
        <time>2015-06-14T11:34:40Z</time>
      </trkpt>
      <trkpt lat="44.08525" lon="7.0139">
        <ele>1738.68</ele>
        <time>2015-06-14T11:34:52Z</time>
      </trkpt>
      <trkpt lat="44.08529" lon="7.01392">
        <ele>1739.64</ele>
        <time>2015-06-14T11:34:56Z</time>
      </trkpt>
      <trkpt lat="44.0853" lon="7.01392">
        <ele>1739.64</ele>
        <time>2015-06-14T11:34:57Z</time>
      </trkpt>
      <trkpt lat="44.08533" lon="7.01393">
        <ele>1740.6</ele>
        <time>2015-06-14T11:35:10Z</time>
      </trkpt>
      <trkpt lat="44.08534" lon="7.01396">
        <ele>1741.08</ele>
        <time>2015-06-14T11:35:29Z</time>
      </trkpt>
      <trkpt lat="44.08537" lon="7.01396">
        <ele>1741.08</ele>
        <time>2015-06-14T11:35:37Z</time>
      </trkpt>
      <trkpt lat="44.08539" lon="7.01396">
        <ele>1741.08</ele>
        <time>2015-06-14T11:35:39Z</time>
      </trkpt>
      <trkpt lat="44.08544" lon="7.01397">
        <ele>1742.53</ele>
        <time>2015-06-14T11:35:44Z</time>
      </trkpt>
      <trkpt lat="44.08545" lon="7.01398">
        <ele>1742.53</ele>
        <time>2015-06-14T11:35:45Z</time>
      </trkpt>
      <trkpt lat="44.08556" lon="7.01401">
        <ele>1743.97</ele>
        <time>2015-06-14T11:35:59Z</time>
      </trkpt>
      <trkpt lat="44.0856" lon="7.01402">
        <ele>1744.45</ele>
        <time>2015-06-14T11:36:03Z</time>
      </trkpt>
      <trkpt lat="44.08573" lon="7.01406">
        <ele>1746.85</ele>
        <time>2015-06-14T11:36:16Z</time>
      </trkpt>
      <trkpt lat="44.08589" lon="7.0141">
        <ele>1748.78</ele>
        <time>2015-06-14T11:36:31Z</time>
      </trkpt>
      <trkpt lat="44.08603" lon="7.01418">
        <ele>1751.18</ele>
        <time>2015-06-14T11:36:46Z</time>
      </trkpt>
      <trkpt lat="44.08608" lon="7.01422">
        <ele>1751.18</ele>
        <time>2015-06-14T11:36:52Z</time>
      </trkpt>
      <trkpt lat="44.08617" lon="7.01431">
        <ele>1754.06</ele>
        <time>2015-06-14T11:37:06Z</time>
      </trkpt>
      <trkpt lat="44.08625" lon="7.01442">
        <ele>1755.5</ele>
        <time>2015-06-14T11:37:20Z</time>
      </trkpt>
      <trkpt lat="44.08634" lon="7.01457">
        <ele>1756.95</ele>
        <time>2015-06-14T11:37:34Z</time>
      </trkpt>
      <trkpt lat="44.08638" lon="7.01472">
        <ele>1758.39</ele>
        <time>2015-06-14T11:37:48Z</time>
      </trkpt>
      <trkpt lat="44.08638" lon="7.01479">
        <ele>1759.35</ele>
        <time>2015-06-14T11:37:54Z</time>
      </trkpt>
      <trkpt lat="44.08638" lon="7.01481">
        <ele>1759.35</ele>
        <time>2015-06-14T11:37:55Z</time>
      </trkpt>
      <trkpt lat="44.08633" lon="7.01497">
        <ele>1760.31</ele>
        <time>2015-06-14T11:38:04Z</time>
      </trkpt>
      <trkpt lat="44.08614" lon="7.01555">
        <ele>1760.79</ele>
        <time>2015-06-14T11:38:24Z</time>
      </trkpt>
      <trkpt lat="44.08603" lon="7.01591">
        <ele>1761.75</ele>
        <time>2015-06-14T11:38:39Z</time>
      </trkpt>
      <trkpt lat="44.08586" lon="7.01628">
        <ele>1763.2</ele>
        <time>2015-06-14T11:38:56Z</time>
      </trkpt>
      <trkpt lat="44.08577" lon="7.0167">
        <ele>1764.64</ele>
        <time>2015-06-14T11:39:14Z</time>
      </trkpt>
      <trkpt lat="44.08574" lon="7.01706">
        <ele>1766.56</ele>
        <time>2015-06-14T11:39:31Z</time>
      </trkpt>
      <trkpt lat="44.08575" lon="7.01734">
        <ele>1768</ele>
        <time>2015-06-14T11:39:44Z</time>
      </trkpt>
      <trkpt lat="44.08581" lon="7.01773">
        <ele>1770.41</ele>
        <time>2015-06-14T11:40:01Z</time>
      </trkpt>
      <trkpt lat="44.08594" lon="7.01804">
        <ele>1771.85</ele>
        <time>2015-06-14T11:40:17Z</time>
      </trkpt>
      <trkpt lat="44.08614" lon="7.0182">
        <ele>1774.25</ele>
        <time>2015-06-14T11:40:32Z</time>
      </trkpt>
      <trkpt lat="44.0863" lon="7.01827">
        <ele>1775.69</ele>
        <time>2015-06-14T11:40:46Z</time>
      </trkpt>
      <trkpt lat="44.08644" lon="7.01832">
        <ele>1776.17</ele>
        <time>2015-06-14T11:41:00Z</time>
      </trkpt>
      <trkpt lat="44.08661" lon="7.01837">
        <ele>1778.1</ele>
        <time>2015-06-14T11:41:16Z</time>
      </trkpt>
      <trkpt lat="44.0868" lon="7.01841">
        <ele>1779.06</ele>
        <time>2015-06-14T11:41:32Z</time>
      </trkpt>
      <trkpt lat="44.08702" lon="7.01848">
        <ele>1780.5</ele>
        <time>2015-06-14T11:41:51Z</time>
      </trkpt>
      <trkpt lat="44.08719" lon="7.01855">
        <ele>1781.94</ele>
        <time>2015-06-14T11:42:07Z</time>
      </trkpt>
      <trkpt lat="44.08735" lon="7.01861">
        <ele>1782.9</ele>
        <time>2015-06-14T11:42:21Z</time>
      </trkpt>
      <trkpt lat="44.08752" lon="7.01862">
        <ele>1783.86</ele>
        <time>2015-06-14T11:42:36Z</time>
      </trkpt>
      <trkpt lat="44.08763" lon="7.01858">
        <ele>1787.23</ele>
        <time>2015-06-14T11:42:52Z</time>
      </trkpt>
      <trkpt lat="44.08768" lon="7.01853">
        <ele>1789.15</ele>
        <time>2015-06-14T11:43:00Z</time>
      </trkpt>
      <trkpt lat="44.08772" lon="7.0185">
        <ele>1789.63</ele>
        <time>2015-06-14T11:43:06Z</time>
      </trkpt>
      <trkpt lat="44.08786" lon="7.01845">
        <ele>1791.07</ele>
        <time>2015-06-14T11:43:21Z</time>
      </trkpt>
      <trkpt lat="44.08803" lon="7.0184">
        <ele>1792.52</ele>
        <time>2015-06-14T11:43:38Z</time>
      </trkpt>
      <trkpt lat="44.08815" lon="7.01835">
        <ele>1794.44</ele>
        <time>2015-06-14T11:43:50Z</time>
      </trkpt>
      <trkpt lat="44.0883" lon="7.01832">
        <ele>1796.36</ele>
        <time>2015-06-14T11:44:07Z</time>
      </trkpt>
      <trkpt lat="44.08846" lon="7.01828">
        <ele>1798.76</ele>
        <time>2015-06-14T11:44:23Z</time>
      </trkpt>
      <trkpt lat="44.0886" lon="7.01827">
        <ele>1800.21</ele>
        <time>2015-06-14T11:44:39Z</time>
      </trkpt>
      <trkpt lat="44.08872" lon="7.01827">
        <ele>1802.13</ele>
        <time>2015-06-14T11:44:53Z</time>
      </trkpt>
      <trkpt lat="44.0888" lon="7.01828">
        <ele>1804.05</ele>
        <time>2015-06-14T11:45:07Z</time>
      </trkpt>
      <trkpt lat="44.08891" lon="7.0183">
        <ele>1805.97</ele>
        <time>2015-06-14T11:45:22Z</time>
      </trkpt>
      <trkpt lat="44.08903" lon="7.01834">
        <ele>1808.38</ele>
        <time>2015-06-14T11:45:37Z</time>
      </trkpt>
      <trkpt lat="44.08916" lon="7.0184">
        <ele>1810.78</ele>
        <time>2015-06-14T11:45:53Z</time>
      </trkpt>
      <trkpt lat="44.08929" lon="7.01843">
        <ele>1812.22</ele>
        <time>2015-06-14T11:46:07Z</time>
      </trkpt>
      <trkpt lat="44.08938" lon="7.01846">
        <ele>1813.66</ele>
        <time>2015-06-14T11:46:16Z</time>
      </trkpt>
      <trkpt lat="44.0895" lon="7.01854">
        <ele>1816.55</ele>
        <time>2015-06-14T11:46:32Z</time>
      </trkpt>
      <trkpt lat="44.08952" lon="7.01856">
        <ele>1817.03</ele>
        <time>2015-06-14T11:46:35Z</time>
      </trkpt>
      <trkpt lat="44.08954" lon="7.01857">
        <ele>1817.03</ele>
        <time>2015-06-14T11:46:37Z</time>
      </trkpt>
      <trkpt lat="44.08965" lon="7.01865">
        <ele>1819.43</ele>
        <time>2015-06-14T11:46:53Z</time>
      </trkpt>
      <trkpt lat="44.08972" lon="7.0187">
        <ele>1821.84</ele>
        <time>2015-06-14T11:47:04Z</time>
      </trkpt>
      <trkpt lat="44.08987" lon="7.01879">
        <ele>1823.76</ele>
        <time>2015-06-14T11:47:19Z</time>
      </trkpt>
      <trkpt lat="44.09002" lon="7.01888">
        <ele>1824.72</ele>
        <time>2015-06-14T11:47:34Z</time>
      </trkpt>
      <trkpt lat="44.09016" lon="7.01901">
        <ele>1825.2</ele>
        <time>2015-06-14T11:47:49Z</time>
      </trkpt>
      <trkpt lat="44.09017" lon="7.01903">
        <ele>1825.2</ele>
        <time>2015-06-14T11:47:50Z</time>
      </trkpt>
      <trkpt lat="44.09008" lon="7.0193">
        <ele>1826.16</ele>
        <time>2015-06-14T11:48:08Z</time>
      </trkpt>
      <trkpt lat="44.09" lon="7.01954">
        <ele>1826.16</ele>
        <time>2015-06-14T11:48:25Z</time>
      </trkpt>
      <trkpt lat="44.08998" lon="7.01963">
        <ele>1827.12</ele>
        <time>2015-06-14T11:48:39Z</time>
      </trkpt>
      <trkpt lat="44.08995" lon="7.01969">
        <ele>1827.12</ele>
        <time>2015-06-14T11:48:50Z</time>
      </trkpt>
      <trkpt lat="44.08984" lon="7.01993">
        <ele>1827.6</ele>
        <time>2015-06-14T11:49:07Z</time>
      </trkpt>
      <trkpt lat="44.08981" lon="7.02001">
        <ele>1828.56</ele>
        <time>2015-06-14T11:49:20Z</time>
      </trkpt>
      <trkpt lat="44.08979" lon="7.02003">
        <ele>1829.05</ele>
        <time>2015-06-14T11:49:33Z</time>
      </trkpt>
      <trkpt lat="44.0898" lon="7.02002">
        <ele>1829.05</ele>
        <time>2015-06-14T11:49:54Z</time>
      </trkpt>
      <trkpt lat="44.0898" lon="7.02001">
        <ele>1829.05</ele>
        <time>2015-06-14T11:50:10Z</time>
      </trkpt>
      <trkpt lat="44.08981" lon="7.02001">
        <ele>1829.05</ele>
        <time>2015-06-14T11:50:26Z</time>
      </trkpt>
      <trkpt lat="44.08981" lon="7.02002">
        <ele>1829.05</ele>
        <time>2015-06-14T11:50:47Z</time>
      </trkpt>
      <trkpt lat="44.08981" lon="7.02001">
        <ele>1829.05</ele>
        <time>2015-06-14T11:51:07Z</time>
      </trkpt>
      <trkpt lat="44.08981" lon="7.02">
        <ele>1829.05</ele>
        <time>2015-06-14T11:51:21Z</time>
      </trkpt>
      <trkpt lat="44.08983" lon="7.02">
        <ele>1829.53</ele>
        <time>2015-06-14T11:51:40Z</time>
      </trkpt>
      <trkpt lat="44.0898" lon="7.02006">
        <ele>1829.53</ele>
        <time>2015-06-14T11:51:52Z</time>
      </trkpt>
      <trkpt lat="44.08978" lon="7.02013">
        <ele>1830.01</ele>
        <time>2015-06-14T11:52:07Z</time>
      </trkpt>
      <trkpt lat="44.08975" lon="7.02024">
        <ele>1831.45</ele>
        <time>2015-06-14T11:52:09Z</time>
      </trkpt>
      <trkpt lat="44.08988" lon="7.02047">
        <ele>1826.64</ele>
        <time>2015-06-14T11:52:13Z</time>
      </trkpt>
      <trkpt lat="44.08994" lon="7.02068">
        <ele>1824.72</ele>
        <time>2015-06-14T11:52:16Z</time>
      </trkpt>
      <trkpt lat="44.09009" lon="7.02105">
        <ele>1818.95</ele>
        <time>2015-06-14T11:52:21Z</time>
      </trkpt>
      <trkpt lat="44.09012" lon="7.02115">
        <ele>1816.55</ele>
        <time>2015-06-14T11:52:22Z</time>
      </trkpt>
      <trkpt lat="44.09014" lon="7.02137">
        <ele>1815.59</ele>
        <time>2015-06-14T11:52:24Z</time>
      </trkpt>
      <trkpt lat="44.08998" lon="7.02177">
        <ele>1812.7</ele>
        <time>2015-06-14T11:52:29Z</time>
      </trkpt>
      <trkpt lat="44.08993" lon="7.02178">
        <ele>1812.22</ele>
        <time>2015-06-14T11:52:30Z</time>
      </trkpt>
      <trkpt lat="44.08954" lon="7.02201">
        <ele>1811.26</ele>
        <time>2015-06-14T11:52:37Z</time>
      </trkpt>
      <trkpt lat="44.08944" lon="7.0222">
        <ele>1805.01</ele>
        <time>2015-06-14T11:52:40Z</time>
      </trkpt>
      <trkpt lat="44.08945" lon="7.02227">
        <ele>1804.05</ele>
        <time>2015-06-14T11:52:41Z</time>
      </trkpt>
      <trkpt lat="44.08948" lon="7.02234">
        <ele>1804.05</ele>
        <time>2015-06-14T11:52:42Z</time>
      </trkpt>
      <trkpt lat="44.08948" lon="7.0225">
        <ele>1801.17</ele>
        <time>2015-06-14T11:52:44Z</time>
      </trkpt>
      <trkpt lat="44.08939" lon="7.0226">
        <ele>1797.8</ele>
        <time>2015-06-14T11:52:46Z</time>
      </trkpt>
      <trkpt lat="44.08933" lon="7.02262">
        <ele>1796.84</ele>
        <time>2015-06-14T11:52:47Z</time>
      </trkpt>
      <trkpt lat="44.08911" lon="7.02263">
        <ele>1794.92</ele>
        <time>2015-06-14T11:52:50Z</time>
      </trkpt>
      <trkpt lat="44.08894" lon="7.02266">
        <ele>1793.96</ele>
        <time>2015-06-14T11:52:52Z</time>
      </trkpt>
      <trkpt lat="44.08873" lon="7.02286">
        <ele>1789.63</ele>
        <time>2015-06-14T11:52:55Z</time>
      </trkpt>
      <trkpt lat="44.08864" lon="7.02297">
        <ele>1787.71</ele>
        <time>2015-06-14T11:52:57Z</time>
      </trkpt>
      <trkpt lat="44.08835" lon="7.02296">
        <ele>1785.79</ele>
        <time>2015-06-14T11:53:01Z</time>
      </trkpt>
      <trkpt lat="44.08816" lon="7.02271">
        <ele>1784.82</ele>
        <time>2015-06-14T11:53:05Z</time>
      </trkpt>
      <trkpt lat="44.08807" lon="7.02252">
        <ele>1786.27</ele>
        <time>2015-06-14T11:53:08Z</time>
      </trkpt>
      <trkpt lat="44.08798" lon="7.02236">
        <ele>1786.75</ele>
        <time>2015-06-14T11:53:11Z</time>
      </trkpt>
      <trkpt lat="44.08786" lon="7.0222">
        <ele>1787.23</ele>
        <time>2015-06-14T11:53:15Z</time>
      </trkpt>
      <trkpt lat="44.08776" lon="7.02232">
        <ele>1785.79</ele>
        <time>2015-06-14T11:53:21Z</time>
      </trkpt>
      <trkpt lat="44.0878" lon="7.02241">
        <ele>1783.38</ele>
        <time>2015-06-14T11:53:23Z</time>
      </trkpt>
      <trkpt lat="44.08778" lon="7.02247">
        <ele>1783.38</ele>
        <time>2015-06-14T11:53:24Z</time>
      </trkpt>
      <trkpt lat="44.08774" lon="7.0225">
        <ele>1782.42</ele>
        <time>2015-06-14T11:53:25Z</time>
      </trkpt>
      <trkpt lat="44.08771" lon="7.02252">
        <ele>1780.98</ele>
        <time>2015-06-14T11:53:26Z</time>
      </trkpt>
      <trkpt lat="44.0877" lon="7.02255">
        <ele>1780.02</ele>
        <time>2015-06-14T11:53:27Z</time>
      </trkpt>
      <trkpt lat="44.08769" lon="7.02259">
        <ele>1780.02</ele>
        <time>2015-06-14T11:53:28Z</time>
      </trkpt>
      <trkpt lat="44.08768" lon="7.02263">
        <ele>1779.54</ele>
        <time>2015-06-14T11:53:29Z</time>
      </trkpt>
      <trkpt lat="44.08765" lon="7.02269">
        <ele>1779.06</ele>
        <time>2015-06-14T11:53:30Z</time>
      </trkpt>
      <trkpt lat="44.08762" lon="7.02276">
        <ele>1778.58</ele>
        <time>2015-06-14T11:53:31Z</time>
      </trkpt>
      <trkpt lat="44.08759" lon="7.02284">
        <ele>1778.58</ele>
        <time>2015-06-14T11:53:32Z</time>
      </trkpt>
      <trkpt lat="44.08757" lon="7.02291">
        <ele>1776.65</ele>
        <time>2015-06-14T11:53:33Z</time>
      </trkpt>
      <trkpt lat="44.08753" lon="7.02302">
        <ele>1772.81</ele>
        <time>2015-06-14T11:53:35Z</time>
      </trkpt>
      <trkpt lat="44.08748" lon="7.02309">
        <ele>1769.92</ele>
        <time>2015-06-14T11:53:37Z</time>
      </trkpt>
      <trkpt lat="44.08744" lon="7.02329">
        <ele>1764.16</ele>
        <time>2015-06-14T11:53:41Z</time>
      </trkpt>
      <trkpt lat="44.08733" lon="7.02357">
        <ele>1755.99</ele>
        <time>2015-06-14T11:53:46Z</time>
      </trkpt>
      <trkpt lat="44.08727" lon="7.02362">
        <ele>1754.06</ele>
        <time>2015-06-14T11:53:48Z</time>
      </trkpt>
      <trkpt lat="44.08724" lon="7.02366">
        <ele>1753.1</ele>
        <time>2015-06-14T11:53:49Z</time>
      </trkpt>
      <trkpt lat="44.0872" lon="7.02367">
        <ele>1751.66</ele>
        <time>2015-06-14T11:53:50Z</time>
      </trkpt>
      <trkpt lat="44.08716" lon="7.02368">
        <ele>1751.66</ele>
        <time>2015-06-14T11:53:51Z</time>
      </trkpt>
      <trkpt lat="44.08711" lon="7.02371">
        <ele>1751.66</ele>
        <time>2015-06-14T11:53:52Z</time>
      </trkpt>
      <trkpt lat="44.08706" lon="7.02375">
        <ele>1750.22</ele>
        <time>2015-06-14T11:53:53Z</time>
      </trkpt>
      <trkpt lat="44.08694" lon="7.024">
        <ele>1744.45</ele>
        <time>2015-06-14T11:53:57Z</time>
      </trkpt>
      <trkpt lat="44.08685" lon="7.02414">
        <ele>1741.57</ele>
        <time>2015-06-14T11:53:59Z</time>
      </trkpt>
      <trkpt lat="44.08681" lon="7.02422">
        <ele>1739.16</ele>
        <time>2015-06-14T11:54:00Z</time>
      </trkpt>
      <trkpt lat="44.0868" lon="7.02427">
        <ele>1737.24</ele>
        <time>2015-06-14T11:54:01Z</time>
      </trkpt>
      <trkpt lat="44.0868" lon="7.02433">
        <ele>1735.8</ele>
        <time>2015-06-14T11:54:02Z</time>
      </trkpt>
      <trkpt lat="44.0868" lon="7.0244">
        <ele>1734.36</ele>
        <time>2015-06-14T11:54:03Z</time>
      </trkpt>
      <trkpt lat="44.08678" lon="7.0245">
        <ele>1730.51</ele>
        <time>2015-06-14T11:54:05Z</time>
      </trkpt>
      <trkpt lat="44.08666" lon="7.02452">
        <ele>1729.07</ele>
        <time>2015-06-14T11:54:08Z</time>
      </trkpt>
      <trkpt lat="44.08645" lon="7.02457">
        <ele>1729.07</ele>
        <time>2015-06-14T11:54:12Z</time>
      </trkpt>
      <trkpt lat="44.08603" lon="7.02454">
        <ele>1726.67</ele>
        <time>2015-06-14T11:54:19Z</time>
      </trkpt>
      <trkpt lat="44.08597" lon="7.02455">
        <ele>1725.7</ele>
        <time>2015-06-14T11:54:20Z</time>
      </trkpt>
      <trkpt lat="44.08593" lon="7.02457">
        <ele>1724.26</ele>
        <time>2015-06-14T11:54:21Z</time>
      </trkpt>
      <trkpt lat="44.08584" lon="7.02467">
        <ele>1723.78</ele>
        <time>2015-06-14T11:54:23Z</time>
      </trkpt>
      <trkpt lat="44.08571" lon="7.02491">
        <ele>1720.9</ele>
        <time>2015-06-14T11:54:26Z</time>
      </trkpt>
      <trkpt lat="44.08566" lon="7.02511">
        <ele>1720.42</ele>
        <time>2015-06-14T11:54:28Z</time>
      </trkpt>
      <trkpt lat="44.08565" lon="7.0252">
        <ele>1719.94</ele>
        <time>2015-06-14T11:54:29Z</time>
      </trkpt>
      <trkpt lat="44.08552" lon="7.02551">
        <ele>1719.94</ele>
        <time>2015-06-14T11:54:33Z</time>
      </trkpt>
      <trkpt lat="44.08516" lon="7.02571">
        <ele>1719.94</ele>
        <time>2015-06-14T11:54:40Z</time>
      </trkpt>
      <trkpt lat="44.08478" lon="7.02593">
        <ele>1717.53</ele>
        <time>2015-06-14T11:54:46Z</time>
      </trkpt>
      <trkpt lat="44.08453" lon="7.02599">
        <ele>1717.53</ele>
        <time>2015-06-14T11:54:50Z</time>
      </trkpt>
      <trkpt lat="44.08448" lon="7.02598">
        <ele>1717.53</ele>
        <time>2015-06-14T11:54:51Z</time>
      </trkpt>
      <trkpt lat="44.08443" lon="7.02599">
        <ele>1717.53</ele>
        <time>2015-06-14T11:54:52Z</time>
      </trkpt>
      <trkpt lat="44.08439" lon="7.02603">
        <ele>1717.53</ele>
        <time>2015-06-14T11:54:53Z</time>
      </trkpt>
      <trkpt lat="44.08434" lon="7.02607">
        <ele>1717.05</ele>
        <time>2015-06-14T11:54:54Z</time>
      </trkpt>
      <trkpt lat="44.0843" lon="7.02611">
        <ele>1714.65</ele>
        <time>2015-06-14T11:54:55Z</time>
      </trkpt>
      <trkpt lat="44.08425" lon="7.02613">
        <ele>1713.69</ele>
        <time>2015-06-14T11:54:56Z</time>
      </trkpt>
      <trkpt lat="44.0842" lon="7.02614">
        <ele>1712.73</ele>
        <time>2015-06-14T11:54:57Z</time>
      </trkpt>
      <trkpt lat="44.08414" lon="7.02614">
        <ele>1713.21</ele>
        <time>2015-06-14T11:54:58Z</time>
      </trkpt>
      <trkpt lat="44.08408" lon="7.02614">
        <ele>1711.76</ele>
        <time>2015-06-14T11:54:59Z</time>
      </trkpt>
      <trkpt lat="44.08402" lon="7.02615">
        <ele>1711.76</ele>
        <time>2015-06-14T11:55:00Z</time>
      </trkpt>
      <trkpt lat="44.08396" lon="7.02618">
        <ele>1709.84</ele>
        <time>2015-06-14T11:55:01Z</time>
      </trkpt>
      <trkpt lat="44.08391" lon="7.02623">
        <ele>1709.84</ele>
        <time>2015-06-14T11:55:02Z</time>
      </trkpt>
      <trkpt lat="44.08385" lon="7.02628">
        <ele>1708.88</ele>
        <time>2015-06-14T11:55:03Z</time>
      </trkpt>
      <trkpt lat="44.0838" lon="7.02631">
        <ele>1708.4</ele>
        <time>2015-06-14T11:55:04Z</time>
      </trkpt>
      <trkpt lat="44.08374" lon="7.02633">
        <ele>1708.4</ele>
        <time>2015-06-14T11:55:05Z</time>
      </trkpt>
      <trkpt lat="44.08368" lon="7.02634">
        <ele>1708.4</ele>
        <time>2015-06-14T11:55:06Z</time>
      </trkpt>
      <trkpt lat="44.08362" lon="7.02634">
        <ele>1708.4</ele>
        <time>2015-06-14T11:55:07Z</time>
      </trkpt>
      <trkpt lat="44.08356" lon="7.02633">
        <ele>1708.4</ele>
        <time>2015-06-14T11:55:08Z</time>
      </trkpt>
      <trkpt lat="44.08349" lon="7.02632">
        <ele>1708.4</ele>
        <time>2015-06-14T11:55:09Z</time>
      </trkpt>
      <trkpt lat="44.08342" lon="7.0263">
        <ele>1708.4</ele>
        <time>2015-06-14T11:55:10Z</time>
      </trkpt>
      <trkpt lat="44.08336" lon="7.02628">
        <ele>1708.4</ele>
        <time>2015-06-14T11:55:11Z</time>
      </trkpt>
      <trkpt lat="44.08318" lon="7.02624">
        <ele>1707.92</ele>
        <time>2015-06-14T11:55:14Z</time>
      </trkpt>
      <trkpt lat="44.08311" lon="7.02623">
        <ele>1707.44</ele>
        <time>2015-06-14T11:55:15Z</time>
      </trkpt>
      <trkpt lat="44.08304" lon="7.02622">
        <ele>1706</ele>
        <time>2015-06-14T11:55:16Z</time>
      </trkpt>
      <trkpt lat="44.08298" lon="7.0262">
        <ele>1706</ele>
        <time>2015-06-14T11:55:17Z</time>
      </trkpt>
      <trkpt lat="44.08292" lon="7.02618">
        <ele>1706</ele>
        <time>2015-06-14T11:55:18Z</time>
      </trkpt>
      <trkpt lat="44.08286" lon="7.02615">
        <ele>1706</ele>
        <time>2015-06-14T11:55:19Z</time>
      </trkpt>
      <trkpt lat="44.08281" lon="7.02612">
        <ele>1705.04</ele>
        <time>2015-06-14T11:55:20Z</time>
      </trkpt>
      <trkpt lat="44.08278" lon="7.02609">
        <ele>1704.07</ele>
        <time>2015-06-14T11:55:21Z</time>
      </trkpt>
      <trkpt lat="44.08275" lon="7.02606">
        <ele>1703.59</ele>
        <time>2015-06-14T11:55:22Z</time>
      </trkpt>
      <trkpt lat="44.08272" lon="7.02603">
        <ele>1703.59</ele>
        <time>2015-06-14T11:55:23Z</time>
      </trkpt>
      <trkpt lat="44.08268" lon="7.026">
        <ele>1703.11</ele>
        <time>2015-06-14T11:55:24Z</time>
      </trkpt>
      <trkpt lat="44.08263" lon="7.02595">
        <ele>1703.11</ele>
        <time>2015-06-14T11:55:25Z</time>
      </trkpt>
      <trkpt lat="44.08257" lon="7.0259">
        <ele>1702.63</ele>
        <time>2015-06-14T11:55:26Z</time>
      </trkpt>
      <trkpt lat="44.0825" lon="7.02585">
        <ele>1702.15</ele>
        <time>2015-06-14T11:55:27Z</time>
      </trkpt>
      <trkpt lat="44.08242" lon="7.0258">
        <ele>1700.71</ele>
        <time>2015-06-14T11:55:28Z</time>
      </trkpt>
      <trkpt lat="44.08234" lon="7.02574">
        <ele>1699.75</ele>
        <time>2015-06-14T11:55:29Z</time>
      </trkpt>
      <trkpt lat="44.08227" lon="7.0257">
        <ele>1698.79</ele>
        <time>2015-06-14T11:55:30Z</time>
      </trkpt>
      <trkpt lat="44.08201" lon="7.02558">
        <ele>1696.38</ele>
        <time>2015-06-14T11:55:33Z</time>
      </trkpt>
      <trkpt lat="44.08192" lon="7.02554">
        <ele>1696.38</ele>
        <time>2015-06-14T11:55:34Z</time>
      </trkpt>
      <trkpt lat="44.08183" lon="7.02552">
        <ele>1696.38</ele>
        <time>2015-06-14T11:55:35Z</time>
      </trkpt>
      <trkpt lat="44.08174" lon="7.02549">
        <ele>1695.9</ele>
        <time>2015-06-14T11:55:36Z</time>
      </trkpt>
      <trkpt lat="44.08165" lon="7.02547">
        <ele>1694.94</ele>
        <time>2015-06-14T11:55:37Z</time>
      </trkpt>
      <trkpt lat="44.08157" lon="7.02545">
        <ele>1694.94</ele>
        <time>2015-06-14T11:55:38Z</time>
      </trkpt>
      <trkpt lat="44.08149" lon="7.02546">
        <ele>1694.94</ele>
        <time>2015-06-14T11:55:39Z</time>
      </trkpt>
      <trkpt lat="44.08141" lon="7.0255">
        <ele>1694.94</ele>
        <time>2015-06-14T11:55:40Z</time>
      </trkpt>
      <trkpt lat="44.08127" lon="7.02573">
        <ele>1692.54</ele>
        <time>2015-06-14T11:55:43Z</time>
      </trkpt>
      <trkpt lat="44.08121" lon="7.0261">
        <ele>1690.62</ele>
        <time>2015-06-14T11:55:47Z</time>
      </trkpt>
      <trkpt lat="44.08122" lon="7.02629">
        <ele>1689.65</ele>
        <time>2015-06-14T11:55:49Z</time>
      </trkpt>
      <trkpt lat="44.08127" lon="7.02652">
        <ele>1685.81</ele>
        <time>2015-06-14T11:55:52Z</time>
      </trkpt>
      <trkpt lat="44.08131" lon="7.02654">
        <ele>1685.81</ele>
        <time>2015-06-14T11:55:53Z</time>
      </trkpt>
      <trkpt lat="44.08135" lon="7.02653">
        <ele>1684.85</ele>
        <time>2015-06-14T11:55:54Z</time>
      </trkpt>
      <trkpt lat="44.08141" lon="7.02652">
        <ele>1684.37</ele>
        <time>2015-06-14T11:55:55Z</time>
      </trkpt>
      <trkpt lat="44.08147" lon="7.0265">
        <ele>1684.37</ele>
        <time>2015-06-14T11:55:56Z</time>
      </trkpt>
      <trkpt lat="44.08153" lon="7.02648">
        <ele>1684.37</ele>
        <time>2015-06-14T11:55:57Z</time>
      </trkpt>
      <trkpt lat="44.08158" lon="7.02648">
        <ele>1682.93</ele>
        <time>2015-06-14T11:55:58Z</time>
      </trkpt>
      <trkpt lat="44.08162" lon="7.02651">
        <ele>1681</ele>
        <time>2015-06-14T11:55:59Z</time>
      </trkpt>
      <trkpt lat="44.08165" lon="7.02656">
        <ele>1681</ele>
        <time>2015-06-14T11:56:00Z</time>
      </trkpt>
      <trkpt lat="44.08168" lon="7.0268">
        <ele>1677.64</ele>
        <time>2015-06-14T11:56:03Z</time>
      </trkpt>
      <trkpt lat="44.0817" lon="7.02688">
        <ele>1676.68</ele>
        <time>2015-06-14T11:56:04Z</time>
      </trkpt>
      <trkpt lat="44.08175" lon="7.02714">
        <ele>1673.31</ele>
        <time>2015-06-14T11:56:07Z</time>
      </trkpt>
      <trkpt lat="44.08181" lon="7.02734">
        <ele>1671.87</ele>
        <time>2015-06-14T11:56:09Z</time>
      </trkpt>
      <trkpt lat="44.08188" lon="7.02765">
        <ele>1668.51</ele>
        <time>2015-06-14T11:56:12Z</time>
      </trkpt>
      <trkpt lat="44.08186" lon="7.02771">
        <ele>1667.54</ele>
        <time>2015-06-14T11:56:13Z</time>
      </trkpt>
      <trkpt lat="44.08169" lon="7.02821">
        <ele>1665.62</ele>
        <time>2015-06-14T11:56:20Z</time>
      </trkpt>
      <trkpt lat="44.08175" lon="7.02826">
        <ele>1664.66</ele>
        <time>2015-06-14T11:56:22Z</time>
      </trkpt>
      <trkpt lat="44.0818" lon="7.02828">
        <ele>1664.66</ele>
        <time>2015-06-14T11:56:23Z</time>
      </trkpt>
      <trkpt lat="44.08195" lon="7.02863">
        <ele>1658.41</ele>
        <time>2015-06-14T11:56:28Z</time>
      </trkpt>
      <trkpt lat="44.08191" lon="7.029">
        <ele>1653.12</ele>
        <time>2015-06-14T11:56:32Z</time>
      </trkpt>
      <trkpt lat="44.08204" lon="7.02915">
        <ele>1647.84</ele>
        <time>2015-06-14T11:56:37Z</time>
      </trkpt>
      <trkpt lat="44.0821" lon="7.02919">
        <ele>1644.95</ele>
        <time>2015-06-14T11:56:39Z</time>
      </trkpt>
      <trkpt lat="44.0821" lon="7.02924">
        <ele>1644.95</ele>
        <time>2015-06-14T11:56:40Z</time>
      </trkpt>
      <trkpt lat="44.08204" lon="7.02938">
        <ele>1642.55</ele>
        <time>2015-06-14T11:56:42Z</time>
      </trkpt>
      <trkpt lat="44.08196" lon="7.0295">
        <ele>1640.63</ele>
        <time>2015-06-14T11:56:44Z</time>
      </trkpt>
      <trkpt lat="44.08194" lon="7.02966">
        <ele>1638.7</ele>
        <time>2015-06-14T11:56:46Z</time>
      </trkpt>
      <trkpt lat="44.08186" lon="7.02988">
        <ele>1636.78</ele>
        <time>2015-06-14T11:56:49Z</time>
      </trkpt>
      <trkpt lat="44.08179" lon="7.03015">
        <ele>1632.46</ele>
        <time>2015-06-14T11:56:52Z</time>
      </trkpt>
      <trkpt lat="44.08163" lon="7.03042">
        <ele>1625.73</ele>
        <time>2015-06-14T11:56:57Z</time>
      </trkpt>
      <trkpt lat="44.0814" lon="7.03055">
        <ele>1622.36</ele>
        <time>2015-06-14T11:57:01Z</time>
      </trkpt>
      <trkpt lat="44.08132" lon="7.03061">
        <ele>1619</ele>
        <time>2015-06-14T11:57:03Z</time>
      </trkpt>
      <trkpt lat="44.08114" lon="7.03075">
        <ele>1615.15</ele>
        <time>2015-06-14T11:57:06Z</time>
      </trkpt>
      <trkpt lat="44.08107" lon="7.03081">
        <ele>1613.23</ele>
        <time>2015-06-14T11:57:07Z</time>
      </trkpt>
      <trkpt lat="44.08089" lon="7.03089">
        <ele>1607.46</ele>
        <time>2015-06-14T11:57:10Z</time>
      </trkpt>
      <trkpt lat="44.08086" lon="7.03091">
        <ele>1606.02</ele>
        <time>2015-06-14T11:57:11Z</time>
      </trkpt>
      <trkpt lat="44.08085" lon="7.03094">
        <ele>1604.58</ele>
        <time>2015-06-14T11:57:13Z</time>
      </trkpt>
      <trkpt lat="44.081" lon="7.03103">
        <ele>1603.62</ele>
        <time>2015-06-14T11:57:16Z</time>
      </trkpt>
      <trkpt lat="44.08113" lon="7.03113">
        <ele>1600.73</ele>
        <time>2015-06-14T11:57:18Z</time>
      </trkpt>
      <trkpt lat="44.08136" lon="7.03127">
        <ele>1594.96</ele>
        <time>2015-06-14T11:57:22Z</time>
      </trkpt>
      <trkpt lat="44.0812" lon="7.0314">
        <ele>1590.16</ele>
        <time>2015-06-14T11:57:26Z</time>
      </trkpt>
      <trkpt lat="44.0811" lon="7.0315">
        <ele>1586.79</ele>
        <time>2015-06-14T11:57:29Z</time>
      </trkpt>
      <trkpt lat="44.08107" lon="7.03154">
        <ele>1584.87</ele>
        <time>2015-06-14T11:57:30Z</time>
      </trkpt>
      <trkpt lat="44.08092" lon="7.03157">
        <ele>1581.03</ele>
        <time>2015-06-14T11:57:33Z</time>
      </trkpt>
      <trkpt lat="44.08068" lon="7.03165">
        <ele>1579.1</ele>
        <time>2015-06-14T11:57:37Z</time>
      </trkpt>
      <trkpt lat="44.08055" lon="7.0317">
        <ele>1576.7</ele>
        <time>2015-06-14T11:57:39Z</time>
      </trkpt>
      <trkpt lat="44.08034" lon="7.03196">
        <ele>1574.3</ele>
        <time>2015-06-14T11:57:44Z</time>
      </trkpt>
      <trkpt lat="44.08028" lon="7.03213">
        <ele>1570.45</ele>
        <time>2015-06-14T11:57:47Z</time>
      </trkpt>
      <trkpt lat="44.08028" lon="7.03232">
        <ele>1567.09</ele>
        <time>2015-06-14T11:57:50Z</time>
      </trkpt>
      <trkpt lat="44.08023" lon="7.03242">
        <ele>1565.16</ele>
        <time>2015-06-14T11:57:53Z</time>
      </trkpt>
      <trkpt lat="44.08039" lon="7.03243">
        <ele>1561.32</ele>
        <time>2015-06-14T11:57:57Z</time>
      </trkpt>
      <trkpt lat="44.0803" lon="7.03258">
        <ele>1559.4</ele>
        <time>2015-06-14T11:58:00Z</time>
      </trkpt>
      <trkpt lat="44.08014" lon="7.03279">
        <ele>1556.03</ele>
        <time>2015-06-14T11:58:04Z</time>
      </trkpt>
      <trkpt lat="44.08008" lon="7.03288">
        <ele>1553.15</ele>
        <time>2015-06-14T11:58:06Z</time>
      </trkpt>
      <trkpt lat="44.07991" lon="7.03302">
        <ele>1553.15</ele>
        <time>2015-06-14T11:58:12Z</time>
      </trkpt>
      <trkpt lat="44.07991" lon="7.03325">
        <ele>1548.34</ele>
        <time>2015-06-14T11:58:16Z</time>
      </trkpt>
      <trkpt lat="44.07987" lon="7.03333">
        <ele>1546.9</ele>
        <time>2015-06-14T11:58:18Z</time>
      </trkpt>
      <trkpt lat="44.07981" lon="7.03342">
        <ele>1545.94</ele>
        <time>2015-06-14T11:58:20Z</time>
      </trkpt>
      <trkpt lat="44.07975" lon="7.03369">
        <ele>1542.09</ele>
        <time>2015-06-14T11:58:25Z</time>
      </trkpt>
      <trkpt lat="44.07971" lon="7.0339">
        <ele>1538.73</ele>
        <time>2015-06-14T11:58:30Z</time>
      </trkpt>
      <trkpt lat="44.07977" lon="7.03387">
        <ele>1537.29</ele>
        <time>2015-06-14T11:58:33Z</time>
      </trkpt>
      <trkpt lat="44.07988" lon="7.03375">
        <ele>1536.32</ele>
        <time>2015-06-14T11:58:36Z</time>
      </trkpt>
      <trkpt lat="44.08011" lon="7.03363">
        <ele>1532.96</ele>
        <time>2015-06-14T11:58:42Z</time>
      </trkpt>
      <trkpt lat="44.08022" lon="7.03356">
        <ele>1532</ele>
        <time>2015-06-14T11:58:44Z</time>
      </trkpt>
      <trkpt lat="44.08032" lon="7.03351">
        <ele>1530.08</ele>
        <time>2015-06-14T11:58:46Z</time>
      </trkpt>
      <trkpt lat="44.08052" lon="7.03342">
        <ele>1526.23</ele>
        <time>2015-06-14T11:58:50Z</time>
      </trkpt>
      <trkpt lat="44.08057" lon="7.03341">
        <ele>1526.23</ele>
        <time>2015-06-14T11:58:51Z</time>
      </trkpt>
      <trkpt lat="44.08075" lon="7.03353">
        <ele>1521.42</ele>
        <time>2015-06-14T11:58:56Z</time>
      </trkpt>
      <trkpt lat="44.08074" lon="7.03374">
        <ele>1517.1</ele>
        <time>2015-06-14T11:58:59Z</time>
      </trkpt>
      <trkpt lat="44.08068" lon="7.03386">
        <ele>1513.73</ele>
        <time>2015-06-14T11:59:02Z</time>
      </trkpt>
      <trkpt lat="44.0806" lon="7.03392">
        <ele>1512.29</ele>
        <time>2015-06-14T11:59:04Z</time>
      </trkpt>
      <trkpt lat="44.08047" lon="7.03412">
        <ele>1508.45</ele>
        <time>2015-06-14T11:59:08Z</time>
      </trkpt>
      <trkpt lat="44.08035" lon="7.03428">
        <ele>1507.97</ele>
        <time>2015-06-14T11:59:11Z</time>
      </trkpt>
      <trkpt lat="44.08041" lon="7.03452">
        <ele>1504.12</ele>
        <time>2015-06-14T11:59:17Z</time>
      </trkpt>
      <trkpt lat="44.08047" lon="7.03451">
        <ele>1503.64</ele>
        <time>2015-06-14T11:59:18Z</time>
      </trkpt>
      <trkpt lat="44.08062" lon="7.03471">
        <ele>1499.31</ele>
        <time>2015-06-14T11:59:24Z</time>
      </trkpt>
      <trkpt lat="44.08067" lon="7.03485">
        <ele>1498.83</ele>
        <time>2015-06-14T11:59:26Z</time>
      </trkpt>
      <trkpt lat="44.08065" lon="7.03505">
        <ele>1494.99</ele>
        <time>2015-06-14T11:59:29Z</time>
      </trkpt>
      <trkpt lat="44.0807" lon="7.03509">
        <ele>1493.55</ele>
        <time>2015-06-14T11:59:30Z</time>
      </trkpt>
      <trkpt lat="44.08074" lon="7.03512">
        <ele>1492.58</ele>
        <time>2015-06-14T11:59:31Z</time>
      </trkpt>
      <trkpt lat="44.08076" lon="7.03518">
        <ele>1492.1</ele>
        <time>2015-06-14T11:59:32Z</time>
      </trkpt>
      <trkpt lat="44.08076" lon="7.03525">
        <ele>1491.14</ele>
        <time>2015-06-14T11:59:33Z</time>
      </trkpt>
      <trkpt lat="44.08077" lon="7.03533">
        <ele>1490.66</ele>
        <time>2015-06-14T11:59:34Z</time>
      </trkpt>
      <trkpt lat="44.08085" lon="7.0357">
        <ele>1489.22</ele>
        <time>2015-06-14T11:59:38Z</time>
      </trkpt>
      <trkpt lat="44.08091" lon="7.0359">
        <ele>1487.3</ele>
        <time>2015-06-14T11:59:40Z</time>
      </trkpt>
      <trkpt lat="44.081" lon="7.03623">
        <ele>1483.93</ele>
        <time>2015-06-14T11:59:43Z</time>
      </trkpt>
      <trkpt lat="44.08102" lon="7.03659">
        <ele>1481.53</ele>
        <time>2015-06-14T11:59:46Z</time>
      </trkpt>
      <trkpt lat="44.08105" lon="7.0371">
        <ele>1477.2</ele>
        <time>2015-06-14T11:59:50Z</time>
      </trkpt>
      <trkpt lat="44.08109" lon="7.03732">
        <ele>1473.84</ele>
        <time>2015-06-14T11:59:52Z</time>
      </trkpt>
      <trkpt lat="44.0811" lon="7.03744">
        <ele>1473.84</ele>
        <time>2015-06-14T11:59:53Z</time>
      </trkpt>
      <trkpt lat="44.0811" lon="7.03779">
        <ele>1471.92</ele>
        <time>2015-06-14T11:59:56Z</time>
      </trkpt>
      <trkpt lat="44.08114" lon="7.03805">
        <ele>1470.95</ele>
        <time>2015-06-14T11:59:58Z</time>
      </trkpt>
      <trkpt lat="44.08117" lon="7.03817">
        <ele>1469.99</ele>
        <time>2015-06-14T11:59:59Z</time>
      </trkpt>
      <trkpt lat="44.08123" lon="7.03846">
        <ele>1469.03</ele>
        <time>2015-06-14T12:00:01Z</time>
      </trkpt>
      <trkpt lat="44.08125" lon="7.03858">
        <ele>1469.03</ele>
        <time>2015-06-14T12:00:02Z</time>
      </trkpt>
      <trkpt lat="44.08124" lon="7.03868">
        <ele>1467.59</ele>
        <time>2015-06-14T12:00:03Z</time>
      </trkpt>
      <trkpt lat="44.08121" lon="7.03874">
        <ele>1466.63</ele>
        <time>2015-06-14T12:00:04Z</time>
      </trkpt>
      <trkpt lat="44.08116" lon="7.03877">
        <ele>1465.67</ele>
        <time>2015-06-14T12:00:05Z</time>
      </trkpt>
      <trkpt lat="44.0811" lon="7.03876">
        <ele>1465.67</ele>
        <time>2015-06-14T12:00:06Z</time>
      </trkpt>
      <trkpt lat="44.08105" lon="7.03874">
        <ele>1467.11</ele>
        <time>2015-06-14T12:00:07Z</time>
      </trkpt>
      <trkpt lat="44.08099" lon="7.03873">
        <ele>1466.63</ele>
        <time>2015-06-14T12:00:08Z</time>
      </trkpt>
      <trkpt lat="44.0808" lon="7.03873">
        <ele>1467.11</ele>
        <time>2015-06-14T12:00:11Z</time>
      </trkpt>
      <trkpt lat="44.08057" lon="7.0387">
        <ele>1468.07</ele>
        <time>2015-06-14T12:00:15Z</time>
      </trkpt>
      <trkpt lat="44.08036" lon="7.03884">
        <ele>1469.51</ele>
        <time>2015-06-14T12:00:20Z</time>
      </trkpt>
      <trkpt lat="44.08035" lon="7.03907">
        <ele>1470.95</ele>
        <time>2015-06-14T12:00:24Z</time>
      </trkpt>
      <trkpt lat="44.08039" lon="7.03914">
        <ele>1470.95</ele>
        <time>2015-06-14T12:00:25Z</time>
      </trkpt>
      <trkpt lat="44.08042" lon="7.03921">
        <ele>1470.95</ele>
        <time>2015-06-14T12:00:26Z</time>
      </trkpt>
      <trkpt lat="44.08045" lon="7.0393">
        <ele>1470.95</ele>
        <time>2015-06-14T12:00:27Z</time>
      </trkpt>
      <trkpt lat="44.08046" lon="7.0394">
        <ele>1470.95</ele>
        <time>2015-06-14T12:00:28Z</time>
      </trkpt>
      <trkpt lat="44.08046" lon="7.03957">
        <ele>1469.03</ele>
        <time>2015-06-14T12:00:30Z</time>
      </trkpt>
      <trkpt lat="44.08069" lon="7.04005">
        <ele>1468.55</ele>
        <time>2015-06-14T12:00:36Z</time>
      </trkpt>
      <trkpt lat="44.08083" lon="7.04023">
        <ele>1468.55</ele>
        <time>2015-06-14T12:00:39Z</time>
      </trkpt>
      <trkpt lat="44.08096" lon="7.0402">
        <ele>1466.15</ele>
        <time>2015-06-14T12:00:43Z</time>
      </trkpt>
      <trkpt lat="44.08096" lon="7.04004">
        <ele>1464.71</ele>
        <time>2015-06-14T12:00:45Z</time>
      </trkpt>
      <trkpt lat="44.08093" lon="7.03999">
        <ele>1462.78</ele>
        <time>2015-06-14T12:00:47Z</time>
      </trkpt>
      <trkpt lat="44.08092" lon="7.03999">
        <ele>1462.3</ele>
        <time>2015-06-14T12:00:49Z</time>
      </trkpt>
      <trkpt lat="44.08086" lon="7.03989">
        <ele>1461.82</ele>
        <time>2015-06-14T12:01:03Z</time>
      </trkpt>
      <trkpt lat="44.08085" lon="7.03982">
        <ele>1461.82</ele>
        <time>2015-06-14T12:01:15Z</time>
      </trkpt>
      <trkpt lat="44.08086" lon="7.0398">
        <ele>1461.82</ele>
        <time>2015-06-14T12:01:31Z</time>
      </trkpt>
      <trkpt lat="44.08086" lon="7.03981">
        <ele>1461.34</ele>
        <time>2015-06-14T12:01:58Z</time>
      </trkpt>
      <trkpt lat="44.08085" lon="7.03982">
        <ele>1461.34</ele>
        <time>2015-06-14T12:02:20Z</time>
      </trkpt>
      <trkpt lat="44.08086" lon="7.03981">
        <ele>1461.34</ele>
        <time>2015-06-14T12:02:32Z</time>
      </trkpt>
      <trkpt lat="44.08086" lon="7.03981">
        <ele>1460.86</ele>
        <time>2015-06-14T12:02:49Z</time>
      </trkpt>
      <trkpt lat="44.08086" lon="7.03983">
        <ele>1460.86</ele>
        <time>2015-06-14T12:03:14Z</time>
      </trkpt>
      <trkpt lat="44.08086" lon="7.03984">
        <ele>1460.86</ele>
        <time>2015-06-14T12:03:30Z</time>
      </trkpt>
      <trkpt lat="44.08087" lon="7.03982">
        <ele>1460.86</ele>
        <time>2015-06-14T12:03:53Z</time>
      </trkpt>
      <trkpt lat="44.08086" lon="7.03977">
        <ele>1460.86</ele>
        <time>2015-06-14T12:04:05Z</time>
      </trkpt>
      <trkpt lat="44.08085" lon="7.03975">
        <ele>1460.86</ele>
        <time>2015-06-14T12:04:06Z</time>
      </trkpt>
      <trkpt lat="44.08082" lon="7.03952">
        <ele>1460.38</ele>
        <time>2015-06-14T12:04:23Z</time>
      </trkpt>
      <trkpt lat="44.08077" lon="7.03932">
        <ele>1460.38</ele>
        <time>2015-06-14T12:04:40Z</time>
      </trkpt>
      <trkpt lat="44.08075" lon="7.03928">
        <ele>1460.38</ele>
        <time>2015-06-14T12:04:53Z</time>
      </trkpt>
      <trkpt lat="44.08077" lon="7.03929">
        <ele>1460.38</ele>
        <time>2015-06-14T12:05:03Z</time>
      </trkpt>
      <trkpt lat="44.08076" lon="7.03926">
        <ele>1457.98</ele>
        <time>2015-06-14T12:05:28Z</time>
      </trkpt>
      <trkpt lat="44.08078" lon="7.03927">
        <ele>1460.38</ele>
        <time>2015-06-14T12:05:42Z</time>
      </trkpt>
      <trkpt lat="44.08077" lon="7.03927">
        <ele>1460.38</ele>
        <time>2015-06-14T12:05:59Z</time>
      </trkpt>
      <trkpt lat="44.08074" lon="7.03928">
        <ele>1460.38</ele>
        <time>2015-06-14T12:06:29Z</time>
      </trkpt>
      <trkpt lat="44.08076" lon="7.03929">
        <ele>1460.38</ele>
        <time>2015-06-14T12:06:56Z</time>
      </trkpt>
      <trkpt lat="44.08076" lon="7.03923">
        <ele>1459.9</ele>
        <time>2015-06-14T12:07:15Z</time>
      </trkpt>
      <trkpt lat="44.08076" lon="7.03922">
        <ele>1459.9</ele>
        <time>2015-06-14T12:07:36Z</time>
      </trkpt>
      <trkpt lat="44.08074" lon="7.03919">
        <ele>1459.9</ele>
        <time>2015-06-14T12:07:55Z</time>
      </trkpt>
      <trkpt lat="44.08074" lon="7.03924">
        <ele>1459.9</ele>
        <time>2015-06-14T12:08:09Z</time>
      </trkpt>
      <trkpt lat="44.08077" lon="7.03924">
        <ele>1459.9</ele>
        <time>2015-06-14T12:08:34Z</time>
      </trkpt>
      <trkpt lat="44.08075" lon="7.03923">
        <ele>1459.9</ele>
        <time>2015-06-14T12:08:56Z</time>
      </trkpt>
      <trkpt lat="44.08072" lon="7.03927">
        <ele>1460.38</ele>
        <time>2015-06-14T12:09:33Z</time>
      </trkpt>
      <trkpt lat="44.08073" lon="7.03923">
        <ele>1460.38</ele>
        <time>2015-06-14T12:09:52Z</time>
      </trkpt>
      <trkpt lat="44.08073" lon="7.03922">
        <ele>1460.38</ele>
        <time>2015-06-14T12:10:14Z</time>
      </trkpt>
      <trkpt lat="44.08075" lon="7.03921">
        <ele>1457.5</ele>
        <time>2015-06-14T12:10:30Z</time>
      </trkpt>
      <trkpt lat="44.08075" lon="7.03921">
        <ele>1460.38</ele>
        <time>2015-06-14T12:10:33Z</time>
      </trkpt>
      <trkpt lat="44.08074" lon="7.03922">
        <ele>1460.38</ele>
        <time>2015-06-14T12:10:56Z</time>
      </trkpt>
      <trkpt lat="44.08075" lon="7.03919">
        <ele>1460.86</ele>
        <time>2015-06-14T12:11:15Z</time>
      </trkpt>
      <trkpt lat="44.08074" lon="7.03917">
        <ele>1460.38</ele>
        <time>2015-06-14T12:11:41Z</time>
      </trkpt>
      <trkpt lat="44.08074" lon="7.03918">
        <ele>1460.38</ele>
        <time>2015-06-14T12:12:00Z</time>
      </trkpt>
      <trkpt lat="44.08073" lon="7.03916">
        <ele>1460.38</ele>
        <time>2015-06-14T12:12:32Z</time>
      </trkpt>
      <trkpt lat="44.08073" lon="7.03916">
        <ele>1460.38</ele>
        <time>2015-06-14T12:13:02Z</time>
      </trkpt>
      <trkpt lat="44.08073" lon="7.03915">
        <ele>1460.38</ele>
        <time>2015-06-14T12:13:21Z</time>
      </trkpt>
      <trkpt lat="44.08072" lon="7.03912">
        <ele>1460.38</ele>
        <time>2015-06-14T12:13:34Z</time>
      </trkpt>
      <trkpt lat="44.08073" lon="7.03913">
        <ele>1460.38</ele>
        <time>2015-06-14T12:14:09Z</time>
      </trkpt>
      <trkpt lat="44.08072" lon="7.03914">
        <ele>1460.38</ele>
        <time>2015-06-14T12:14:29Z</time>
      </trkpt>
      <trkpt lat="44.08073" lon="7.03915">
        <ele>1460.38</ele>
        <time>2015-06-14T12:14:56Z</time>
      </trkpt>
      <trkpt lat="44.08074" lon="7.03913">
        <ele>1458.94</ele>
        <time>2015-06-14T12:15:19Z</time>
      </trkpt>
      <trkpt lat="44.08074" lon="7.03912">
        <ele>1458.94</ele>
        <time>2015-06-14T12:15:29Z</time>
      </trkpt>
      <trkpt lat="44.08074" lon="7.03913">
        <ele>1458.94</ele>
        <time>2015-06-14T12:15:41Z</time>
      </trkpt>
      <trkpt lat="44.08074" lon="7.03914">
        <ele>1458.94</ele>
        <time>2015-06-14T12:15:55Z</time>
      </trkpt>
      <trkpt lat="44.08075" lon="7.03912">
        <ele>1459.42</ele>
        <time>2015-06-14T12:16:10Z</time>
      </trkpt>
      <trkpt lat="44.08076" lon="7.03913">
        <ele>1459.9</ele>
        <time>2015-06-14T12:16:23Z</time>
      </trkpt>
      <trkpt lat="44.08076" lon="7.03911">
        <ele>1458.94</ele>
        <time>2015-06-14T12:16:33Z</time>
      </trkpt>
      <trkpt lat="44.08075" lon="7.0391">
        <ele>1458.94</ele>
        <time>2015-06-14T12:16:47Z</time>
      </trkpt>
      <trkpt lat="44.08076" lon="7.0391">
        <ele>1458.94</ele>
        <time>2015-06-14T12:16:59Z</time>
      </trkpt>
      <trkpt lat="44.08077" lon="7.03911">
        <ele>1458.46</ele>
        <time>2015-06-14T12:17:13Z</time>
      </trkpt>
      <trkpt lat="44.08076" lon="7.03913">
        <ele>1458.46</ele>
        <time>2015-06-14T12:17:26Z</time>
      </trkpt>
      <trkpt lat="44.08073" lon="7.03913">
        <ele>1458.46</ele>
        <time>2015-06-14T12:17:39Z</time>
      </trkpt>
      <trkpt lat="44.08075" lon="7.0391">
        <ele>1459.9</ele>
        <time>2015-06-14T12:17:48Z</time>
      </trkpt>
      <trkpt lat="44.08076" lon="7.0391">
        <ele>1458.46</ele>
        <time>2015-06-14T12:17:51Z</time>
      </trkpt>
      <trkpt lat="44.08078" lon="7.03911">
        <ele>1459.42</ele>
        <time>2015-06-14T12:18:05Z</time>
      </trkpt>
      <trkpt lat="44.08078" lon="7.0391">
        <ele>1459.42</ele>
        <time>2015-06-14T12:18:23Z</time>
      </trkpt>
      <trkpt lat="44.08076" lon="7.03913">
        <ele>1459.42</ele>
        <time>2015-06-14T12:18:39Z</time>
      </trkpt>
      <trkpt lat="44.08078" lon="7.03916">
        <ele>1459.42</ele>
        <time>2015-06-14T12:18:45Z</time>
      </trkpt>
      <trkpt lat="44.08091" lon="7.03929">
        <ele>1457.98</ele>
        <time>2015-06-14T12:18:51Z</time>
      </trkpt>
      <trkpt lat="44.08107" lon="7.03944">
        <ele>1455.57</ele>
        <time>2015-06-14T12:18:56Z</time>
      </trkpt>
      <trkpt lat="44.08111" lon="7.03945">
        <ele>1455.57</ele>
        <time>2015-06-14T12:18:57Z</time>
      </trkpt>
      <trkpt lat="44.08115" lon="7.03945">
        <ele>1455.09</ele>
        <time>2015-06-14T12:18:58Z</time>
      </trkpt>
      <trkpt lat="44.0812" lon="7.03946">
        <ele>1454.13</ele>
        <time>2015-06-14T12:18:59Z</time>
      </trkpt>
      <trkpt lat="44.08125" lon="7.03948">
        <ele>1454.13</ele>
        <time>2015-06-14T12:19:00Z</time>
      </trkpt>
      <trkpt lat="44.08129" lon="7.03948">
        <ele>1453.17</ele>
        <time>2015-06-14T12:19:01Z</time>
      </trkpt>
      <trkpt lat="44.08134" lon="7.03947">
        <ele>1452.21</ele>
        <time>2015-06-14T12:19:02Z</time>
      </trkpt>
      <trkpt lat="44.08139" lon="7.03946">
        <ele>1452.21</ele>
        <time>2015-06-14T12:19:03Z</time>
      </trkpt>
      <trkpt lat="44.0815" lon="7.03946">
        <ele>1449.81</ele>
        <time>2015-06-14T12:19:07Z</time>
      </trkpt>
      <trkpt lat="44.08152" lon="7.03945">
        <ele>1449.32</ele>
        <time>2015-06-14T12:19:17Z</time>
      </trkpt>
      <trkpt lat="44.08151" lon="7.03947">
        <ele>1449.32</ele>
        <time>2015-06-14T12:19:29Z</time>
      </trkpt>
      <trkpt lat="44.0815" lon="7.03948">
        <ele>1448.36</ele>
        <time>2015-06-14T12:19:37Z</time>
      </trkpt>
      <trkpt lat="44.0815" lon="7.03949">
        <ele>1447.4</ele>
        <time>2015-06-14T12:19:51Z</time>
      </trkpt>
      <trkpt lat="44.08151" lon="7.03948">
        <ele>1449.32</ele>
        <time>2015-06-14T12:20:13Z</time>
      </trkpt>
      <trkpt lat="44.08148" lon="7.03948">
        <ele>1448.36</ele>
        <time>2015-06-14T12:20:51Z</time>
      </trkpt>
      <trkpt lat="44.08147" lon="7.03948">
        <ele>1448.36</ele>
        <time>2015-06-14T12:21:30Z</time>
      </trkpt>
      <trkpt lat="44.08147" lon="7.0395">
        <ele>1448.84</ele>
        <time>2015-06-14T12:22:06Z</time>
      </trkpt>
      <trkpt lat="44.08149" lon="7.03951">
        <ele>1448.84</ele>
        <time>2015-06-14T12:22:36Z</time>
      </trkpt>
      <trkpt lat="44.0815" lon="7.03954">
        <ele>1448.84</ele>
        <time>2015-06-14T12:23:18Z</time>
      </trkpt>
      <trkpt lat="44.0815" lon="7.03954">
        <ele>1448.84</ele>
        <time>2015-06-14T12:24:03Z</time>
      </trkpt>
      <trkpt lat="44.0815" lon="7.03953">
        <ele>1448.84</ele>
        <time>2015-06-14T12:24:32Z</time>
      </trkpt>
      <trkpt lat="44.08152" lon="7.03951">
        <ele>1448.36</ele>
        <time>2015-06-14T12:25:07Z</time>
      </trkpt>
      <trkpt lat="44.08149" lon="7.03949">
        <ele>1447.88</ele>
        <time>2015-06-14T12:25:44Z</time>
      </trkpt>
      <trkpt lat="44.08147" lon="7.03949">
        <ele>1447.88</ele>
        <time>2015-06-14T12:26:24Z</time>
      </trkpt>
      <trkpt lat="44.08149" lon="7.03949">
        <ele>1448.36</ele>
        <time>2015-06-14T12:26:52Z</time>
      </trkpt>
      <trkpt lat="44.0815" lon="7.03949">
        <ele>1448.36</ele>
        <time>2015-06-14T12:27:24Z</time>
      </trkpt>
      <trkpt lat="44.08149" lon="7.0395">
        <ele>1448.36</ele>
        <time>2015-06-14T12:27:57Z</time>
      </trkpt>
      <trkpt lat="44.08148" lon="7.03951">
        <ele>1448.36</ele>
        <time>2015-06-14T12:28:29Z</time>
      </trkpt>
      <trkpt lat="44.08147" lon="7.03951">
        <ele>1448.36</ele>
        <time>2015-06-14T12:29:06Z</time>
      </trkpt>
      <trkpt lat="44.08149" lon="7.03951">
        <ele>1448.84</ele>
        <time>2015-06-14T12:29:33Z</time>
      </trkpt>
      <trkpt lat="44.08149" lon="7.0395">
        <ele>1448.84</ele>
        <time>2015-06-14T12:30:04Z</time>
      </trkpt>
      <trkpt lat="44.08147" lon="7.0395">
        <ele>1448.84</ele>
        <time>2015-06-14T12:30:44Z</time>
      </trkpt>
      <trkpt lat="44.0815" lon="7.03954">
        <ele>1448.84</ele>
        <time>2015-06-14T12:31:26Z</time>
      </trkpt>
      <trkpt lat="44.0815" lon="7.03953">
        <ele>1448.84</ele>
        <time>2015-06-14T12:31:56Z</time>
      </trkpt>
      <trkpt lat="44.08149" lon="7.03951">
        <ele>1448.84</ele>
        <time>2015-06-14T12:32:29Z</time>
      </trkpt>
      <trkpt lat="44.08148" lon="7.03949">
        <ele>1448.84</ele>
        <time>2015-06-14T12:33:04Z</time>
      </trkpt>
      <trkpt lat="44.0815" lon="7.03949">
        <ele>1448.84</ele>
        <time>2015-06-14T12:33:34Z</time>
      </trkpt>
      <trkpt lat="44.08149" lon="7.0395">
        <ele>1448.84</ele>
        <time>2015-06-14T12:34:17Z</time>
      </trkpt>
      <trkpt lat="44.08148" lon="7.0395">
        <ele>1448.36</ele>
        <time>2015-06-14T12:34:50Z</time>
      </trkpt>
      <trkpt lat="44.0815" lon="7.03946">
        <ele>1448.36</ele>
        <time>2015-06-14T12:35:21Z</time>
      </trkpt>
      <trkpt lat="44.08149" lon="7.03948">
        <ele>1448.36</ele>
        <time>2015-06-14T12:35:55Z</time>
      </trkpt>
      <trkpt lat="44.08151" lon="7.03947">
        <ele>1448.36</ele>
        <time>2015-06-14T12:36:30Z</time>
      </trkpt>
      <trkpt lat="44.08151" lon="7.03951">
        <ele>1448.36</ele>
        <time>2015-06-14T12:37:01Z</time>
      </trkpt>
      <trkpt lat="44.0815" lon="7.03946">
        <ele>1448.36</ele>
        <time>2015-06-14T12:37:34Z</time>
      </trkpt>
      <trkpt lat="44.08148" lon="7.03945">
        <ele>1448.36</ele>
        <time>2015-06-14T12:38:03Z</time>
      </trkpt>
      <trkpt lat="44.08148" lon="7.03947">
        <ele>1449.81</ele>
        <time>2015-06-14T12:38:19Z</time>
      </trkpt>
      <trkpt lat="44.0815" lon="7.03948">
        <ele>1446.92</ele>
        <time>2015-06-14T12:38:29Z</time>
      </trkpt>
      <trkpt lat="44.08149" lon="7.03949">
        <ele>1449.32</ele>
        <time>2015-06-14T12:38:58Z</time>
      </trkpt>
      <trkpt lat="44.0815" lon="7.03948">
        <ele>1449.32</ele>
        <time>2015-06-14T12:39:32Z</time>
      </trkpt>
      <trkpt lat="44.08153" lon="7.03947">
        <ele>1449.32</ele>
        <time>2015-06-14T12:39:58Z</time>
      </trkpt>
      <trkpt lat="44.08154" lon="7.03947">
        <ele>1449.32</ele>
        <time>2015-06-14T12:40:29Z</time>
      </trkpt>
      <trkpt lat="44.08154" lon="7.03949">
        <ele>1449.32</ele>
        <time>2015-06-14T12:40:58Z</time>
      </trkpt>
      <trkpt lat="44.08158" lon="7.03948">
        <ele>1449.32</ele>
        <time>2015-06-14T12:41:31Z</time>
      </trkpt>
      <trkpt lat="44.08155" lon="7.03947">
        <ele>1449.81</ele>
        <time>2015-06-14T12:42:08Z</time>
      </trkpt>
      <trkpt lat="44.08152" lon="7.0395">
        <ele>1450.77</ele>
        <time>2015-06-14T12:42:41Z</time>
      </trkpt>
      <trkpt lat="44.08155" lon="7.03948">
        <ele>1450.77</ele>
        <time>2015-06-14T12:43:08Z</time>
      </trkpt>
      <trkpt lat="44.08153" lon="7.03951">
        <ele>1450.29</ele>
        <time>2015-06-14T12:43:40Z</time>
      </trkpt>
      <trkpt lat="44.0815" lon="7.0395">
        <ele>1450.29</ele>
        <time>2015-06-14T12:44:13Z</time>
      </trkpt>
      <trkpt lat="44.08152" lon="7.03949">
        <ele>1449.81</ele>
        <time>2015-06-14T12:44:43Z</time>
      </trkpt>
      <trkpt lat="44.08151" lon="7.0395">
        <ele>1449.81</ele>
        <time>2015-06-14T12:45:25Z</time>
      </trkpt>
      <trkpt lat="44.08153" lon="7.03952">
        <ele>1449.32</ele>
        <time>2015-06-14T12:46:03Z</time>
      </trkpt>
      <trkpt lat="44.08152" lon="7.03951">
        <ele>1449.32</ele>
        <time>2015-06-14T12:46:41Z</time>
      </trkpt>
      <trkpt lat="44.0815" lon="7.03951">
        <ele>1449.32</ele>
        <time>2015-06-14T12:47:13Z</time>
      </trkpt>
      <trkpt lat="44.08154" lon="7.03947">
        <ele>1448.84</ele>
        <time>2015-06-14T12:47:42Z</time>
      </trkpt>
      <trkpt lat="44.08154" lon="7.03949">
        <ele>1448.84</ele>
        <time>2015-06-14T12:48:22Z</time>
      </trkpt>
      <trkpt lat="44.08155" lon="7.03945">
        <ele>1448.84</ele>
        <time>2015-06-14T12:48:56Z</time>
      </trkpt>
      <trkpt lat="44.08156" lon="7.03945">
        <ele>1448.36</ele>
        <time>2015-06-14T12:49:39Z</time>
      </trkpt>
      <trkpt lat="44.08158" lon="7.03944">
        <ele>1448.36</ele>
        <time>2015-06-14T12:50:18Z</time>
      </trkpt>
      <trkpt lat="44.08159" lon="7.03943">
        <ele>1447.88</ele>
        <time>2015-06-14T12:50:51Z</time>
      </trkpt>
      <trkpt lat="44.08155" lon="7.03944">
        <ele>1447.88</ele>
        <time>2015-06-14T12:51:29Z</time>
      </trkpt>
      <trkpt lat="44.08156" lon="7.03943">
        <ele>1447.88</ele>
        <time>2015-06-14T12:52:02Z</time>
      </trkpt>
      <trkpt lat="44.08153" lon="7.03945">
        <ele>1447.88</ele>
        <time>2015-06-14T12:52:40Z</time>
      </trkpt>
      <trkpt lat="44.08157" lon="7.03946">
        <ele>1447.4</ele>
        <time>2015-06-14T12:53:17Z</time>
      </trkpt>
      <trkpt lat="44.08152" lon="7.03948">
        <ele>1447.88</ele>
        <time>2015-06-14T12:53:57Z</time>
      </trkpt>
      <trkpt lat="44.08154" lon="7.03946">
        <ele>1447.88</ele>
        <time>2015-06-14T12:54:39Z</time>
      </trkpt>
      <trkpt lat="44.08156" lon="7.03946">
        <ele>1447.88</ele>
        <time>2015-06-14T12:55:17Z</time>
      </trkpt>
      <trkpt lat="44.0816" lon="7.03945">
        <ele>1446.92</ele>
        <time>2015-06-14T12:55:59Z</time>
      </trkpt>
      <trkpt lat="44.08157" lon="7.03945">
        <ele>1446.92</ele>
        <time>2015-06-14T12:56:43Z</time>
      </trkpt>
      <trkpt lat="44.08156" lon="7.03945">
        <ele>1446.92</ele>
        <time>2015-06-14T12:57:21Z</time>
      </trkpt>
      <trkpt lat="44.08157" lon="7.03946">
        <ele>1446.92</ele>
        <time>2015-06-14T12:58:02Z</time>
      </trkpt>
      <trkpt lat="44.08158" lon="7.03947">
        <ele>1446.92</ele>
        <time>2015-06-14T12:58:36Z</time>
      </trkpt>
      <trkpt lat="44.08158" lon="7.03944">
        <ele>1446.92</ele>
        <time>2015-06-14T12:59:10Z</time>
      </trkpt>
      <trkpt lat="44.08159" lon="7.03945">
        <ele>1446.92</ele>
        <time>2015-06-14T12:59:49Z</time>
      </trkpt>
      <trkpt lat="44.08155" lon="7.03945">
        <ele>1446.92</ele>
        <time>2015-06-14T13:00:29Z</time>
      </trkpt>
      <trkpt lat="44.08155" lon="7.03944">
        <ele>1446.92</ele>
        <time>2015-06-14T13:01:01Z</time>
      </trkpt>
      <trkpt lat="44.08155" lon="7.03942">
        <ele>1446.44</ele>
        <time>2015-06-14T13:01:26Z</time>
      </trkpt>
      <trkpt lat="44.08155" lon="7.03941">
        <ele>1446.44</ele>
        <time>2015-06-14T13:02:04Z</time>
      </trkpt>
      <trkpt lat="44.08155" lon="7.03939">
        <ele>1446.44</ele>
        <time>2015-06-14T13:02:43Z</time>
      </trkpt>
      <trkpt lat="44.08154" lon="7.03937">
        <ele>1445.96</ele>
        <time>2015-06-14T13:03:15Z</time>
      </trkpt>
      <trkpt lat="44.08155" lon="7.03938">
        <ele>1445.96</ele>
        <time>2015-06-14T13:03:44Z</time>
      </trkpt>
      <trkpt lat="44.08153" lon="7.03939">
        <ele>1445.96</ele>
        <time>2015-06-14T13:04:14Z</time>
      </trkpt>
      <trkpt lat="44.08155" lon="7.03937">
        <ele>1445.48</ele>
        <time>2015-06-14T13:04:54Z</time>
      </trkpt>
      <trkpt lat="44.08157" lon="7.03939">
        <ele>1445</ele>
        <time>2015-06-14T13:05:31Z</time>
      </trkpt>
      <trkpt lat="44.08154" lon="7.03942">
        <ele>1445</ele>
        <time>2015-06-14T13:06:09Z</time>
      </trkpt>
      <trkpt lat="44.0815" lon="7.0394">
        <ele>1445</ele>
        <time>2015-06-14T13:06:54Z</time>
      </trkpt>
      <trkpt lat="44.08151" lon="7.03943">
        <ele>1444.52</ele>
        <time>2015-06-14T13:07:43Z</time>
      </trkpt>
      <trkpt lat="44.08152" lon="7.03943">
        <ele>1444.52</ele>
        <time>2015-06-14T13:08:21Z</time>
      </trkpt>
      <trkpt lat="44.08153" lon="7.03942">
        <ele>1444.52</ele>
        <time>2015-06-14T13:08:50Z</time>
      </trkpt>
      <trkpt lat="44.08154" lon="7.03941">
        <ele>1444.52</ele>
        <time>2015-06-14T13:09:27Z</time>
      </trkpt>
      <trkpt lat="44.08155" lon="7.03942">
        <ele>1444.04</ele>
        <time>2015-06-14T13:10:14Z</time>
      </trkpt>
      <trkpt lat="44.08155" lon="7.03946">
        <ele>1444.04</ele>
        <time>2015-06-14T13:11:02Z</time>
      </trkpt>
      <trkpt lat="44.08156" lon="7.03949">
        <ele>1443.56</ele>
        <time>2015-06-14T13:11:45Z</time>
      </trkpt>
      <trkpt lat="44.08159" lon="7.03945">
        <ele>1443.56</ele>
        <time>2015-06-14T13:12:21Z</time>
      </trkpt>
      <trkpt lat="44.08157" lon="7.03945">
        <ele>1443.56</ele>
        <time>2015-06-14T13:12:55Z</time>
      </trkpt>
      <trkpt lat="44.08155" lon="7.03945">
        <ele>1443.08</ele>
        <time>2015-06-14T13:13:28Z</time>
      </trkpt>
      <trkpt lat="44.08151" lon="7.03942">
        <ele>1443.08</ele>
        <time>2015-06-14T13:14:01Z</time>
      </trkpt>
      <trkpt lat="44.08154" lon="7.03938">
        <ele>1443.08</ele>
        <time>2015-06-14T13:14:41Z</time>
      </trkpt>
      <trkpt lat="44.08153" lon="7.03942">
        <ele>1443.08</ele>
        <time>2015-06-14T13:15:20Z</time>
      </trkpt>
      <trkpt lat="44.08152" lon="7.0394">
        <ele>1443.08</ele>
        <time>2015-06-14T13:15:57Z</time>
      </trkpt>
      <trkpt lat="44.08153" lon="7.03945">
        <ele>1443.08</ele>
        <time>2015-06-14T13:16:31Z</time>
      </trkpt>
      <trkpt lat="44.08154" lon="7.03944">
        <ele>1443.08</ele>
        <time>2015-06-14T13:16:59Z</time>
      </trkpt>
      <trkpt lat="44.08155" lon="7.03944">
        <ele>1443.08</ele>
        <time>2015-06-14T13:17:28Z</time>
      </trkpt>
      <trkpt lat="44.08158" lon="7.0394">
        <ele>1443.08</ele>
        <time>2015-06-14T13:17:54Z</time>
      </trkpt>
      <trkpt lat="44.08159" lon="7.0394">
        <ele>1443.08</ele>
        <time>2015-06-14T13:18:19Z</time>
      </trkpt>
      <trkpt lat="44.08161" lon="7.03942">
        <ele>1443.56</ele>
        <time>2015-06-14T13:18:45Z</time>
      </trkpt>
      <trkpt lat="44.0816" lon="7.03941">
        <ele>1443.56</ele>
        <time>2015-06-14T13:19:16Z</time>
      </trkpt>
      <trkpt lat="44.08157" lon="7.03941">
        <ele>1443.56</ele>
        <time>2015-06-14T13:19:44Z</time>
      </trkpt>
      <trkpt lat="44.08157" lon="7.0394">
        <ele>1443.56</ele>
        <time>2015-06-14T13:20:09Z</time>
      </trkpt>
      <trkpt lat="44.08157" lon="7.0394">
        <ele>1445</ele>
        <time>2015-06-14T13:20:35Z</time>
      </trkpt>
      <trkpt lat="44.08154" lon="7.03943">
        <ele>1443.56</ele>
        <time>2015-06-14T13:21:09Z</time>
      </trkpt>
      <trkpt lat="44.08154" lon="7.03943">
        <ele>1443.56</ele>
        <time>2015-06-14T13:21:10Z</time>
      </trkpt>
      <trkpt lat="44.08154" lon="7.03945">
        <ele>1443.56</ele>
        <time>2015-06-14T13:21:38Z</time>
      </trkpt>
      <trkpt lat="44.08155" lon="7.03945">
        <ele>1443.08</ele>
        <time>2015-06-14T13:22:00Z</time>
      </trkpt>
      <trkpt lat="44.08156" lon="7.03944">
        <ele>1443.08</ele>
        <time>2015-06-14T13:22:11Z</time>
      </trkpt>
      <trkpt lat="44.08161" lon="7.03944">
        <ele>1443.08</ele>
        <time>2015-06-14T13:22:19Z</time>
      </trkpt>
      <trkpt lat="44.08191" lon="7.03971">
        <ele>1441.15</ele>
        <time>2015-06-14T13:22:29Z</time>
      </trkpt>
      <trkpt lat="44.08216" lon="7.03996">
        <ele>1439.23</ele>
        <time>2015-06-14T13:22:38Z</time>
      </trkpt>
      <trkpt lat="44.08244" lon="7.04027">
        <ele>1435.87</ele>
        <time>2015-06-14T13:22:45Z</time>
      </trkpt>
      <trkpt lat="44.08262" lon="7.04063">
        <ele>1433.46</ele>
        <time>2015-06-14T13:22:50Z</time>
      </trkpt>
      <trkpt lat="44.08264" lon="7.04071">
        <ele>1432.5</ele>
        <time>2015-06-14T13:22:51Z</time>
      </trkpt>
      <trkpt lat="44.08266" lon="7.04079">
        <ele>1432.5</ele>
        <time>2015-06-14T13:22:52Z</time>
      </trkpt>
      <trkpt lat="44.08267" lon="7.04088">
        <ele>1432.02</ele>
        <time>2015-06-14T13:22:53Z</time>
      </trkpt>
      <trkpt lat="44.08268" lon="7.04097">
        <ele>1431.54</ele>
        <time>2015-06-14T13:22:54Z</time>
      </trkpt>
      <trkpt lat="44.0827" lon="7.04123">
        <ele>1429.14</ele>
        <time>2015-06-14T13:22:57Z</time>
      </trkpt>
      <trkpt lat="44.08272" lon="7.04131">
        <ele>1428.18</ele>
        <time>2015-06-14T13:22:58Z</time>
      </trkpt>
      <trkpt lat="44.08274" lon="7.04138">
        <ele>1428.18</ele>
        <time>2015-06-14T13:22:59Z</time>
      </trkpt>
      <trkpt lat="44.08278" lon="7.04145">
        <ele>1428.18</ele>
        <time>2015-06-14T13:23:00Z</time>
      </trkpt>
      <trkpt lat="44.08281" lon="7.04151">
        <ele>1427.7</ele>
        <time>2015-06-14T13:23:01Z</time>
      </trkpt>
      <trkpt lat="44.08289" lon="7.04165">
        <ele>1427.7</ele>
        <time>2015-06-14T13:23:03Z</time>
      </trkpt>
      <trkpt lat="44.08298" lon="7.04179">
        <ele>1426.73</ele>
        <time>2015-06-14T13:23:05Z</time>
      </trkpt>
      <trkpt lat="44.08302" lon="7.04185">
        <ele>1425.77</ele>
        <time>2015-06-14T13:23:06Z</time>
      </trkpt>
      <trkpt lat="44.08306" lon="7.042">
        <ele>1424.81</ele>
        <time>2015-06-14T13:23:08Z</time>
      </trkpt>
      <trkpt lat="44.08307" lon="7.04207">
        <ele>1424.81</ele>
        <time>2015-06-14T13:23:09Z</time>
      </trkpt>
      <trkpt lat="44.08309" lon="7.04212">
        <ele>1423.85</ele>
        <time>2015-06-14T13:23:10Z</time>
      </trkpt>
      <trkpt lat="44.08313" lon="7.04216">
        <ele>1423.85</ele>
        <time>2015-06-14T13:23:11Z</time>
      </trkpt>
      <trkpt lat="44.08317" lon="7.04218">
        <ele>1423.85</ele>
        <time>2015-06-14T13:23:12Z</time>
      </trkpt>
      <trkpt lat="44.08323" lon="7.04218">
        <ele>1423.85</ele>
        <time>2015-06-14T13:23:13Z</time>
      </trkpt>
      <trkpt lat="44.08329" lon="7.04217">
        <ele>1425.29</ele>
        <time>2015-06-14T13:23:14Z</time>
      </trkpt>
      <trkpt lat="44.08336" lon="7.04219">
        <ele>1425.77</ele>
        <time>2015-06-14T13:23:15Z</time>
      </trkpt>
      <trkpt lat="44.08342" lon="7.04221">
        <ele>1426.25</ele>
        <time>2015-06-14T13:23:16Z</time>
      </trkpt>
      <trkpt lat="44.08349" lon="7.04225">
        <ele>1426.25</ele>
        <time>2015-06-14T13:23:17Z</time>
      </trkpt>
      <trkpt lat="44.08383" lon="7.04241">
        <ele>1428.66</ele>
        <time>2015-06-14T13:23:21Z</time>
      </trkpt>
      <trkpt lat="44.08435" lon="7.04245">
        <ele>1429.14</ele>
        <time>2015-06-14T13:23:28Z</time>
      </trkpt>
      <trkpt lat="44.08441" lon="7.04246">
        <ele>1429.14</ele>
        <time>2015-06-14T13:23:29Z</time>
      </trkpt>
      <trkpt lat="44.08449" lon="7.04248">
        <ele>1427.7</ele>
        <time>2015-06-14T13:23:32Z</time>
      </trkpt>
      <trkpt lat="44.08449" lon="7.04249">
        <ele>1426.73</ele>
        <time>2015-06-14T13:23:47Z</time>
      </trkpt>
      <trkpt lat="44.08448" lon="7.04249">
        <ele>1428.66</ele>
        <time>2015-06-14T13:23:51Z</time>
      </trkpt>
      <trkpt lat="44.08448" lon="7.0425">
        <ele>1426.73</ele>
        <time>2015-06-14T13:23:53Z</time>
      </trkpt>
      <trkpt lat="44.08446" lon="7.0425">
        <ele>1428.66</ele>
        <time>2015-06-14T13:23:56Z</time>
      </trkpt>
      <trkpt lat="44.08446" lon="7.0425">
        <ele>1426.25</ele>
        <time>2015-06-14T13:23:58Z</time>
      </trkpt>
    </trkseg>
  </trk>
</gpx>